GEFSMA_prec_meanprecacc_006.txt.gz
Total_Precipitation_Accumulation
0.00 0.00 0.00 0.00 0.00 0.00 0.00 0.00 0.00 0.00 0.00 0.00 0.00 0.00 0.00 0.00 0.00 0.00 0.00 0.00 0.00 0.00 0.00 0.01 0.01 0.01 0.02 0.03 0.04 0.05 0.05 0.04 0.03 0.03 0.03 0.03 0.02 0.02 0.02 0.02 0.02 0.02 0.02
0.00 0.00 0.00 0.00 0.00 0.00 0.00 0.00 0.00 0.00 0.00 0.00 0.00 0.00 0.00 0.00 0.00 0.00 0.00 0.00 0.00 0.00 0.00 0.00 0.01 0.02 0.04 0.05 0.05 0.05 0.05 0.05 0.05 0.05 0.05 0.05 0.06 0.06 0.06 0.06 0.05 0.04 0.03
0.00 0.00 0.00 0.00 0.00 0.00 0.00 0.00 0.00 0.00 0.00 0.00 0.00 0.00 0.00 0.00 0.00 0.00 0.00 0.00 0.00 0.00 0.00 0.00 0.01 0.02 0.02 0.02 0.03 0.03 0.04 0.04 0.05 0.06 0.07 0.07 0.08 0.08 0.09 0.10 0.10 0.10 0.08
0.00 0.00 0.00 0.00 0.00 0.00 0.00 0.00 0.00 0.00 0.00 0.00 0.00 0.00 0.00 0.00 0.00 0.00 0.00 0.00 0.00 0.00 0.00 0.00 0.01 0.01 0.00 0.01 0.01 0.02 0.03 0.04 0.05 0.05 0.05 0.05 0.06 0.07 0.09 0.10 0.11 0.12 0.13
0.00 0.00 0.00 0.00 0.00 0.00 0.00 0.00 0.00 0.00 0.00 0.00 0.00 0.00 0.00 0.00 0.00 0.00 0.00 0.00 0.00 0.00 0.00 0.00 0.00 0.00 0.00 0.00 0.00 0.01 0.01 0.03 0.04 0.03 0.02 0.03 0.04 0.05 0.07 0.08 0.10 0.12 0.14
0.00 0.00 0.00 0.00 0.00 0.00 0.00 0.00 0.00 0.00 0.00 0.00 0.00 0.00 0.00 0.00 0.00 0.00 0.00 0.00 0.00 0.00 0.00 0.00 0.00 0.00 0.00 0.00 0.00 0.00 0.01 0.01 0.01 0.01 0.01 0.01 0.02 0.03 0.04 0.06 0.08 0.10 0.13
0.00 0.00 0.00 0.00 0.00 0.00 0.00 0.00 0.00 0.00 0.00 0.00 0.00 0.00 0.00 0.00 0.00 0.00 0.00 0.00 0.00 0.00 0.00 0.00 0.00 0.00 0.00 0.00 0.00 0.00 0.00 0.00 0.00 0.00 0.00 0.01 0.01 0.01 0.02 0.05 0.07 0.09 0.13
0.00 0.00 0.00 0.00 0.00 0.00 0.00 0.00 0.00 0.00 0.00 0.00 0.00 0.00 0.00 0.00 0.00 0.00 0.00 0.00 0.00 0.00 0.00 0.00 0.00 0.00 0.00 0.00 0.00 0.00 0.00 0.00 0.00 0.00 0.00 0.00 0.01 0.01 0.03 0.04 0.06 0.08 0.11
0.00 0.00 0.00 0.00 0.00 0.00 0.00 0.00 0.00 0.00 0.00 0.00 0.00 0.00 0.00 0.00 0.00 0.00 0.00 0.00 0.00 0.00 0.00 0.00 0.00 0.00 0.00 0.00 0.00 0.00 0.00 0.00 0.00 0.00 0.00 0.00 0.01 0.01 0.03 0.04 0.05 0.08 0.09
0.00 0.00 0.00 0.00 0.00 0.00 0.00 0.00 0.00 0.00 0.00 0.00 0.00 0.00 0.00 0.00 0.00 0.00 0.00 0.00 0.00 0.00 0.00 0.00 0.00 0.00 0.00 0.00 0.00 0.00 0.00 0.00 0.00 0.00 0.00 0.00 0.01 0.02 0.03 0.04 0.05 0.05 0.03
0.00 0.00 0.00 0.00 0.00 0.00 0.00 0.00 0.00 0.00 0.00 0.00 0.00 0.00 0.00 0.00 0.00 0.00 0.00 0.00 0.00 0.00 0.00 0.00 0.00 0.00 0.00 0.00 0.00 0.00 0.00 0.00 0.00 0.00 0.00 0.00 0.00 0.01 0.02 0.03 0.02 0.01 0.01
0.00 0.00 0.00 0.00 0.00 0.00 0.00 0.00 0.00 0.00 0.00 0.00 0.00 0.00 0.00 0.00 0.00 0.00 0.00 0.00 0.00 0.00 0.00 0.00 0.00 0.00 0.00 0.00 0.00 0.00 0.00 0.00 0.00 0.00 0.00 0.00 0.00 0.01 0.01 0.01 0.01 0.01 0.01
0.00 0.00 0.00 0.00 0.00 0.00 0.00 0.00 0.00 0.00 0.00 0.00 0.00 0.00 0.00 0.00 0.00 0.00 0.00 0.00 0.00 0.00 0.00 0.00 0.00 0.00 0.00 0.00 0.00 0.00 0.00 0.00 0.00 0.00 0.00 0.00 0.00 0.00 0.00 0.00 0.01 0.01 0.01
0.00 0.00 0.00 0.00 0.00 0.00 0.00 0.00 0.00 0.00 0.00 0.00 0.00 0.00 0.00 0.00 0.00 0.00 0.00 0.00 0.00 0.00 0.00 0.00 0.00 0.00 0.00 0.00 0.00 0.00 0.00 0.00 0.00 0.00 0.00 0.00 0.00 0.00 0.00 0.00 0.01 0.01 0.01
0.00 0.00 0.00 0.00 0.00 0.00 0.00 0.00 0.00 0.00 0.00 0.00 0.00 0.00 0.00 0.00 0.00 0.00 0.00 0.00 0.00 0.00 0.00 0.00 0.00 0.00 0.00 0.00 0.00 0.00 0.00 0.00 0.00 0.00 0.00 0.00 0.00 0.00 0.01 0.01 0.01 0.02 0.02
0.00 0.00 0.00 0.00 0.00 0.00 0.00 0.00 0.00 0.00 0.00 0.00 0.00 0.00 0.00 0.00 0.00 0.00 0.00 0.00 0.00 0.00 0.00 0.00 0.00 0.00 0.00 0.00 0.00 0.00 0.00 0.00 0.00 0.00 0.00 0.01 0.01 0.01 0.01 0.02 0.02 0.01 0.01
0.00 0.00 0.00 0.00 0.00 0.00 0.00 0.00 0.00 0.00 0.00 0.00 0.00 0.00 0.00 0.00 0.00 0.00 0.00 0.00 0.00 0.00 0.00 0.00 0.00 0.00 0.00 0.00 0.00 0.00 0.00 0.00 0.00 0.00 0.00 0.01 0.01 0.01 0.01 0.01 0.01 0.01 0.02
0.00 0.00 0.00 0.00 0.00 0.00 0.00 0.00 0.00 0.00 0.00 0.00 0.00 0.00 0.00 0.00 0.00 0.00 0.00 0.00 0.00 0.00 0.00 0.00 0.00 0.00 0.00 0.00 0.00 0.00 0.00 0.00 0.00 0.00 0.00 0.00 0.01 0.00 0.01 0.01 0.02 0.03 0.03
0.00 0.00 0.00 0.00 0.00 0.00 0.00 0.00 0.00 0.00 0.00 0.00 0.00 0.00 0.00 0.00 0.00 0.00 0.00 0.00 0.00 0.00 0.00 0.00 0.00 0.00 0.00 0.00 0.00 0.00 0.00 0.00 0.00 0.00 0.00 0.00 0.00 0.01 0.02 0.03 0.03 0.03 0.03
0.00 0.00 0.00 0.00 0.00 0.00 0.00 0.00 0.00 0.00 0.00 0.00 0.00 0.00 0.00 0.00 0.00 0.00 0.00 0.00 0.00 0.00 0.00 0.01 0.02 0.02 0.02 0.00 0.00 0.00 0.00 0.00 0.00 0.00 0.00 0.00 0.01 0.02 0.01 0.01 0.01 0.01 0.01
0.00 0.00 0.00 0.00 0.00 0.00 0.00 0.00 0.00 0.00 0.00 0.00 0.00 0.00 0.00 0.00 0.00 0.00 0.00 0.00 0.00 0.01 0.03 0.06 0.07 0.04 0.01 0.00 0.00 0.00 0.00 0.00 0.00 0.00 0.01 0.00 0.00 0.00 0.00 0.00 0.00 0.02 0.04
0.00 0.00 0.00 0.00 0.00 0.00 0.00 0.00 0.00 0.00 0.00 0.00 0.00 0.00 0.00 0.00 0.00 0.00 0.01 0.01 0.02 0.05 0.08 0.10 0.05 0.01 0.00 0.00 0.01 0.01 0.02 0.03 0.02 0.00 0.01 0.00 0.00 0.00 0.00 0.01 0.01 0.03 0.04
0.00 0.00 0.00 0.00 0.00 0.00 0.00 0.00 0.00 0.00 0.00 0.00 0.00 0.00 0.00 0.00 0.00 0.00 0.00 0.02 0.03 0.06 0.07 0.04 0.01 0.00 0.01 0.01 0.04 0.05 0.03 0.03 0.02 0.00 0.01 0.01 0.00 0.01 0.01 0.00 0.01 0.01 0.01
0.00 0.00 0.00 0.00 0.00 0.00 0.00 0.00 0.00 0.00 0.00 0.00 0.00 0.00 0.00 0.00 0.00 0.01 0.01 0.02 0.03 0.03 0.01 0.00 0.01 0.01 0.02 0.02 0.02 0.02 0.02 0.02 0.01 0.00 0.01 0.01 0.00 0.00 0.00 0.00 0.00 0.00 0.01
0.00 0.00 0.00 0.00 0.00 0.00 0.00 0.00 0.00 0.00 0.00 0.00 0.00 0.00 0.00 0.01 0.01 0.03 0.05 0.08 0.04 0.00 0.00 0.01 0.02 0.01 0.01 0.01 0.01 0.04 0.06 0.06 0.03 0.00 0.00 0.00 0.00 0.00 0.00 0.00 0.00 0.00 0.02
0.00 0.00 0.00 0.00 0.00 0.00 0.00 0.00 0.00 0.00 0.00 0.00 0.00 0.00 0.01 0.01 0.02 0.06 0.07 0.05 0.01 0.00 0.01 0.00 0.00 0.00 0.00 0.00 0.01 0.04 0.09 0.11 0.07 0.03 0.00 0.01 0.02 0.02 0.03 0.00 0.00 0.00 0.01

GEFSMA_prec_meanprecacc_012.txt.gz
Total_Precipitation_Accumulation
0.00 0.00 0.00 0.00 0.00 0.00 0.00 0.00 0.00 0.00 0.00 0.00 0.00 0.00 0.00 0.00 0.00 0.00 0.00 0.00 0.00 0.00 0.00 0.01 0.01 0.01 0.02 0.04 0.05 0.06 0.07 0.06 0.05 0.05 0.05 0.05 0.05 0.05 0.07 0.08 0.09 0.09 0.10
0.00 0.00 0.00 0.00 0.00 0.00 0.00 0.00 0.00 0.00 0.00 0.00 0.00 0.00 0.00 0.00 0.00 0.00 0.00 0.00 0.00 0.00 0.00 0.00 0.01 0.02 0.04 0.05 0.05 0.05 0.05 0.05 0.05 0.05 0.06 0.06 0.06 0.07 0.08 0.09 0.10 0.11 0.12
0.00 0.00 0.00 0.00 0.00 0.00 0.00 0.00 0.00 0.00 0.00 0.00 0.00 0.00 0.00 0.00 0.00 0.00 0.00 0.00 0.00 0.00 0.00 0.00 0.01 0.02 0.02 0.02 0.03 0.03 0.04 0.04 0.05 0.06 0.07 0.07 0.08 0.08 0.09 0.10 0.11 0.12 0.13
0.00 0.00 0.00 0.00 0.00 0.00 0.00 0.00 0.00 0.00 0.00 0.00 0.00 0.00 0.00 0.00 0.00 0.00 0.00 0.00 0.00 0.00 0.00 0.00 0.01 0.01 0.00 0.01 0.01 0.02 0.03 0.04 0.05 0.05 0.05 0.05 0.06 0.07 0.09 0.10 0.11 0.12 0.14
0.00 0.00 0.00 0.00 0.00 0.00 0.00 0.00 0.00 0.00 0.00 0.00 0.00 0.00 0.00 0.00 0.00 0.00 0.00 0.00 0.00 0.00 0.00 0.00 0.00 0.00 0.00 0.00 0.00 0.01 0.01 0.03 0.04 0.03 0.02 0.03 0.04 0.05 0.07 0.08 0.10 0.12 0.14
0.00 0.00 0.00 0.00 0.00 0.00 0.00 0.00 0.00 0.00 0.00 0.00 0.00 0.00 0.00 0.00 0.00 0.00 0.00 0.00 0.00 0.00 0.00 0.00 0.00 0.00 0.00 0.00 0.00 0.00 0.01 0.01 0.01 0.01 0.01 0.01 0.02 0.03 0.04 0.06 0.08 0.10 0.13
0.00 0.00 0.00 0.00 0.00 0.00 0.00 0.00 0.00 0.00 0.00 0.00 0.00 0.00 0.00 0.00 0.00 0.00 0.00 0.00 0.00 0.00 0.00 0.00 0.00 0.00 0.00 0.00 0.00 0.00 0.00 0.00 0.00 0.00 0.00 0.01 0.01 0.01 0.02 0.05 0.07 0.09 0.13
0.00 0.00 0.00 0.00 0.00 0.00 0.00 0.00 0.00 0.00 0.00 0.00 0.00 0.00 0.00 0.00 0.00 0.00 0.00 0.00 0.00 0.00 0.00 0.00 0.00 0.00 0.00 0.00 0.00 0.00 0.00 0.00 0.00 0.00 0.00 0.00 0.01 0.01 0.03 0.04 0.06 0.09 0.11
0.00 0.00 0.00 0.00 0.00 0.00 0.00 0.00 0.00 0.00 0.00 0.00 0.00 0.00 0.00 0.00 0.00 0.00 0.00 0.00 0.00 0.00 0.00 0.00 0.00 0.00 0.00 0.00 0.00 0.00 0.00 0.00 0.00 0.00 0.00 0.00 0.01 0.02 0.03 0.04 0.06 0.08 0.10
0.00 0.00 0.00 0.00 0.00 0.00 0.00 0.00 0.00 0.00 0.00 0.00 0.00 0.00 0.00 0.00 0.00 0.00 0.00 0.00 0.00 0.00 0.00 0.00 0.00 0.00 0.00 0.00 0.00 0.00 0.00 0.00 0.00 0.00 0.00 0.00 0.01 0.02 0.03 0.05 0.06 0.06 0.04
0.00 0.00 0.00 0.00 0.00 0.00 0.00 0.00 0.00 0.00 0.00 0.00 0.00 0.00 0.00 0.00 0.00 0.00 0.00 0.00 0.00 0.00 0.00 0.00 0.00 0.00 0.00 0.00 0.00 0.00 0.00 0.00 0.00 0.00 0.00 0.00 0.01 0.02 0.03 0.04 0.04 0.03 0.02
0.00 0.00 0.00 0.00 0.00 0.00 0.00 0.00 0.00 0.00 0.00 0.00 0.00 0.00 0.00 0.00 0.00 0.00 0.00 0.00 0.00 0.00 0.00 0.00 0.00 0.00 0.00 0.00 0.00 0.00 0.00 0.00 0.00 0.00 0.00 0.00 0.01 0.02 0.02 0.02 0.02 0.02 0.02
0.00 0.00 0.00 0.00 0.00 0.00 0.00 0.00 0.00 0.00 0.00 0.00 0.00 0.00 0.00 0.00 0.00 0.00 0.00 0.00 0.00 0.00 0.00 0.00 0.00 0.00 0.00 0.00 0.00 0.00 0.00 0.00 0.00 0.00 0.00 0.01 0.01 0.01 0.01 0.01 0.02 0.02 0.02
0.00 0.00 0.00 0.00 0.00 0.00 0.00 0.00 0.00 0.00 0.00 0.00 0.00 0.00 0.00 0.00 0.00 0.00 0.00 0.00 0.00 0.00 0.00 0.00 0.00 0.00 0.00 0.00 0.00 0.00 0.00 0.00 0.00 0.00 0.00 0.01 0.01 0.01 0.01 0.01 0.02 0.02 0.03
0.00 0.00 0.00 0.00 0.00 0.00 0.00 0.00 0.00 0.00 0.00 0.00 0.00 0.00 0.00 0.00 0.00 0.00 0.00 0.00 0.00 0.00 0.00 0.00 0.00 0.00 0.00 0.00 0.00 0.00 0.00 0.00 0.00 0.00 0.01 0.01 0.01 0.01 0.01 0.02 0.03 0.04 0.05
0.00 0.00 0.00 0.00 0.00 0.00 0.00 0.00 0.00 0.00 0.00 0.00 0.00 0.00 0.00 0.00 0.00 0.00 0.00 0.00 0.00 0.00 0.00 0.00 0.00 0.00 0.00 0.00 0.00 0.00 0.00 0.00 0.00 0.01 0.01 0.01 0.01 0.02 0.02 0.03 0.04 0.04 0.05
0.00 0.00 0.00 0.00 0.00 0.00 0.00 0.00 0.00 0.00 0.00 0.00 0.00 0.00 0.00 0.00 0.00 0.00 0.00 0.00 0.00 0.00 0.00 0.00 0.00 0.00 0.00 0.00 0.00 0.00 0.00 0.00 0.00 0.00 0.01 0.01 0.02 0.02 0.03 0.03 0.03 0.04 0.04
0.00 0.00 0.00 0.00 0.00 0.00 0.00 0.00 0.00 0.00 0.00 0.00 0.00 0.00 0.00 0.00 0.00 0.00 0.00 0.00 0.00 0.00 0.00 0.00 0.00 0.00 0.00 0.00 0.00 0.00 0.00 0.00 0.00 0.00 0.00 0.01 0.02 0.02 0.02 0.03 0.05 0.06 0.08
0.00 0.00 0.00 0.00 0.00 0.00 0.00 0.00 0.00 0.00 0.00 0.00 0.00 0.00 0.00 0.00 0.00 0.00 0.00 0.00 0.00 0.00 0.00 0.01 0.00 0.00 0.00 0.00 0.00 0.00 0.00 0.00 0.00 0.00 0.00 0.00 0.01 0.03 0.04 0.06 0.06 0.06 0.06
0.00 0.00 0.00 0.00 0.00 0.00 0.00 0.00 0.00 0.00 0.00 0.00 0.00 0.00 0.00 0.00 0.00 0.00 0.00 0.00 0.00 0.00 0.00 0.01 0.03 0.03 0.03 0.01 0.01 0.00 0.00 0.00 0.00 0.00 0.00 0.01 0.02 0.02 0.02 0.02 0.02 0.02 0.03
0.00 0.00 0.00 0.00 0.00 0.00 0.00 0.00 0.00 0.00 0.00 0.00 0.00 0.00 0.00 0.00 0.00 0.00 0.01 0.01 0.01 0.01 0.04 0.09 0.10 0.07 0.02 0.01 0.00 0.00 0.01 0.01 0.00 0.00 0.01 0.00 0.00 0.00 0.00 0.00 0.01 0.02 0.04
0.00 0.00 0.00 0.00 0.00 0.00 0.00 0.00 0.00 0.00 0.00 0.00 0.00 0.00 0.00 0.00 0.00 0.00 0.01 0.02 0.04 0.09 0.14 0.17 0.11 0.03 0.00 0.00 0.01 0.02 0.04 0.05 0.03 0.00 0.01 0.00 0.00 0.00 0.00 0.01 0.01 0.03 0.05
0.00 0.00 0.00 0.00 0.00 0.00 0.00 0.00 0.00 0.00 0.00 0.00 0.00 0.00 0.00 0.00 0.00 0.00 0.00 0.03 0.06 0.10 0.12 0.08 0.02 0.00 0.01 0.02 0.05 0.07 0.05 0.05 0.03 0.00 0.01 0.02 0.00 0.01 0.01 0.00 0.01 0.01 0.02
0.00 0.00 0.00 0.00 0.00 0.00 0.00 0.00 0.00 0.00 0.00 0.00 0.00 0.00 0.00 0.00 0.00 0.02 0.04 0.08 0.06 0.05 0.02 0.00 0.01 0.01 0.02 0.02 0.03 0.05 0.05 0.04 0.02 0.00 0.01 0.02 0.00 0.00 0.00 0.00 0.00 0.00 0.01
0.00 0.00 0.00 0.00 0.00 0.00 0.00 0.00 0.00 0.00 0.00 0.00 0.00 0.00 0.01 0.01 0.02 0.06 0.09 0.12 0.05 0.00 0.00 0.01 0.02 0.02 0.01 0.01 0.01 0.09 0.12 0.09 0.05 0.01 0.00 0.00 0.00 0.00 0.00 0.00 0.00 0.00 0.02
0.00 0.00 0.00 0.00 0.00 0.00 0.00 0.00 0.00 0.00 0.00 0.00 0.00 0.00 0.01 0.02 0.05 0.09 0.09 0.05 0.01 0.00 0.01 0.01 0.00 0.00 0.00 0.00 0.01 0.07 0.16 0.21 0.12 0.05 0.00 0.02 0.03 0.04 0.07 0.01 0.00 0.00 0.01

GEFSMA_prec_meanprecacc_018.txt.gz
Total_Precipitation_Accumulation
0.00 0.00 0.00 0.00 0.00 0.00 0.00 0.00 0.00 0.00 0.00 0.00 0.00 0.00 0.00 0.00 0.00 0.00 0.00 0.00 0.00 0.00 0.00 0.01 0.01 0.01 0.02 0.04 0.05 0.06 0.07 0.06 0.05 0.05 0.05 0.05 0.05 0.05 0.07 0.08 0.09 0.09 0.10
0.00 0.00 0.00 0.00 0.00 0.00 0.00 0.00 0.00 0.00 0.00 0.00 0.00 0.00 0.00 0.00 0.00 0.00 0.00 0.00 0.00 0.00 0.00 0.00 0.01 0.02 0.04 0.05 0.05 0.05 0.05 0.05 0.05 0.05 0.06 0.06 0.06 0.07 0.08 0.09 0.10 0.11 0.12
0.00 0.00 0.00 0.00 0.00 0.00 0.00 0.00 0.00 0.00 0.00 0.00 0.00 0.00 0.00 0.00 0.00 0.00 0.00 0.00 0.00 0.00 0.00 0.00 0.01 0.02 0.02 0.02 0.03 0.03 0.04 0.04 0.05 0.06 0.07 0.07 0.08 0.08 0.09 0.10 0.11 0.12 0.13
0.00 0.00 0.00 0.00 0.00 0.00 0.00 0.00 0.00 0.00 0.00 0.00 0.00 0.00 0.00 0.00 0.00 0.00 0.00 0.00 0.00 0.00 0.00 0.00 0.01 0.01 0.00 0.01 0.01 0.02 0.03 0.04 0.05 0.05 0.05 0.05 0.06 0.07 0.09 0.10 0.11 0.12 0.14
0.00 0.00 0.00 0.00 0.00 0.00 0.00 0.00 0.00 0.00 0.00 0.00 0.00 0.00 0.00 0.00 0.00 0.00 0.00 0.00 0.00 0.00 0.00 0.00 0.00 0.00 0.00 0.00 0.00 0.01 0.01 0.03 0.04 0.03 0.02 0.03 0.04 0.05 0.07 0.08 0.10 0.12 0.14
0.00 0.00 0.00 0.00 0.00 0.00 0.00 0.00 0.00 0.00 0.00 0.00 0.00 0.00 0.00 0.00 0.00 0.00 0.00 0.00 0.00 0.00 0.00 0.00 0.00 0.00 0.00 0.00 0.00 0.00 0.01 0.01 0.01 0.01 0.01 0.01 0.02 0.03 0.04 0.06 0.08 0.10 0.13
0.00 0.00 0.00 0.00 0.00 0.00 0.00 0.00 0.00 0.00 0.00 0.00 0.00 0.00 0.00 0.00 0.00 0.00 0.00 0.00 0.00 0.00 0.00 0.00 0.00 0.00 0.00 0.00 0.00 0.00 0.00 0.00 0.00 0.00 0.00 0.01 0.01 0.01 0.02 0.05 0.07 0.10 0.13
0.00 0.00 0.00 0.00 0.00 0.00 0.00 0.00 0.00 0.00 0.00 0.00 0.00 0.00 0.00 0.00 0.00 0.00 0.00 0.00 0.00 0.00 0.00 0.00 0.00 0.00 0.00 0.00 0.00 0.00 0.00 0.00 0.00 0.00 0.00 0.00 0.01 0.01 0.03 0.04 0.07 0.09 0.12
0.00 0.00 0.00 0.00 0.00 0.00 0.00 0.00 0.00 0.00 0.00 0.00 0.00 0.00 0.00 0.00 0.00 0.00 0.00 0.00 0.00 0.00 0.00 0.00 0.00 0.00 0.00 0.00 0.00 0.00 0.00 0.00 0.00 0.00 0.00 0.00 0.01 0.02 0.03 0.05 0.07 0.09 0.10
0.00 0.00 0.00 0.00 0.00 0.00 0.00 0.00 0.00 0.00 0.00 0.00 0.00 0.00 0.00 0.00 0.00 0.00 0.00 0.00 0.00 0.00 0.00 0.00 0.00 0.00 0.00 0.00 0.00 0.00 0.00 0.00 0.00 0.00 0.00 0.00 0.01 0.03 0.05 0.06 0.07 0.08 0.06
0.00 0.00 0.00 0.00 0.00 0.00 0.00 0.00 0.00 0.00 0.00 0.00 0.00 0.00 0.00 0.00 0.00 0.00 0.00 0.00 0.00 0.00 0.00 0.00 0.00 0.00 0.00 0.00 0.00 0.00 0.00 0.00 0.00 0.00 0.00 0.01 0.02 0.03 0.05 0.07 0.07 0.06 0.06
0.00 0.00 0.00 0.00 0.00 0.00 0.00 0.00 0.00 0.00 0.00 0.00 0.00 0.00 0.00 0.00 0.00 0.00 0.00 0.00 0.00 0.00 0.00 0.00 0.00 0.00 0.00 0.00 0.00 0.00 0.00 0.00 0.00 0.00 0.00 0.01 0.02 0.04 0.05 0.06 0.06 0.06 0.06
0.00 0.00 0.00 0.00 0.00 0.00 0.00 0.00 0.00 0.00 0.00 0.00 0.00 0.00 0.00 0.00 0.00 0.00 0.00 0.00 0.00 0.00 0.00 0.00 0.00 0.00 0.00 0.00 0.00 0.00 0.00 0.00 0.00 0.00 0.01 0.02 0.03 0.03 0.03 0.04 0.05 0.06 0.07
0.00 0.00 0.00 0.00 0.00 0.00 0.00 0.00 0.00 0.00 0.00 0.00 0.00 0.00 0.00 0.00 0.00 0.00 0.00 0.00 0.00 0.00 0.00 0.00 0.00 0.00 0.00 0.00 0.00 0.00 0.00 0.00 0.00 0.00 0.01 0.02 0.02 0.02 0.03 0.03 0.04 0.05 0.07
0.00 0.00 0.00 0.00 0.00 0.00 0.00 0.00 0.00 0.00 0.00 0.00 0.00 0.00 0.00 0.00 0.00 0.00 0.00 0.00 0.00 0.00 0.00 0.00 0.00 0.00 0.00 0.00 0.00 0.00 0.00 0.00 0.00 0.01 0.01 0.02 0.01 0.02 0.02 0.03 0.05 0.06 0.07
0.00 0.00 0.00 0.00 0.00 0.00 0.00 0.00 0.00 0.00 0.00 0.00 0.00 0.00 0.00 0.00 0.00 0.00 0.00 0.00 0.00 0.00 0.00 0.00 0.00 0.00 0.00 0.00 0.00 0.00 0.00 0.00 0.00 0.01 0.01 0.02 0.02 0.02 0.03 0.04 0.05 0.06 0.07
0.00 0.00 0.00 0.00 0.00 0.00 0.00 0.00 0.00 0.00 0.00 0.00 0.00 0.00 0.00 0.00 0.00 0.00 0.00 0.00 0.00 0.00 0.00 0.00 0.00 0.00 0.00 0.00 0.00 0.00 0.00 0.00 0.00 0.01 0.01 0.01 0.02 0.03 0.03 0.04 0.05 0.06 0.07
0.00 0.00 0.00 0.00 0.00 0.00 0.00 0.00 0.00 0.00 0.00 0.00 0.00 0.00 0.00 0.00 0.00 0.00 0.00 0.00 0.00 0.00 0.00 0.00 0.00 0.00 0.00 0.00 0.00 0.00 0.00 0.01 0.01 0.00 0.00 0.01 0.02 0.03 0.03 0.04 0.06 0.09 0.11
0.00 0.00 0.00 0.00 0.00 0.00 0.00 0.00 0.00 0.00 0.00 0.00 0.00 0.00 0.00 0.00 0.00 0.00 0.00 0.00 0.00 0.00 0.00 0.01 0.00 0.00 0.00 0.00 0.01 0.00 0.00 0.00 0.00 0.00 0.00 0.00 0.01 0.03 0.05 0.07 0.08 0.08 0.08
0.00 0.00 0.00 0.00 0.00 0.00 0.00 0.00 0.00 0.00 0.00 0.00 0.00 0.00 0.00 0.00 0.00 0.00 0.00 0.00 0.01 0.00 0.00 0.02 0.04 0.04 0.03 0.01 0.01 0.00 0.00 0.00 0.00 0.00 0.00 0.01 0.02 0.03 0.03 0.02 0.02 0.03 0.03
0.00 0.00 0.00 0.00 0.00 0.00 0.00 0.00 0.00 0.00 0.00 0.00 0.00 0.00 0.00 0.00 0.00 0.00 0.01 0.01 0.01 0.02 0.06 0.12 0.13 0.08 0.03 0.01 0.00 0.00 0.01 0.01 0.00 0.00 0.01 0.00 0.00 0.00 0.00 0.00 0.01 0.02 0.04
0.00 0.00 0.00 0.00 0.00 0.00 0.00 0.00 0.00 0.00 0.00 0.00 0.00 0.00 0.00 0.00 0.00 0.00 0.01 0.02 0.06 0.11 0.18 0.21 0.12 0.03 0.00 0.00 0.01 0.03 0.05 0.06 0.03 0.00 0.01 0.00 0.00 0.00 0.00 0.01 0.01 0.03 0.05
0.00 0.00 0.00 0.00 0.00 0.00 0.00 0.00 0.00 0.00 0.00 0.00 0.00 0.00 0.00 0.00 0.00 0.00 0.00 0.04 0.08 0.12 0.14 0.09 0.02 0.00 0.01 0.02 0.06 0.09 0.06 0.06 0.04 0.01 0.02 0.02 0.00 0.01 0.01 0.00 0.01 0.01 0.02
0.00 0.00 0.00 0.00 0.00 0.00 0.00 0.00 0.00 0.00 0.00 0.00 0.00 0.00 0.00 0.00 0.00 0.02 0.05 0.10 0.08 0.05 0.02 0.00 0.01 0.02 0.02 0.03 0.04 0.06 0.06 0.06 0.02 0.00 0.01 0.02 0.00 0.00 0.00 0.00 0.00 0.00 0.02
0.00 0.00 0.00 0.00 0.00 0.00 0.00 0.00 0.00 0.00 0.00 0.00 0.00 0.00 0.01 0.01 0.02 0.07 0.12 0.14 0.05 0.01 0.00 0.01 0.03 0.02 0.01 0.01 0.02 0.10 0.14 0.12 0.06 0.01 0.00 0.00 0.00 0.00 0.00 0.00 0.00 0.00 0.02
0.00 0.00 0.00 0.00 0.00 0.00 0.00 0.00 0.00 0.00 0.00 0.00 0.00 0.00 0.01 0.02 0.05 0.11 0.11 0.06 0.01 0.00 0.02 0.01 0.00 0.00 0.00 0.00 0.01 0.07 0.19 0.27 0.16 0.06 0.00 0.03 0.05 0.06 0.10 0.01 0.00 0.00 0.01

GEFSMA_prec_meanprecacc_024.txt.gz
Total_Precipitation_Accumulation
0.00 0.00 0.00 0.00 0.00 0.00 0.00 0.00 0.00 0.00 0.00 0.00 0.00 0.00 0.00 0.00 0.00 0.00 0.00 0.00 0.00 0.00 0.00 0.01 0.01 0.01 0.02 0.04 0.05 0.06 0.07 0.06 0.05 0.05 0.05 0.05 0.05 0.05 0.07 0.08 0.09 0.09 0.10
0.00 0.00 0.00 0.00 0.00 0.00 0.00 0.00 0.00 0.00 0.00 0.00 0.00 0.00 0.00 0.00 0.00 0.00 0.00 0.00 0.00 0.00 0.00 0.00 0.01 0.02 0.04 0.05 0.05 0.05 0.05 0.05 0.05 0.05 0.06 0.06 0.06 0.07 0.08 0.09 0.10 0.11 0.12
0.00 0.00 0.00 0.00 0.00 0.00 0.00 0.00 0.00 0.00 0.00 0.00 0.00 0.00 0.00 0.00 0.00 0.00 0.00 0.00 0.00 0.00 0.00 0.00 0.01 0.02 0.02 0.02 0.03 0.03 0.04 0.04 0.05 0.06 0.07 0.07 0.08 0.08 0.09 0.10 0.11 0.12 0.13
0.00 0.00 0.00 0.00 0.00 0.00 0.00 0.00 0.00 0.00 0.00 0.00 0.00 0.00 0.00 0.00 0.00 0.00 0.00 0.00 0.00 0.00 0.00 0.00 0.01 0.01 0.00 0.01 0.01 0.02 0.03 0.04 0.05 0.05 0.05 0.05 0.06 0.07 0.09 0.10 0.11 0.12 0.14
0.00 0.00 0.00 0.00 0.00 0.00 0.00 0.00 0.00 0.00 0.00 0.00 0.00 0.00 0.00 0.00 0.00 0.00 0.00 0.00 0.00 0.00 0.00 0.00 0.00 0.00 0.00 0.00 0.00 0.01 0.01 0.03 0.04 0.03 0.02 0.03 0.04 0.05 0.07 0.08 0.10 0.12 0.14
0.00 0.00 0.00 0.00 0.00 0.00 0.00 0.00 0.00 0.00 0.00 0.00 0.00 0.00 0.00 0.00 0.00 0.00 0.00 0.00 0.00 0.00 0.00 0.00 0.00 0.00 0.00 0.00 0.00 0.00 0.01 0.01 0.01 0.01 0.01 0.01 0.02 0.03 0.04 0.06 0.08 0.10 0.13
0.00 0.00 0.00 0.00 0.00 0.00 0.00 0.00 0.00 0.00 0.00 0.00 0.00 0.00 0.00 0.00 0.00 0.00 0.00 0.00 0.00 0.00 0.00 0.00 0.00 0.00 0.00 0.00 0.00 0.00 0.00 0.00 0.00 0.00 0.00 0.01 0.01 0.01 0.02 0.05 0.07 0.10 0.13
0.00 0.00 0.00 0.00 0.00 0.00 0.00 0.00 0.00 0.00 0.00 0.00 0.00 0.00 0.00 0.00 0.00 0.00 0.00 0.00 0.00 0.00 0.00 0.00 0.00 0.00 0.00 0.00 0.00 0.00 0.00 0.00 0.00 0.00 0.00 0.00 0.01 0.02 0.03 0.05 0.07 0.10 0.13
0.01 0.00 0.00 0.00 0.00 0.00 0.00 0.00 0.00 0.00 0.00 0.00 0.00 0.00 0.00 0.00 0.00 0.00 0.00 0.00 0.00 0.00 0.00 0.00 0.00 0.00 0.00 0.00 0.00 0.00 0.00 0.00 0.00 0.00 0.00 0.00 0.01 0.02 0.04 0.06 0.08 0.11 0.12
0.01 0.00 0.00 0.00 0.00 0.00 0.00 0.00 0.00 0.00 0.00 0.00 0.00 0.00 0.00 0.00 0.00 0.00 0.00 0.00 0.00 0.00 0.00 0.00 0.00 0.00 0.00 0.00 0.00 0.00 0.00 0.00 0.00 0.00 0.00 0.00 0.02 0.03 0.06 0.08 0.09 0.10 0.09
0.01 0.01 0.00 0.00 0.00 0.00 0.00 0.00 0.00 0.00 0.00 0.00 0.00 0.00 0.00 0.00 0.00 0.00 0.00 0.00 0.00 0.00 0.00 0.00 0.00 0.00 0.00 0.00 0.00 0.00 0.00 0.00 0.00 0.00 0.00 0.01 0.02 0.04 0.07 0.09 0.09 0.09 0.09
0.01 0.00 0.00 0.00 0.00 0.00 0.00 0.00 0.00 0.00 0.00 0.00 0.00 0.00 0.00 0.00 0.00 0.00 0.00 0.00 0.00 0.00 0.00 0.00 0.00 0.00 0.00 0.00 0.00 0.00 0.00 0.00 0.00 0.00 0.01 0.02 0.04 0.06 0.07 0.08 0.09 0.09 0.09
0.02 0.01 0.00 0.00 0.00 0.00 0.00 0.00 0.00 0.00 0.00 0.00 0.00 0.00 0.00 0.00 0.00 0.00 0.00 0.00 0.00 0.00 0.00 0.00 0.00 0.00 0.00 0.00 0.00 0.00 0.00 0.00 0.00 0.00 0.01 0.03 0.04 0.04 0.05 0.06 0.08 0.09 0.10
0.03 0.01 0.00 0.00 0.00 0.00 0.00 0.00 0.00 0.00 0.00 0.00 0.00 0.00 0.00 0.00 0.00 0.00 0.00 0.00 0.00 0.00 0.00 0.00 0.00 0.00 0.00 0.00 0.00 0.00 0.00 0.00 0.00 0.00 0.01 0.02 0.03 0.03 0.03 0.04 0.06 0.07 0.09
0.01 0.00 0.00 0.00 0.00 0.00 0.00 0.00 0.00 0.00 0.00 0.00 0.00 0.00 0.00 0.00 0.00 0.00 0.00 0.00 0.00 0.00 0.00 0.00 0.00 0.00 0.00 0.00 0.00 0.00 0.00 0.00 0.00 0.01 0.01 0.02 0.02 0.02 0.03 0.04 0.06 0.07 0.08
0.00 0.00 0.00 0.00 0.00 0.00 0.00 0.00 0.00 0.00 0.00 0.00 0.00 0.00 0.00 0.00 0.00 0.00 0.00 0.00 0.00 0.00 0.00 0.00 0.00 0.00 0.00 0.00 0.00 0.00 0.00 0.00 0.00 0.01 0.01 0.02 0.02 0.03 0.04 0.05 0.06 0.07 0.09
0.00 0.00 0.00 0.00 0.00 0.00 0.00 0.00 0.00 0.00 0.00 0.00 0.00 0.00 0.00 0.00 0.00 0.00 0.00 0.00 0.00 0.00 0.00 0.00 0.00 0.00 0.00 0.00 0.00 0.00 0.00 0.00 0.00 0.01 0.01 0.01 0.02 0.03 0.04 0.05 0.06 0.07 0.08
0.00 0.00 0.00 0.00 0.00 0.00 0.00 0.00 0.00 0.00 0.00 0.00 0.00 0.00 0.00 0.00 0.00 0.00 0.00 0.00 0.00 0.00 0.00 0.00 0.00 0.00 0.00 0.00 0.00 0.00 0.00 0.01 0.01 0.00 0.00 0.01 0.02 0.03 0.03 0.05 0.07 0.09 0.12
0.00 0.00 0.00 0.00 0.00 0.00 0.00 0.00 0.00 0.00 0.00 0.00 0.00 0.00 0.00 0.00 0.00 0.00 0.00 0.00 0.00 0.00 0.00 0.01 0.00 0.00 0.00 0.00 0.01 0.00 0.00 0.00 0.00 0.00 0.00 0.00 0.01 0.03 0.05 0.07 0.08 0.08 0.09
0.00 0.00 0.00 0.00 0.00 0.00 0.00 0.00 0.00 0.00 0.00 0.00 0.00 0.00 0.00 0.00 0.00 0.00 0.00 0.00 0.01 0.00 0.01 0.02 0.04 0.04 0.04 0.01 0.01 0.00 0.00 0.00 0.00 0.00 0.00 0.01 0.02 0.03 0.03 0.02 0.02 0.03 0.03
0.00 0.00 0.00 0.00 0.00 0.00 0.00 0.00 0.00 0.00 0.00 0.00 0.00 0.00 0.00 0.00 0.00 0.00 0.01 0.01 0.01 0.02 0.06 0.12 0.14 0.09 0.03 0.01 0.01 0.00 0.01 0.01 0.00 0.00 0.01 0.00 0.00 0.00 0.00 0.00 0.01 0.02 0.04
0.00 0.00 0.00 0.00 0.00 0.00 0.00 0.00 0.00 0.00 0.00 0.00 0.00 0.00 0.00 0.00 0.00 0.00 0.01 0.02 0.06 0.12 0.19 0.23 0.15 0.05 0.01 0.01 0.01 0.03 0.05 0.07 0.04 0.00 0.01 0.00 0.00 0.00 0.00 0.01 0.01 0.03 0.05
0.00 0.00 0.00 0.00 0.00 0.00 0.00 0.00 0.00 0.00 0.00 0.00 0.00 0.00 0.00 0.00 0.00 0.00 0.00 0.04 0.08 0.13 0.15 0.11 0.04 0.01 0.01 0.02 0.06 0.10 0.08 0.08 0.05 0.01 0.02 0.02 0.00 0.01 0.01 0.00 0.01 0.01 0.02
0.00 0.00 0.00 0.00 0.00 0.00 0.00 0.00 0.00 0.00 0.00 0.00 0.00 0.00 0.00 0.00 0.00 0.02 0.06 0.11 0.09 0.06 0.02 0.01 0.01 0.02 0.02 0.03 0.05 0.08 0.08 0.07 0.02 0.00 0.01 0.02 0.00 0.00 0.00 0.00 0.00 0.00 0.02
0.00 0.00 0.00 0.00 0.00 0.00 0.00 0.00 0.00 0.00 0.00 0.00 0.00 0.00 0.01 0.01 0.02 0.07 0.13 0.15 0.06 0.01 0.00 0.01 0.03 0.02 0.02 0.01 0.02 0.10 0.14 0.13 0.07 0.01 0.00 0.00 0.00 0.00 0.00 0.00 0.00 0.00 0.02
0.00 0.00 0.00 0.00 0.00 0.00 0.00 0.00 0.00 0.00 0.00 0.00 0.00 0.00 0.01 0.02 0.05 0.11 0.12 0.07 0.01 0.00 0.02 0.01 0.00 0.00 0.00 0.00 0.01 0.07 0.20 0.31 0.20 0.08 0.00 0.04 0.05 0.07 0.12 0.02 0.00 0.00 0.01

GEFSMA_prec_meanprecacc_030.txt.gz
Total_Precipitation_Accumulation
0.00 0.00 0.00 0.00 0.00 0.00 0.00 0.00 0.00 0.00 0.00 0.00 0.00 0.00 0.00 0.00 0.00 0.00 0.00 0.00 0.00 0.00 0.00 0.01 0.01 0.01 0.02 0.04 0.05 0.06 0.07 0.06 0.05 0.05 0.05 0.05 0.05 0.05 0.07 0.08 0.09 0.09 0.10
0.00 0.00 0.00 0.00 0.00 0.00 0.00 0.00 0.00 0.00 0.00 0.00 0.00 0.00 0.00 0.00 0.00 0.00 0.00 0.00 0.00 0.00 0.00 0.00 0.01 0.02 0.04 0.05 0.05 0.05 0.05 0.05 0.05 0.05 0.06 0.06 0.06 0.07 0.08 0.09 0.10 0.11 0.12
0.00 0.00 0.00 0.00 0.00 0.00 0.00 0.00 0.00 0.00 0.00 0.00 0.00 0.00 0.00 0.00 0.00 0.00 0.00 0.00 0.00 0.00 0.00 0.00 0.01 0.02 0.02 0.02 0.03 0.03 0.04 0.04 0.05 0.06 0.07 0.07 0.08 0.08 0.09 0.10 0.11 0.12 0.13
0.00 0.00 0.00 0.00 0.00 0.00 0.00 0.00 0.00 0.00 0.00 0.00 0.00 0.00 0.00 0.00 0.00 0.00 0.00 0.00 0.00 0.00 0.00 0.00 0.01 0.01 0.00 0.01 0.01 0.02 0.03 0.04 0.05 0.05 0.05 0.05 0.06 0.07 0.09 0.10 0.11 0.13 0.14
0.00 0.00 0.00 0.00 0.00 0.00 0.00 0.00 0.00 0.00 0.00 0.00 0.00 0.00 0.00 0.00 0.00 0.00 0.00 0.00 0.00 0.00 0.00 0.00 0.00 0.00 0.00 0.00 0.00 0.01 0.01 0.03 0.04 0.03 0.02 0.03 0.04 0.05 0.07 0.08 0.10 0.12 0.14
0.00 0.00 0.00 0.00 0.00 0.00 0.00 0.00 0.00 0.00 0.00 0.00 0.00 0.00 0.00 0.00 0.00 0.00 0.00 0.00 0.00 0.00 0.00 0.00 0.00 0.00 0.00 0.00 0.00 0.00 0.01 0.01 0.01 0.01 0.01 0.01 0.02 0.03 0.04 0.06 0.08 0.11 0.13
0.01 0.00 0.00 0.00 0.00 0.00 0.00 0.00 0.00 0.00 0.00 0.00 0.00 0.00 0.00 0.00 0.00 0.00 0.00 0.00 0.00 0.00 0.00 0.00 0.00 0.00 0.00 0.00 0.00 0.00 0.00 0.00 0.00 0.00 0.00 0.01 0.01 0.01 0.02 0.05 0.08 0.10 0.14
0.02 0.01 0.00 0.00 0.00 0.00 0.00 0.00 0.00 0.00 0.00 0.00 0.00 0.00 0.00 0.00 0.00 0.00 0.00 0.00 0.00 0.00 0.00 0.00 0.00 0.00 0.00 0.00 0.00 0.00 0.00 0.00 0.00 0.00 0.00 0.00 0.01 0.02 0.03 0.05 0.08 0.11 0.14
0.04 0.02 0.01 0.00 0.00 0.00 0.00 0.00 0.00 0.00 0.00 0.00 0.00 0.00 0.00 0.00 0.00 0.00 0.00 0.00 0.00 0.00 0.00 0.00 0.00 0.00 0.00 0.00 0.00 0.00 0.00 0.00 0.00 0.00 0.00 0.00 0.01 0.03 0.05 0.07 0.09 0.12 0.14
0.06 0.03 0.01 0.01 0.00 0.00 0.00 0.00 0.00 0.00 0.00 0.00 0.00 0.00 0.00 0.00 0.00 0.00 0.00 0.00 0.00 0.00 0.00 0.00 0.00 0.00 0.00 0.00 0.00 0.00 0.00 0.00 0.00 0.00 0.00 0.00 0.02 0.04 0.07 0.10 0.12 0.13 0.12
0.06 0.04 0.03 0.02 0.01 0.00 0.00 0.00 0.00 0.00 0.00 0.00 0.00 0.00 0.00 0.00 0.00 0.00 0.00 0.00 0.00 0.00 0.00 0.00 0.00 0.00 0.00 0.00 0.00 0.00 0.00 0.00 0.00 0.00 0.00 0.01 0.03 0.05 0.09 0.11 0.12 0.12 0.11
0.05 0.04 0.03 0.02 0.01 0.01 0.00 0.00 0.00 0.00 0.00 0.00 0.00 0.00 0.00 0.00 0.00 0.00 0.00 0.00 0.00 0.00 0.00 0.00 0.00 0.00 0.00 0.00 0.00 0.00 0.00 0.00 0.00 0.00 0.01 0.02 0.05 0.07 0.09 0.11 0.11 0.11 0.11
0.06 0.05 0.04 0.03 0.03 0.02 0.01 0.00 0.00 0.00 0.00 0.00 0.00 0.00 0.00 0.00 0.00 0.00 0.00 0.00 0.00 0.00 0.00 0.00 0.00 0.00 0.00 0.00 0.00 0.00 0.00 0.00 0.00 0.00 0.01 0.03 0.05 0.05 0.06 0.07 0.09 0.11 0.12
0.12 0.11 0.08 0.06 0.05 0.03 0.01 0.00 0.00 0.00 0.00 0.00 0.00 0.00 0.00 0.00 0.00 0.00 0.00 0.00 0.00 0.00 0.00 0.00 0.00 0.00 0.00 0.00 0.00 0.00 0.00 0.00 0.00 0.00 0.01 0.03 0.03 0.03 0.04 0.05 0.07 0.09 0.11
0.11 0.12 0.11 0.09 0.06 0.03 0.02 0.01 0.00 0.00 0.00 0.00 0.00 0.00 0.00 0.00 0.00 0.00 0.00 0.00 0.00 0.00 0.00 0.00 0.00 0.00 0.00 0.00 0.00 0.00 0.00 0.00 0.00 0.01 0.01 0.02 0.02 0.03 0.04 0.05 0.07 0.09 0.10
0.08 0.10 0.11 0.09 0.06 0.04 0.02 0.01 0.01 0.00 0.00 0.00 0.00 0.00 0.00 0.00 0.00 0.00 0.00 0.00 0.00 0.00 0.00 0.00 0.00 0.00 0.00 0.00 0.00 0.00 0.00 0.00 0.00 0.01 0.01 0.02 0.02 0.03 0.04 0.05 0.07 0.08 0.10
0.09 0.11 0.11 0.09 0.06 0.03 0.02 0.02 0.01 0.00 0.00 0.00 0.00 0.00 0.00 0.00 0.00 0.00 0.00 0.00 0.00 0.00 0.00 0.00 0.00 0.00 0.00 0.00 0.00 0.00 0.00 0.00 0.00 0.01 0.01 0.02 0.02 0.03 0.04 0.05 0.06 0.08 0.09
0.08 0.08 0.08 0.06 0.04 0.02 0.02 0.01 0.00 0.00 0.00 0.00 0.00 0.00 0.00 0.00 0.00 0.00 0.00 0.00 0.00 0.00 0.00 0.00 0.00 0.00 0.00 0.00 0.00 0.00 0.00 0.01 0.01 0.00 0.00 0.01 0.02 0.03 0.03 0.05 0.07 0.10 0.13
0.05 0.05 0.04 0.03 0.02 0.02 0.01 0.00 0.00 0.00 0.00 0.00 0.00 0.00 0.00 0.00 0.00 0.00 0.00 0.00 0.00 0.00 0.00 0.01 0.00 0.00 0.00 0.00 0.01 0.00 0.00 0.00 0.00 0.00 0.00 0.00 0.01 0.03 0.05 0.07 0.09 0.09 0.09
0.04 0.03 0.02 0.02 0.02 0.01 0.01 0.00 0.00 0.00 0.00 0.00 0.00 0.00 0.00 0.00 0.00 0.00 0.00 0.00 0.01 0.00 0.01 0.02 0.04 0.04 0.04 0.01 0.01 0.00 0.00 0.00 0.00 0.00 0.00 0.01 0.02 0.03 0.03 0.02 0.02 0.03 0.03
0.02 0.02 0.02 0.02 0.01 0.01 0.01 0.01 0.01 0.01 0.00 0.00 0.00 0.00 0.00 0.00 0.00 0.00 0.01 0.01 0.01 0.02 0.06 0.12 0.14 0.09 0.03 0.01 0.01 0.00 0.01 0.01 0.00 0.00 0.01 0.00 0.00 0.00 0.00 0.00 0.01 0.02 0.04
0.03 0.03 0.03 0.03 0.03 0.03 0.03 0.02 0.01 0.01 0.00 0.00 0.00 0.00 0.00 0.00 0.00 0.00 0.01 0.02 0.06 0.12 0.20 0.23 0.15 0.05 0.01 0.01 0.01 0.03 0.05 0.07 0.04 0.00 0.01 0.00 0.00 0.00 0.00 0.01 0.01 0.03 0.05
0.09 0.09 0.09 0.08 0.07 0.06 0.04 0.02 0.01 0.00 0.00 0.00 0.00 0.00 0.00 0.00 0.00 0.00 0.00 0.04 0.08 0.13 0.15 0.11 0.04 0.01 0.01 0.02 0.06 0.11 0.09 0.09 0.06 0.01 0.02 0.02 0.00 0.01 0.01 0.00 0.01 0.01 0.02
0.20 0.18 0.15 0.12 0.09 0.05 0.03 0.01 0.00 0.00 0.00 0.00 0.00 0.00 0.00 0.00 0.00 0.02 0.06 0.11 0.09 0.06 0.02 0.01 0.01 0.02 0.03 0.03 0.05 0.11 0.10 0.08 0.03 0.00 0.01 0.02 0.00 0.00 0.00 0.00 0.00 0.00 0.02
0.21 0.16 0.11 0.07 0.04 0.02 0.01 0.00 0.00 0.00 0.00 0.00 0.00 0.00 0.01 0.01 0.02 0.07 0.13 0.15 0.06 0.01 0.00 0.01 0.03 0.03 0.02 0.02 0.02 0.10 0.14 0.14 0.08 0.01 0.00 0.00 0.00 0.00 0.00 0.00 0.00 0.00 0.02
0.13 0.08 0.04 0.02 0.01 0.00 0.00 0.00 0.00 0.00 0.00 0.00 0.00 0.00 0.01 0.02 0.06 0.12 0.12 0.08 0.02 0.00 0.02 0.01 0.00 0.00 0.00 0.00 0.01 0.07 0.20 0.34 0.24 0.10 0.00 0.04 0.06 0.08 0.14 0.02 0.00 0.00 0.01

GEFSMA_prec_meanprecacc_036.txt.gz
Total_Precipitation_Accumulation
0.00 0.00 0.00 0.00 0.00 0.00 0.00 0.00 0.00 0.00 0.00 0.00 0.00 0.00 0.00 0.00 0.00 0.00 0.00 0.00 0.00 0.00 0.00 0.01 0.01 0.01 0.02 0.04 0.05 0.06 0.07 0.06 0.05 0.05 0.05 0.05 0.05 0.05 0.07 0.08 0.09 0.09 0.10
0.00 0.00 0.00 0.00 0.00 0.00 0.00 0.00 0.00 0.00 0.00 0.00 0.00 0.00 0.00 0.00 0.00 0.00 0.00 0.00 0.00 0.00 0.00 0.00 0.01 0.02 0.04 0.05 0.05 0.05 0.05 0.05 0.05 0.05 0.06 0.06 0.06 0.07 0.08 0.09 0.10 0.11 0.12
0.00 0.00 0.00 0.00 0.00 0.00 0.00 0.00 0.00 0.00 0.00 0.00 0.00 0.00 0.00 0.00 0.00 0.00 0.00 0.00 0.00 0.00 0.00 0.00 0.01 0.02 0.02 0.02 0.03 0.03 0.04 0.04 0.05 0.06 0.07 0.07 0.08 0.08 0.09 0.10 0.11 0.12 0.13
0.00 0.00 0.00 0.00 0.00 0.00 0.00 0.00 0.00 0.00 0.00 0.00 0.00 0.00 0.00 0.00 0.00 0.00 0.00 0.00 0.00 0.00 0.00 0.00 0.01 0.01 0.00 0.01 0.01 0.02 0.03 0.04 0.05 0.05 0.05 0.05 0.06 0.07 0.09 0.10 0.11 0.13 0.14
0.00 0.00 0.00 0.00 0.00 0.00 0.00 0.00 0.00 0.00 0.00 0.00 0.00 0.00 0.00 0.00 0.00 0.00 0.00 0.00 0.00 0.00 0.00 0.00 0.00 0.00 0.00 0.00 0.00 0.01 0.01 0.03 0.04 0.03 0.02 0.03 0.04 0.05 0.07 0.09 0.11 0.13 0.14
0.02 0.01 0.00 0.00 0.00 0.00 0.00 0.00 0.00 0.00 0.00 0.00 0.00 0.00 0.00 0.00 0.00 0.00 0.00 0.00 0.00 0.00 0.00 0.00 0.00 0.00 0.00 0.00 0.00 0.00 0.01 0.01 0.01 0.01 0.01 0.01 0.02 0.03 0.04 0.06 0.08 0.11 0.13
0.05 0.03 0.01 0.01 0.00 0.00 0.00 0.00 0.00 0.00 0.00 0.00 0.00 0.00 0.00 0.00 0.00 0.00 0.00 0.00 0.00 0.00 0.00 0.00 0.00 0.00 0.00 0.00 0.00 0.00 0.00 0.00 0.00 0.00 0.00 0.01 0.01 0.01 0.03 0.05 0.08 0.11 0.15
0.10 0.06 0.03 0.02 0.01 0.01 0.00 0.00 0.00 0.00 0.00 0.00 0.00 0.00 0.00 0.00 0.00 0.00 0.00 0.00 0.00 0.00 0.00 0.00 0.00 0.00 0.00 0.00 0.00 0.00 0.00 0.00 0.00 0.00 0.00 0.00 0.01 0.02 0.03 0.06 0.09 0.11 0.15
0.13 0.08 0.07 0.06 0.04 0.02 0.01 0.01 0.00 0.00 0.00 0.00 0.00 0.00 0.00 0.00 0.00 0.00 0.00 0.00 0.00 0.00 0.00 0.00 0.00 0.00 0.00 0.00 0.00 0.00 0.00 0.00 0.00 0.00 0.00 0.00 0.01 0.03 0.05 0.07 0.10 0.14 0.15
0.17 0.13 0.10 0.08 0.06 0.03 0.02 0.01 0.01 0.00 0.00 0.00 0.00 0.00 0.00 0.00 0.00 0.00 0.00 0.00 0.00 0.00 0.00 0.00 0.00 0.00 0.00 0.00 0.00 0.00 0.00 0.00 0.00 0.00 0.00 0.00 0.02 0.04 0.07 0.11 0.13 0.14 0.14
0.17 0.16 0.13 0.10 0.07 0.05 0.04 0.02 0.01 0.01 0.00 0.00 0.00 0.00 0.00 0.00 0.00 0.00 0.00 0.00 0.00 0.00 0.00 0.00 0.00 0.00 0.00 0.00 0.00 0.00 0.00 0.00 0.00 0.00 0.00 0.01 0.03 0.06 0.09 0.12 0.13 0.13 0.13
0.11 0.13 0.12 0.11 0.10 0.09 0.06 0.04 0.02 0.01 0.01 0.00 0.00 0.00 0.00 0.00 0.00 0.00 0.00 0.00 0.00 0.00 0.00 0.00 0.00 0.00 0.00 0.00 0.00 0.00 0.00 0.00 0.00 0.00 0.01 0.02 0.05 0.07 0.10 0.11 0.12 0.12 0.13
0.10 0.10 0.11 0.11 0.12 0.12 0.10 0.07 0.04 0.02 0.01 0.01 0.00 0.00 0.00 0.00 0.00 0.00 0.00 0.00 0.00 0.00 0.00 0.00 0.00 0.00 0.00 0.00 0.00 0.00 0.00 0.00 0.00 0.00 0.01 0.03 0.05 0.06 0.07 0.08 0.10 0.12 0.13
0.16 0.17 0.16 0.16 0.16 0.15 0.11 0.09 0.06 0.04 0.02 0.01 0.00 0.00 0.00 0.00 0.00 0.00 0.00 0.00 0.00 0.00 0.00 0.00 0.00 0.00 0.00 0.00 0.00 0.00 0.00 0.00 0.00 0.00 0.01 0.03 0.03 0.04 0.04 0.06 0.08 0.10 0.12
0.14 0.16 0.18 0.18 0.16 0.14 0.11 0.09 0.07 0.04 0.03 0.01 0.01 0.00 0.00 0.00 0.00 0.00 0.00 0.00 0.00 0.00 0.00 0.00 0.00 0.00 0.00 0.00 0.00 0.00 0.00 0.00 0.00 0.01 0.01 0.02 0.02 0.03 0.04 0.06 0.08 0.10 0.11
0.12 0.14 0.17 0.17 0.15 0.12 0.10 0.08 0.07 0.05 0.03 0.02 0.01 0.01 0.01 0.01 0.01 0.01 0.01 0.01 0.00 0.00 0.00 0.00 0.00 0.00 0.00 0.00 0.00 0.00 0.00 0.00 0.00 0.01 0.01 0.02 0.02 0.03 0.04 0.06 0.07 0.09 0.11
0.12 0.14 0.15 0.15 0.12 0.10 0.08 0.07 0.06 0.05 0.04 0.04 0.03 0.03 0.04 0.03 0.03 0.02 0.01 0.01 0.00 0.00 0.00 0.00 0.00 0.00 0.00 0.00 0.00 0.00 0.00 0.00 0.00 0.01 0.01 0.02 0.02 0.03 0.04 0.05 0.07 0.08 0.10
0.10 0.11 0.11 0.10 0.08 0.06 0.06 0.07 0.07 0.06 0.06 0.06 0.06 0.06 0.06 0.05 0.04 0.03 0.02 0.01 0.00 0.00 0.00 0.01 0.00 0.00 0.00 0.00 0.00 0.00 0.00 0.01 0.01 0.00 0.00 0.01 0.02 0.03 0.04 0.05 0.08 0.11 0.14
0.08 0.07 0.06 0.05 0.05 0.05 0.05 0.06 0.06 0.07 0.07 0.07 0.07 0.07 0.06 0.06 0.05 0.03 0.02 0.01 0.01 0.01 0.01 0.01 0.00 0.00 0.00 0.00 0.01 0.00 0.00 0.00 0.00 0.00 0.00 0.00 0.01 0.03 0.05 0.08 0.09 0.09 0.09
0.05 0.04 0.03 0.03 0.04 0.04 0.05 0.06 0.06 0.07 0.08 0.08 0.08 0.08 0.07 0.06 0.05 0.04 0.02 0.02 0.02 0.01 0.01 0.02 0.04 0.04 0.04 0.01 0.01 0.00 0.00 0.00 0.00 0.00 0.00 0.01 0.02 0.03 0.03 0.02 0.02 0.03 0.03
0.04 0.03 0.03 0.04 0.04 0.05 0.06 0.07 0.08 0.10 0.11 0.11 0.11 0.10 0.08 0.06 0.04 0.03 0.03 0.02 0.01 0.02 0.06 0.12 0.14 0.09 0.03 0.01 0.01 0.00 0.01 0.01 0.00 0.00 0.01 0.00 0.00 0.00 0.00 0.00 0.01 0.02 0.04
0.05 0.06 0.07 0.08 0.09 0.10 0.14 0.13 0.11 0.11 0.11 0.11 0.10 0.08 0.06 0.04 0.02 0.02 0.02 0.03 0.06 0.12 0.20 0.23 0.15 0.05 0.01 0.01 0.01 0.03 0.05 0.07 0.05 0.00 0.01 0.00 0.00 0.00 0.00 0.01 0.01 0.03 0.05
0.15 0.16 0.17 0.18 0.20 0.21 0.23 0.19 0.16 0.14 0.12 0.11 0.08 0.06 0.03 0.02 0.01 0.01 0.01 0.04 0.08 0.13 0.15 0.11 0.04 0.01 0.01 0.02 0.07 0.11 0.10 0.11 0.06 0.01 0.02 0.02 0.00 0.01 0.01 0.00 0.01 0.01 0.02
0.35 0.35 0.33 0.31 0.28 0.27 0.25 0.19 0.15 0.11 0.09 0.06 0.04 0.02 0.01 0.00 0.01 0.02 0.06 0.11 0.09 0.06 0.02 0.01 0.01 0.02 0.03 0.03 0.06 0.13 0.12 0.09 0.03 0.00 0.01 0.02 0.00 0.00 0.00 0.00 0.00 0.00 0.02
0.44 0.40 0.36 0.31 0.26 0.21 0.16 0.11 0.07 0.05 0.03 0.01 0.01 0.00 0.01 0.01 0.02 0.07 0.13 0.15 0.06 0.01 0.00 0.01 0.03 0.03 0.02 0.02 0.03 0.10 0.15 0.15 0.08 0.01 0.00 0.00 0.00 0.00 0.00 0.00 0.00 0.00 0.02
0.36 0.29 0.23 0.19 0.14 0.10 0.06 0.03 0.02 0.01 0.00 0.00 0.00 0.00 0.01 0.02 0.06 0.12 0.13 0.08 0.02 0.00 0.02 0.01 0.00 0.00 0.00 0.00 0.01 0.07 0.20 0.35 0.25 0.11 0.00 0.04 0.06 0.08 0.14 0.02 0.00 0.00 0.01

GEFSMA_prec_meanprecacc_042.txt.gz
Total_Precipitation_Accumulation
0.00 0.00 0.00 0.00 0.01 0.00 0.00 0.00 0.00 0.00 0.00 0.00 0.00 0.00 0.00 0.00 0.00 0.00 0.00 0.00 0.00 0.00 0.00 0.01 0.01 0.01 0.02 0.04 0.05 0.06 0.07 0.06 0.05 0.05 0.05 0.05 0.05 0.05 0.07 0.08 0.09 0.09 0.10
0.00 0.00 0.00 0.00 0.00 0.00 0.00 0.00 0.00 0.00 0.00 0.00 0.00 0.00 0.00 0.00 0.00 0.00 0.00 0.00 0.00 0.00 0.00 0.00 0.01 0.02 0.04 0.05 0.05 0.05 0.05 0.05 0.05 0.05 0.06 0.06 0.06 0.07 0.08 0.09 0.10 0.11 0.12
0.00 0.00 0.00 0.00 0.00 0.00 0.00 0.00 0.00 0.00 0.00 0.00 0.00 0.00 0.00 0.00 0.00 0.00 0.00 0.00 0.00 0.00 0.00 0.00 0.01 0.02 0.02 0.02 0.03 0.03 0.04 0.04 0.05 0.06 0.07 0.07 0.08 0.08 0.09 0.10 0.11 0.12 0.13
0.00 0.00 0.00 0.00 0.00 0.00 0.00 0.00 0.00 0.00 0.00 0.00 0.00 0.00 0.00 0.00 0.00 0.00 0.00 0.00 0.00 0.00 0.00 0.00 0.01 0.01 0.00 0.01 0.01 0.02 0.03 0.04 0.05 0.05 0.05 0.05 0.06 0.07 0.09 0.10 0.11 0.13 0.14
0.01 0.00 0.00 0.00 0.00 0.00 0.00 0.00 0.00 0.00 0.00 0.00 0.00 0.00 0.00 0.00 0.00 0.00 0.00 0.00 0.00 0.00 0.00 0.00 0.00 0.00 0.00 0.00 0.00 0.01 0.01 0.03 0.04 0.03 0.02 0.03 0.04 0.05 0.07 0.09 0.11 0.13 0.14
0.04 0.03 0.01 0.01 0.00 0.00 0.00 0.00 0.00 0.00 0.00 0.00 0.00 0.00 0.00 0.00 0.00 0.00 0.00 0.00 0.00 0.00 0.00 0.00 0.00 0.00 0.00 0.00 0.00 0.00 0.01 0.01 0.01 0.01 0.01 0.01 0.02 0.03 0.04 0.06 0.09 0.11 0.14
0.11 0.07 0.03 0.02 0.01 0.00 0.00 0.00 0.00 0.00 0.00 0.00 0.00 0.00 0.00 0.00 0.00 0.00 0.00 0.00 0.00 0.00 0.00 0.00 0.00 0.00 0.00 0.00 0.00 0.00 0.00 0.00 0.00 0.00 0.00 0.01 0.01 0.01 0.03 0.05 0.08 0.11 0.15
0.13 0.09 0.05 0.04 0.03 0.02 0.01 0.00 0.00 0.00 0.00 0.00 0.00 0.00 0.00 0.00 0.00 0.00 0.00 0.00 0.00 0.00 0.00 0.00 0.00 0.00 0.00 0.00 0.00 0.00 0.00 0.00 0.00 0.00 0.00 0.00 0.01 0.02 0.03 0.06 0.09 0.12 0.15
0.15 0.12 0.11 0.10 0.08 0.05 0.03 0.02 0.01 0.00 0.00 0.00 0.00 0.00 0.00 0.00 0.00 0.00 0.00 0.00 0.00 0.00 0.00 0.00 0.00 0.00 0.00 0.00 0.00 0.00 0.00 0.00 0.00 0.00 0.00 0.00 0.01 0.03 0.05 0.08 0.11 0.14 0.16
0.19 0.18 0.16 0.15 0.13 0.10 0.06 0.05 0.04 0.03 0.01 0.01 0.00 0.00 0.00 0.00 0.00 0.00 0.00 0.00 0.00 0.00 0.00 0.00 0.00 0.00 0.00 0.00 0.00 0.00 0.00 0.00 0.00 0.00 0.00 0.00 0.02 0.04 0.07 0.11 0.13 0.15 0.15
0.19 0.20 0.19 0.18 0.15 0.14 0.12 0.10 0.08 0.06 0.04 0.03 0.01 0.01 0.00 0.00 0.00 0.00 0.00 0.00 0.00 0.00 0.00 0.00 0.00 0.00 0.00 0.00 0.00 0.00 0.00 0.00 0.00 0.00 0.00 0.01 0.03 0.06 0.09 0.13 0.14 0.14 0.14
0.13 0.15 0.17 0.17 0.17 0.18 0.16 0.15 0.14 0.13 0.10 0.06 0.03 0.02 0.01 0.01 0.00 0.00 0.00 0.00 0.00 0.00 0.00 0.00 0.00 0.00 0.00 0.00 0.00 0.00 0.00 0.00 0.00 0.00 0.01 0.02 0.05 0.07 0.10 0.12 0.12 0.13 0.13
0.10 0.11 0.14 0.15 0.18 0.20 0.23 0.23 0.20 0.18 0.15 0.11 0.08 0.05 0.03 0.01 0.01 0.01 0.01 0.01 0.00 0.00 0.00 0.00 0.00 0.00 0.00 0.00 0.00 0.00 0.00 0.00 0.00 0.00 0.01 0.03 0.05 0.06 0.07 0.08 0.10 0.12 0.14
0.16 0.18 0.19 0.21 0.23 0.24 0.23 0.22 0.20 0.18 0.17 0.14 0.11 0.08 0.05 0.03 0.02 0.01 0.01 0.01 0.01 0.01 0.01 0.01 0.01 0.00 0.00 0.00 0.00 0.00 0.00 0.00 0.00 0.00 0.01 0.03 0.03 0.04 0.04 0.06 0.08 0.10 0.13
0.14 0.17 0.19 0.21 0.20 0.19 0.19 0.18 0.18 0.17 0.15 0.13 0.10 0.08 0.06 0.04 0.02 0.02 0.02 0.02 0.03 0.03 0.02 0.02 0.02 0.01 0.01 0.01 0.00 0.00 0.00 0.00 0.00 0.01 0.01 0.02 0.02 0.03 0.04 0.06 0.08 0.10 0.12
0.12 0.15 0.17 0.18 0.17 0.15 0.14 0.14 0.13 0.13 0.12 0.10 0.08 0.07 0.06 0.05 0.04 0.04 0.04 0.04 0.04 0.05 0.05 0.04 0.03 0.03 0.03 0.02 0.01 0.00 0.00 0.00 0.00 0.01 0.01 0.02 0.02 0.03 0.05 0.06 0.08 0.10 0.12
0.12 0.14 0.16 0.15 0.13 0.12 0.10 0.10 0.10 0.09 0.09 0.09 0.08 0.08 0.08 0.08 0.08 0.07 0.08 0.09 0.09 0.09 0.09 0.08 0.06 0.05 0.04 0.03 0.02 0.01 0.00 0.00 0.00 0.01 0.01 0.02 0.02 0.04 0.04 0.06 0.07 0.09 0.11
0.11 0.12 0.12 0.10 0.08 0.07 0.07 0.08 0.09 0.09 0.09 0.10 0.11 0.11 0.12 0.12 0.13 0.14 0.15 0.15 0.15 0.14 0.13 0.11 0.07 0.06 0.04 0.03 0.01 0.01 0.00 0.01 0.01 0.00 0.00 0.01 0.02 0.03 0.04 0.05 0.08 0.12 0.15
0.09 0.08 0.06 0.06 0.05 0.06 0.06 0.07 0.08 0.08 0.10 0.11 0.12 0.14 0.15 0.17 0.18 0.19 0.18 0.17 0.16 0.13 0.11 0.08 0.05 0.03 0.02 0.01 0.01 0.01 0.00 0.00 0.00 0.00 0.00 0.00 0.01 0.03 0.06 0.08 0.09 0.10 0.10
0.07 0.06 0.05 0.04 0.05 0.06 0.07 0.08 0.09 0.10 0.12 0.14 0.15 0.17 0.19 0.20 0.20 0.20 0.18 0.16 0.13 0.09 0.06 0.05 0.06 0.05 0.04 0.02 0.01 0.01 0.00 0.00 0.00 0.00 0.00 0.01 0.02 0.03 0.03 0.02 0.02 0.03 0.03
0.06 0.06 0.06 0.07 0.07 0.08 0.10 0.11 0.13 0.15 0.18 0.20 0.21 0.22 0.22 0.21 0.19 0.16 0.13 0.10 0.07 0.06 0.09 0.14 0.15 0.10 0.03 0.01 0.01 0.00 0.01 0.01 0.00 0.00 0.01 0.00 0.00 0.00 0.00 0.00 0.01 0.02 0.04
0.09 0.11 0.12 0.13 0.16 0.18 0.24 0.22 0.18 0.18 0.21 0.22 0.22 0.21 0.19 0.16 0.12 0.10 0.07 0.06 0.08 0.14 0.21 0.24 0.15 0.05 0.01 0.01 0.01 0.03 0.05 0.08 0.05 0.00 0.01 0.00 0.00 0.00 0.00 0.01 0.01 0.03 0.05
0.24 0.27 0.28 0.29 0.31 0.36 0.38 0.32 0.29 0.24 0.23 0.22 0.20 0.16 0.13 0.09 0.06 0.04 0.03 0.05 0.09 0.13 0.16 0.11 0.04 0.01 0.01 0.02 0.07 0.12 0.10 0.11 0.07 0.01 0.02 0.02 0.00 0.01 0.01 0.00 0.01 0.01 0.02
0.54 0.56 0.56 0.52 0.47 0.45 0.40 0.33 0.27 0.22 0.19 0.16 0.12 0.08 0.05 0.03 0.02 0.03 0.06 0.11 0.09 0.06 0.02 0.01 0.01 0.02 0.03 0.03 0.07 0.14 0.13 0.09 0.03 0.00 0.01 0.02 0.00 0.00 0.00 0.00 0.00 0.00 0.02
0.70 0.66 0.62 0.56 0.48 0.40 0.31 0.22 0.16 0.12 0.10 0.07 0.04 0.02 0.02 0.01 0.02 0.07 0.13 0.15 0.06 0.01 0.00 0.01 0.03 0.03 0.03 0.02 0.03 0.10 0.15 0.15 0.08 0.01 0.00 0.00 0.00 0.00 0.00 0.00 0.00 0.00 0.02
0.56 0.49 0.43 0.36 0.30 0.24 0.17 0.12 0.08 0.05 0.04 0.02 0.01 0.01 0.01 0.02 0.06 0.12 0.13 0.08 0.02 0.00 0.02 0.01 0.00 0.00 0.00 0.00 0.01 0.07 0.20 0.35 0.26 0.12 0.00 0.04 0.06 0.08 0.15 0.02 0.00 0.00 0.01

GEFSMA_prec_meanprecacc_048.txt.gz
Total_Precipitation_Accumulation
0.00 0.00 0.00 0.00 0.01 0.00 0.00 0.00 0.00 0.00 0.00 0.00 0.00 0.00 0.00 0.00 0.00 0.00 0.00 0.00 0.00 0.00 0.00 0.01 0.01 0.01 0.02 0.04 0.05 0.06 0.07 0.06 0.05 0.05 0.05 0.05 0.05 0.05 0.07 0.08 0.09 0.09 0.10
0.00 0.00 0.00 0.00 0.00 0.00 0.00 0.00 0.00 0.00 0.00 0.00 0.00 0.00 0.00 0.00 0.00 0.00 0.00 0.00 0.00 0.00 0.00 0.00 0.01 0.02 0.04 0.05 0.05 0.05 0.05 0.05 0.05 0.05 0.06 0.06 0.06 0.07 0.08 0.09 0.10 0.11 0.12
0.00 0.00 0.00 0.00 0.00 0.00 0.00 0.00 0.00 0.00 0.00 0.00 0.00 0.00 0.00 0.00 0.00 0.00 0.00 0.00 0.00 0.00 0.00 0.00 0.01 0.02 0.02 0.02 0.03 0.03 0.04 0.04 0.05 0.06 0.07 0.07 0.08 0.08 0.09 0.10 0.11 0.12 0.13
0.00 0.00 0.00 0.00 0.00 0.00 0.00 0.00 0.00 0.00 0.00 0.00 0.00 0.00 0.00 0.00 0.00 0.00 0.00 0.00 0.00 0.00 0.00 0.00 0.01 0.01 0.00 0.01 0.01 0.02 0.03 0.04 0.05 0.05 0.05 0.05 0.06 0.07 0.09 0.10 0.11 0.13 0.14
0.01 0.01 0.00 0.00 0.00 0.00 0.00 0.00 0.00 0.00 0.00 0.00 0.00 0.00 0.00 0.00 0.00 0.00 0.00 0.00 0.00 0.00 0.00 0.00 0.00 0.00 0.00 0.00 0.00 0.01 0.01 0.03 0.04 0.03 0.02 0.03 0.04 0.05 0.07 0.09 0.11 0.13 0.14
0.05 0.03 0.01 0.01 0.01 0.00 0.00 0.00 0.00 0.00 0.00 0.00 0.00 0.00 0.00 0.00 0.00 0.00 0.00 0.00 0.00 0.00 0.00 0.00 0.00 0.00 0.00 0.00 0.00 0.00 0.01 0.01 0.01 0.01 0.01 0.01 0.02 0.03 0.04 0.06 0.09 0.11 0.14
0.12 0.09 0.04 0.02 0.01 0.01 0.01 0.00 0.00 0.00 0.00 0.00 0.00 0.00 0.00 0.00 0.00 0.00 0.00 0.00 0.00 0.00 0.00 0.00 0.00 0.00 0.00 0.00 0.00 0.00 0.00 0.00 0.00 0.00 0.00 0.01 0.01 0.01 0.03 0.05 0.08 0.11 0.15
0.14 0.11 0.06 0.05 0.05 0.04 0.02 0.01 0.01 0.00 0.00 0.00 0.00 0.00 0.00 0.00 0.00 0.00 0.00 0.00 0.00 0.00 0.00 0.00 0.00 0.00 0.00 0.00 0.00 0.00 0.00 0.00 0.00 0.00 0.00 0.00 0.01 0.02 0.03 0.06 0.09 0.12 0.15
0.15 0.13 0.12 0.12 0.09 0.08 0.04 0.04 0.03 0.01 0.01 0.01 0.00 0.00 0.00 0.00 0.00 0.00 0.00 0.00 0.00 0.00 0.00 0.00 0.00 0.00 0.00 0.00 0.00 0.00 0.00 0.00 0.00 0.00 0.00 0.00 0.01 0.03 0.05 0.08 0.11 0.14 0.17
0.19 0.19 0.17 0.17 0.15 0.12 0.08 0.09 0.09 0.07 0.04 0.03 0.02 0.02 0.01 0.00 0.00 0.00 0.00 0.00 0.00 0.00 0.00 0.00 0.00 0.00 0.00 0.00 0.00 0.00 0.00 0.00 0.00 0.00 0.00 0.00 0.02 0.04 0.07 0.11 0.14 0.16 0.15
0.20 0.21 0.21 0.20 0.17 0.16 0.15 0.15 0.14 0.13 0.10 0.08 0.06 0.07 0.05 0.03 0.01 0.01 0.01 0.01 0.01 0.00 0.00 0.00 0.00 0.00 0.00 0.00 0.00 0.00 0.00 0.00 0.00 0.00 0.00 0.01 0.03 0.06 0.09 0.13 0.14 0.15 0.14
0.15 0.18 0.20 0.20 0.20 0.21 0.20 0.20 0.21 0.21 0.20 0.17 0.10 0.08 0.10 0.08 0.06 0.05 0.03 0.02 0.02 0.02 0.01 0.01 0.01 0.01 0.01 0.00 0.00 0.00 0.00 0.00 0.00 0.00 0.01 0.02 0.05 0.07 0.10 0.12 0.12 0.13 0.13
0.12 0.14 0.17 0.19 0.22 0.25 0.29 0.31 0.29 0.27 0.27 0.24 0.19 0.15 0.13 0.11 0.09 0.09 0.08 0.06 0.04 0.04 0.04 0.04 0.03 0.02 0.02 0.01 0.01 0.00 0.00 0.00 0.00 0.00 0.01 0.03 0.05 0.06 0.07 0.08 0.10 0.12 0.14
0.17 0.21 0.23 0.26 0.28 0.30 0.30 0.30 0.30 0.29 0.30 0.28 0.25 0.21 0.16 0.13 0.12 0.12 0.14 0.15 0.14 0.12 0.11 0.10 0.09 0.07 0.06 0.04 0.03 0.02 0.01 0.01 0.01 0.00 0.01 0.03 0.04 0.04 0.04 0.06 0.08 0.11 0.13
0.15 0.19 0.22 0.25 0.25 0.26 0.26 0.27 0.26 0.26 0.26 0.25 0.23 0.21 0.17 0.14 0.13 0.13 0.15 0.17 0.20 0.20 0.16 0.13 0.12 0.10 0.08 0.06 0.04 0.03 0.02 0.01 0.01 0.02 0.02 0.03 0.03 0.03 0.04 0.06 0.08 0.10 0.12
0.12 0.16 0.19 0.21 0.21 0.20 0.20 0.20 0.20 0.19 0.20 0.19 0.17 0.17 0.16 0.14 0.15 0.16 0.17 0.19 0.21 0.23 0.22 0.17 0.13 0.12 0.11 0.10 0.09 0.06 0.04 0.03 0.03 0.03 0.03 0.03 0.03 0.04 0.05 0.06 0.08 0.10 0.12
0.12 0.15 0.17 0.17 0.16 0.15 0.15 0.15 0.14 0.14 0.14 0.14 0.13 0.14 0.14 0.14 0.14 0.15 0.17 0.20 0.23 0.26 0.28 0.25 0.22 0.20 0.18 0.15 0.12 0.08 0.05 0.03 0.02 0.02 0.02 0.02 0.02 0.04 0.04 0.06 0.07 0.09 0.11
0.11 0.12 0.12 0.11 0.10 0.09 0.10 0.11 0.12 0.12 0.12 0.13 0.14 0.15 0.16 0.16 0.17 0.18 0.20 0.22 0.24 0.25 0.26 0.25 0.21 0.18 0.16 0.12 0.09 0.06 0.03 0.02 0.01 0.01 0.01 0.01 0.02 0.03 0.04 0.05 0.08 0.12 0.15
0.09 0.08 0.07 0.07 0.07 0.07 0.08 0.09 0.10 0.10 0.12 0.13 0.15 0.17 0.19 0.20 0.23 0.24 0.24 0.25 0.24 0.23 0.22 0.20 0.17 0.14 0.11 0.09 0.06 0.04 0.02 0.01 0.00 0.00 0.00 0.00 0.01 0.03 0.06 0.08 0.09 0.10 0.10
0.08 0.07 0.06 0.06 0.07 0.07 0.09 0.09 0.10 0.12 0.14 0.16 0.18 0.21 0.23 0.24 0.26 0.26 0.26 0.25 0.22 0.19 0.16 0.15 0.15 0.13 0.10 0.06 0.04 0.02 0.01 0.00 0.00 0.00 0.00 0.01 0.02 0.03 0.03 0.02 0.02 0.03 0.03
0.07 0.07 0.07 0.08 0.09 0.10 0.12 0.13 0.15 0.18 0.22 0.24 0.26 0.28 0.29 0.29 0.28 0.24 0.21 0.18 0.15 0.14 0.16 0.21 0.21 0.14 0.06 0.03 0.02 0.01 0.01 0.01 0.00 0.00 0.01 0.00 0.00 0.00 0.00 0.00 0.01 0.02 0.04
0.10 0.12 0.13 0.16 0.19 0.22 0.30 0.27 0.23 0.23 0.26 0.28 0.30 0.29 0.28 0.25 0.21 0.18 0.16 0.14 0.16 0.20 0.25 0.28 0.18 0.07 0.02 0.01 0.01 0.03 0.05 0.08 0.05 0.00 0.01 0.00 0.00 0.00 0.00 0.01 0.01 0.03 0.05
0.25 0.28 0.30 0.32 0.35 0.41 0.45 0.39 0.36 0.31 0.31 0.30 0.28 0.25 0.21 0.18 0.15 0.10 0.09 0.10 0.13 0.16 0.18 0.13 0.05 0.01 0.01 0.02 0.07 0.12 0.10 0.11 0.07 0.01 0.02 0.02 0.00 0.01 0.01 0.00 0.01 0.01 0.02
0.55 0.57 0.58 0.56 0.53 0.52 0.48 0.41 0.37 0.32 0.30 0.26 0.20 0.16 0.12 0.09 0.06 0.06 0.08 0.13 0.10 0.06 0.03 0.01 0.01 0.02 0.03 0.03 0.07 0.14 0.13 0.09 0.03 0.00 0.01 0.02 0.00 0.00 0.00 0.00 0.00 0.00 0.02
0.71 0.67 0.65 0.60 0.53 0.46 0.37 0.28 0.21 0.17 0.15 0.13 0.10 0.07 0.06 0.05 0.05 0.09 0.14 0.16 0.06 0.01 0.00 0.01 0.03 0.03 0.03 0.02 0.03 0.10 0.15 0.15 0.09 0.01 0.00 0.00 0.00 0.00 0.00 0.00 0.00 0.00 0.02
0.57 0.50 0.45 0.39 0.33 0.28 0.21 0.15 0.11 0.08 0.06 0.05 0.03 0.02 0.02 0.03 0.06 0.12 0.13 0.08 0.02 0.00 0.02 0.01 0.00 0.00 0.00 0.00 0.01 0.07 0.20 0.35 0.26 0.12 0.00 0.04 0.06 0.08 0.15 0.02 0.00 0.00 0.01

GEFSMA_prec_meanprecacc_054.txt.gz
Total_Precipitation_Accumulation
0.00 0.00 0.00 0.00 0.01 0.00 0.00 0.00 0.00 0.00 0.00 0.00 0.00 0.00 0.00 0.00 0.00 0.00 0.00 0.00 0.00 0.00 0.00 0.01 0.01 0.01 0.02 0.04 0.05 0.06 0.07 0.06 0.05 0.05 0.05 0.05 0.05 0.05 0.07 0.08 0.09 0.09 0.10
0.00 0.00 0.00 0.00 0.00 0.00 0.00 0.00 0.00 0.00 0.00 0.00 0.00 0.00 0.00 0.00 0.00 0.00 0.00 0.00 0.00 0.00 0.00 0.00 0.01 0.02 0.04 0.05 0.05 0.05 0.05 0.05 0.05 0.05 0.06 0.06 0.06 0.07 0.08 0.09 0.10 0.11 0.12
0.00 0.00 0.00 0.00 0.00 0.00 0.00 0.00 0.00 0.00 0.00 0.00 0.00 0.00 0.00 0.00 0.00 0.00 0.00 0.00 0.00 0.00 0.00 0.00 0.01 0.02 0.02 0.02 0.03 0.03 0.04 0.04 0.05 0.06 0.07 0.07 0.08 0.08 0.09 0.10 0.11 0.12 0.13
0.01 0.00 0.00 0.00 0.00 0.00 0.00 0.00 0.00 0.00 0.00 0.00 0.00 0.00 0.00 0.00 0.00 0.00 0.00 0.00 0.00 0.00 0.00 0.00 0.01 0.01 0.00 0.01 0.01 0.02 0.03 0.04 0.05 0.05 0.05 0.05 0.06 0.07 0.09 0.10 0.11 0.13 0.14
0.03 0.01 0.00 0.00 0.01 0.01 0.00 0.00 0.00 0.00 0.00 0.00 0.00 0.00 0.00 0.00 0.00 0.00 0.00 0.00 0.00 0.00 0.00 0.00 0.00 0.00 0.00 0.00 0.00 0.01 0.01 0.03 0.04 0.03 0.02 0.03 0.04 0.05 0.07 0.09 0.11 0.13 0.14
0.08 0.05 0.02 0.02 0.02 0.02 0.01 0.01 0.01 0.01 0.01 0.01 0.01 0.00 0.00 0.00 0.00 0.00 0.00 0.00 0.00 0.00 0.00 0.00 0.00 0.00 0.00 0.00 0.00 0.00 0.01 0.01 0.01 0.01 0.01 0.01 0.02 0.03 0.04 0.06 0.09 0.11 0.14
0.16 0.13 0.07 0.05 0.05 0.04 0.03 0.03 0.03 0.03 0.03 0.03 0.02 0.01 0.00 0.00 0.00 0.00 0.00 0.00 0.00 0.00 0.00 0.00 0.00 0.00 0.00 0.00 0.00 0.00 0.00 0.00 0.00 0.00 0.00 0.01 0.01 0.01 0.03 0.05 0.08 0.11 0.15
0.18 0.16 0.11 0.10 0.10 0.09 0.07 0.06 0.06 0.05 0.05 0.06 0.04 0.03 0.01 0.00 0.00 0.00 0.00 0.00 0.00 0.00 0.00 0.00 0.00 0.00 0.00 0.00 0.00 0.00 0.00 0.00 0.00 0.00 0.00 0.00 0.01 0.02 0.03 0.06 0.09 0.12 0.15
0.19 0.16 0.17 0.17 0.15 0.14 0.11 0.11 0.10 0.08 0.08 0.09 0.08 0.06 0.02 0.01 0.01 0.00 0.01 0.01 0.01 0.01 0.01 0.01 0.01 0.01 0.01 0.00 0.00 0.00 0.00 0.00 0.00 0.00 0.00 0.00 0.01 0.03 0.05 0.08 0.11 0.14 0.17
0.21 0.21 0.20 0.20 0.19 0.17 0.14 0.16 0.18 0.17 0.15 0.12 0.12 0.09 0.07 0.04 0.02 0.01 0.02 0.03 0.03 0.02 0.02 0.02 0.02 0.01 0.01 0.01 0.00 0.00 0.01 0.01 0.01 0.01 0.01 0.01 0.02 0.04 0.08 0.11 0.14 0.16 0.15
0.21 0.22 0.22 0.22 0.20 0.20 0.20 0.22 0.24 0.24 0.22 0.19 0.16 0.17 0.17 0.11 0.05 0.04 0.03 0.04 0.05 0.05 0.04 0.03 0.02 0.02 0.01 0.02 0.02 0.02 0.02 0.02 0.02 0.01 0.01 0.02 0.03 0.06 0.10 0.13 0.14 0.15 0.14
0.15 0.19 0.22 0.22 0.23 0.24 0.24 0.26 0.30 0.31 0.32 0.29 0.22 0.19 0.22 0.20 0.16 0.14 0.12 0.08 0.08 0.08 0.07 0.06 0.06 0.05 0.05 0.05 0.06 0.06 0.06 0.05 0.05 0.04 0.04 0.05 0.07 0.09 0.12 0.13 0.13 0.13 0.14
0.12 0.14 0.18 0.20 0.24 0.28 0.33 0.36 0.36 0.36 0.39 0.37 0.33 0.28 0.27 0.25 0.25 0.26 0.24 0.19 0.16 0.14 0.14 0.14 0.13 0.12 0.12 0.12 0.13 0.15 0.15 0.15 0.14 0.12 0.11 0.12 0.12 0.11 0.10 0.11 0.12 0.13 0.15
0.17 0.21 0.23 0.26 0.29 0.32 0.33 0.35 0.35 0.37 0.40 0.40 0.39 0.37 0.31 0.28 0.30 0.33 0.36 0.39 0.36 0.30 0.27 0.26 0.25 0.24 0.24 0.25 0.26 0.27 0.24 0.24 0.22 0.20 0.18 0.18 0.15 0.13 0.11 0.11 0.12 0.13 0.14
0.15 0.19 0.22 0.25 0.26 0.27 0.28 0.30 0.30 0.31 0.34 0.35 0.35 0.35 0.33 0.30 0.31 0.33 0.38 0.43 0.49 0.46 0.38 0.31 0.30 0.29 0.29 0.29 0.31 0.29 0.25 0.27 0.25 0.23 0.22 0.19 0.17 0.14 0.13 0.13 0.12 0.13 0.13
0.12 0.16 0.19 0.21 0.21 0.21 0.21 0.22 0.23 0.23 0.25 0.26 0.26 0.28 0.28 0.27 0.29 0.31 0.35 0.40 0.44 0.48 0.45 0.35 0.30 0.30 0.32 0.31 0.33 0.29 0.24 0.25 0.22 0.20 0.18 0.15 0.13 0.11 0.10 0.09 0.10 0.11 0.12
0.12 0.15 0.17 0.17 0.16 0.15 0.15 0.16 0.16 0.16 0.18 0.18 0.19 0.21 0.23 0.23 0.24 0.26 0.30 0.35 0.39 0.43 0.47 0.42 0.37 0.37 0.37 0.34 0.31 0.26 0.21 0.17 0.14 0.13 0.11 0.10 0.08 0.08 0.07 0.07 0.08 0.09 0.11
0.11 0.12 0.12 0.11 0.10 0.09 0.10 0.11 0.13 0.13 0.14 0.15 0.17 0.19 0.21 0.23 0.26 0.28 0.31 0.34 0.36 0.38 0.40 0.39 0.34 0.31 0.29 0.25 0.20 0.15 0.11 0.09 0.07 0.06 0.06 0.05 0.05 0.05 0.05 0.06 0.09 0.12 0.15
0.09 0.08 0.07 0.07 0.07 0.07 0.09 0.10 0.11 0.11 0.13 0.15 0.17 0.19 0.21 0.23 0.27 0.28 0.29 0.31 0.31 0.31 0.30 0.30 0.26 0.22 0.19 0.15 0.12 0.09 0.06 0.04 0.03 0.02 0.02 0.02 0.02 0.04 0.06 0.08 0.09 0.10 0.10
0.08 0.07 0.06 0.06 0.07 0.07 0.09 0.10 0.11 0.12 0.15 0.16 0.19 0.21 0.24 0.26 0.27 0.28 0.29 0.30 0.28 0.25 0.23 0.22 0.22 0.20 0.16 0.11 0.08 0.05 0.03 0.02 0.02 0.01 0.01 0.01 0.02 0.03 0.03 0.02 0.02 0.03 0.03
0.07 0.07 0.07 0.08 0.09 0.10 0.12 0.13 0.15 0.18 0.22 0.25 0.27 0.29 0.30 0.32 0.31 0.28 0.25 0.22 0.19 0.18 0.21 0.25 0.25 0.19 0.11 0.07 0.05 0.03 0.03 0.02 0.01 0.01 0.01 0.01 0.00 0.00 0.00 0.00 0.01 0.02 0.04
0.10 0.12 0.13 0.16 0.19 0.22 0.30 0.27 0.23 0.23 0.27 0.29 0.30 0.30 0.29 0.28 0.24 0.22 0.20 0.18 0.19 0.23 0.30 0.32 0.23 0.11 0.05 0.04 0.03 0.04 0.06 0.08 0.06 0.01 0.01 0.00 0.00 0.00 0.00 0.01 0.01 0.03 0.05
0.25 0.28 0.30 0.32 0.35 0.41 0.46 0.40 0.36 0.31 0.31 0.31 0.29 0.26 0.23 0.20 0.18 0.14 0.12 0.13 0.15 0.19 0.20 0.14 0.07 0.03 0.03 0.04 0.08 0.12 0.11 0.12 0.07 0.01 0.02 0.02 0.00 0.01 0.01 0.00 0.01 0.01 0.02
0.55 0.57 0.58 0.56 0.53 0.52 0.49 0.41 0.37 0.32 0.30 0.26 0.21 0.16 0.13 0.10 0.08 0.08 0.09 0.14 0.11 0.08 0.04 0.02 0.02 0.02 0.03 0.04 0.07 0.14 0.14 0.10 0.03 0.00 0.01 0.02 0.00 0.00 0.00 0.00 0.00 0.00 0.02
0.71 0.67 0.65 0.60 0.53 0.46 0.37 0.28 0.21 0.17 0.15 0.13 0.10 0.07 0.06 0.05 0.06 0.10 0.15 0.17 0.07 0.01 0.01 0.02 0.03 0.03 0.03 0.02 0.03 0.10 0.15 0.15 0.09 0.01 0.00 0.00 0.00 0.00 0.00 0.00 0.00 0.00 0.02
0.57 0.50 0.45 0.39 0.33 0.28 0.21 0.15 0.11 0.08 0.06 0.05 0.03 0.02 0.02 0.03 0.06 0.12 0.13 0.09 0.02 0.01 0.02 0.01 0.00 0.00 0.00 0.00 0.01 0.07 0.20 0.35 0.26 0.12 0.00 0.04 0.06 0.08 0.15 0.02 0.00 0.00 0.01

GEFSMA_prec_meanprecacc_060.txt.gz
Total_Precipitation_Accumulation
0.00 0.00 0.00 0.00 0.01 0.00 0.00 0.00 0.00 0.00 0.00 0.00 0.00 0.00 0.00 0.00 0.00 0.00 0.00 0.00 0.00 0.00 0.01 0.01 0.01 0.01 0.02 0.04 0.05 0.06 0.07 0.06 0.05 0.05 0.05 0.05 0.05 0.05 0.07 0.08 0.09 0.09 0.10
0.00 0.00 0.00 0.00 0.00 0.00 0.00 0.00 0.00 0.00 0.00 0.00 0.00 0.00 0.00 0.00 0.00 0.00 0.00 0.00 0.00 0.00 0.00 0.00 0.01 0.02 0.04 0.05 0.05 0.05 0.05 0.05 0.05 0.05 0.06 0.06 0.06 0.07 0.08 0.09 0.10 0.11 0.12
0.00 0.00 0.00 0.00 0.00 0.00 0.00 0.00 0.00 0.00 0.00 0.00 0.00 0.00 0.00 0.00 0.00 0.00 0.00 0.00 0.00 0.00 0.00 0.00 0.01 0.02 0.02 0.02 0.03 0.03 0.04 0.04 0.05 0.06 0.07 0.07 0.08 0.08 0.09 0.10 0.11 0.12 0.13
0.01 0.00 0.00 0.00 0.00 0.00 0.00 0.00 0.00 0.00 0.00 0.00 0.00 0.00 0.00 0.00 0.00 0.00 0.00 0.00 0.00 0.00 0.00 0.00 0.01 0.01 0.01 0.01 0.01 0.02 0.03 0.04 0.05 0.05 0.05 0.05 0.06 0.07 0.09 0.10 0.11 0.13 0.14
0.03 0.02 0.01 0.00 0.01 0.01 0.00 0.00 0.00 0.00 0.00 0.00 0.00 0.00 0.00 0.00 0.00 0.00 0.00 0.00 0.00 0.00 0.00 0.00 0.00 0.00 0.00 0.00 0.00 0.01 0.01 0.03 0.04 0.03 0.02 0.03 0.04 0.05 0.07 0.09 0.11 0.13 0.14
0.09 0.06 0.03 0.03 0.03 0.02 0.01 0.01 0.01 0.01 0.01 0.02 0.02 0.01 0.01 0.01 0.01 0.00 0.00 0.00 0.00 0.01 0.01 0.01 0.00 0.00 0.00 0.00 0.00 0.00 0.01 0.01 0.01 0.01 0.01 0.01 0.02 0.03 0.04 0.06 0.09 0.11 0.14
0.18 0.15 0.09 0.07 0.07 0.05 0.05 0.05 0.05 0.05 0.04 0.06 0.05 0.02 0.01 0.01 0.01 0.01 0.01 0.01 0.01 0.02 0.02 0.02 0.01 0.01 0.00 0.00 0.00 0.00 0.00 0.00 0.00 0.00 0.01 0.01 0.01 0.01 0.03 0.05 0.08 0.11 0.15
0.21 0.19 0.14 0.13 0.13 0.12 0.10 0.09 0.08 0.07 0.07 0.09 0.08 0.06 0.02 0.00 0.00 0.01 0.01 0.01 0.01 0.02 0.02 0.03 0.03 0.02 0.02 0.01 0.01 0.01 0.01 0.01 0.02 0.02 0.01 0.01 0.01 0.02 0.03 0.06 0.09 0.12 0.16
0.21 0.19 0.19 0.20 0.18 0.17 0.13 0.13 0.13 0.11 0.11 0.12 0.12 0.12 0.05 0.01 0.01 0.01 0.02 0.02 0.03 0.02 0.03 0.04 0.04 0.04 0.03 0.03 0.03 0.03 0.04 0.04 0.04 0.05 0.04 0.02 0.02 0.03 0.05 0.08 0.11 0.15 0.17
0.22 0.22 0.21 0.21 0.20 0.19 0.16 0.18 0.21 0.19 0.18 0.14 0.14 0.11 0.09 0.06 0.04 0.02 0.02 0.04 0.05 0.04 0.05 0.05 0.05 0.04 0.04 0.04 0.06 0.08 0.10 0.10 0.10 0.10 0.10 0.06 0.05 0.07 0.10 0.13 0.15 0.17 0.17
0.21 0.23 0.23 0.23 0.21 0.21 0.21 0.24 0.26 0.26 0.24 0.21 0.18 0.18 0.18 0.12 0.07 0.07 0.05 0.04 0.06 0.07 0.07 0.06 0.06 0.05 0.06 0.07 0.09 0.12 0.16 0.17 0.18 0.17 0.16 0.13 0.12 0.14 0.17 0.20 0.21 0.20 0.18
0.15 0.19 0.22 0.22 0.23 0.25 0.25 0.27 0.31 0.33 0.34 0.30 0.24 0.21 0.24 0.22 0.17 0.16 0.14 0.10 0.10 0.11 0.11 0.10 0.10 0.10 0.11 0.13 0.16 0.21 0.25 0.27 0.29 0.28 0.25 0.23 0.22 0.22 0.24 0.25 0.25 0.24 0.22
0.12 0.14 0.18 0.20 0.24 0.28 0.33 0.37 0.37 0.36 0.40 0.39 0.35 0.30 0.29 0.27 0.27 0.28 0.27 0.22 0.18 0.17 0.17 0.18 0.18 0.18 0.20 0.22 0.26 0.34 0.38 0.42 0.43 0.42 0.40 0.37 0.34 0.29 0.26 0.25 0.27 0.28 0.28
0.17 0.21 0.23 0.26 0.29 0.32 0.33 0.35 0.35 0.37 0.40 0.41 0.41 0.38 0.33 0.30 0.32 0.35 0.38 0.42 0.40 0.34 0.31 0.31 0.32 0.33 0.34 0.36 0.41 0.47 0.46 0.51 0.49 0.48 0.47 0.45 0.40 0.33 0.27 0.24 0.25 0.27 0.28
0.15 0.19 0.22 0.25 0.26 0.27 0.28 0.30 0.30 0.32 0.34 0.35 0.35 0.36 0.35 0.32 0.32 0.35 0.40 0.46 0.52 0.50 0.41 0.35 0.36 0.38 0.40 0.42 0.47 0.46 0.43 0.50 0.50 0.47 0.46 0.42 0.37 0.31 0.26 0.23 0.22 0.22 0.22
0.12 0.16 0.19 0.21 0.21 0.21 0.21 0.22 0.23 0.24 0.26 0.26 0.26 0.28 0.29 0.28 0.29 0.32 0.36 0.41 0.47 0.53 0.50 0.39 0.35 0.37 0.40 0.42 0.45 0.41 0.38 0.43 0.42 0.40 0.38 0.34 0.29 0.24 0.21 0.19 0.18 0.19 0.20
0.12 0.15 0.17 0.17 0.16 0.15 0.15 0.16 0.16 0.17 0.18 0.18 0.19 0.21 0.23 0.23 0.25 0.27 0.31 0.36 0.41 0.46 0.51 0.46 0.41 0.42 0.43 0.40 0.39 0.35 0.31 0.29 0.27 0.28 0.27 0.24 0.21 0.19 0.16 0.15 0.15 0.15 0.16
0.11 0.12 0.12 0.11 0.10 0.09 0.10 0.11 0.13 0.13 0.14 0.15 0.17 0.19 0.21 0.23 0.26 0.28 0.31 0.34 0.37 0.38 0.41 0.40 0.36 0.33 0.32 0.29 0.25 0.21 0.17 0.15 0.13 0.15 0.15 0.14 0.14 0.12 0.11 0.11 0.13 0.15 0.17
0.09 0.08 0.07 0.07 0.07 0.07 0.09 0.10 0.11 0.11 0.13 0.15 0.17 0.19 0.21 0.23 0.27 0.28 0.29 0.31 0.32 0.31 0.31 0.31 0.27 0.23 0.20 0.18 0.15 0.12 0.09 0.07 0.06 0.06 0.06 0.07 0.07 0.08 0.10 0.12 0.12 0.12 0.12
0.08 0.07 0.06 0.06 0.07 0.07 0.09 0.10 0.11 0.12 0.15 0.16 0.19 0.21 0.24 0.26 0.27 0.28 0.29 0.30 0.28 0.25 0.23 0.23 0.23 0.21 0.18 0.13 0.10 0.07 0.05 0.04 0.03 0.03 0.03 0.03 0.04 0.05 0.05 0.04 0.04 0.04 0.04
0.07 0.07 0.07 0.08 0.09 0.10 0.12 0.13 0.15 0.18 0.22 0.25 0.27 0.29 0.30 0.32 0.31 0.28 0.25 0.22 0.19 0.18 0.21 0.26 0.26 0.19 0.12 0.08 0.06 0.04 0.04 0.03 0.02 0.02 0.02 0.01 0.01 0.01 0.01 0.01 0.01 0.02 0.05
0.10 0.12 0.13 0.16 0.19 0.22 0.30 0.27 0.23 0.23 0.27 0.29 0.30 0.30 0.29 0.28 0.25 0.22 0.20 0.18 0.19 0.23 0.30 0.32 0.23 0.12 0.06 0.04 0.04 0.05 0.07 0.09 0.06 0.01 0.01 0.01 0.00 0.00 0.00 0.01 0.01 0.03 0.05
0.25 0.28 0.30 0.32 0.35 0.41 0.46 0.40 0.36 0.31 0.31 0.31 0.29 0.26 0.23 0.20 0.18 0.14 0.12 0.13 0.15 0.19 0.20 0.14 0.07 0.03 0.03 0.04 0.08 0.13 0.12 0.12 0.08 0.01 0.02 0.02 0.00 0.01 0.01 0.01 0.01 0.01 0.02
0.55 0.57 0.58 0.56 0.53 0.52 0.49 0.41 0.37 0.32 0.30 0.26 0.21 0.16 0.13 0.10 0.08 0.08 0.09 0.14 0.11 0.08 0.04 0.02 0.02 0.02 0.03 0.04 0.08 0.14 0.14 0.10 0.03 0.01 0.01 0.02 0.00 0.00 0.00 0.00 0.00 0.00 0.02
0.71 0.67 0.65 0.60 0.53 0.46 0.37 0.28 0.21 0.17 0.15 0.13 0.10 0.07 0.06 0.05 0.06 0.10 0.15 0.17 0.07 0.01 0.01 0.02 0.03 0.03 0.03 0.02 0.03 0.10 0.15 0.15 0.09 0.01 0.00 0.00 0.00 0.00 0.00 0.00 0.00 0.00 0.02
0.57 0.50 0.45 0.39 0.33 0.28 0.21 0.15 0.11 0.08 0.06 0.05 0.03 0.02 0.02 0.03 0.06 0.12 0.13 0.09 0.02 0.01 0.02 0.01 0.00 0.00 0.00 0.00 0.01 0.07 0.20 0.35 0.26 0.12 0.00 0.04 0.06 0.08 0.15 0.02 0.00 0.00 0.01

GEFSMA_prec_meanprecacc_066.txt.gz
Total_Precipitation_Accumulation
0.00 0.00 0.00 0.00 0.01 0.00 0.00 0.00 0.00 0.00 0.00 0.00 0.00 0.00 0.00 0.00 0.00 0.00 0.00 0.00 0.00 0.00 0.01 0.01 0.01 0.01 0.02 0.04 0.05 0.06 0.07 0.06 0.05 0.05 0.05 0.05 0.05 0.05 0.07 0.08 0.09 0.09 0.10
0.00 0.00 0.00 0.00 0.00 0.00 0.00 0.00 0.00 0.00 0.00 0.00 0.00 0.00 0.00 0.00 0.00 0.00 0.00 0.00 0.00 0.00 0.00 0.01 0.01 0.03 0.04 0.05 0.05 0.05 0.05 0.05 0.05 0.05 0.06 0.06 0.06 0.07 0.08 0.09 0.10 0.11 0.12
0.00 0.00 0.00 0.00 0.00 0.00 0.00 0.00 0.00 0.00 0.00 0.00 0.00 0.00 0.00 0.00 0.00 0.00 0.00 0.00 0.00 0.00 0.00 0.00 0.02 0.04 0.05 0.04 0.03 0.03 0.04 0.04 0.05 0.06 0.07 0.07 0.08 0.08 0.09 0.10 0.11 0.12 0.13
0.01 0.00 0.00 0.00 0.00 0.00 0.00 0.00 0.00 0.00 0.00 0.00 0.00 0.00 0.00 0.00 0.00 0.00 0.00 0.00 0.00 0.00 0.00 0.00 0.02 0.03 0.04 0.04 0.03 0.03 0.03 0.04 0.05 0.05 0.05 0.05 0.06 0.07 0.09 0.10 0.11 0.13 0.14
0.03 0.02 0.01 0.01 0.01 0.01 0.00 0.00 0.00 0.00 0.00 0.00 0.00 0.00 0.00 0.00 0.00 0.00 0.00 0.00 0.00 0.01 0.01 0.01 0.01 0.02 0.03 0.03 0.03 0.03 0.03 0.04 0.04 0.03 0.02 0.03 0.04 0.05 0.07 0.09 0.11 0.13 0.14
0.09 0.06 0.03 0.03 0.04 0.03 0.02 0.02 0.02 0.02 0.02 0.02 0.02 0.01 0.01 0.01 0.01 0.00 0.00 0.01 0.01 0.02 0.02 0.02 0.02 0.01 0.01 0.02 0.02 0.03 0.05 0.05 0.03 0.01 0.01 0.01 0.02 0.03 0.04 0.06 0.09 0.11 0.14
0.19 0.16 0.09 0.08 0.08 0.06 0.06 0.06 0.06 0.05 0.05 0.06 0.05 0.02 0.01 0.01 0.01 0.01 0.01 0.01 0.01 0.02 0.02 0.03 0.02 0.01 0.01 0.01 0.02 0.02 0.04 0.06 0.06 0.03 0.02 0.01 0.01 0.01 0.03 0.06 0.08 0.11 0.15
0.22 0.20 0.15 0.14 0.15 0.13 0.11 0.10 0.10 0.08 0.08 0.10 0.09 0.07 0.03 0.01 0.00 0.01 0.01 0.01 0.02 0.03 0.03 0.04 0.03 0.03 0.02 0.01 0.01 0.02 0.03 0.07 0.10 0.10 0.07 0.04 0.02 0.03 0.04 0.06 0.09 0.12 0.16
0.22 0.19 0.20 0.21 0.19 0.18 0.14 0.14 0.15 0.13 0.12 0.13 0.13 0.14 0.08 0.02 0.01 0.01 0.02 0.02 0.03 0.02 0.03 0.04 0.04 0.04 0.03 0.03 0.03 0.04 0.05 0.07 0.10 0.15 0.15 0.12 0.08 0.06 0.07 0.09 0.12 0.16 0.18
0.22 0.22 0.21 0.22 0.21 0.19 0.17 0.19 0.22 0.20 0.19 0.16 0.15 0.12 0.11 0.07 0.06 0.04 0.02 0.04 0.05 0.04 0.05 0.05 0.05 0.05 0.04 0.05 0.06 0.08 0.11 0.12 0.14 0.19 0.24 0.25 0.19 0.16 0.16 0.18 0.20 0.22 0.22
0.21 0.23 0.23 0.23 0.21 0.21 0.22 0.24 0.26 0.26 0.25 0.22 0.19 0.20 0.19 0.13 0.08 0.09 0.07 0.05 0.06 0.07 0.07 0.06 0.06 0.05 0.06 0.07 0.09 0.13 0.18 0.19 0.21 0.25 0.30 0.34 0.34 0.32 0.33 0.34 0.33 0.32 0.29
0.15 0.19 0.22 0.22 0.23 0.25 0.25 0.27 0.31 0.33 0.34 0.31 0.26 0.22 0.25 0.23 0.18 0.18 0.16 0.11 0.11 0.11 0.11 0.10 0.10 0.10 0.11 0.13 0.16 0.22 0.26 0.29 0.32 0.35 0.38 0.44 0.48 0.49 0.50 0.49 0.48 0.46 0.43
0.12 0.14 0.18 0.20 0.24 0.28 0.33 0.37 0.37 0.37 0.40 0.39 0.36 0.32 0.31 0.29 0.29 0.30 0.29 0.23 0.19 0.17 0.17 0.18 0.18 0.18 0.20 0.22 0.26 0.34 0.39 0.43 0.46 0.48 0.52 0.60 0.62 0.59 0.55 0.52 0.53 0.53 0.52
0.17 0.21 0.23 0.26 0.29 0.32 0.33 0.35 0.36 0.37 0.40 0.41 0.41 0.39 0.34 0.31 0.33 0.36 0.40 0.44 0.41 0.35 0.32 0.31 0.32 0.33 0.34 0.36 0.41 0.47 0.46 0.51 0.51 0.52 0.57 0.62 0.61 0.56 0.49 0.45 0.47 0.49 0.51
0.15 0.19 0.22 0.25 0.26 0.27 0.28 0.30 0.30 0.32 0.34 0.35 0.36 0.37 0.35 0.32 0.32 0.35 0.40 0.47 0.54 0.51 0.42 0.35 0.36 0.38 0.40 0.42 0.47 0.46 0.44 0.50 0.52 0.51 0.53 0.54 0.51 0.47 0.42 0.40 0.39 0.39 0.38
0.12 0.16 0.19 0.21 0.21 0.21 0.21 0.22 0.23 0.24 0.26 0.26 0.27 0.29 0.29 0.28 0.29 0.32 0.37 0.42 0.48 0.53 0.50 0.39 0.35 0.37 0.40 0.42 0.45 0.41 0.38 0.44 0.43 0.43 0.43 0.43 0.40 0.36 0.32 0.31 0.31 0.31 0.32
0.12 0.15 0.17 0.17 0.16 0.15 0.15 0.16 0.16 0.17 0.18 0.18 0.19 0.21 0.23 0.23 0.25 0.27 0.31 0.36 0.41 0.46 0.51 0.46 0.41 0.42 0.43 0.40 0.39 0.35 0.31 0.30 0.28 0.31 0.31 0.30 0.28 0.26 0.24 0.23 0.22 0.23 0.24
0.11 0.12 0.12 0.11 0.10 0.09 0.10 0.11 0.13 0.13 0.14 0.15 0.17 0.19 0.21 0.23 0.26 0.28 0.31 0.34 0.37 0.38 0.41 0.40 0.36 0.33 0.32 0.29 0.25 0.21 0.17 0.15 0.13 0.16 0.17 0.18 0.17 0.16 0.15 0.15 0.17 0.19 0.22
0.09 0.08 0.07 0.07 0.07 0.07 0.09 0.10 0.11 0.11 0.13 0.15 0.17 0.19 0.21 0.23 0.27 0.28 0.29 0.31 0.32 0.31 0.31 0.31 0.27 0.23 0.20 0.18 0.15 0.12 0.09 0.07 0.06 0.06 0.07 0.08 0.09 0.10 0.12 0.14 0.15 0.14 0.14
0.08 0.07 0.06 0.06 0.07 0.07 0.09 0.10 0.11 0.12 0.15 0.16 0.19 0.21 0.24 0.26 0.27 0.28 0.29 0.30 0.28 0.25 0.23 0.23 0.23 0.21 0.18 0.13 0.10 0.07 0.05 0.04 0.03 0.03 0.03 0.04 0.05 0.05 0.05 0.05 0.05 0.05 0.05
0.07 0.07 0.07 0.08 0.09 0.10 0.12 0.13 0.15 0.18 0.22 0.25 0.27 0.29 0.30 0.32 0.31 0.28 0.25 0.22 0.19 0.18 0.21 0.26 0.26 0.19 0.12 0.08 0.06 0.04 0.04 0.03 0.02 0.02 0.02 0.01 0.01 0.01 0.01 0.01 0.02 0.03 0.05
0.10 0.12 0.13 0.16 0.19 0.22 0.30 0.27 0.23 0.23 0.27 0.29 0.30 0.30 0.29 0.28 0.25 0.23 0.20 0.18 0.19 0.23 0.30 0.32 0.23 0.12 0.06 0.04 0.04 0.05 0.07 0.09 0.06 0.01 0.01 0.01 0.00 0.00 0.00 0.01 0.02 0.03 0.05
0.25 0.28 0.30 0.32 0.35 0.42 0.46 0.40 0.36 0.31 0.31 0.31 0.29 0.26 0.23 0.20 0.18 0.14 0.12 0.13 0.15 0.19 0.20 0.14 0.07 0.03 0.03 0.04 0.08 0.13 0.12 0.12 0.08 0.01 0.02 0.02 0.00 0.01 0.01 0.01 0.01 0.01 0.02
0.55 0.57 0.58 0.56 0.53 0.52 0.49 0.42 0.37 0.32 0.30 0.26 0.21 0.16 0.13 0.10 0.08 0.08 0.09 0.14 0.11 0.08 0.04 0.02 0.02 0.02 0.03 0.04 0.08 0.14 0.14 0.10 0.03 0.01 0.01 0.02 0.00 0.00 0.00 0.00 0.00 0.00 0.02
0.72 0.67 0.65 0.60 0.53 0.46 0.37 0.28 0.21 0.17 0.15 0.13 0.10 0.07 0.06 0.05 0.06 0.10 0.15 0.17 0.07 0.01 0.01 0.02 0.03 0.03 0.03 0.02 0.03 0.10 0.15 0.15 0.09 0.01 0.00 0.00 0.00 0.00 0.00 0.00 0.00 0.00 0.02
0.58 0.50 0.45 0.39 0.33 0.28 0.21 0.15 0.11 0.08 0.06 0.05 0.03 0.02 0.02 0.03 0.06 0.12 0.13 0.09 0.02 0.01 0.02 0.01 0.00 0.00 0.00 0.00 0.01 0.07 0.20 0.35 0.26 0.12 0.00 0.04 0.06 0.08 0.15 0.02 0.00 0.00 0.01

GEFSMA_prec_meanprecacc_072.txt.gz
Total_Precipitation_Accumulation
0.00 0.00 0.00 0.00 0.01 0.00 0.00 0.00 0.00 0.00 0.00 0.00 0.00 0.00 0.00 0.00 0.00 0.00 0.00 0.00 0.00 0.00 0.01 0.01 0.02 0.02 0.02 0.04 0.05 0.06 0.07 0.06 0.05 0.05 0.05 0.05 0.05 0.05 0.07 0.08 0.09 0.09 0.10
0.00 0.00 0.00 0.00 0.00 0.00 0.00 0.00 0.00 0.00 0.00 0.00 0.00 0.00 0.00 0.00 0.00 0.00 0.00 0.00 0.00 0.00 0.00 0.01 0.01 0.03 0.05 0.06 0.06 0.06 0.05 0.05 0.05 0.05 0.06 0.06 0.06 0.07 0.08 0.09 0.10 0.11 0.12
0.00 0.00 0.00 0.00 0.00 0.00 0.00 0.00 0.00 0.00 0.00 0.00 0.00 0.00 0.00 0.00 0.00 0.00 0.00 0.00 0.00 0.00 0.00 0.00 0.02 0.04 0.06 0.06 0.06 0.05 0.04 0.04 0.05 0.06 0.07 0.07 0.08 0.08 0.09 0.10 0.11 0.12 0.13
0.01 0.00 0.00 0.00 0.01 0.00 0.00 0.00 0.00 0.00 0.00 0.00 0.00 0.00 0.01 0.01 0.00 0.00 0.00 0.00 0.00 0.00 0.00 0.00 0.02 0.03 0.05 0.06 0.07 0.08 0.07 0.06 0.05 0.05 0.05 0.05 0.06 0.07 0.09 0.10 0.11 0.13 0.14
0.04 0.02 0.01 0.01 0.02 0.01 0.01 0.01 0.00 0.01 0.01 0.02 0.02 0.02 0.01 0.01 0.01 0.00 0.00 0.00 0.00 0.01 0.01 0.01 0.01 0.02 0.03 0.04 0.05 0.08 0.10 0.10 0.06 0.04 0.03 0.03 0.04 0.05 0.07 0.09 0.11 0.13 0.14
0.10 0.07 0.04 0.04 0.05 0.04 0.03 0.04 0.03 0.04 0.04 0.05 0.04 0.02 0.01 0.01 0.01 0.01 0.01 0.01 0.01 0.02 0.02 0.02 0.02 0.01 0.01 0.02 0.03 0.05 0.10 0.13 0.10 0.06 0.03 0.02 0.02 0.03 0.04 0.06 0.09 0.11 0.14
0.20 0.17 0.10 0.09 0.09 0.08 0.08 0.09 0.09 0.08 0.07 0.08 0.07 0.03 0.02 0.01 0.01 0.01 0.01 0.01 0.01 0.02 0.03 0.03 0.02 0.01 0.01 0.01 0.02 0.03 0.06 0.12 0.15 0.13 0.08 0.05 0.03 0.02 0.03 0.06 0.09 0.11 0.15
0.23 0.20 0.16 0.16 0.16 0.15 0.13 0.12 0.13 0.11 0.10 0.12 0.11 0.09 0.04 0.01 0.00 0.01 0.01 0.01 0.02 0.03 0.03 0.04 0.03 0.03 0.02 0.01 0.01 0.02 0.04 0.08 0.15 0.19 0.18 0.13 0.09 0.07 0.06 0.08 0.10 0.13 0.17
0.23 0.20 0.21 0.22 0.20 0.19 0.15 0.15 0.17 0.15 0.14 0.15 0.15 0.16 0.10 0.03 0.02 0.01 0.02 0.02 0.03 0.02 0.03 0.04 0.04 0.04 0.03 0.03 0.03 0.04 0.05 0.07 0.11 0.19 0.23 0.23 0.19 0.15 0.14 0.14 0.16 0.19 0.20
0.24 0.23 0.22 0.23 0.22 0.20 0.17 0.20 0.23 0.22 0.21 0.17 0.16 0.14 0.12 0.09 0.08 0.05 0.03 0.04 0.05 0.04 0.05 0.05 0.05 0.05 0.04 0.05 0.06 0.08 0.11 0.12 0.14 0.19 0.28 0.32 0.30 0.28 0.29 0.29 0.29 0.30 0.28
0.22 0.24 0.23 0.23 0.22 0.22 0.22 0.24 0.27 0.27 0.26 0.23 0.21 0.21 0.21 0.15 0.11 0.12 0.08 0.06 0.07 0.07 0.07 0.06 0.06 0.05 0.06 0.07 0.09 0.13 0.18 0.19 0.22 0.25 0.31 0.38 0.42 0.46 0.49 0.50 0.47 0.43 0.40
0.15 0.19 0.22 0.23 0.24 0.25 0.25 0.27 0.31 0.34 0.35 0.32 0.27 0.24 0.27 0.25 0.20 0.20 0.19 0.13 0.13 0.12 0.11 0.10 0.10 0.10 0.11 0.13 0.16 0.22 0.26 0.29 0.32 0.35 0.39 0.47 0.54 0.58 0.63 0.66 0.65 0.61 0.57
0.12 0.14 0.18 0.21 0.24 0.28 0.33 0.37 0.37 0.37 0.40 0.40 0.37 0.33 0.32 0.31 0.31 0.32 0.32 0.26 0.21 0.18 0.18 0.18 0.18 0.18 0.20 0.22 0.27 0.35 0.39 0.43 0.47 0.49 0.53 0.62 0.66 0.65 0.63 0.64 0.69 0.70 0.69
0.17 0.21 0.23 0.26 0.29 0.32 0.33 0.35 0.36 0.37 0.40 0.42 0.41 0.40 0.35 0.31 0.33 0.37 0.41 0.46 0.43 0.36 0.32 0.31 0.32 0.33 0.34 0.36 0.41 0.47 0.46 0.52 0.51 0.52 0.57 0.63 0.63 0.59 0.54 0.54 0.59 0.65 0.67
0.15 0.19 0.22 0.25 0.26 0.27 0.28 0.30 0.30 0.32 0.34 0.35 0.36 0.37 0.35 0.32 0.33 0.35 0.40 0.47 0.55 0.52 0.43 0.36 0.36 0.38 0.40 0.42 0.47 0.46 0.44 0.51 0.52 0.51 0.53 0.54 0.52 0.49 0.45 0.45 0.47 0.49 0.50
0.12 0.16 0.19 0.21 0.21 0.21 0.21 0.22 0.23 0.24 0.26 0.26 0.27 0.29 0.29 0.28 0.30 0.32 0.37 0.42 0.48 0.55 0.52 0.39 0.35 0.37 0.40 0.42 0.45 0.41 0.38 0.44 0.44 0.43 0.44 0.43 0.41 0.38 0.35 0.34 0.36 0.38 0.38
0.12 0.15 0.17 0.17 0.16 0.15 0.15 0.16 0.16 0.17 0.18 0.18 0.19 0.21 0.23 0.23 0.25 0.27 0.31 0.36 0.42 0.47 0.52 0.46 0.41 0.42 0.43 0.40 0.39 0.35 0.31 0.30 0.28 0.31 0.31 0.30 0.29 0.27 0.26 0.25 0.25 0.26 0.27
0.11 0.12 0.12 0.11 0.10 0.09 0.10 0.11 0.13 0.13 0.14 0.15 0.17 0.19 0.21 0.23 0.26 0.28 0.31 0.34 0.37 0.39 0.41 0.40 0.36 0.33 0.32 0.29 0.25 0.21 0.17 0.15 0.13 0.17 0.18 0.18 0.18 0.17 0.16 0.17 0.18 0.21 0.23
0.09 0.08 0.07 0.07 0.07 0.07 0.09 0.10 0.11 0.11 0.13 0.15 0.17 0.19 0.21 0.23 0.27 0.28 0.29 0.31 0.32 0.31 0.31 0.31 0.27 0.23 0.20 0.18 0.15 0.12 0.09 0.07 0.06 0.06 0.07 0.08 0.09 0.11 0.13 0.14 0.15 0.15 0.15
0.08 0.07 0.06 0.06 0.07 0.07 0.09 0.10 0.11 0.12 0.15 0.16 0.19 0.21 0.24 0.26 0.27 0.28 0.29 0.30 0.28 0.25 0.23 0.23 0.23 0.21 0.18 0.13 0.10 0.07 0.05 0.04 0.03 0.03 0.03 0.04 0.05 0.06 0.05 0.05 0.05 0.06 0.06
0.07 0.07 0.07 0.08 0.09 0.10 0.12 0.13 0.15 0.18 0.22 0.25 0.27 0.29 0.30 0.32 0.31 0.28 0.25 0.22 0.19 0.18 0.21 0.26 0.26 0.19 0.12 0.08 0.06 0.04 0.04 0.03 0.02 0.02 0.02 0.01 0.01 0.01 0.01 0.01 0.02 0.03 0.05
0.10 0.12 0.13 0.16 0.19 0.22 0.30 0.27 0.23 0.23 0.27 0.29 0.30 0.30 0.29 0.28 0.25 0.23 0.20 0.18 0.19 0.23 0.30 0.32 0.23 0.12 0.06 0.04 0.04 0.05 0.07 0.09 0.06 0.01 0.01 0.01 0.00 0.00 0.00 0.01 0.02 0.03 0.05
0.25 0.28 0.30 0.32 0.35 0.42 0.47 0.40 0.36 0.31 0.31 0.31 0.29 0.26 0.23 0.20 0.18 0.14 0.12 0.13 0.15 0.19 0.20 0.14 0.07 0.03 0.03 0.04 0.08 0.13 0.12 0.12 0.08 0.01 0.02 0.02 0.00 0.01 0.01 0.01 0.01 0.01 0.02
0.55 0.57 0.58 0.56 0.53 0.52 0.49 0.42 0.37 0.32 0.30 0.26 0.21 0.16 0.13 0.10 0.08 0.08 0.09 0.14 0.11 0.08 0.04 0.02 0.02 0.02 0.03 0.04 0.08 0.14 0.14 0.10 0.03 0.01 0.01 0.02 0.00 0.00 0.00 0.00 0.00 0.00 0.02
0.72 0.68 0.65 0.60 0.53 0.46 0.37 0.28 0.21 0.17 0.15 0.13 0.10 0.07 0.06 0.05 0.06 0.10 0.15 0.17 0.07 0.01 0.01 0.02 0.03 0.03 0.03 0.02 0.03 0.10 0.15 0.15 0.09 0.01 0.00 0.00 0.00 0.00 0.00 0.00 0.00 0.00 0.02
0.58 0.50 0.45 0.39 0.33 0.28 0.21 0.15 0.11 0.08 0.06 0.05 0.03 0.02 0.02 0.03 0.06 0.12 0.13 0.09 0.02 0.01 0.02 0.01 0.00 0.00 0.00 0.00 0.01 0.07 0.20 0.35 0.26 0.12 0.00 0.04 0.06 0.08 0.15 0.02 0.00 0.00 0.01

GEFSMA_prec_meanprecacc_078.txt.gz
Total_Precipitation_Accumulation
0.00 0.00 0.00 0.00 0.01 0.00 0.00 0.00 0.00 0.00 0.00 0.00 0.00 0.00 0.00 0.00 0.00 0.00 0.00 0.00 0.00 0.00 0.01 0.01 0.02 0.02 0.03 0.04 0.06 0.07 0.07 0.06 0.05 0.05 0.05 0.05 0.05 0.05 0.07 0.08 0.09 0.09 0.10
0.00 0.00 0.00 0.00 0.00 0.00 0.00 0.00 0.00 0.00 0.00 0.00 0.00 0.00 0.00 0.00 0.00 0.00 0.00 0.00 0.00 0.00 0.00 0.01 0.02 0.04 0.07 0.08 0.08 0.09 0.07 0.06 0.06 0.06 0.06 0.06 0.06 0.07 0.08 0.09 0.10 0.11 0.12
0.00 0.00 0.00 0.00 0.00 0.00 0.00 0.00 0.00 0.00 0.00 0.00 0.00 0.00 0.00 0.00 0.00 0.00 0.00 0.00 0.00 0.00 0.00 0.01 0.03 0.06 0.09 0.09 0.10 0.11 0.09 0.07 0.07 0.07 0.07 0.07 0.08 0.08 0.09 0.10 0.11 0.12 0.13
0.01 0.00 0.00 0.00 0.01 0.00 0.00 0.00 0.00 0.00 0.01 0.00 0.00 0.00 0.01 0.01 0.00 0.00 0.00 0.00 0.00 0.00 0.00 0.01 0.02 0.05 0.07 0.09 0.11 0.15 0.16 0.13 0.10 0.07 0.06 0.06 0.06 0.07 0.09 0.10 0.11 0.13 0.14
0.04 0.02 0.01 0.01 0.02 0.01 0.01 0.01 0.01 0.01 0.02 0.02 0.02 0.02 0.02 0.01 0.01 0.00 0.00 0.00 0.00 0.01 0.01 0.01 0.02 0.03 0.04 0.05 0.07 0.14 0.19 0.19 0.14 0.09 0.06 0.05 0.05 0.06 0.07 0.09 0.11 0.13 0.14
0.10 0.07 0.04 0.04 0.05 0.04 0.03 0.04 0.03 0.04 0.04 0.05 0.05 0.02 0.01 0.01 0.01 0.01 0.01 0.01 0.01 0.02 0.02 0.03 0.02 0.01 0.01 0.02 0.04 0.08 0.15 0.21 0.20 0.15 0.10 0.07 0.05 0.04 0.05 0.07 0.09 0.11 0.14
0.21 0.17 0.10 0.09 0.09 0.08 0.08 0.09 0.09 0.09 0.08 0.09 0.07 0.03 0.02 0.01 0.01 0.01 0.01 0.01 0.01 0.03 0.03 0.04 0.03 0.02 0.01 0.01 0.02 0.03 0.08 0.15 0.21 0.22 0.18 0.14 0.11 0.09 0.08 0.09 0.10 0.13 0.16
0.25 0.22 0.17 0.17 0.17 0.16 0.14 0.14 0.15 0.12 0.11 0.13 0.12 0.11 0.04 0.01 0.00 0.01 0.01 0.01 0.02 0.03 0.03 0.04 0.03 0.03 0.02 0.02 0.02 0.02 0.04 0.09 0.18 0.24 0.24 0.21 0.18 0.16 0.16 0.17 0.17 0.17 0.19
0.26 0.23 0.23 0.24 0.23 0.22 0.18 0.18 0.19 0.17 0.15 0.16 0.17 0.18 0.11 0.04 0.02 0.01 0.02 0.02 0.03 0.03 0.03 0.04 0.04 0.04 0.04 0.03 0.03 0.04 0.05 0.07 0.12 0.20 0.26 0.27 0.25 0.24 0.24 0.25 0.26 0.27 0.26
0.29 0.28 0.27 0.27 0.26 0.24 0.21 0.23 0.26 0.24 0.22 0.18 0.17 0.15 0.14 0.11 0.10 0.06 0.03 0.04 0.05 0.04 0.05 0.05 0.05 0.05 0.04 0.05 0.06 0.08 0.11 0.12 0.14 0.20 0.29 0.35 0.33 0.34 0.36 0.39 0.41 0.41 0.38
0.28 0.29 0.29 0.28 0.26 0.26 0.26 0.27 0.29 0.29 0.27 0.25 0.22 0.22 0.22 0.16 0.12 0.14 0.09 0.06 0.07 0.07 0.07 0.06 0.06 0.05 0.06 0.07 0.09 0.13 0.18 0.19 0.22 0.26 0.32 0.40 0.46 0.50 0.55 0.58 0.58 0.55 0.52
0.20 0.23 0.25 0.26 0.26 0.27 0.27 0.28 0.32 0.35 0.36 0.33 0.28 0.25 0.28 0.26 0.20 0.21 0.20 0.14 0.13 0.12 0.11 0.10 0.10 0.10 0.11 0.13 0.16 0.22 0.26 0.29 0.33 0.36 0.40 0.48 0.55 0.61 0.67 0.71 0.73 0.71 0.68
0.15 0.17 0.20 0.22 0.25 0.29 0.34 0.37 0.37 0.37 0.41 0.40 0.37 0.33 0.33 0.32 0.31 0.33 0.34 0.27 0.22 0.19 0.18 0.18 0.18 0.19 0.20 0.22 0.27 0.35 0.39 0.44 0.47 0.49 0.54 0.63 0.67 0.66 0.65 0.68 0.73 0.77 0.79
0.20 0.23 0.25 0.27 0.30 0.32 0.33 0.35 0.36 0.37 0.41 0.42 0.42 0.40 0.35 0.31 0.33 0.37 0.42 0.46 0.44 0.36 0.33 0.32 0.32 0.33 0.34 0.36 0.41 0.47 0.47 0.52 0.52 0.53 0.57 0.63 0.63 0.59 0.55 0.56 0.63 0.70 0.74
0.16 0.20 0.23 0.26 0.27 0.27 0.28 0.30 0.30 0.32 0.34 0.36 0.36 0.37 0.35 0.32 0.33 0.35 0.41 0.48 0.56 0.53 0.43 0.36 0.36 0.38 0.40 0.42 0.47 0.46 0.44 0.51 0.52 0.51 0.54 0.55 0.52 0.49 0.46 0.46 0.49 0.54 0.57
0.13 0.17 0.20 0.21 0.21 0.21 0.21 0.22 0.23 0.24 0.26 0.26 0.27 0.29 0.29 0.28 0.30 0.32 0.37 0.42 0.49 0.55 0.52 0.39 0.35 0.37 0.40 0.42 0.46 0.41 0.38 0.44 0.44 0.44 0.44 0.44 0.42 0.38 0.36 0.35 0.37 0.41 0.44
0.13 0.15 0.17 0.17 0.16 0.15 0.15 0.16 0.16 0.17 0.18 0.18 0.19 0.21 0.23 0.23 0.25 0.27 0.31 0.37 0.42 0.47 0.52 0.46 0.41 0.42 0.43 0.41 0.39 0.35 0.31 0.30 0.28 0.32 0.32 0.31 0.29 0.28 0.26 0.26 0.26 0.28 0.30
0.11 0.12 0.12 0.11 0.10 0.09 0.10 0.11 0.13 0.13 0.14 0.15 0.17 0.19 0.21 0.23 0.26 0.28 0.31 0.34 0.37 0.39 0.42 0.41 0.36 0.34 0.33 0.30 0.26 0.21 0.17 0.15 0.14 0.17 0.18 0.18 0.18 0.17 0.17 0.17 0.19 0.22 0.25
0.09 0.08 0.07 0.07 0.07 0.07 0.09 0.10 0.11 0.11 0.13 0.15 0.17 0.19 0.21 0.24 0.27 0.28 0.29 0.31 0.32 0.31 0.31 0.31 0.28 0.24 0.21 0.18 0.16 0.12 0.09 0.08 0.06 0.06 0.07 0.08 0.09 0.11 0.13 0.15 0.16 0.16 0.16
0.08 0.07 0.06 0.06 0.07 0.07 0.09 0.10 0.11 0.12 0.15 0.16 0.19 0.21 0.24 0.26 0.27 0.28 0.29 0.30 0.28 0.25 0.23 0.23 0.23 0.21 0.18 0.13 0.10 0.07 0.05 0.04 0.04 0.03 0.03 0.04 0.05 0.06 0.05 0.05 0.05 0.06 0.06
0.07 0.07 0.07 0.08 0.09 0.10 0.12 0.13 0.15 0.18 0.22 0.25 0.27 0.29 0.30 0.32 0.31 0.28 0.25 0.22 0.19 0.18 0.21 0.26 0.26 0.20 0.12 0.08 0.06 0.04 0.04 0.03 0.02 0.02 0.02 0.01 0.01 0.01 0.01 0.01 0.02 0.03 0.06
0.10 0.12 0.13 0.16 0.19 0.22 0.30 0.27 0.23 0.23 0.27 0.29 0.30 0.30 0.29 0.28 0.25 0.23 0.20 0.18 0.19 0.23 0.30 0.32 0.23 0.12 0.06 0.04 0.04 0.05 0.07 0.09 0.06 0.01 0.01 0.01 0.00 0.00 0.00 0.01 0.02 0.03 0.05
0.25 0.28 0.30 0.32 0.35 0.42 0.47 0.40 0.36 0.31 0.31 0.31 0.29 0.26 0.23 0.20 0.18 0.14 0.12 0.13 0.16 0.19 0.20 0.14 0.07 0.03 0.03 0.04 0.08 0.13 0.12 0.12 0.08 0.01 0.02 0.02 0.00 0.01 0.01 0.01 0.01 0.01 0.02
0.55 0.57 0.58 0.56 0.53 0.52 0.50 0.42 0.37 0.32 0.30 0.26 0.21 0.16 0.13 0.10 0.08 0.08 0.09 0.14 0.11 0.08 0.04 0.02 0.02 0.02 0.03 0.04 0.08 0.14 0.14 0.10 0.03 0.01 0.01 0.02 0.00 0.00 0.00 0.00 0.00 0.00 0.02
0.72 0.68 0.65 0.60 0.53 0.46 0.38 0.28 0.21 0.17 0.16 0.13 0.10 0.07 0.06 0.05 0.06 0.10 0.15 0.17 0.07 0.01 0.01 0.02 0.03 0.03 0.03 0.02 0.03 0.10 0.15 0.15 0.09 0.01 0.00 0.00 0.00 0.00 0.00 0.00 0.00 0.00 0.02
0.58 0.50 0.45 0.39 0.33 0.28 0.21 0.15 0.11 0.08 0.07 0.05 0.03 0.02 0.03 0.03 0.06 0.12 0.13 0.09 0.02 0.01 0.02 0.01 0.00 0.00 0.00 0.00 0.01 0.07 0.20 0.35 0.26 0.12 0.00 0.04 0.06 0.08 0.15 0.02 0.00 0.00 0.01

GEFSMA_prec_meanprecacc_084.txt.gz
Total_Precipitation_Accumulation
0.00 0.00 0.00 0.00 0.01 0.00 0.00 0.00 0.00 0.00 0.00 0.00 0.00 0.00 0.00 0.00 0.00 0.00 0.00 0.00 0.00 0.00 0.01 0.02 0.02 0.03 0.05 0.07 0.09 0.10 0.09 0.07 0.06 0.06 0.05 0.05 0.05 0.05 0.07 0.08 0.09 0.10 0.10
0.00 0.00 0.00 0.00 0.00 0.00 0.00 0.00 0.00 0.00 0.00 0.00 0.00 0.00 0.00 0.00 0.00 0.00 0.00 0.00 0.00 0.00 0.00 0.01 0.03 0.06 0.10 0.13 0.13 0.13 0.11 0.08 0.07 0.06 0.06 0.06 0.06 0.07 0.08 0.09 0.10 0.11 0.12
0.00 0.00 0.00 0.00 0.00 0.00 0.00 0.00 0.00 0.00 0.00 0.00 0.00 0.00 0.00 0.00 0.00 0.00 0.00 0.00 0.00 0.00 0.00 0.01 0.03 0.07 0.12 0.13 0.15 0.16 0.14 0.12 0.10 0.09 0.08 0.08 0.08 0.09 0.09 0.10 0.11 0.12 0.13
0.01 0.01 0.00 0.00 0.01 0.00 0.00 0.00 0.00 0.00 0.01 0.00 0.00 0.00 0.01 0.01 0.00 0.00 0.00 0.00 0.00 0.00 0.00 0.01 0.03 0.06 0.10 0.12 0.16 0.21 0.22 0.19 0.16 0.12 0.09 0.07 0.08 0.08 0.09 0.11 0.12 0.13 0.14
0.04 0.02 0.01 0.01 0.02 0.01 0.01 0.01 0.01 0.01 0.02 0.02 0.02 0.02 0.02 0.01 0.01 0.01 0.00 0.00 0.00 0.01 0.01 0.01 0.02 0.03 0.05 0.06 0.10 0.17 0.24 0.24 0.20 0.14 0.11 0.10 0.09 0.08 0.09 0.10 0.12 0.13 0.15
0.10 0.07 0.04 0.04 0.05 0.04 0.03 0.04 0.04 0.04 0.04 0.05 0.05 0.02 0.01 0.01 0.01 0.01 0.01 0.01 0.01 0.02 0.03 0.03 0.03 0.02 0.02 0.03 0.04 0.09 0.17 0.24 0.24 0.19 0.16 0.14 0.13 0.12 0.11 0.11 0.12 0.13 0.15
0.23 0.18 0.11 0.10 0.10 0.09 0.08 0.09 0.09 0.09 0.08 0.09 0.08 0.04 0.02 0.01 0.01 0.01 0.01 0.01 0.01 0.03 0.03 0.04 0.03 0.02 0.01 0.01 0.02 0.04 0.09 0.18 0.24 0.25 0.21 0.18 0.17 0.17 0.17 0.19 0.19 0.19 0.20
0.31 0.27 0.23 0.21 0.19 0.17 0.14 0.14 0.15 0.13 0.11 0.14 0.14 0.12 0.05 0.01 0.00 0.01 0.01 0.01 0.02 0.03 0.03 0.04 0.03 0.03 0.02 0.02 0.02 0.03 0.05 0.11 0.20 0.26 0.25 0.23 0.21 0.20 0.22 0.25 0.27 0.27 0.28
0.39 0.35 0.33 0.32 0.29 0.27 0.21 0.21 0.22 0.20 0.18 0.18 0.19 0.21 0.13 0.04 0.02 0.01 0.02 0.02 0.03 0.03 0.03 0.04 0.04 0.04 0.04 0.03 0.04 0.04 0.06 0.07 0.12 0.22 0.28 0.29 0.28 0.27 0.29 0.32 0.35 0.37 0.37
0.47 0.42 0.38 0.37 0.36 0.32 0.27 0.30 0.32 0.29 0.26 0.21 0.20 0.18 0.17 0.13 0.12 0.06 0.03 0.04 0.05 0.04 0.05 0.05 0.05 0.05 0.05 0.05 0.06 0.09 0.11 0.12 0.14 0.21 0.31 0.37 0.36 0.37 0.42 0.47 0.51 0.51 0.48
0.43 0.41 0.39 0.38 0.36 0.35 0.34 0.35 0.36 0.35 0.32 0.28 0.24 0.24 0.23 0.18 0.13 0.15 0.10 0.06 0.07 0.07 0.07 0.07 0.06 0.06 0.06 0.07 0.09 0.13 0.18 0.20 0.23 0.28 0.34 0.42 0.48 0.53 0.59 0.64 0.65 0.64 0.61
0.34 0.36 0.37 0.36 0.37 0.37 0.37 0.37 0.40 0.41 0.40 0.36 0.30 0.26 0.30 0.27 0.21 0.21 0.21 0.14 0.13 0.12 0.11 0.10 0.10 0.10 0.11 0.13 0.17 0.23 0.27 0.30 0.34 0.37 0.42 0.49 0.56 0.63 0.69 0.76 0.79 0.79 0.77
0.30 0.30 0.33 0.34 0.37 0.40 0.43 0.46 0.44 0.42 0.45 0.43 0.39 0.34 0.34 0.32 0.32 0.34 0.35 0.28 0.22 0.19 0.18 0.18 0.18 0.19 0.20 0.22 0.28 0.36 0.40 0.44 0.48 0.50 0.55 0.64 0.68 0.67 0.66 0.70 0.78 0.83 0.86
0.30 0.32 0.33 0.36 0.38 0.39 0.39 0.41 0.40 0.40 0.42 0.43 0.42 0.40 0.36 0.32 0.34 0.38 0.42 0.47 0.44 0.36 0.33 0.32 0.32 0.33 0.34 0.37 0.42 0.48 0.47 0.53 0.52 0.53 0.58 0.64 0.64 0.60 0.56 0.57 0.65 0.74 0.78
0.23 0.26 0.29 0.31 0.31 0.31 0.31 0.32 0.32 0.33 0.35 0.36 0.36 0.37 0.36 0.32 0.33 0.36 0.41 0.48 0.57 0.54 0.43 0.36 0.36 0.38 0.41 0.43 0.48 0.47 0.44 0.52 0.53 0.51 0.54 0.55 0.53 0.50 0.46 0.47 0.50 0.55 0.60
0.18 0.21 0.24 0.25 0.24 0.23 0.23 0.24 0.24 0.24 0.26 0.26 0.27 0.29 0.29 0.28 0.30 0.32 0.37 0.43 0.49 0.56 0.53 0.40 0.35 0.37 0.40 0.42 0.46 0.41 0.38 0.45 0.44 0.44 0.45 0.44 0.42 0.39 0.36 0.36 0.38 0.42 0.46
0.16 0.17 0.19 0.19 0.17 0.17 0.16 0.16 0.16 0.17 0.18 0.18 0.19 0.21 0.23 0.23 0.25 0.27 0.31 0.37 0.42 0.48 0.53 0.47 0.42 0.42 0.43 0.41 0.40 0.35 0.32 0.30 0.29 0.33 0.32 0.31 0.30 0.28 0.27 0.27 0.27 0.29 0.32
0.12 0.13 0.13 0.12 0.10 0.10 0.10 0.11 0.13 0.13 0.14 0.15 0.17 0.19 0.21 0.23 0.26 0.28 0.31 0.34 0.37 0.39 0.42 0.41 0.36 0.34 0.33 0.30 0.26 0.22 0.18 0.16 0.15 0.19 0.19 0.20 0.19 0.17 0.17 0.18 0.19 0.22 0.26
0.10 0.09 0.08 0.07 0.07 0.08 0.09 0.10 0.11 0.11 0.13 0.15 0.17 0.19 0.21 0.24 0.27 0.28 0.29 0.31 0.32 0.31 0.31 0.31 0.28 0.24 0.21 0.19 0.16 0.13 0.10 0.08 0.07 0.07 0.08 0.09 0.10 0.11 0.13 0.15 0.16 0.16 0.17
0.09 0.08 0.07 0.06 0.07 0.07 0.09 0.10 0.11 0.12 0.15 0.17 0.19 0.21 0.24 0.26 0.27 0.28 0.29 0.30 0.28 0.26 0.23 0.23 0.23 0.22 0.18 0.14 0.11 0.08 0.06 0.05 0.04 0.03 0.04 0.04 0.05 0.06 0.06 0.05 0.05 0.06 0.07
0.07 0.07 0.07 0.09 0.09 0.10 0.12 0.13 0.15 0.18 0.22 0.25 0.27 0.29 0.30 0.32 0.31 0.28 0.25 0.22 0.19 0.18 0.21 0.26 0.27 0.20 0.12 0.08 0.06 0.05 0.04 0.04 0.03 0.02 0.02 0.02 0.01 0.01 0.01 0.01 0.02 0.03 0.06
0.10 0.12 0.13 0.16 0.19 0.22 0.31 0.27 0.23 0.23 0.27 0.29 0.30 0.30 0.29 0.28 0.25 0.23 0.20 0.18 0.19 0.23 0.30 0.32 0.23 0.12 0.06 0.05 0.04 0.05 0.07 0.09 0.06 0.01 0.01 0.01 0.00 0.00 0.00 0.01 0.02 0.04 0.06
0.25 0.28 0.30 0.32 0.35 0.42 0.47 0.40 0.36 0.31 0.31 0.31 0.29 0.26 0.23 0.20 0.18 0.14 0.12 0.13 0.16 0.19 0.20 0.15 0.07 0.03 0.03 0.04 0.08 0.13 0.12 0.13 0.08 0.01 0.02 0.02 0.00 0.01 0.01 0.01 0.01 0.01 0.02
0.55 0.57 0.59 0.56 0.53 0.52 0.50 0.42 0.37 0.32 0.30 0.26 0.21 0.16 0.13 0.10 0.08 0.08 0.09 0.14 0.11 0.08 0.04 0.02 0.02 0.02 0.03 0.04 0.08 0.15 0.14 0.10 0.03 0.01 0.01 0.02 0.00 0.00 0.00 0.00 0.00 0.01 0.02
0.72 0.68 0.65 0.60 0.53 0.46 0.38 0.29 0.21 0.17 0.16 0.13 0.10 0.07 0.06 0.05 0.06 0.10 0.15 0.17 0.07 0.01 0.01 0.02 0.03 0.03 0.03 0.03 0.03 0.10 0.15 0.15 0.09 0.01 0.00 0.00 0.00 0.00 0.00 0.00 0.00 0.01 0.02
0.58 0.50 0.45 0.39 0.33 0.28 0.21 0.15 0.11 0.08 0.07 0.05 0.03 0.02 0.03 0.03 0.07 0.13 0.13 0.09 0.02 0.01 0.02 0.01 0.00 0.00 0.00 0.00 0.01 0.07 0.20 0.35 0.26 0.12 0.00 0.04 0.06 0.08 0.15 0.02 0.00 0.00 0.01

GEFSMA_prec_meanprecacc_090.txt.gz
Total_Precipitation_Accumulation
0.00 0.00 0.00 0.00 0.01 0.00 0.00 0.00 0.00 0.00 0.00 0.00 0.00 0.00 0.00 0.00 0.00 0.00 0.00 0.00 0.00 0.00 0.01 0.02 0.03 0.04 0.07 0.09 0.12 0.13 0.11 0.08 0.06 0.06 0.06 0.05 0.05 0.05 0.07 0.08 0.09 0.10 0.10
0.00 0.00 0.00 0.00 0.00 0.00 0.00 0.00 0.00 0.00 0.00 0.00 0.00 0.00 0.00 0.00 0.00 0.00 0.00 0.00 0.00 0.00 0.00 0.01 0.03 0.07 0.11 0.15 0.16 0.16 0.14 0.10 0.08 0.07 0.07 0.07 0.07 0.07 0.08 0.09 0.10 0.11 0.12
0.00 0.00 0.00 0.00 0.00 0.00 0.00 0.00 0.00 0.00 0.00 0.00 0.00 0.00 0.00 0.00 0.00 0.00 0.00 0.00 0.00 0.00 0.00 0.01 0.03 0.08 0.13 0.16 0.18 0.20 0.18 0.14 0.12 0.10 0.09 0.09 0.09 0.09 0.10 0.11 0.11 0.12 0.13
0.01 0.01 0.00 0.00 0.01 0.00 0.00 0.00 0.00 0.00 0.01 0.00 0.00 0.00 0.01 0.01 0.00 0.00 0.00 0.00 0.00 0.00 0.00 0.01 0.03 0.06 0.10 0.13 0.19 0.25 0.25 0.21 0.17 0.14 0.11 0.09 0.09 0.09 0.10 0.11 0.12 0.13 0.14
0.04 0.02 0.01 0.01 0.02 0.01 0.01 0.01 0.01 0.01 0.02 0.02 0.02 0.02 0.02 0.01 0.01 0.01 0.00 0.00 0.00 0.01 0.01 0.01 0.02 0.03 0.05 0.07 0.11 0.20 0.26 0.27 0.22 0.16 0.13 0.11 0.11 0.10 0.11 0.11 0.13 0.14 0.15
0.12 0.08 0.04 0.05 0.05 0.04 0.04 0.04 0.04 0.04 0.05 0.06 0.05 0.02 0.01 0.01 0.01 0.01 0.01 0.01 0.01 0.02 0.03 0.03 0.03 0.02 0.02 0.03 0.05 0.10 0.19 0.26 0.26 0.21 0.18 0.15 0.15 0.14 0.15 0.16 0.16 0.16 0.17
0.28 0.22 0.14 0.13 0.13 0.12 0.11 0.11 0.11 0.10 0.08 0.10 0.08 0.04 0.02 0.01 0.01 0.01 0.01 0.01 0.01 0.03 0.03 0.04 0.03 0.02 0.02 0.02 0.03 0.04 0.10 0.19 0.26 0.27 0.23 0.20 0.19 0.19 0.20 0.23 0.25 0.25 0.26
0.40 0.35 0.30 0.29 0.28 0.24 0.20 0.19 0.18 0.14 0.12 0.15 0.15 0.13 0.05 0.02 0.01 0.01 0.01 0.01 0.02 0.03 0.03 0.04 0.03 0.03 0.02 0.02 0.02 0.03 0.05 0.11 0.21 0.27 0.27 0.25 0.23 0.22 0.25 0.28 0.31 0.32 0.33
0.53 0.49 0.48 0.45 0.43 0.40 0.32 0.30 0.28 0.24 0.22 0.21 0.21 0.23 0.15 0.06 0.03 0.02 0.02 0.02 0.03 0.03 0.03 0.04 0.04 0.05 0.04 0.03 0.04 0.05 0.06 0.08 0.13 0.23 0.31 0.32 0.30 0.30 0.33 0.37 0.40 0.42 0.42
0.67 0.63 0.59 0.56 0.54 0.48 0.40 0.41 0.42 0.36 0.32 0.26 0.25 0.24 0.22 0.16 0.14 0.08 0.04 0.04 0.05 0.04 0.05 0.05 0.05 0.05 0.05 0.05 0.06 0.09 0.12 0.13 0.15 0.23 0.34 0.41 0.40 0.41 0.46 0.52 0.58 0.59 0.55
0.67 0.65 0.62 0.59 0.56 0.53 0.48 0.47 0.45 0.44 0.43 0.38 0.32 0.29 0.27 0.21 0.16 0.17 0.11 0.07 0.07 0.07 0.07 0.07 0.06 0.06 0.06 0.07 0.09 0.14 0.19 0.20 0.24 0.29 0.36 0.44 0.50 0.56 0.62 0.68 0.71 0.72 0.69
0.57 0.57 0.57 0.56 0.55 0.53 0.50 0.49 0.50 0.51 0.48 0.42 0.34 0.29 0.32 0.29 0.23 0.23 0.22 0.14 0.13 0.13 0.11 0.11 0.10 0.10 0.11 0.13 0.17 0.24 0.28 0.30 0.35 0.39 0.44 0.51 0.59 0.65 0.72 0.79 0.84 0.84 0.83
0.50 0.48 0.49 0.50 0.53 0.55 0.57 0.59 0.55 0.51 0.52 0.50 0.45 0.39 0.37 0.35 0.34 0.35 0.35 0.28 0.23 0.19 0.18 0.18 0.18 0.19 0.20 0.23 0.28 0.37 0.41 0.45 0.48 0.51 0.57 0.66 0.69 0.68 0.68 0.73 0.81 0.87 0.91
0.47 0.47 0.48 0.50 0.53 0.54 0.54 0.53 0.50 0.48 0.49 0.48 0.47 0.44 0.39 0.34 0.35 0.39 0.42 0.47 0.45 0.37 0.33 0.32 0.32 0.33 0.34 0.37 0.43 0.49 0.47 0.53 0.53 0.54 0.59 0.65 0.64 0.60 0.57 0.59 0.69 0.77 0.82
0.35 0.37 0.40 0.42 0.42 0.43 0.42 0.41 0.39 0.39 0.41 0.41 0.41 0.41 0.38 0.33 0.33 0.36 0.41 0.49 0.57 0.54 0.44 0.36 0.36 0.38 0.41 0.43 0.48 0.47 0.44 0.53 0.54 0.52 0.55 0.55 0.53 0.50 0.47 0.47 0.52 0.59 0.62
0.25 0.27 0.30 0.32 0.32 0.31 0.29 0.28 0.28 0.28 0.30 0.30 0.30 0.31 0.31 0.29 0.30 0.33 0.37 0.43 0.49 0.57 0.53 0.40 0.35 0.37 0.41 0.42 0.47 0.42 0.39 0.46 0.45 0.45 0.45 0.44 0.42 0.39 0.37 0.37 0.39 0.43 0.47
0.20 0.23 0.24 0.24 0.23 0.23 0.23 0.22 0.21 0.20 0.20 0.20 0.20 0.22 0.24 0.24 0.25 0.27 0.31 0.37 0.42 0.48 0.53 0.47 0.42 0.42 0.43 0.41 0.40 0.35 0.32 0.31 0.29 0.34 0.33 0.32 0.30 0.29 0.28 0.28 0.28 0.30 0.33
0.14 0.16 0.17 0.16 0.14 0.13 0.14 0.15 0.15 0.15 0.15 0.16 0.17 0.19 0.21 0.23 0.26 0.28 0.31 0.34 0.37 0.39 0.42 0.41 0.36 0.34 0.33 0.30 0.26 0.22 0.19 0.16 0.15 0.20 0.21 0.21 0.20 0.19 0.18 0.19 0.21 0.23 0.26
0.10 0.09 0.08 0.08 0.08 0.08 0.09 0.10 0.11 0.12 0.13 0.15 0.17 0.19 0.21 0.24 0.27 0.28 0.29 0.31 0.32 0.31 0.31 0.32 0.28 0.24 0.22 0.19 0.17 0.14 0.11 0.09 0.07 0.08 0.09 0.10 0.11 0.12 0.14 0.16 0.17 0.17 0.17
0.09 0.09 0.08 0.07 0.07 0.08 0.09 0.10 0.11 0.13 0.15 0.17 0.19 0.22 0.24 0.26 0.27 0.28 0.29 0.30 0.28 0.26 0.23 0.23 0.23 0.22 0.18 0.14 0.11 0.08 0.06 0.05 0.04 0.04 0.05 0.05 0.06 0.06 0.06 0.06 0.06 0.06 0.07
0.07 0.07 0.08 0.09 0.10 0.10 0.12 0.13 0.15 0.18 0.22 0.25 0.27 0.29 0.30 0.32 0.31 0.28 0.25 0.22 0.19 0.18 0.21 0.26 0.27 0.20 0.12 0.08 0.06 0.05 0.05 0.04 0.03 0.02 0.03 0.02 0.02 0.02 0.01 0.01 0.02 0.03 0.06
0.10 0.12 0.13 0.16 0.19 0.22 0.31 0.28 0.23 0.23 0.27 0.29 0.30 0.30 0.29 0.28 0.25 0.23 0.20 0.18 0.19 0.23 0.30 0.33 0.23 0.12 0.06 0.05 0.04 0.05 0.07 0.10 0.07 0.02 0.02 0.01 0.01 0.00 0.01 0.01 0.02 0.04 0.06
0.25 0.28 0.30 0.32 0.35 0.42 0.47 0.40 0.37 0.31 0.31 0.31 0.29 0.26 0.23 0.20 0.18 0.14 0.12 0.13 0.16 0.19 0.20 0.15 0.07 0.03 0.03 0.04 0.09 0.13 0.12 0.13 0.08 0.02 0.02 0.02 0.01 0.01 0.01 0.01 0.01 0.02 0.02
0.55 0.57 0.59 0.56 0.53 0.53 0.50 0.42 0.38 0.32 0.30 0.26 0.21 0.16 0.13 0.10 0.08 0.08 0.09 0.14 0.11 0.08 0.04 0.02 0.02 0.02 0.03 0.04 0.08 0.15 0.14 0.10 0.03 0.01 0.02 0.02 0.01 0.00 0.00 0.00 0.00 0.01 0.02
0.72 0.68 0.65 0.60 0.53 0.46 0.38 0.29 0.22 0.18 0.16 0.13 0.10 0.07 0.06 0.05 0.06 0.10 0.15 0.17 0.07 0.01 0.01 0.02 0.03 0.03 0.03 0.03 0.03 0.11 0.15 0.15 0.09 0.01 0.00 0.01 0.00 0.00 0.00 0.00 0.00 0.01 0.02
0.58 0.51 0.45 0.40 0.34 0.28 0.22 0.16 0.11 0.09 0.07 0.05 0.03 0.03 0.03 0.03 0.07 0.13 0.13 0.09 0.02 0.01 0.02 0.01 0.00 0.00 0.00 0.00 0.01 0.07 0.20 0.35 0.26 0.12 0.00 0.04 0.06 0.08 0.15 0.02 0.00 0.00 0.01

GEFSMA_prec_meanprecacc_096.txt.gz
Total_Precipitation_Accumulation
0.00 0.00 0.00 0.01 0.01 0.00 0.00 0.00 0.00 0.00 0.00 0.00 0.00 0.00 0.00 0.00 0.00 0.00 0.00 0.00 0.00 0.00 0.01 0.02 0.03 0.05 0.07 0.10 0.13 0.15 0.13 0.09 0.07 0.06 0.06 0.05 0.05 0.06 0.07 0.08 0.09 0.10 0.10
0.00 0.00 0.00 0.00 0.00 0.00 0.00 0.00 0.00 0.00 0.00 0.00 0.00 0.00 0.00 0.00 0.00 0.00 0.00 0.00 0.00 0.00 0.00 0.01 0.03 0.07 0.12 0.16 0.18 0.18 0.16 0.12 0.09 0.08 0.07 0.07 0.07 0.07 0.08 0.09 0.10 0.11 0.12
0.01 0.00 0.00 0.00 0.00 0.00 0.00 0.00 0.00 0.00 0.00 0.00 0.00 0.00 0.00 0.00 0.00 0.00 0.00 0.00 0.00 0.00 0.00 0.01 0.03 0.08 0.13 0.17 0.19 0.22 0.19 0.15 0.13 0.11 0.09 0.09 0.09 0.09 0.10 0.11 0.12 0.13 0.14
0.01 0.01 0.00 0.00 0.01 0.00 0.01 0.01 0.01 0.01 0.01 0.01 0.01 0.00 0.01 0.01 0.00 0.00 0.00 0.00 0.00 0.00 0.00 0.01 0.03 0.06 0.11 0.14 0.20 0.26 0.26 0.22 0.18 0.15 0.12 0.10 0.10 0.10 0.11 0.12 0.13 0.14 0.15
0.04 0.02 0.02 0.02 0.02 0.02 0.02 0.02 0.01 0.02 0.03 0.03 0.03 0.02 0.02 0.01 0.01 0.01 0.00 0.00 0.00 0.01 0.01 0.02 0.02 0.03 0.05 0.07 0.12 0.21 0.28 0.29 0.24 0.17 0.13 0.12 0.11 0.11 0.12 0.13 0.15 0.16 0.17
0.12 0.08 0.05 0.06 0.07 0.05 0.05 0.05 0.06 0.06 0.06 0.08 0.06 0.03 0.01 0.01 0.01 0.01 0.01 0.01 0.01 0.02 0.03 0.03 0.03 0.02 0.02 0.04 0.05 0.10 0.20 0.28 0.28 0.23 0.19 0.17 0.16 0.16 0.16 0.17 0.18 0.18 0.19
0.29 0.23 0.15 0.16 0.16 0.13 0.13 0.13 0.13 0.12 0.11 0.12 0.10 0.05 0.02 0.02 0.01 0.01 0.01 0.01 0.01 0.03 0.03 0.04 0.03 0.02 0.02 0.02 0.03 0.05 0.10 0.20 0.27 0.28 0.24 0.21 0.20 0.20 0.22 0.25 0.27 0.28 0.29
0.41 0.37 0.32 0.31 0.31 0.27 0.24 0.24 0.23 0.20 0.16 0.19 0.17 0.15 0.06 0.02 0.01 0.02 0.02 0.02 0.02 0.03 0.03 0.04 0.03 0.03 0.03 0.03 0.03 0.03 0.06 0.12 0.22 0.29 0.29 0.27 0.25 0.25 0.28 0.32 0.35 0.36 0.37
0.55 0.52 0.51 0.50 0.47 0.45 0.39 0.38 0.38 0.34 0.29 0.27 0.27 0.28 0.17 0.07 0.04 0.02 0.02 0.03 0.03 0.03 0.03 0.04 0.04 0.05 0.04 0.04 0.04 0.05 0.06 0.08 0.14 0.25 0.33 0.34 0.33 0.33 0.36 0.40 0.44 0.47 0.47
0.71 0.67 0.64 0.62 0.61 0.55 0.49 0.52 0.54 0.48 0.44 0.36 0.33 0.29 0.25 0.19 0.16 0.09 0.04 0.05 0.05 0.04 0.05 0.05 0.05 0.05 0.05 0.05 0.07 0.09 0.12 0.13 0.16 0.25 0.37 0.43 0.43 0.44 0.50 0.56 0.63 0.64 0.61
0.74 0.71 0.69 0.67 0.65 0.62 0.58 0.58 0.57 0.56 0.55 0.49 0.41 0.36 0.33 0.25 0.18 0.18 0.11 0.07 0.07 0.07 0.07 0.07 0.06 0.06 0.06 0.07 0.09 0.14 0.19 0.21 0.25 0.31 0.39 0.47 0.53 0.59 0.65 0.71 0.76 0.78 0.75
0.68 0.67 0.66 0.66 0.65 0.62 0.60 0.60 0.62 0.64 0.61 0.54 0.44 0.38 0.38 0.33 0.26 0.26 0.24 0.16 0.15 0.13 0.12 0.11 0.10 0.10 0.11 0.13 0.17 0.24 0.28 0.31 0.35 0.41 0.47 0.54 0.61 0.67 0.74 0.82 0.87 0.90 0.88
0.63 0.60 0.61 0.61 0.64 0.66 0.68 0.70 0.67 0.63 0.63 0.59 0.53 0.47 0.44 0.41 0.39 0.40 0.39 0.30 0.24 0.20 0.18 0.18 0.18 0.19 0.20 0.23 0.28 0.37 0.41 0.45 0.49 0.52 0.59 0.68 0.71 0.70 0.70 0.75 0.84 0.91 0.96
0.62 0.62 0.62 0.63 0.65 0.67 0.67 0.65 0.61 0.57 0.58 0.57 0.54 0.50 0.44 0.38 0.39 0.43 0.46 0.50 0.46 0.37 0.33 0.32 0.32 0.33 0.34 0.37 0.43 0.49 0.48 0.54 0.53 0.54 0.60 0.66 0.65 0.61 0.58 0.60 0.70 0.80 0.85
0.52 0.54 0.56 0.58 0.57 0.58 0.56 0.53 0.49 0.47 0.48 0.47 0.45 0.44 0.42 0.37 0.36 0.38 0.43 0.50 0.59 0.55 0.44 0.36 0.36 0.38 0.41 0.43 0.49 0.47 0.44 0.53 0.54 0.52 0.55 0.56 0.53 0.50 0.47 0.48 0.52 0.61 0.64
0.38 0.41 0.45 0.47 0.46 0.44 0.41 0.40 0.37 0.35 0.35 0.34 0.33 0.34 0.34 0.32 0.32 0.35 0.39 0.44 0.51 0.58 0.54 0.40 0.35 0.37 0.41 0.42 0.47 0.42 0.39 0.46 0.45 0.45 0.45 0.45 0.43 0.40 0.37 0.37 0.39 0.45 0.49
0.30 0.33 0.36 0.37 0.36 0.35 0.34 0.33 0.31 0.28 0.26 0.24 0.24 0.25 0.26 0.26 0.28 0.29 0.33 0.38 0.43 0.49 0.54 0.48 0.42 0.42 0.44 0.41 0.40 0.36 0.32 0.31 0.30 0.34 0.33 0.32 0.31 0.29 0.28 0.29 0.29 0.32 0.34
0.22 0.23 0.24 0.24 0.24 0.23 0.23 0.24 0.24 0.24 0.23 0.22 0.21 0.22 0.23 0.25 0.27 0.29 0.32 0.35 0.38 0.40 0.43 0.42 0.37 0.34 0.33 0.30 0.26 0.22 0.19 0.16 0.15 0.21 0.21 0.21 0.20 0.19 0.19 0.20 0.22 0.26 0.28
0.18 0.16 0.13 0.13 0.12 0.13 0.13 0.14 0.15 0.15 0.17 0.18 0.20 0.21 0.23 0.25 0.28 0.29 0.30 0.31 0.32 0.32 0.32 0.32 0.28 0.24 0.22 0.19 0.17 0.14 0.11 0.09 0.07 0.09 0.10 0.10 0.11 0.12 0.14 0.16 0.18 0.18 0.19
0.14 0.13 0.11 0.10 0.10 0.10 0.11 0.11 0.12 0.14 0.16 0.18 0.20 0.23 0.25 0.27 0.28 0.29 0.30 0.30 0.29 0.26 0.24 0.23 0.24 0.22 0.18 0.14 0.11 0.08 0.06 0.05 0.04 0.04 0.05 0.06 0.06 0.07 0.06 0.06 0.07 0.07 0.08
0.09 0.09 0.09 0.10 0.11 0.11 0.12 0.14 0.16 0.19 0.22 0.25 0.27 0.29 0.30 0.32 0.31 0.28 0.25 0.22 0.19 0.19 0.21 0.26 0.27 0.20 0.12 0.08 0.06 0.05 0.05 0.04 0.03 0.03 0.03 0.03 0.02 0.02 0.02 0.02 0.02 0.04 0.06
0.11 0.13 0.14 0.17 0.20 0.23 0.31 0.28 0.23 0.24 0.27 0.29 0.31 0.31 0.30 0.29 0.25 0.23 0.21 0.19 0.19 0.23 0.30 0.33 0.23 0.12 0.06 0.05 0.04 0.05 0.08 0.10 0.07 0.02 0.02 0.01 0.01 0.01 0.01 0.01 0.02 0.04 0.06
0.26 0.29 0.31 0.33 0.35 0.42 0.48 0.41 0.37 0.32 0.32 0.32 0.30 0.27 0.24 0.21 0.19 0.14 0.13 0.14 0.16 0.19 0.20 0.15 0.07 0.03 0.04 0.04 0.09 0.14 0.12 0.13 0.09 0.02 0.03 0.03 0.01 0.01 0.01 0.01 0.01 0.02 0.03
0.57 0.59 0.60 0.57 0.54 0.53 0.51 0.43 0.38 0.33 0.31 0.27 0.22 0.17 0.14 0.11 0.09 0.09 0.10 0.14 0.12 0.08 0.04 0.02 0.02 0.02 0.03 0.04 0.08 0.15 0.14 0.10 0.04 0.01 0.02 0.03 0.01 0.00 0.00 0.00 0.00 0.01 0.02
0.73 0.69 0.66 0.61 0.54 0.47 0.40 0.30 0.23 0.19 0.17 0.14 0.11 0.08 0.07 0.06 0.07 0.11 0.15 0.17 0.07 0.02 0.01 0.02 0.03 0.03 0.03 0.03 0.03 0.11 0.15 0.15 0.09 0.01 0.00 0.01 0.00 0.00 0.00 0.00 0.00 0.01 0.02
0.58 0.51 0.46 0.40 0.35 0.29 0.24 0.18 0.14 0.10 0.08 0.06 0.05 0.04 0.04 0.05 0.08 0.14 0.14 0.09 0.02 0.01 0.02 0.01 0.00 0.00 0.00 0.00 0.01 0.07 0.20 0.36 0.26 0.12 0.00 0.04 0.06 0.08 0.15 0.02 0.00 0.00 0.01

GEFSMA_prec_meanprecacc_102.txt.gz
Total_Precipitation_Accumulation
0.02 0.01 0.01 0.01 0.01 0.00 0.00 0.00 0.00 0.00 0.00 0.00 0.00 0.00 0.00 0.00 0.00 0.00 0.00 0.00 0.00 0.00 0.01 0.02 0.03 0.05 0.07 0.11 0.14 0.16 0.13 0.10 0.08 0.07 0.07 0.06 0.05 0.06 0.07 0.08 0.09 0.10 0.11
0.02 0.01 0.01 0.00 0.00 0.00 0.00 0.00 0.00 0.00 0.00 0.00 0.00 0.00 0.00 0.00 0.00 0.00 0.00 0.00 0.00 0.00 0.00 0.01 0.03 0.07 0.12 0.16 0.19 0.19 0.17 0.13 0.10 0.09 0.08 0.07 0.07 0.07 0.08 0.10 0.11 0.11 0.12
0.02 0.01 0.01 0.00 0.00 0.00 0.00 0.00 0.00 0.00 0.00 0.00 0.00 0.00 0.00 0.00 0.00 0.00 0.00 0.00 0.00 0.00 0.00 0.01 0.03 0.08 0.14 0.17 0.19 0.22 0.20 0.16 0.13 0.11 0.10 0.10 0.10 0.10 0.10 0.11 0.12 0.13 0.14
0.03 0.02 0.01 0.01 0.01 0.01 0.01 0.01 0.01 0.01 0.01 0.01 0.01 0.01 0.01 0.01 0.00 0.00 0.00 0.00 0.00 0.00 0.00 0.01 0.03 0.06 0.11 0.14 0.20 0.27 0.27 0.23 0.19 0.16 0.12 0.11 0.10 0.10 0.11 0.12 0.13 0.14 0.16
0.07 0.04 0.03 0.02 0.03 0.02 0.02 0.02 0.02 0.03 0.03 0.03 0.03 0.02 0.02 0.01 0.01 0.01 0.00 0.00 0.00 0.01 0.01 0.02 0.02 0.03 0.05 0.08 0.12 0.21 0.29 0.31 0.26 0.19 0.15 0.13 0.12 0.12 0.12 0.13 0.15 0.17 0.18
0.18 0.11 0.06 0.07 0.07 0.06 0.05 0.05 0.06 0.06 0.07 0.08 0.06 0.03 0.02 0.01 0.01 0.01 0.01 0.01 0.01 0.02 0.03 0.03 0.03 0.02 0.02 0.04 0.06 0.11 0.21 0.29 0.29 0.25 0.21 0.18 0.17 0.16 0.17 0.19 0.20 0.20 0.20
0.39 0.30 0.18 0.17 0.17 0.14 0.13 0.14 0.13 0.12 0.11 0.13 0.10 0.05 0.03 0.02 0.01 0.01 0.01 0.02 0.02 0.03 0.03 0.04 0.03 0.02 0.02 0.02 0.03 0.05 0.11 0.21 0.28 0.29 0.25 0.22 0.21 0.21 0.23 0.27 0.29 0.30 0.31
0.52 0.46 0.38 0.35 0.33 0.29 0.25 0.24 0.23 0.20 0.17 0.20 0.18 0.16 0.07 0.03 0.01 0.02 0.02 0.02 0.03 0.03 0.03 0.04 0.04 0.03 0.03 0.03 0.03 0.04 0.06 0.13 0.22 0.29 0.30 0.28 0.26 0.26 0.29 0.34 0.37 0.38 0.40
0.65 0.59 0.56 0.55 0.52 0.48 0.42 0.41 0.40 0.36 0.31 0.30 0.29 0.30 0.18 0.07 0.04 0.03 0.03 0.03 0.03 0.03 0.03 0.04 0.05 0.05 0.04 0.04 0.04 0.05 0.06 0.08 0.14 0.26 0.35 0.35 0.34 0.34 0.38 0.44 0.48 0.51 0.50
0.81 0.74 0.69 0.67 0.66 0.59 0.51 0.55 0.58 0.52 0.48 0.40 0.37 0.33 0.27 0.20 0.17 0.10 0.05 0.05 0.05 0.04 0.05 0.06 0.05 0.05 0.05 0.05 0.07 0.09 0.12 0.13 0.17 0.26 0.39 0.46 0.45 0.47 0.53 0.59 0.67 0.68 0.64
0.87 0.80 0.74 0.72 0.70 0.66 0.61 0.60 0.60 0.60 0.59 0.53 0.45 0.41 0.37 0.28 0.20 0.19 0.12 0.07 0.08 0.08 0.08 0.08 0.07 0.06 0.06 0.08 0.10 0.14 0.19 0.21 0.25 0.32 0.41 0.50 0.55 0.61 0.68 0.73 0.78 0.81 0.78
0.83 0.78 0.74 0.72 0.70 0.67 0.63 0.63 0.66 0.67 0.65 0.58 0.49 0.42 0.43 0.37 0.29 0.29 0.26 0.18 0.16 0.14 0.13 0.12 0.11 0.11 0.12 0.14 0.17 0.24 0.28 0.31 0.36 0.42 0.49 0.56 0.62 0.68 0.75 0.83 0.88 0.91 0.91
0.80 0.73 0.71 0.69 0.70 0.71 0.73 0.74 0.71 0.66 0.67 0.63 0.58 0.52 0.49 0.45 0.43 0.44 0.43 0.33 0.27 0.22 0.20 0.20 0.19 0.19 0.20 0.23 0.28 0.37 0.41 0.46 0.49 0.53 0.60 0.69 0.71 0.70 0.70 0.75 0.85 0.92 0.97
0.76 0.75 0.74 0.73 0.74 0.75 0.74 0.72 0.67 0.63 0.64 0.63 0.61 0.57 0.50 0.44 0.45 0.48 0.51 0.56 0.51 0.41 0.35 0.33 0.32 0.33 0.35 0.37 0.43 0.49 0.48 0.54 0.53 0.55 0.60 0.66 0.65 0.61 0.58 0.60 0.71 0.81 0.86
0.65 0.66 0.69 0.70 0.69 0.67 0.65 0.62 0.57 0.55 0.55 0.55 0.53 0.52 0.48 0.43 0.42 0.43 0.48 0.55 0.64 0.59 0.46 0.37 0.36 0.39 0.41 0.43 0.49 0.47 0.44 0.53 0.54 0.53 0.55 0.56 0.53 0.51 0.48 0.49 0.53 0.61 0.65
0.50 0.52 0.56 0.59 0.58 0.55 0.51 0.49 0.47 0.44 0.44 0.43 0.43 0.44 0.42 0.39 0.38 0.40 0.44 0.48 0.55 0.61 0.56 0.41 0.36 0.38 0.41 0.43 0.48 0.42 0.39 0.46 0.45 0.45 0.45 0.45 0.43 0.40 0.38 0.38 0.40 0.46 0.50
0.41 0.44 0.46 0.47 0.46 0.45 0.44 0.43 0.41 0.38 0.36 0.33 0.32 0.33 0.34 0.34 0.34 0.34 0.37 0.41 0.46 0.51 0.56 0.49 0.43 0.43 0.44 0.42 0.41 0.36 0.32 0.31 0.30 0.35 0.34 0.32 0.31 0.29 0.28 0.29 0.30 0.33 0.36
0.33 0.31 0.32 0.33 0.32 0.31 0.32 0.33 0.34 0.33 0.32 0.32 0.31 0.31 0.31 0.31 0.33 0.34 0.36 0.39 0.40 0.42 0.44 0.43 0.37 0.35 0.34 0.31 0.27 0.23 0.19 0.16 0.15 0.21 0.21 0.21 0.20 0.19 0.19 0.20 0.24 0.28 0.30
0.32 0.26 0.21 0.20 0.20 0.21 0.22 0.23 0.24 0.25 0.27 0.28 0.30 0.31 0.32 0.33 0.34 0.34 0.35 0.35 0.35 0.34 0.34 0.33 0.29 0.25 0.22 0.20 0.17 0.14 0.11 0.09 0.08 0.09 0.10 0.11 0.11 0.12 0.15 0.17 0.19 0.20 0.21
0.30 0.27 0.21 0.18 0.18 0.18 0.19 0.20 0.20 0.22 0.24 0.26 0.27 0.30 0.32 0.33 0.34 0.35 0.35 0.35 0.33 0.29 0.27 0.26 0.26 0.24 0.20 0.15 0.12 0.09 0.07 0.05 0.05 0.04 0.06 0.06 0.07 0.07 0.07 0.07 0.08 0.09 0.10
0.19 0.21 0.21 0.21 0.20 0.19 0.19 0.21 0.23 0.27 0.29 0.31 0.33 0.34 0.35 0.37 0.36 0.33 0.29 0.25 0.22 0.21 0.24 0.29 0.29 0.22 0.13 0.09 0.07 0.05 0.05 0.04 0.03 0.03 0.03 0.03 0.03 0.02 0.02 0.02 0.03 0.04 0.07
0.15 0.19 0.23 0.26 0.29 0.31 0.39 0.35 0.30 0.31 0.34 0.35 0.36 0.35 0.33 0.32 0.29 0.27 0.24 0.22 0.22 0.26 0.32 0.34 0.25 0.13 0.07 0.05 0.05 0.06 0.08 0.10 0.07 0.02 0.02 0.01 0.01 0.01 0.01 0.01 0.03 0.04 0.06
0.29 0.33 0.36 0.39 0.41 0.48 0.55 0.48 0.44 0.37 0.36 0.35 0.33 0.30 0.26 0.23 0.21 0.16 0.15 0.16 0.19 0.23 0.23 0.17 0.08 0.04 0.04 0.05 0.10 0.15 0.13 0.14 0.09 0.02 0.03 0.03 0.01 0.01 0.01 0.01 0.02 0.02 0.03
0.60 0.63 0.64 0.62 0.58 0.58 0.55 0.47 0.44 0.37 0.34 0.30 0.24 0.19 0.15 0.12 0.10 0.10 0.11 0.15 0.13 0.10 0.06 0.04 0.03 0.03 0.04 0.05 0.09 0.16 0.15 0.11 0.04 0.01 0.02 0.03 0.01 0.00 0.00 0.00 0.01 0.01 0.02
0.76 0.73 0.71 0.67 0.60 0.52 0.44 0.34 0.27 0.22 0.20 0.18 0.13 0.10 0.08 0.07 0.08 0.13 0.17 0.18 0.08 0.03 0.02 0.03 0.05 0.04 0.04 0.04 0.04 0.11 0.15 0.16 0.09 0.01 0.00 0.01 0.00 0.00 0.00 0.00 0.00 0.01 0.02
0.60 0.54 0.49 0.44 0.39 0.34 0.29 0.22 0.17 0.14 0.11 0.09 0.07 0.06 0.06 0.07 0.10 0.16 0.16 0.11 0.04 0.02 0.03 0.03 0.02 0.01 0.01 0.01 0.02 0.08 0.20 0.36 0.27 0.12 0.00 0.04 0.06 0.08 0.15 0.02 0.00 0.00 0.01

GEFSMA_prec_meanprecacc_108.txt.gz
Total_Precipitation_Accumulation
0.06 0.04 0.03 0.02 0.02 0.01 0.00 0.00 0.00 0.00 0.00 0.00 0.00 0.00 0.00 0.00 0.00 0.00 0.00 0.00 0.00 0.00 0.01 0.02 0.03 0.05 0.08 0.11 0.15 0.16 0.14 0.10 0.08 0.08 0.07 0.06 0.06 0.06 0.07 0.09 0.10 0.10 0.11
0.08 0.07 0.04 0.03 0.01 0.01 0.00 0.00 0.00 0.00 0.00 0.00 0.00 0.00 0.00 0.00 0.00 0.00 0.00 0.00 0.00 0.00 0.00 0.01 0.03 0.07 0.12 0.17 0.20 0.19 0.17 0.13 0.11 0.09 0.09 0.08 0.08 0.08 0.09 0.10 0.11 0.12 0.13
0.09 0.07 0.05 0.03 0.02 0.01 0.00 0.00 0.00 0.00 0.00 0.00 0.00 0.00 0.00 0.00 0.00 0.00 0.00 0.00 0.00 0.00 0.00 0.01 0.04 0.08 0.14 0.17 0.20 0.23 0.21 0.17 0.14 0.12 0.11 0.11 0.11 0.10 0.11 0.12 0.13 0.14 0.15
0.13 0.10 0.06 0.05 0.04 0.02 0.01 0.01 0.01 0.01 0.01 0.01 0.01 0.01 0.01 0.01 0.00 0.00 0.00 0.00 0.00 0.00 0.00 0.01 0.03 0.06 0.11 0.15 0.21 0.27 0.28 0.24 0.20 0.17 0.13 0.11 0.12 0.11 0.11 0.13 0.14 0.15 0.17
0.20 0.15 0.10 0.07 0.06 0.05 0.03 0.02 0.02 0.03 0.03 0.03 0.03 0.02 0.02 0.01 0.01 0.01 0.00 0.00 0.00 0.01 0.01 0.02 0.02 0.03 0.05 0.08 0.12 0.22 0.30 0.32 0.27 0.20 0.16 0.15 0.13 0.13 0.13 0.14 0.16 0.17 0.18
0.29 0.22 0.15 0.13 0.11 0.08 0.07 0.06 0.06 0.06 0.07 0.08 0.06 0.03 0.02 0.01 0.01 0.01 0.01 0.01 0.01 0.02 0.03 0.03 0.03 0.02 0.02 0.04 0.06 0.12 0.22 0.31 0.31 0.26 0.22 0.19 0.18 0.18 0.19 0.20 0.21 0.21 0.21
0.51 0.39 0.25 0.23 0.21 0.16 0.15 0.15 0.14 0.13 0.12 0.13 0.10 0.05 0.03 0.02 0.01 0.01 0.01 0.02 0.02 0.03 0.04 0.04 0.03 0.02 0.02 0.03 0.04 0.05 0.11 0.22 0.29 0.30 0.26 0.23 0.22 0.22 0.24 0.28 0.31 0.31 0.33
0.65 0.57 0.47 0.41 0.37 0.32 0.27 0.26 0.25 0.21 0.18 0.20 0.19 0.16 0.07 0.03 0.01 0.02 0.03 0.02 0.03 0.03 0.03 0.04 0.04 0.03 0.03 0.03 0.04 0.04 0.07 0.14 0.23 0.30 0.30 0.28 0.26 0.27 0.31 0.36 0.39 0.40 0.42
0.82 0.75 0.70 0.65 0.60 0.53 0.46 0.44 0.43 0.37 0.32 0.30 0.30 0.30 0.18 0.08 0.04 0.03 0.03 0.03 0.03 0.03 0.03 0.04 0.05 0.05 0.04 0.04 0.04 0.05 0.07 0.09 0.15 0.27 0.37 0.37 0.35 0.35 0.40 0.45 0.49 0.52 0.52
0.99 0.94 0.87 0.82 0.78 0.69 0.58 0.60 0.61 0.55 0.50 0.42 0.39 0.35 0.29 0.21 0.17 0.10 0.05 0.05 0.05 0.04 0.05 0.06 0.06 0.06 0.05 0.06 0.07 0.10 0.13 0.14 0.17 0.27 0.41 0.48 0.47 0.49 0.55 0.61 0.69 0.70 0.65
1.05 0.97 0.93 0.91 0.84 0.78 0.71 0.67 0.65 0.64 0.62 0.56 0.48 0.43 0.40 0.30 0.21 0.20 0.13 0.08 0.08 0.08 0.08 0.08 0.07 0.07 0.07 0.08 0.10 0.15 0.21 0.22 0.26 0.33 0.43 0.51 0.57 0.63 0.70 0.76 0.80 0.83 0.80
1.03 0.96 0.91 0.89 0.87 0.81 0.75 0.73 0.74 0.73 0.70 0.63 0.53 0.46 0.46 0.40 0.31 0.31 0.27 0.18 0.17 0.15 0.13 0.12 0.12 0.12 0.13 0.15 0.19 0.26 0.29 0.31 0.36 0.42 0.50 0.57 0.64 0.70 0.77 0.85 0.90 0.92 0.92
1.00 0.93 0.90 0.87 0.86 0.85 0.85 0.85 0.80 0.74 0.73 0.69 0.63 0.57 0.53 0.48 0.46 0.46 0.46 0.35 0.28 0.23 0.21 0.21 0.21 0.21 0.22 0.24 0.29 0.39 0.42 0.46 0.49 0.53 0.60 0.70 0.72 0.71 0.71 0.76 0.86 0.93 0.97
0.94 0.93 0.93 0.93 0.91 0.90 0.87 0.85 0.78 0.71 0.71 0.69 0.66 0.62 0.56 0.49 0.49 0.52 0.55 0.60 0.56 0.44 0.38 0.35 0.34 0.35 0.36 0.39 0.44 0.50 0.48 0.54 0.54 0.55 0.61 0.67 0.65 0.61 0.58 0.61 0.72 0.81 0.86
0.84 0.86 0.90 0.92 0.91 0.86 0.80 0.76 0.70 0.65 0.64 0.63 0.60 0.58 0.54 0.48 0.47 0.48 0.52 0.60 0.69 0.64 0.49 0.39 0.38 0.40 0.43 0.45 0.50 0.48 0.45 0.54 0.55 0.53 0.55 0.56 0.54 0.51 0.48 0.49 0.53 0.61 0.65
0.69 0.71 0.76 0.80 0.79 0.75 0.69 0.65 0.61 0.58 0.57 0.54 0.53 0.53 0.50 0.46 0.46 0.47 0.50 0.55 0.61 0.67 0.61 0.44 0.38 0.40 0.43 0.44 0.49 0.43 0.40 0.47 0.46 0.45 0.46 0.45 0.43 0.40 0.38 0.38 0.40 0.46 0.51
0.60 0.63 0.65 0.67 0.66 0.65 0.63 0.60 0.55 0.50 0.48 0.44 0.43 0.43 0.43 0.43 0.43 0.44 0.46 0.50 0.54 0.60 0.64 0.54 0.47 0.47 0.48 0.45 0.43 0.37 0.33 0.32 0.30 0.35 0.34 0.32 0.31 0.30 0.29 0.29 0.30 0.34 0.36
0.51 0.49 0.51 0.51 0.50 0.50 0.50 0.50 0.49 0.46 0.44 0.42 0.39 0.39 0.38 0.39 0.40 0.41 0.44 0.47 0.49 0.50 0.54 0.51 0.43 0.40 0.38 0.35 0.31 0.26 0.21 0.18 0.16 0.23 0.22 0.22 0.21 0.19 0.19 0.20 0.24 0.29 0.31
0.50 0.43 0.38 0.38 0.38 0.38 0.38 0.39 0.39 0.39 0.39 0.39 0.39 0.40 0.41 0.42 0.44 0.43 0.43 0.44 0.44 0.44 0.44 0.44 0.38 0.32 0.28 0.24 0.22 0.18 0.15 0.12 0.10 0.12 0.12 0.12 0.12 0.13 0.15 0.17 0.20 0.22 0.22
0.46 0.44 0.39 0.35 0.34 0.35 0.36 0.36 0.36 0.36 0.37 0.37 0.37 0.39 0.40 0.41 0.41 0.42 0.43 0.44 0.43 0.40 0.38 0.38 0.37 0.32 0.27 0.21 0.19 0.15 0.12 0.10 0.08 0.07 0.08 0.08 0.08 0.08 0.07 0.07 0.08 0.10 0.12
0.36 0.38 0.38 0.38 0.35 0.33 0.33 0.34 0.36 0.38 0.40 0.41 0.41 0.42 0.43 0.45 0.45 0.42 0.38 0.35 0.32 0.33 0.36 0.40 0.40 0.31 0.22 0.17 0.14 0.11 0.11 0.10 0.08 0.06 0.06 0.05 0.04 0.03 0.02 0.02 0.03 0.05 0.08
0.30 0.34 0.38 0.42 0.45 0.45 0.53 0.49 0.42 0.42 0.45 0.45 0.44 0.43 0.42 0.42 0.39 0.37 0.34 0.32 0.33 0.36 0.43 0.45 0.35 0.22 0.14 0.11 0.10 0.12 0.14 0.17 0.13 0.05 0.04 0.04 0.03 0.02 0.02 0.02 0.03 0.05 0.07
0.37 0.42 0.46 0.50 0.54 0.61 0.68 0.61 0.55 0.47 0.46 0.45 0.42 0.38 0.35 0.33 0.31 0.25 0.23 0.24 0.26 0.30 0.30 0.24 0.16 0.12 0.11 0.11 0.16 0.21 0.19 0.18 0.12 0.05 0.05 0.05 0.03 0.02 0.02 0.01 0.02 0.02 0.03
0.62 0.66 0.69 0.69 0.67 0.67 0.66 0.59 0.56 0.48 0.44 0.39 0.32 0.27 0.23 0.20 0.18 0.18 0.19 0.23 0.20 0.16 0.13 0.10 0.09 0.09 0.10 0.11 0.16 0.22 0.21 0.17 0.09 0.05 0.04 0.05 0.02 0.01 0.01 0.01 0.01 0.01 0.03
0.77 0.74 0.73 0.70 0.65 0.59 0.53 0.44 0.37 0.32 0.31 0.28 0.23 0.19 0.17 0.14 0.16 0.22 0.24 0.25 0.15 0.09 0.08 0.09 0.11 0.10 0.10 0.09 0.09 0.16 0.21 0.21 0.13 0.04 0.03 0.02 0.02 0.01 0.01 0.01 0.01 0.01 0.03
0.60 0.54 0.50 0.45 0.41 0.38 0.35 0.30 0.25 0.22 0.20 0.18 0.16 0.16 0.17 0.16 0.19 0.25 0.23 0.18 0.11 0.08 0.09 0.08 0.08 0.07 0.06 0.06 0.07 0.11 0.24 0.39 0.30 0.14 0.02 0.06 0.07 0.10 0.16 0.02 0.00 0.00 0.01

GEFSMA_prec_meanprecacc_114.txt.gz
Total_Precipitation_Accumulation
0.13 0.11 0.10 0.09 0.07 0.05 0.03 0.02 0.01 0.00 0.00 0.00 0.00 0.00 0.00 0.00 0.00 0.00 0.00 0.00 0.00 0.01 0.01 0.02 0.03 0.05 0.08 0.12 0.15 0.17 0.14 0.10 0.08 0.08 0.07 0.06 0.06 0.06 0.08 0.09 0.10 0.10 0.11
0.16 0.13 0.11 0.08 0.06 0.05 0.03 0.01 0.00 0.00 0.00 0.00 0.00 0.00 0.00 0.00 0.00 0.00 0.00 0.00 0.00 0.00 0.00 0.02 0.03 0.08 0.13 0.17 0.20 0.20 0.18 0.13 0.11 0.10 0.09 0.08 0.08 0.08 0.09 0.10 0.11 0.12 0.13
0.19 0.16 0.13 0.09 0.06 0.05 0.04 0.03 0.02 0.01 0.00 0.00 0.00 0.00 0.00 0.00 0.00 0.00 0.00 0.00 0.00 0.00 0.00 0.01 0.04 0.09 0.14 0.17 0.21 0.24 0.21 0.17 0.14 0.12 0.11 0.11 0.11 0.11 0.11 0.12 0.13 0.14 0.15
0.25 0.21 0.15 0.12 0.10 0.08 0.06 0.04 0.03 0.02 0.01 0.01 0.01 0.01 0.01 0.01 0.00 0.00 0.00 0.00 0.00 0.00 0.00 0.01 0.03 0.06 0.11 0.15 0.21 0.28 0.28 0.25 0.21 0.17 0.14 0.12 0.12 0.12 0.12 0.13 0.14 0.15 0.17
0.30 0.27 0.21 0.17 0.16 0.12 0.09 0.06 0.04 0.04 0.04 0.04 0.03 0.02 0.02 0.01 0.01 0.01 0.00 0.00 0.00 0.01 0.01 0.02 0.02 0.03 0.06 0.08 0.13 0.23 0.31 0.33 0.28 0.21 0.17 0.15 0.14 0.14 0.14 0.15 0.16 0.18 0.19
0.37 0.32 0.27 0.27 0.26 0.21 0.16 0.12 0.10 0.08 0.08 0.08 0.07 0.03 0.02 0.02 0.01 0.01 0.01 0.01 0.01 0.02 0.03 0.03 0.03 0.02 0.02 0.04 0.07 0.12 0.22 0.31 0.32 0.26 0.22 0.19 0.18 0.18 0.20 0.21 0.22 0.22 0.22
0.60 0.49 0.36 0.34 0.34 0.30 0.28 0.24 0.20 0.18 0.16 0.15 0.11 0.06 0.03 0.02 0.01 0.01 0.01 0.02 0.02 0.03 0.04 0.04 0.03 0.03 0.02 0.03 0.04 0.06 0.12 0.23 0.30 0.30 0.26 0.23 0.23 0.22 0.25 0.29 0.32 0.32 0.33
0.76 0.70 0.61 0.54 0.49 0.44 0.40 0.37 0.34 0.28 0.22 0.24 0.21 0.17 0.07 0.03 0.01 0.02 0.03 0.02 0.03 0.03 0.03 0.04 0.04 0.03 0.03 0.03 0.04 0.04 0.07 0.14 0.24 0.31 0.31 0.29 0.27 0.27 0.31 0.36 0.40 0.41 0.43
0.92 0.86 0.82 0.80 0.75 0.68 0.59 0.56 0.53 0.46 0.38 0.34 0.33 0.33 0.19 0.08 0.04 0.03 0.03 0.03 0.03 0.03 0.04 0.04 0.05 0.05 0.04 0.04 0.05 0.06 0.07 0.09 0.15 0.28 0.38 0.38 0.36 0.36 0.40 0.46 0.50 0.53 0.53
1.06 1.02 0.97 0.93 0.91 0.82 0.72 0.73 0.73 0.65 0.59 0.49 0.44 0.38 0.31 0.22 0.18 0.10 0.05 0.05 0.05 0.04 0.05 0.06 0.06 0.06 0.05 0.06 0.07 0.10 0.13 0.14 0.18 0.29 0.42 0.49 0.47 0.50 0.56 0.62 0.70 0.71 0.66
1.10 1.02 0.99 0.99 0.95 0.90 0.82 0.80 0.79 0.76 0.72 0.64 0.54 0.48 0.43 0.32 0.23 0.21 0.13 0.08 0.08 0.08 0.09 0.08 0.07 0.07 0.07 0.09 0.11 0.15 0.21 0.23 0.27 0.34 0.44 0.52 0.58 0.64 0.72 0.77 0.82 0.84 0.81
1.09 1.02 0.96 0.95 0.96 0.92 0.86 0.84 0.86 0.87 0.83 0.73 0.61 0.52 0.49 0.42 0.33 0.33 0.29 0.19 0.17 0.15 0.14 0.13 0.12 0.12 0.13 0.15 0.19 0.26 0.30 0.32 0.37 0.43 0.50 0.58 0.65 0.71 0.78 0.86 0.91 0.94 0.93
1.07 1.00 0.96 0.94 0.93 0.94 0.96 0.97 0.93 0.86 0.86 0.81 0.74 0.65 0.59 0.52 0.49 0.50 0.49 0.38 0.30 0.24 0.22 0.21 0.21 0.21 0.23 0.25 0.30 0.41 0.43 0.47 0.51 0.54 0.61 0.71 0.73 0.71 0.71 0.77 0.87 0.94 0.98
1.01 1.01 1.02 1.03 1.02 1.01 0.99 0.96 0.90 0.84 0.83 0.80 0.76 0.72 0.66 0.57 0.56 0.58 0.61 0.65 0.60 0.46 0.39 0.36 0.35 0.36 0.37 0.39 0.45 0.53 0.50 0.57 0.56 0.58 0.63 0.69 0.67 0.62 0.59 0.61 0.72 0.82 0.87
0.93 0.95 0.98 1.01 1.02 0.99 0.94 0.90 0.84 0.79 0.78 0.76 0.71 0.69 0.64 0.58 0.56 0.56 0.59 0.67 0.76 0.70 0.53 0.40 0.39 0.41 0.44 0.46 0.52 0.50 0.46 0.56 0.57 0.55 0.58 0.58 0.55 0.52 0.48 0.49 0.54 0.62 0.66
0.78 0.80 0.86 0.91 0.91 0.89 0.84 0.82 0.79 0.76 0.76 0.72 0.68 0.67 0.63 0.58 0.57 0.57 0.60 0.65 0.72 0.79 0.69 0.48 0.40 0.42 0.45 0.46 0.52 0.45 0.42 0.49 0.48 0.47 0.47 0.47 0.44 0.41 0.39 0.39 0.41 0.47 0.51
0.74 0.76 0.78 0.80 0.80 0.80 0.79 0.77 0.72 0.68 0.67 0.65 0.63 0.62 0.61 0.58 0.58 0.57 0.58 0.61 0.64 0.69 0.73 0.59 0.49 0.49 0.50 0.47 0.46 0.40 0.36 0.34 0.33 0.38 0.36 0.35 0.33 0.31 0.30 0.30 0.31 0.34 0.37
0.63 0.62 0.64 0.66 0.65 0.64 0.65 0.66 0.65 0.62 0.59 0.57 0.56 0.57 0.57 0.56 0.56 0.55 0.57 0.59 0.59 0.60 0.63 0.58 0.47 0.43 0.41 0.38 0.34 0.29 0.25 0.21 0.20 0.27 0.26 0.25 0.24 0.22 0.21 0.22 0.25 0.30 0.32
0.62 0.54 0.51 0.53 0.54 0.55 0.55 0.55 0.56 0.55 0.55 0.54 0.52 0.53 0.54 0.57 0.59 0.57 0.56 0.56 0.54 0.53 0.53 0.52 0.43 0.36 0.32 0.28 0.26 0.22 0.18 0.16 0.14 0.17 0.18 0.18 0.18 0.18 0.19 0.20 0.22 0.24 0.24
0.57 0.53 0.48 0.46 0.46 0.49 0.52 0.54 0.54 0.54 0.54 0.54 0.54 0.55 0.54 0.55 0.55 0.54 0.55 0.55 0.53 0.50 0.48 0.47 0.45 0.39 0.33 0.28 0.25 0.21 0.17 0.14 0.12 0.11 0.14 0.14 0.15 0.15 0.13 0.11 0.11 0.13 0.15
0.44 0.44 0.45 0.46 0.45 0.44 0.46 0.50 0.52 0.54 0.55 0.56 0.56 0.57 0.57 0.59 0.58 0.55 0.50 0.47 0.44 0.44 0.46 0.50 0.49 0.39 0.29 0.24 0.21 0.18 0.18 0.17 0.16 0.14 0.13 0.11 0.10 0.09 0.08 0.08 0.08 0.09 0.12
0.37 0.40 0.43 0.48 0.52 0.54 0.64 0.60 0.55 0.56 0.59 0.59 0.57 0.54 0.52 0.53 0.49 0.47 0.44 0.41 0.42 0.46 0.54 0.56 0.46 0.32 0.23 0.19 0.19 0.21 0.23 0.26 0.21 0.11 0.11 0.10 0.09 0.08 0.06 0.06 0.08 0.10 0.12
0.44 0.49 0.52 0.56 0.61 0.69 0.77 0.69 0.65 0.57 0.58 0.58 0.55 0.50 0.46 0.42 0.41 0.35 0.35 0.36 0.37 0.40 0.40 0.34 0.26 0.20 0.19 0.19 0.26 0.31 0.28 0.26 0.18 0.10 0.12 0.12 0.09 0.09 0.07 0.06 0.08 0.07 0.08
0.66 0.70 0.74 0.75 0.73 0.74 0.73 0.65 0.63 0.56 0.53 0.48 0.43 0.38 0.34 0.30 0.28 0.28 0.30 0.35 0.32 0.28 0.24 0.21 0.18 0.16 0.17 0.19 0.25 0.33 0.32 0.28 0.18 0.12 0.11 0.12 0.08 0.07 0.06 0.06 0.07 0.06 0.07
0.78 0.76 0.74 0.72 0.68 0.62 0.57 0.48 0.42 0.37 0.38 0.37 0.32 0.28 0.26 0.24 0.27 0.32 0.34 0.35 0.25 0.19 0.19 0.21 0.22 0.21 0.20 0.19 0.20 0.28 0.33 0.33 0.24 0.12 0.09 0.09 0.07 0.07 0.06 0.06 0.06 0.06 0.07
0.60 0.54 0.50 0.46 0.42 0.39 0.36 0.31 0.28 0.25 0.23 0.22 0.23 0.23 0.26 0.25 0.29 0.35 0.33 0.28 0.21 0.17 0.18 0.19 0.20 0.19 0.18 0.18 0.20 0.22 0.33 0.50 0.39 0.22 0.07 0.10 0.12 0.14 0.22 0.07 0.04 0.04 0.04

GEFSMA_prec_meanprecacc_120.txt.gz
Total_Precipitation_Accumulation
0.21 0.19 0.20 0.19 0.16 0.11 0.08 0.05 0.03 0.02 0.01 0.00 0.00 0.00 0.00 0.00 0.00 0.00 0.00 0.00 0.00 0.01 0.01 0.02 0.03 0.06 0.09 0.12 0.16 0.17 0.14 0.10 0.08 0.08 0.08 0.07 0.06 0.06 0.08 0.09 0.10 0.10 0.11
0.25 0.22 0.20 0.18 0.15 0.13 0.11 0.07 0.04 0.03 0.02 0.01 0.00 0.00 0.00 0.00 0.00 0.00 0.00 0.00 0.00 0.00 0.01 0.02 0.04 0.08 0.13 0.18 0.21 0.20 0.18 0.13 0.11 0.10 0.09 0.09 0.08 0.08 0.09 0.11 0.11 0.12 0.13
0.27 0.24 0.22 0.19 0.15 0.14 0.13 0.11 0.09 0.07 0.04 0.02 0.01 0.00 0.00 0.00 0.00 0.00 0.00 0.00 0.00 0.00 0.00 0.01 0.04 0.09 0.14 0.18 0.21 0.24 0.22 0.18 0.15 0.13 0.11 0.11 0.11 0.11 0.11 0.13 0.13 0.14 0.15
0.36 0.30 0.23 0.18 0.18 0.18 0.17 0.15 0.12 0.10 0.07 0.04 0.02 0.01 0.01 0.01 0.00 0.00 0.00 0.00 0.00 0.00 0.00 0.01 0.03 0.07 0.11 0.15 0.22 0.28 0.29 0.25 0.21 0.17 0.14 0.12 0.13 0.12 0.13 0.14 0.15 0.16 0.17
0.41 0.37 0.29 0.24 0.26 0.25 0.20 0.16 0.12 0.12 0.11 0.08 0.06 0.04 0.02 0.01 0.01 0.01 0.00 0.00 0.00 0.01 0.01 0.02 0.02 0.03 0.06 0.08 0.13 0.23 0.31 0.33 0.28 0.21 0.17 0.16 0.14 0.14 0.15 0.16 0.17 0.18 0.19
0.50 0.41 0.35 0.34 0.36 0.34 0.28 0.23 0.19 0.16 0.15 0.14 0.11 0.05 0.03 0.02 0.02 0.01 0.01 0.01 0.01 0.02 0.03 0.03 0.03 0.02 0.02 0.04 0.07 0.13 0.23 0.32 0.32 0.27 0.22 0.20 0.18 0.19 0.20 0.21 0.22 0.22 0.22
0.74 0.60 0.44 0.42 0.43 0.40 0.38 0.36 0.34 0.32 0.27 0.23 0.18 0.10 0.05 0.03 0.02 0.01 0.02 0.02 0.02 0.03 0.04 0.04 0.03 0.03 0.02 0.03 0.04 0.06 0.12 0.24 0.31 0.31 0.26 0.24 0.23 0.23 0.25 0.29 0.32 0.32 0.33
0.89 0.81 0.70 0.62 0.58 0.52 0.49 0.48 0.48 0.44 0.39 0.39 0.34 0.28 0.15 0.07 0.03 0.02 0.03 0.03 0.03 0.03 0.03 0.04 0.04 0.04 0.03 0.03 0.04 0.04 0.07 0.15 0.24 0.32 0.31 0.30 0.27 0.28 0.31 0.37 0.40 0.41 0.43
1.02 0.96 0.92 0.90 0.86 0.79 0.69 0.66 0.65 0.59 0.53 0.50 0.48 0.47 0.30 0.15 0.08 0.04 0.03 0.03 0.03 0.03 0.04 0.04 0.05 0.05 0.04 0.04 0.05 0.06 0.07 0.09 0.16 0.29 0.38 0.39 0.37 0.37 0.41 0.47 0.51 0.55 0.54
1.16 1.10 1.07 1.04 1.04 0.95 0.85 0.86 0.87 0.79 0.75 0.65 0.60 0.52 0.42 0.29 0.23 0.14 0.06 0.06 0.05 0.04 0.05 0.06 0.06 0.06 0.05 0.06 0.07 0.10 0.13 0.14 0.18 0.29 0.43 0.50 0.49 0.51 0.57 0.64 0.73 0.74 0.68
1.21 1.12 1.07 1.08 1.05 1.01 0.95 0.94 0.93 0.91 0.87 0.80 0.69 0.63 0.57 0.43 0.30 0.27 0.17 0.09 0.09 0.08 0.09 0.09 0.07 0.07 0.07 0.09 0.11 0.15 0.21 0.23 0.27 0.34 0.45 0.54 0.60 0.67 0.74 0.81 0.86 0.88 0.83
1.17 1.10 1.04 1.02 1.03 1.00 0.95 0.94 0.98 1.00 0.96 0.86 0.74 0.65 0.61 0.52 0.41 0.39 0.34 0.22 0.19 0.16 0.14 0.13 0.12 0.12 0.13 0.15 0.19 0.27 0.30 0.33 0.37 0.43 0.51 0.59 0.66 0.73 0.80 0.89 0.94 0.97 0.96
1.14 1.06 1.03 1.00 1.01 1.02 1.04 1.07 1.04 0.98 0.99 0.95 0.87 0.78 0.70 0.62 0.57 0.57 0.56 0.43 0.34 0.26 0.23 0.22 0.22 0.22 0.23 0.26 0.31 0.41 0.44 0.48 0.51 0.55 0.62 0.72 0.75 0.73 0.73 0.78 0.89 0.96 1.00
1.08 1.08 1.10 1.11 1.10 1.09 1.07 1.06 1.01 0.96 0.96 0.94 0.91 0.87 0.80 0.70 0.69 0.70 0.71 0.75 0.68 0.52 0.43 0.38 0.36 0.37 0.38 0.41 0.46 0.53 0.51 0.57 0.57 0.58 0.64 0.70 0.68 0.63 0.60 0.62 0.74 0.84 0.89
1.00 1.02 1.07 1.09 1.09 1.07 1.02 1.00 0.95 0.91 0.92 0.91 0.87 0.85 0.81 0.73 0.72 0.71 0.73 0.80 0.89 0.80 0.59 0.43 0.41 0.43 0.46 0.48 0.54 0.51 0.47 0.57 0.58 0.56 0.59 0.59 0.57 0.54 0.50 0.51 0.55 0.64 0.67
0.83 0.86 0.92 0.97 0.98 0.96 0.93 0.92 0.88 0.86 0.88 0.85 0.83 0.84 0.82 0.75 0.72 0.72 0.74 0.79 0.86 0.92 0.79 0.52 0.43 0.45 0.48 0.49 0.54 0.47 0.43 0.51 0.50 0.49 0.49 0.48 0.47 0.44 0.42 0.42 0.43 0.49 0.53
0.77 0.81 0.84 0.86 0.87 0.88 0.88 0.86 0.81 0.77 0.77 0.77 0.77 0.78 0.78 0.77 0.78 0.77 0.76 0.79 0.82 0.87 0.89 0.67 0.55 0.54 0.55 0.53 0.51 0.44 0.39 0.37 0.35 0.40 0.38 0.37 0.35 0.34 0.33 0.33 0.34 0.37 0.39
0.67 0.66 0.69 0.71 0.71 0.70 0.72 0.73 0.73 0.71 0.68 0.67 0.68 0.71 0.71 0.72 0.74 0.75 0.78 0.80 0.80 0.80 0.83 0.73 0.56 0.49 0.48 0.44 0.40 0.35 0.29 0.25 0.22 0.29 0.29 0.27 0.26 0.25 0.24 0.24 0.28 0.32 0.34
0.67 0.60 0.57 0.58 0.60 0.60 0.60 0.61 0.62 0.62 0.63 0.63 0.62 0.64 0.67 0.72 0.76 0.75 0.76 0.76 0.74 0.73 0.74 0.70 0.56 0.43 0.38 0.35 0.33 0.28 0.23 0.19 0.16 0.19 0.20 0.20 0.19 0.20 0.22 0.23 0.25 0.26 0.26
0.62 0.58 0.53 0.51 0.51 0.54 0.58 0.59 0.60 0.61 0.62 0.63 0.63 0.64 0.65 0.67 0.69 0.71 0.74 0.74 0.71 0.69 0.67 0.67 0.61 0.51 0.43 0.37 0.36 0.31 0.25 0.19 0.16 0.14 0.16 0.16 0.17 0.17 0.16 0.15 0.14 0.16 0.18
0.49 0.49 0.50 0.50 0.48 0.48 0.50 0.54 0.57 0.60 0.61 0.63 0.63 0.64 0.66 0.70 0.71 0.69 0.67 0.66 0.65 0.66 0.68 0.72 0.68 0.55 0.42 0.36 0.33 0.28 0.27 0.25 0.22 0.18 0.17 0.15 0.13 0.11 0.10 0.11 0.11 0.12 0.15
0.41 0.44 0.48 0.52 0.56 0.58 0.70 0.66 0.60 0.61 0.65 0.65 0.63 0.60 0.59 0.62 0.60 0.60 0.58 0.56 0.60 0.66 0.73 0.75 0.62 0.46 0.33 0.28 0.27 0.30 0.33 0.36 0.30 0.17 0.15 0.15 0.13 0.12 0.09 0.09 0.12 0.15 0.16
0.50 0.54 0.58 0.62 0.66 0.73 0.81 0.73 0.69 0.61 0.62 0.63 0.60 0.55 0.51 0.48 0.48 0.41 0.43 0.46 0.48 0.53 0.54 0.46 0.37 0.30 0.26 0.26 0.33 0.40 0.37 0.35 0.26 0.16 0.19 0.20 0.15 0.14 0.11 0.11 0.13 0.13 0.13
0.73 0.77 0.81 0.82 0.81 0.81 0.78 0.69 0.67 0.59 0.56 0.52 0.47 0.42 0.38 0.34 0.32 0.32 0.34 0.41 0.39 0.36 0.34 0.30 0.26 0.23 0.22 0.24 0.31 0.41 0.41 0.38 0.29 0.21 0.20 0.21 0.15 0.12 0.11 0.11 0.13 0.13 0.12
0.85 0.82 0.80 0.78 0.74 0.69 0.63 0.53 0.46 0.40 0.41 0.40 0.35 0.32 0.31 0.29 0.33 0.38 0.39 0.41 0.31 0.25 0.27 0.31 0.33 0.30 0.28 0.28 0.29 0.38 0.46 0.49 0.38 0.22 0.17 0.17 0.15 0.13 0.13 0.12 0.12 0.14 0.14
0.64 0.58 0.54 0.50 0.47 0.43 0.41 0.36 0.32 0.28 0.27 0.25 0.26 0.26 0.30 0.29 0.34 0.41 0.38 0.33 0.27 0.23 0.24 0.27 0.30 0.31 0.29 0.29 0.32 0.32 0.44 0.62 0.51 0.32 0.14 0.18 0.20 0.23 0.32 0.14 0.10 0.11 0.12

GEFSMA_prec_meanprecacc_126.txt.gz
Total_Precipitation_Accumulation
0.24 0.22 0.23 0.21 0.18 0.14 0.11 0.09 0.06 0.04 0.03 0.02 0.01 0.01 0.00 0.00 0.00 0.00 0.00 0.00 0.00 0.01 0.01 0.02 0.04 0.06 0.09 0.12 0.16 0.17 0.14 0.10 0.08 0.08 0.08 0.07 0.06 0.07 0.08 0.09 0.10 0.11 0.11
0.29 0.28 0.24 0.22 0.19 0.16 0.14 0.11 0.08 0.06 0.05 0.04 0.02 0.01 0.01 0.00 0.00 0.00 0.00 0.00 0.00 0.00 0.01 0.02 0.04 0.08 0.14 0.19 0.22 0.21 0.18 0.14 0.11 0.10 0.09 0.09 0.08 0.08 0.10 0.11 0.12 0.12 0.14
0.33 0.31 0.28 0.24 0.20 0.18 0.17 0.15 0.14 0.11 0.08 0.05 0.03 0.02 0.02 0.01 0.01 0.00 0.00 0.00 0.00 0.00 0.00 0.01 0.04 0.09 0.15 0.18 0.22 0.25 0.22 0.18 0.15 0.13 0.11 0.11 0.11 0.11 0.12 0.13 0.14 0.15 0.16
0.46 0.39 0.30 0.24 0.26 0.26 0.24 0.21 0.19 0.17 0.13 0.10 0.07 0.05 0.04 0.03 0.02 0.01 0.01 0.01 0.01 0.00 0.00 0.01 0.03 0.07 0.11 0.16 0.22 0.29 0.29 0.26 0.21 0.18 0.14 0.13 0.13 0.13 0.13 0.14 0.15 0.16 0.18
0.54 0.51 0.40 0.32 0.35 0.33 0.27 0.23 0.20 0.20 0.17 0.15 0.14 0.11 0.08 0.07 0.05 0.03 0.02 0.01 0.01 0.01 0.01 0.02 0.02 0.03 0.06 0.09 0.14 0.24 0.32 0.34 0.29 0.22 0.18 0.16 0.15 0.15 0.15 0.16 0.18 0.19 0.20
0.59 0.55 0.50 0.46 0.47 0.45 0.37 0.32 0.27 0.25 0.23 0.23 0.21 0.14 0.10 0.08 0.07 0.05 0.04 0.03 0.02 0.02 0.03 0.03 0.03 0.02 0.02 0.05 0.07 0.13 0.24 0.33 0.33 0.27 0.23 0.20 0.19 0.19 0.20 0.22 0.23 0.22 0.23
0.82 0.70 0.55 0.54 0.55 0.52 0.48 0.46 0.44 0.42 0.36 0.34 0.29 0.19 0.12 0.09 0.08 0.06 0.05 0.04 0.04 0.04 0.04 0.04 0.04 0.03 0.02 0.03 0.04 0.06 0.13 0.25 0.32 0.32 0.27 0.24 0.23 0.23 0.25 0.30 0.33 0.33 0.34
0.95 0.91 0.81 0.73 0.69 0.63 0.60 0.59 0.58 0.53 0.49 0.49 0.45 0.39 0.25 0.15 0.10 0.07 0.07 0.06 0.05 0.05 0.04 0.05 0.04 0.04 0.03 0.03 0.04 0.05 0.08 0.15 0.26 0.33 0.32 0.30 0.28 0.28 0.32 0.37 0.41 0.42 0.44
1.08 1.04 1.03 1.01 0.98 0.92 0.79 0.76 0.76 0.70 0.63 0.61 0.58 0.58 0.39 0.23 0.15 0.11 0.09 0.08 0.07 0.06 0.05 0.05 0.06 0.06 0.05 0.04 0.05 0.06 0.07 0.10 0.16 0.30 0.40 0.40 0.38 0.38 0.42 0.48 0.53 0.56 0.56
1.22 1.17 1.15 1.15 1.14 1.07 0.97 0.97 0.99 0.90 0.85 0.76 0.70 0.62 0.50 0.36 0.30 0.20 0.12 0.10 0.10 0.08 0.09 0.08 0.07 0.06 0.06 0.06 0.08 0.11 0.13 0.15 0.19 0.30 0.45 0.52 0.51 0.53 0.59 0.66 0.75 0.77 0.71
1.26 1.20 1.17 1.18 1.16 1.12 1.05 1.05 1.07 1.05 1.01 0.92 0.80 0.73 0.67 0.53 0.39 0.34 0.22 0.14 0.13 0.13 0.13 0.12 0.10 0.09 0.09 0.10 0.12 0.16 0.22 0.24 0.28 0.36 0.47 0.56 0.62 0.69 0.78 0.84 0.89 0.91 0.87
1.23 1.17 1.14 1.15 1.17 1.16 1.11 1.10 1.14 1.16 1.13 1.03 0.91 0.78 0.73 0.64 0.51 0.48 0.41 0.28 0.24 0.20 0.19 0.18 0.18 0.16 0.16 0.18 0.22 0.29 0.33 0.35 0.39 0.45 0.54 0.63 0.70 0.77 0.84 0.93 0.99 1.01 1.00
1.21 1.14 1.11 1.11 1.13 1.14 1.17 1.23 1.22 1.16 1.16 1.12 1.04 0.94 0.86 0.76 0.70 0.69 0.67 0.52 0.41 0.32 0.28 0.27 0.27 0.28 0.29 0.30 0.35 0.46 0.48 0.51 0.54 0.57 0.66 0.76 0.79 0.77 0.77 0.82 0.93 1.01 1.04
1.13 1.15 1.17 1.19 1.20 1.18 1.17 1.16 1.13 1.09 1.10 1.08 1.05 1.01 0.95 0.85 0.83 0.83 0.83 0.87 0.78 0.60 0.49 0.43 0.40 0.42 0.45 0.47 0.52 0.58 0.54 0.60 0.60 0.61 0.67 0.74 0.72 0.66 0.63 0.65 0.77 0.88 0.93
1.06 1.09 1.14 1.16 1.16 1.14 1.10 1.09 1.05 1.02 1.04 1.03 1.00 0.98 0.94 0.86 0.85 0.85 0.87 0.94 1.03 0.92 0.67 0.48 0.45 0.47 0.51 0.54 0.60 0.57 0.51 0.61 0.62 0.59 0.61 0.62 0.59 0.56 0.53 0.54 0.58 0.67 0.71
0.88 0.91 0.98 1.04 1.05 1.04 1.01 1.01 0.98 0.95 0.98 0.95 0.93 0.95 0.92 0.86 0.84 0.86 0.89 0.93 1.02 1.08 0.91 0.59 0.48 0.49 0.53 0.54 0.60 0.53 0.48 0.56 0.54 0.53 0.52 0.51 0.49 0.46 0.44 0.44 0.45 0.51 0.56
0.81 0.84 0.87 0.91 0.92 0.93 0.94 0.92 0.88 0.85 0.85 0.85 0.85 0.86 0.87 0.86 0.87 0.88 0.89 0.93 0.98 1.04 1.04 0.78 0.62 0.62 0.65 0.62 0.60 0.52 0.46 0.43 0.41 0.47 0.44 0.41 0.39 0.37 0.36 0.35 0.36 0.39 0.42
0.70 0.70 0.73 0.75 0.76 0.76 0.77 0.79 0.78 0.76 0.75 0.73 0.74 0.77 0.78 0.80 0.82 0.84 0.89 0.94 0.95 0.97 1.00 0.88 0.69 0.60 0.59 0.56 0.53 0.48 0.41 0.35 0.31 0.39 0.38 0.35 0.33 0.30 0.29 0.28 0.31 0.35 0.37
0.71 0.63 0.60 0.62 0.62 0.63 0.63 0.65 0.66 0.66 0.67 0.67 0.66 0.69 0.71 0.77 0.82 0.81 0.83 0.85 0.85 0.85 0.87 0.85 0.70 0.56 0.50 0.46 0.45 0.40 0.34 0.30 0.26 0.29 0.30 0.28 0.27 0.27 0.27 0.27 0.29 0.30 0.29
0.65 0.60 0.55 0.53 0.52 0.55 0.59 0.60 0.61 0.62 0.64 0.64 0.65 0.67 0.68 0.71 0.73 0.76 0.79 0.80 0.79 0.78 0.78 0.80 0.74 0.64 0.56 0.50 0.50 0.46 0.39 0.32 0.28 0.24 0.27 0.26 0.25 0.24 0.21 0.19 0.18 0.19 0.21
0.52 0.53 0.52 0.52 0.50 0.49 0.52 0.55 0.59 0.61 0.63 0.65 0.66 0.67 0.69 0.74 0.75 0.74 0.73 0.72 0.72 0.75 0.78 0.83 0.79 0.66 0.53 0.48 0.46 0.41 0.39 0.37 0.35 0.30 0.29 0.26 0.22 0.19 0.17 0.16 0.16 0.17 0.20
0.42 0.46 0.50 0.54 0.58 0.59 0.71 0.67 0.61 0.63 0.66 0.67 0.65 0.63 0.62 0.65 0.64 0.64 0.63 0.62 0.66 0.73 0.82 0.85 0.74 0.57 0.42 0.36 0.36 0.41 0.45 0.49 0.42 0.26 0.25 0.23 0.21 0.19 0.15 0.14 0.18 0.21 0.22
0.50 0.54 0.59 0.63 0.67 0.74 0.82 0.74 0.70 0.62 0.63 0.65 0.62 0.57 0.53 0.51 0.52 0.45 0.47 0.51 0.53 0.60 0.62 0.56 0.48 0.41 0.36 0.34 0.42 0.51 0.49 0.46 0.34 0.23 0.27 0.30 0.24 0.21 0.17 0.16 0.20 0.20 0.20
0.74 0.78 0.81 0.82 0.82 0.82 0.80 0.71 0.68 0.59 0.57 0.53 0.48 0.43 0.40 0.36 0.34 0.35 0.37 0.45 0.44 0.42 0.40 0.37 0.34 0.32 0.31 0.33 0.41 0.50 0.51 0.49 0.38 0.29 0.27 0.30 0.22 0.18 0.16 0.16 0.21 0.22 0.22
0.86 0.83 0.80 0.79 0.75 0.70 0.65 0.55 0.47 0.41 0.42 0.41 0.36 0.33 0.33 0.31 0.35 0.41 0.41 0.43 0.34 0.29 0.32 0.36 0.38 0.37 0.37 0.36 0.37 0.48 0.57 0.61 0.51 0.32 0.24 0.24 0.20 0.18 0.18 0.18 0.19 0.23 0.23
0.65 0.59 0.55 0.52 0.48 0.45 0.43 0.38 0.34 0.30 0.28 0.27 0.27 0.27 0.31 0.31 0.38 0.44 0.41 0.36 0.30 0.26 0.28 0.31 0.35 0.36 0.35 0.36 0.40 0.41 0.54 0.74 0.62 0.41 0.20 0.23 0.25 0.29 0.40 0.22 0.18 0.19 0.21

GEFSMA_prec_meanprecacc_132.txt.gz
Total_Precipitation_Accumulation
0.26 0.23 0.24 0.22 0.19 0.16 0.13 0.10 0.07 0.06 0.05 0.04 0.03 0.02 0.02 0.01 0.01 0.00 0.00 0.00 0.00 0.01 0.01 0.03 0.04 0.06 0.09 0.13 0.16 0.17 0.15 0.11 0.09 0.08 0.08 0.07 0.06 0.07 0.08 0.09 0.10 0.11 0.12
0.32 0.31 0.27 0.24 0.20 0.18 0.16 0.13 0.10 0.09 0.07 0.06 0.05 0.03 0.03 0.02 0.02 0.02 0.01 0.01 0.00 0.00 0.01 0.02 0.04 0.09 0.15 0.20 0.23 0.22 0.19 0.14 0.12 0.10 0.10 0.09 0.09 0.09 0.10 0.11 0.12 0.13 0.14
0.39 0.36 0.32 0.27 0.22 0.22 0.21 0.20 0.18 0.15 0.11 0.08 0.06 0.05 0.04 0.04 0.03 0.03 0.03 0.02 0.01 0.01 0.01 0.02 0.05 0.10 0.16 0.20 0.24 0.27 0.24 0.19 0.16 0.13 0.12 0.12 0.12 0.12 0.12 0.13 0.14 0.15 0.17
0.53 0.48 0.37 0.28 0.31 0.33 0.31 0.28 0.24 0.20 0.15 0.12 0.10 0.08 0.07 0.05 0.04 0.04 0.03 0.03 0.02 0.02 0.01 0.02 0.04 0.08 0.13 0.18 0.25 0.32 0.32 0.28 0.23 0.19 0.15 0.13 0.14 0.13 0.13 0.14 0.16 0.17 0.19
0.62 0.58 0.46 0.39 0.43 0.41 0.34 0.30 0.25 0.24 0.21 0.19 0.17 0.15 0.12 0.09 0.07 0.06 0.05 0.04 0.04 0.03 0.03 0.03 0.04 0.05 0.08 0.11 0.16 0.27 0.35 0.37 0.31 0.23 0.19 0.17 0.15 0.15 0.15 0.17 0.18 0.19 0.20
0.66 0.63 0.56 0.53 0.56 0.52 0.43 0.38 0.33 0.31 0.28 0.29 0.27 0.19 0.15 0.14 0.11 0.09 0.08 0.07 0.07 0.07 0.07 0.06 0.06 0.05 0.05 0.07 0.09 0.16 0.26 0.36 0.36 0.30 0.25 0.21 0.20 0.20 0.21 0.22 0.23 0.23 0.23
0.87 0.79 0.65 0.64 0.66 0.60 0.55 0.53 0.51 0.48 0.42 0.41 0.36 0.25 0.18 0.15 0.12 0.09 0.08 0.08 0.08 0.08 0.08 0.08 0.08 0.06 0.04 0.05 0.07 0.08 0.15 0.27 0.35 0.35 0.30 0.26 0.25 0.24 0.26 0.31 0.33 0.34 0.35
0.97 0.96 0.92 0.87 0.83 0.76 0.70 0.68 0.67 0.61 0.56 0.56 0.51 0.46 0.30 0.19 0.13 0.10 0.10 0.09 0.09 0.09 0.08 0.08 0.08 0.07 0.06 0.05 0.06 0.06 0.10 0.18 0.28 0.36 0.36 0.34 0.30 0.31 0.34 0.39 0.43 0.44 0.46
1.09 1.07 1.07 1.08 1.07 1.02 0.91 0.87 0.86 0.80 0.74 0.71 0.68 0.68 0.47 0.27 0.18 0.14 0.12 0.11 0.11 0.10 0.10 0.10 0.09 0.09 0.08 0.07 0.07 0.08 0.09 0.12 0.19 0.33 0.45 0.46 0.43 0.42 0.45 0.51 0.56 0.60 0.59
1.23 1.18 1.17 1.17 1.17 1.11 1.03 1.07 1.10 1.02 0.98 0.90 0.85 0.75 0.61 0.43 0.36 0.24 0.15 0.14 0.14 0.12 0.12 0.13 0.12 0.11 0.10 0.10 0.11 0.13 0.15 0.16 0.21 0.33 0.50 0.59 0.58 0.59 0.66 0.72 0.80 0.81 0.75
1.27 1.21 1.19 1.20 1.18 1.15 1.08 1.10 1.15 1.16 1.13 1.06 0.96 0.89 0.85 0.67 0.49 0.42 0.28 0.18 0.18 0.17 0.17 0.17 0.15 0.14 0.14 0.15 0.16 0.20 0.26 0.28 0.32 0.41 0.53 0.65 0.71 0.78 0.86 0.92 0.96 0.97 0.92
1.24 1.18 1.15 1.17 1.19 1.18 1.13 1.13 1.18 1.22 1.22 1.14 1.03 0.92 0.88 0.79 0.64 0.60 0.51 0.35 0.30 0.25 0.25 0.25 0.24 0.23 0.23 0.26 0.30 0.38 0.40 0.41 0.45 0.51 0.61 0.71 0.80 0.86 0.94 1.01 1.06 1.08 1.06
1.22 1.16 1.13 1.14 1.17 1.19 1.21 1.27 1.26 1.22 1.24 1.22 1.16 1.07 0.99 0.89 0.82 0.82 0.78 0.61 0.49 0.38 0.34 0.34 0.34 0.35 0.37 0.39 0.43 0.55 0.56 0.58 0.60 0.63 0.72 0.83 0.87 0.86 0.86 0.91 1.01 1.08 1.11
1.14 1.16 1.20 1.23 1.25 1.25 1.24 1.24 1.21 1.16 1.17 1.15 1.13 1.11 1.05 0.96 0.95 0.96 0.96 0.98 0.88 0.68 0.56 0.51 0.48 0.50 0.51 0.54 0.60 0.68 0.63 0.69 0.67 0.67 0.74 0.81 0.79 0.74 0.70 0.73 0.85 0.96 1.01
1.07 1.11 1.16 1.20 1.21 1.20 1.17 1.16 1.13 1.09 1.11 1.10 1.07 1.06 1.03 0.96 0.96 0.96 0.97 1.04 1.13 1.00 0.73 0.54 0.51 0.52 0.55 0.59 0.67 0.66 0.60 0.71 0.72 0.67 0.68 0.69 0.66 0.62 0.59 0.59 0.64 0.73 0.77
0.90 0.93 1.00 1.06 1.07 1.07 1.05 1.05 1.03 1.01 1.03 1.01 0.99 1.02 1.00 0.93 0.92 0.93 0.97 1.01 1.09 1.14 0.96 0.63 0.53 0.53 0.57 0.59 0.66 0.60 0.56 0.66 0.64 0.62 0.61 0.59 0.57 0.54 0.51 0.50 0.51 0.57 0.62
0.82 0.86 0.88 0.93 0.95 0.95 0.96 0.95 0.92 0.90 0.91 0.90 0.90 0.92 0.92 0.91 0.93 0.93 0.94 0.98 1.03 1.10 1.08 0.80 0.65 0.64 0.68 0.67 0.65 0.59 0.53 0.51 0.50 0.57 0.54 0.50 0.49 0.46 0.45 0.44 0.44 0.45 0.47
0.71 0.70 0.74 0.77 0.77 0.78 0.79 0.81 0.82 0.80 0.79 0.78 0.78 0.82 0.83 0.85 0.86 0.88 0.93 0.97 0.99 1.01 1.04 0.91 0.71 0.63 0.61 0.59 0.57 0.55 0.50 0.45 0.41 0.49 0.47 0.44 0.42 0.38 0.36 0.36 0.39 0.42 0.43
0.72 0.64 0.61 0.63 0.64 0.65 0.65 0.67 0.69 0.70 0.71 0.70 0.70 0.72 0.74 0.79 0.84 0.84 0.85 0.88 0.88 0.88 0.90 0.88 0.72 0.58 0.52 0.49 0.49 0.45 0.40 0.38 0.35 0.38 0.40 0.38 0.38 0.37 0.36 0.35 0.37 0.37 0.36
0.65 0.61 0.56 0.54 0.53 0.56 0.60 0.62 0.63 0.65 0.66 0.66 0.67 0.69 0.70 0.72 0.74 0.77 0.80 0.81 0.81 0.80 0.81 0.83 0.77 0.67 0.59 0.53 0.54 0.50 0.44 0.38 0.35 0.32 0.37 0.36 0.37 0.36 0.32 0.29 0.27 0.28 0.29
0.52 0.53 0.53 0.53 0.50 0.50 0.52 0.56 0.59 0.63 0.65 0.67 0.68 0.68 0.70 0.75 0.76 0.75 0.74 0.73 0.74 0.78 0.81 0.87 0.83 0.70 0.57 0.51 0.49 0.44 0.43 0.42 0.41 0.38 0.38 0.34 0.30 0.27 0.24 0.24 0.25 0.26 0.28
0.42 0.46 0.50 0.54 0.58 0.60 0.71 0.68 0.62 0.63 0.67 0.67 0.66 0.64 0.63 0.66 0.65 0.65 0.64 0.64 0.69 0.76 0.86 0.90 0.78 0.62 0.47 0.41 0.41 0.45 0.50 0.54 0.47 0.32 0.32 0.32 0.30 0.28 0.23 0.20 0.26 0.28 0.29
0.50 0.54 0.59 0.63 0.67 0.75 0.83 0.74 0.70 0.62 0.64 0.65 0.62 0.58 0.53 0.51 0.53 0.46 0.48 0.52 0.55 0.62 0.65 0.59 0.52 0.45 0.41 0.38 0.47 0.55 0.54 0.51 0.40 0.28 0.34 0.38 0.33 0.30 0.24 0.23 0.28 0.27 0.27
0.74 0.78 0.81 0.83 0.82 0.82 0.80 0.71 0.68 0.60 0.57 0.53 0.48 0.44 0.40 0.36 0.35 0.36 0.38 0.46 0.45 0.43 0.42 0.38 0.36 0.33 0.33 0.36 0.45 0.55 0.56 0.54 0.43 0.34 0.34 0.37 0.29 0.26 0.22 0.22 0.28 0.29 0.28
0.86 0.83 0.80 0.79 0.75 0.70 0.65 0.56 0.48 0.42 0.42 0.41 0.36 0.33 0.33 0.31 0.36 0.42 0.42 0.44 0.35 0.30 0.33 0.38 0.40 0.38 0.39 0.38 0.40 0.51 0.60 0.66 0.57 0.37 0.29 0.30 0.26 0.25 0.24 0.23 0.25 0.30 0.30
0.65 0.59 0.55 0.52 0.48 0.45 0.43 0.38 0.35 0.30 0.29 0.27 0.27 0.28 0.32 0.32 0.38 0.45 0.42 0.37 0.31 0.27 0.29 0.33 0.36 0.38 0.37 0.38 0.43 0.43 0.57 0.78 0.67 0.46 0.25 0.28 0.30 0.35 0.48 0.28 0.23 0.25 0.27

GEFSMA_prec_meanprecacc_138.txt.gz
Total_Precipitation_Accumulation
0.28 0.26 0.27 0.25 0.22 0.19 0.16 0.12 0.09 0.07 0.07 0.06 0.05 0.04 0.03 0.02 0.02 0.02 0.01 0.01 0.01 0.01 0.02 0.04 0.06 0.08 0.11 0.14 0.18 0.18 0.15 0.11 0.09 0.09 0.08 0.07 0.06 0.07 0.08 0.10 0.11 0.11 0.12
0.34 0.33 0.30 0.27 0.23 0.20 0.18 0.15 0.12 0.11 0.09 0.08 0.07 0.05 0.05 0.04 0.03 0.03 0.03 0.03 0.03 0.02 0.01 0.03 0.06 0.12 0.19 0.23 0.27 0.26 0.22 0.17 0.13 0.11 0.10 0.10 0.09 0.09 0.10 0.11 0.12 0.13 0.14
0.41 0.39 0.35 0.29 0.24 0.24 0.24 0.22 0.20 0.18 0.13 0.10 0.07 0.06 0.06 0.05 0.04 0.04 0.04 0.03 0.03 0.03 0.02 0.02 0.05 0.12 0.20 0.25 0.31 0.34 0.29 0.24 0.19 0.16 0.14 0.13 0.13 0.13 0.13 0.14 0.15 0.15 0.17
0.56 0.51 0.39 0.30 0.33 0.36 0.35 0.31 0.27 0.23 0.18 0.14 0.11 0.09 0.08 0.07 0.05 0.05 0.05 0.04 0.03 0.03 0.03 0.03 0.05 0.09 0.16 0.23 0.31 0.39 0.39 0.35 0.29 0.23 0.18 0.16 0.15 0.14 0.14 0.15 0.16 0.18 0.19
0.67 0.63 0.50 0.42 0.47 0.45 0.38 0.33 0.29 0.27 0.24 0.22 0.20 0.17 0.14 0.12 0.10 0.08 0.07 0.06 0.05 0.05 0.05 0.05 0.06 0.07 0.10 0.14 0.21 0.33 0.42 0.44 0.38 0.28 0.22 0.20 0.17 0.17 0.17 0.18 0.19 0.20 0.21
0.72 0.68 0.61 0.57 0.61 0.58 0.48 0.43 0.37 0.34 0.32 0.32 0.30 0.23 0.18 0.17 0.14 0.11 0.10 0.09 0.09 0.09 0.09 0.09 0.09 0.08 0.08 0.10 0.13 0.21 0.33 0.43 0.43 0.37 0.30 0.25 0.22 0.22 0.23 0.24 0.24 0.24 0.24
0.92 0.84 0.70 0.70 0.73 0.66 0.60 0.57 0.56 0.53 0.47 0.46 0.42 0.30 0.22 0.18 0.15 0.11 0.10 0.10 0.10 0.10 0.10 0.11 0.11 0.10 0.09 0.09 0.12 0.14 0.21 0.34 0.43 0.43 0.37 0.32 0.30 0.28 0.30 0.33 0.35 0.35 0.36
0.98 0.98 0.95 0.92 0.90 0.86 0.83 0.78 0.76 0.70 0.63 0.64 0.58 0.53 0.36 0.24 0.17 0.13 0.13 0.12 0.11 0.12 0.11 0.12 0.12 0.12 0.11 0.10 0.10 0.11 0.16 0.26 0.37 0.44 0.44 0.41 0.37 0.36 0.39 0.43 0.46 0.47 0.49
1.10 1.07 1.08 1.10 1.10 1.06 0.97 0.95 0.95 0.89 0.81 0.79 0.76 0.77 0.56 0.34 0.23 0.18 0.17 0.15 0.15 0.14 0.14 0.14 0.14 0.14 0.13 0.13 0.12 0.13 0.14 0.18 0.28 0.42 0.54 0.55 0.52 0.50 0.52 0.58 0.63 0.66 0.65
1.23 1.19 1.18 1.18 1.18 1.13 1.05 1.09 1.13 1.05 1.03 0.95 0.92 0.84 0.71 0.52 0.44 0.32 0.22 0.22 0.21 0.18 0.18 0.17 0.16 0.15 0.15 0.15 0.17 0.19 0.21 0.22 0.27 0.43 0.61 0.70 0.69 0.70 0.77 0.83 0.90 0.90 0.83
1.27 1.21 1.19 1.20 1.18 1.15 1.09 1.11 1.16 1.18 1.16 1.10 1.02 0.98 0.96 0.83 0.67 0.59 0.43 0.32 0.31 0.28 0.28 0.26 0.23 0.21 0.20 0.22 0.22 0.26 0.32 0.33 0.38 0.49 0.64 0.77 0.84 0.91 0.98 1.03 1.06 1.06 1.00
1.24 1.18 1.16 1.17 1.19 1.18 1.14 1.14 1.19 1.24 1.24 1.17 1.07 0.97 0.95 0.88 0.77 0.75 0.66 0.48 0.42 0.35 0.34 0.33 0.31 0.31 0.32 0.34 0.37 0.45 0.47 0.49 0.53 0.60 0.71 0.83 0.93 1.00 1.08 1.16 1.21 1.20 1.16
1.23 1.16 1.13 1.15 1.18 1.20 1.23 1.29 1.29 1.25 1.27 1.25 1.19 1.11 1.04 0.94 0.88 0.89 0.86 0.69 0.57 0.45 0.41 0.40 0.40 0.41 0.43 0.45 0.50 0.64 0.64 0.67 0.68 0.71 0.81 0.94 0.99 0.99 1.00 1.06 1.17 1.23 1.24
1.14 1.16 1.21 1.24 1.26 1.26 1.26 1.27 1.24 1.20 1.21 1.19 1.17 1.15 1.09 1.00 1.00 1.01 1.01 1.04 0.95 0.75 0.63 0.58 0.54 0.55 0.57 0.60 0.67 0.77 0.71 0.78 0.75 0.75 0.84 0.92 0.90 0.86 0.82 0.85 0.99 1.13 1.17
1.07 1.11 1.16 1.21 1.22 1.21 1.19 1.18 1.16 1.13 1.15 1.14 1.11 1.11 1.07 1.00 0.99 0.99 1.01 1.09 1.19 1.06 0.80 0.61 0.57 0.57 0.61 0.64 0.72 0.70 0.64 0.77 0.78 0.74 0.76 0.77 0.75 0.72 0.68 0.69 0.74 0.84 0.91
0.90 0.93 1.00 1.07 1.08 1.07 1.06 1.07 1.05 1.03 1.07 1.04 1.03 1.05 1.03 0.96 0.95 0.97 1.01 1.05 1.14 1.21 1.02 0.69 0.57 0.57 0.61 0.62 0.70 0.63 0.58 0.69 0.68 0.66 0.66 0.64 0.63 0.61 0.59 0.58 0.59 0.66 0.72
0.82 0.86 0.89 0.93 0.95 0.96 0.96 0.96 0.93 0.91 0.93 0.93 0.93 0.94 0.95 0.95 0.97 0.97 0.99 1.03 1.08 1.15 1.14 0.86 0.70 0.68 0.71 0.70 0.69 0.62 0.56 0.54 0.53 0.60 0.57 0.54 0.53 0.52 0.51 0.51 0.51 0.52 0.54
0.71 0.71 0.74 0.77 0.78 0.78 0.80 0.82 0.82 0.81 0.80 0.79 0.80 0.85 0.85 0.88 0.90 0.93 0.98 1.02 1.05 1.07 1.11 0.97 0.76 0.67 0.65 0.63 0.60 0.57 0.52 0.47 0.43 0.52 0.50 0.47 0.45 0.42 0.41 0.42 0.45 0.48 0.49
0.72 0.64 0.62 0.63 0.64 0.65 0.66 0.68 0.70 0.70 0.71 0.71 0.71 0.73 0.76 0.82 0.87 0.87 0.90 0.92 0.92 0.92 0.94 0.92 0.76 0.61 0.55 0.52 0.52 0.47 0.43 0.40 0.37 0.40 0.42 0.41 0.41 0.41 0.41 0.41 0.43 0.44 0.42
0.65 0.61 0.57 0.54 0.54 0.57 0.61 0.63 0.65 0.66 0.67 0.67 0.68 0.70 0.72 0.74 0.76 0.79 0.83 0.84 0.84 0.84 0.83 0.85 0.79 0.68 0.60 0.55 0.56 0.52 0.46 0.41 0.38 0.35 0.40 0.40 0.41 0.40 0.37 0.35 0.34 0.36 0.37
0.53 0.53 0.53 0.53 0.51 0.50 0.53 0.56 0.60 0.63 0.66 0.68 0.68 0.69 0.72 0.78 0.79 0.77 0.76 0.75 0.76 0.80 0.84 0.89 0.85 0.71 0.58 0.53 0.51 0.46 0.46 0.44 0.44 0.41 0.41 0.37 0.33 0.30 0.28 0.28 0.30 0.32 0.36
0.42 0.46 0.50 0.55 0.58 0.60 0.72 0.68 0.62 0.63 0.67 0.68 0.67 0.64 0.64 0.67 0.66 0.66 0.65 0.65 0.70 0.78 0.89 0.92 0.80 0.63 0.48 0.42 0.42 0.47 0.52 0.56 0.50 0.34 0.35 0.35 0.32 0.32 0.27 0.25 0.31 0.34 0.35
0.51 0.55 0.59 0.64 0.68 0.75 0.83 0.75 0.70 0.62 0.64 0.65 0.63 0.58 0.54 0.52 0.53 0.46 0.49 0.53 0.56 0.63 0.66 0.60 0.53 0.46 0.41 0.39 0.48 0.57 0.56 0.54 0.42 0.30 0.37 0.41 0.36 0.33 0.28 0.29 0.35 0.33 0.33
0.75 0.78 0.82 0.83 0.82 0.82 0.80 0.71 0.68 0.60 0.57 0.54 0.48 0.44 0.40 0.36 0.35 0.36 0.39 0.46 0.45 0.43 0.42 0.39 0.36 0.34 0.34 0.37 0.46 0.57 0.58 0.57 0.46 0.35 0.36 0.39 0.32 0.28 0.25 0.26 0.33 0.34 0.34
0.86 0.83 0.81 0.79 0.75 0.70 0.65 0.56 0.48 0.42 0.43 0.41 0.37 0.33 0.33 0.31 0.36 0.42 0.43 0.44 0.35 0.30 0.34 0.38 0.40 0.39 0.39 0.39 0.40 0.52 0.62 0.68 0.59 0.39 0.31 0.33 0.28 0.27 0.27 0.26 0.29 0.35 0.35
0.66 0.60 0.56 0.52 0.48 0.45 0.43 0.38 0.35 0.31 0.29 0.28 0.27 0.28 0.32 0.32 0.39 0.46 0.42 0.38 0.32 0.28 0.29 0.33 0.37 0.38 0.37 0.39 0.44 0.44 0.58 0.80 0.69 0.48 0.26 0.31 0.33 0.38 0.51 0.31 0.26 0.29 0.32

GEFSMA_prec_meanprecacc_144.txt.gz
Total_Precipitation_Accumulation
0.34 0.33 0.36 0.33 0.27 0.24 0.21 0.17 0.13 0.10 0.09 0.08 0.08 0.06 0.05 0.05 0.04 0.04 0.03 0.02 0.02 0.02 0.03 0.05 0.07 0.09 0.13 0.16 0.20 0.21 0.18 0.13 0.11 0.10 0.09 0.08 0.07 0.08 0.09 0.10 0.11 0.12 0.12
0.39 0.38 0.36 0.34 0.29 0.26 0.23 0.19 0.16 0.14 0.12 0.11 0.09 0.07 0.06 0.05 0.05 0.05 0.04 0.04 0.03 0.03 0.02 0.03 0.08 0.14 0.21 0.26 0.30 0.29 0.25 0.19 0.16 0.14 0.13 0.11 0.11 0.11 0.11 0.12 0.13 0.14 0.15
0.45 0.44 0.40 0.33 0.29 0.29 0.28 0.26 0.24 0.22 0.17 0.12 0.09 0.08 0.07 0.06 0.05 0.05 0.05 0.05 0.04 0.03 0.03 0.03 0.06 0.13 0.22 0.28 0.34 0.38 0.35 0.29 0.24 0.20 0.18 0.17 0.16 0.14 0.14 0.15 0.16 0.16 0.18
0.60 0.55 0.44 0.36 0.38 0.42 0.40 0.34 0.30 0.26 0.21 0.17 0.14 0.11 0.10 0.09 0.07 0.06 0.06 0.05 0.05 0.04 0.03 0.03 0.06 0.10 0.17 0.24 0.35 0.44 0.46 0.42 0.37 0.30 0.24 0.20 0.19 0.17 0.16 0.16 0.17 0.18 0.20
0.70 0.66 0.54 0.47 0.52 0.49 0.43 0.37 0.32 0.30 0.27 0.24 0.22 0.19 0.16 0.13 0.11 0.10 0.09 0.08 0.07 0.07 0.07 0.07 0.08 0.09 0.11 0.15 0.24 0.37 0.48 0.51 0.46 0.36 0.30 0.26 0.22 0.21 0.20 0.20 0.21 0.21 0.22
0.78 0.73 0.64 0.61 0.66 0.62 0.53 0.47 0.40 0.37 0.34 0.35 0.33 0.25 0.20 0.18 0.16 0.13 0.12 0.11 0.11 0.11 0.11 0.11 0.11 0.10 0.10 0.13 0.16 0.25 0.38 0.49 0.49 0.44 0.39 0.34 0.30 0.28 0.28 0.29 0.29 0.27 0.27
0.96 0.90 0.76 0.75 0.78 0.71 0.64 0.62 0.62 0.57 0.50 0.49 0.45 0.32 0.24 0.20 0.17 0.13 0.12 0.12 0.12 0.13 0.13 0.15 0.14 0.13 0.12 0.13 0.16 0.18 0.25 0.40 0.50 0.52 0.47 0.43 0.41 0.38 0.38 0.40 0.42 0.41 0.41
0.99 1.00 0.98 0.96 0.95 0.93 0.91 0.86 0.83 0.76 0.68 0.68 0.62 0.56 0.38 0.26 0.18 0.15 0.16 0.16 0.15 0.15 0.15 0.16 0.16 0.16 0.15 0.14 0.15 0.16 0.20 0.30 0.43 0.53 0.54 0.53 0.50 0.49 0.50 0.53 0.55 0.55 0.56
1.10 1.07 1.08 1.11 1.12 1.09 1.02 1.01 1.01 0.95 0.87 0.83 0.79 0.81 0.59 0.36 0.25 0.20 0.20 0.20 0.20 0.20 0.19 0.20 0.19 0.19 0.18 0.18 0.17 0.17 0.19 0.22 0.33 0.50 0.64 0.68 0.67 0.66 0.68 0.71 0.74 0.77 0.74
1.23 1.19 1.18 1.18 1.19 1.14 1.07 1.12 1.16 1.08 1.06 0.98 0.95 0.87 0.74 0.56 0.48 0.35 0.25 0.26 0.27 0.26 0.26 0.25 0.22 0.21 0.21 0.20 0.22 0.24 0.26 0.26 0.33 0.49 0.70 0.81 0.83 0.86 0.94 1.00 1.05 1.02 0.93
1.27 1.21 1.19 1.21 1.18 1.16 1.10 1.12 1.17 1.19 1.18 1.13 1.05 1.01 1.00 0.86 0.71 0.63 0.47 0.36 0.36 0.35 0.36 0.35 0.32 0.29 0.27 0.27 0.27 0.32 0.38 0.39 0.45 0.55 0.71 0.86 0.96 1.04 1.13 1.20 1.25 1.25 1.16
1.24 1.18 1.16 1.18 1.20 1.19 1.15 1.14 1.20 1.25 1.26 1.19 1.09 1.00 0.98 0.92 0.80 0.79 0.70 0.52 0.45 0.38 0.38 0.38 0.38 0.37 0.38 0.41 0.45 0.54 0.55 0.57 0.61 0.67 0.78 0.91 1.02 1.11 1.21 1.31 1.38 1.40 1.36
1.23 1.16 1.14 1.15 1.18 1.20 1.24 1.30 1.30 1.26 1.29 1.27 1.22 1.14 1.07 0.98 0.93 0.94 0.92 0.74 0.60 0.48 0.45 0.43 0.43 0.44 0.46 0.49 0.56 0.71 0.71 0.73 0.75 0.79 0.89 1.02 1.07 1.08 1.11 1.18 1.30 1.39 1.41
1.14 1.16 1.21 1.24 1.26 1.27 1.26 1.27 1.25 1.21 1.21 1.20 1.18 1.17 1.12 1.04 1.05 1.07 1.08 1.11 1.00 0.79 0.67 0.61 0.58 0.58 0.61 0.64 0.72 0.82 0.75 0.82 0.80 0.80 0.89 0.97 0.97 0.94 0.92 0.97 1.13 1.29 1.35
1.07 1.11 1.16 1.21 1.22 1.21 1.19 1.19 1.16 1.13 1.16 1.16 1.13 1.12 1.09 1.02 1.02 1.03 1.06 1.15 1.25 1.12 0.84 0.65 0.60 0.60 0.64 0.68 0.77 0.74 0.68 0.81 0.82 0.78 0.80 0.81 0.79 0.76 0.73 0.74 0.81 0.95 1.04
0.90 0.93 1.00 1.07 1.08 1.07 1.06 1.07 1.05 1.03 1.07 1.05 1.04 1.06 1.04 0.97 0.96 0.99 1.03 1.07 1.17 1.24 1.05 0.71 0.60 0.60 0.63 0.65 0.73 0.66 0.62 0.73 0.71 0.69 0.68 0.67 0.66 0.64 0.62 0.62 0.64 0.72 0.80
0.82 0.86 0.89 0.93 0.95 0.96 0.96 0.96 0.93 0.91 0.93 0.93 0.94 0.96 0.96 0.96 0.98 0.99 1.01 1.05 1.10 1.18 1.17 0.88 0.71 0.70 0.73 0.72 0.71 0.64 0.58 0.57 0.56 0.64 0.60 0.57 0.56 0.55 0.54 0.54 0.55 0.58 0.61
0.71 0.71 0.74 0.77 0.78 0.79 0.80 0.82 0.82 0.81 0.80 0.80 0.80 0.85 0.86 0.89 0.92 0.95 1.00 1.04 1.07 1.09 1.13 1.00 0.79 0.70 0.68 0.65 0.63 0.60 0.55 0.50 0.46 0.54 0.52 0.49 0.47 0.45 0.43 0.44 0.47 0.52 0.54
0.72 0.64 0.62 0.63 0.64 0.66 0.67 0.68 0.70 0.70 0.72 0.72 0.71 0.74 0.77 0.82 0.88 0.88 0.91 0.93 0.94 0.94 0.98 0.96 0.79 0.64 0.58 0.54 0.54 0.50 0.46 0.42 0.38 0.42 0.43 0.42 0.42 0.42 0.43 0.43 0.45 0.46 0.46
0.65 0.61 0.57 0.54 0.54 0.57 0.61 0.63 0.65 0.67 0.67 0.68 0.69 0.71 0.73 0.75 0.77 0.80 0.84 0.85 0.85 0.85 0.86 0.87 0.81 0.70 0.63 0.57 0.58 0.54 0.48 0.43 0.40 0.36 0.41 0.41 0.42 0.42 0.38 0.36 0.36 0.38 0.39
0.53 0.53 0.53 0.53 0.51 0.50 0.53 0.57 0.60 0.64 0.66 0.68 0.69 0.70 0.72 0.78 0.80 0.78 0.76 0.76 0.77 0.81 0.85 0.90 0.87 0.73 0.60 0.55 0.53 0.48 0.48 0.46 0.45 0.42 0.41 0.38 0.35 0.31 0.29 0.30 0.32 0.34 0.38
0.43 0.46 0.51 0.55 0.59 0.60 0.72 0.69 0.63 0.64 0.68 0.68 0.67 0.64 0.64 0.68 0.66 0.67 0.66 0.65 0.70 0.78 0.89 0.93 0.82 0.65 0.50 0.44 0.43 0.48 0.53 0.57 0.51 0.35 0.36 0.35 0.33 0.33 0.29 0.27 0.33 0.36 0.37
0.52 0.56 0.60 0.65 0.69 0.76 0.84 0.75 0.71 0.63 0.65 0.66 0.63 0.58 0.54 0.52 0.53 0.46 0.49 0.53 0.56 0.64 0.66 0.60 0.54 0.46 0.42 0.40 0.49 0.58 0.57 0.55 0.43 0.31 0.37 0.42 0.37 0.35 0.30 0.30 0.36 0.34 0.35
0.76 0.79 0.83 0.84 0.83 0.83 0.81 0.72 0.69 0.61 0.58 0.54 0.49 0.44 0.40 0.37 0.35 0.36 0.39 0.47 0.45 0.43 0.42 0.39 0.37 0.34 0.34 0.37 0.46 0.58 0.59 0.58 0.46 0.36 0.36 0.40 0.32 0.29 0.26 0.27 0.34 0.35 0.35
0.87 0.84 0.81 0.79 0.76 0.71 0.66 0.57 0.49 0.42 0.43 0.42 0.37 0.34 0.34 0.31 0.36 0.43 0.43 0.45 0.35 0.31 0.34 0.38 0.41 0.39 0.40 0.40 0.41 0.52 0.62 0.69 0.60 0.40 0.32 0.33 0.29 0.27 0.28 0.27 0.30 0.36 0.36
0.66 0.60 0.56 0.52 0.49 0.45 0.43 0.39 0.35 0.31 0.30 0.28 0.28 0.29 0.33 0.33 0.39 0.46 0.43 0.38 0.32 0.28 0.29 0.33 0.37 0.39 0.37 0.39 0.44 0.44 0.59 0.82 0.71 0.49 0.27 0.31 0.33 0.39 0.52 0.32 0.26 0.29 0.32

GEFSMA_prec_meanprecacc_150.txt.gz
Total_Precipitation_Accumulation
0.36 0.35 0.37 0.34 0.28 0.24 0.21 0.18 0.13 0.11 0.10 0.09 0.08 0.06 0.05 0.05 0.05 0.04 0.04 0.03 0.03 0.03 0.05 0.08 0.10 0.13 0.17 0.20 0.24 0.25 0.21 0.16 0.14 0.13 0.12 0.10 0.09 0.09 0.10 0.11 0.12 0.12 0.13
0.42 0.40 0.37 0.35 0.31 0.27 0.24 0.20 0.16 0.15 0.13 0.12 0.10 0.09 0.07 0.06 0.05 0.05 0.05 0.04 0.04 0.03 0.03 0.05 0.10 0.17 0.25 0.30 0.34 0.33 0.29 0.24 0.21 0.18 0.17 0.15 0.14 0.13 0.13 0.14 0.14 0.14 0.16
0.50 0.47 0.42 0.34 0.30 0.30 0.29 0.26 0.25 0.23 0.17 0.13 0.10 0.09 0.08 0.07 0.06 0.06 0.06 0.05 0.05 0.04 0.04 0.04 0.08 0.16 0.25 0.31 0.38 0.43 0.40 0.35 0.30 0.27 0.24 0.23 0.21 0.19 0.18 0.18 0.18 0.19 0.20
0.66 0.60 0.49 0.40 0.41 0.44 0.42 0.36 0.32 0.27 0.21 0.17 0.14 0.12 0.11 0.09 0.08 0.07 0.07 0.06 0.05 0.05 0.04 0.04 0.07 0.12 0.20 0.28 0.39 0.49 0.51 0.48 0.43 0.37 0.32 0.29 0.28 0.25 0.24 0.22 0.23 0.23 0.24
0.76 0.71 0.58 0.52 0.57 0.54 0.48 0.42 0.36 0.32 0.28 0.25 0.23 0.20 0.17 0.14 0.12 0.11 0.09 0.09 0.08 0.07 0.07 0.08 0.09 0.10 0.13 0.17 0.27 0.41 0.52 0.55 0.50 0.42 0.38 0.35 0.32 0.30 0.29 0.28 0.28 0.27 0.27
0.84 0.78 0.69 0.66 0.71 0.68 0.59 0.54 0.47 0.43 0.39 0.38 0.35 0.26 0.21 0.19 0.16 0.14 0.12 0.11 0.11 0.12 0.12 0.12 0.12 0.12 0.12 0.14 0.18 0.28 0.42 0.53 0.53 0.48 0.44 0.41 0.39 0.37 0.37 0.38 0.37 0.35 0.34
1.04 0.97 0.80 0.77 0.81 0.74 0.68 0.68 0.68 0.65 0.56 0.53 0.48 0.34 0.24 0.21 0.17 0.14 0.12 0.12 0.12 0.13 0.14 0.16 0.16 0.15 0.14 0.15 0.18 0.20 0.28 0.44 0.54 0.57 0.53 0.49 0.48 0.47 0.48 0.51 0.52 0.51 0.51
1.03 1.05 1.04 0.99 0.97 0.95 0.93 0.89 0.87 0.81 0.73 0.73 0.66 0.59 0.39 0.26 0.18 0.15 0.16 0.16 0.16 0.16 0.16 0.17 0.17 0.17 0.17 0.17 0.17 0.18 0.22 0.34 0.48 0.59 0.61 0.60 0.58 0.58 0.61 0.65 0.68 0.67 0.68
1.13 1.09 1.11 1.14 1.13 1.11 1.03 1.02 1.03 1.00 0.92 0.87 0.83 0.85 0.61 0.37 0.26 0.20 0.20 0.21 0.21 0.20 0.20 0.21 0.21 0.21 0.21 0.20 0.19 0.20 0.22 0.25 0.37 0.55 0.70 0.75 0.75 0.75 0.78 0.83 0.87 0.90 0.88
1.25 1.21 1.20 1.19 1.20 1.15 1.08 1.12 1.16 1.10 1.10 1.04 0.99 0.90 0.77 0.58 0.50 0.36 0.26 0.27 0.28 0.27 0.27 0.26 0.24 0.24 0.24 0.24 0.24 0.27 0.29 0.30 0.37 0.54 0.76 0.88 0.91 0.95 1.04 1.12 1.18 1.16 1.06
1.28 1.22 1.20 1.22 1.19 1.16 1.11 1.13 1.18 1.19 1.19 1.17 1.10 1.05 1.03 0.89 0.73 0.65 0.48 0.36 0.36 0.36 0.37 0.37 0.35 0.32 0.31 0.31 0.30 0.35 0.41 0.43 0.49 0.59 0.76 0.93 1.03 1.12 1.22 1.31 1.37 1.38 1.29
1.24 1.18 1.16 1.18 1.21 1.19 1.15 1.15 1.21 1.25 1.26 1.20 1.12 1.04 1.00 0.94 0.82 0.81 0.71 0.53 0.46 0.39 0.39 0.39 0.40 0.40 0.41 0.44 0.48 0.57 0.59 0.60 0.65 0.71 0.82 0.96 1.08 1.18 1.29 1.41 1.49 1.51 1.49
1.23 1.17 1.15 1.15 1.18 1.21 1.24 1.30 1.30 1.27 1.29 1.27 1.23 1.16 1.10 1.00 0.94 0.95 0.93 0.75 0.61 0.49 0.45 0.44 0.44 0.46 0.48 0.51 0.58 0.74 0.73 0.76 0.78 0.82 0.93 1.07 1.12 1.14 1.17 1.25 1.39 1.48 1.51
1.14 1.17 1.22 1.25 1.26 1.27 1.26 1.27 1.25 1.21 1.22 1.20 1.19 1.17 1.13 1.06 1.06 1.09 1.09 1.12 1.02 0.80 0.68 0.62 0.59 0.60 0.63 0.66 0.74 0.85 0.77 0.84 0.82 0.83 0.91 1.00 1.00 0.98 0.96 1.03 1.21 1.37 1.42
1.07 1.11 1.16 1.21 1.22 1.21 1.19 1.19 1.16 1.13 1.16 1.16 1.13 1.13 1.10 1.02 1.03 1.04 1.07 1.16 1.27 1.13 0.85 0.66 0.63 0.63 0.67 0.70 0.79 0.76 0.71 0.84 0.85 0.81 0.83 0.83 0.81 0.79 0.76 0.78 0.86 1.01 1.11
0.90 0.93 1.00 1.07 1.08 1.08 1.06 1.07 1.06 1.03 1.07 1.05 1.04 1.07 1.05 0.98 0.97 1.00 1.04 1.09 1.19 1.26 1.07 0.72 0.61 0.61 0.65 0.67 0.75 0.69 0.64 0.76 0.74 0.73 0.71 0.70 0.69 0.66 0.65 0.65 0.67 0.76 0.84
0.82 0.86 0.89 0.93 0.95 0.96 0.96 0.96 0.93 0.91 0.93 0.93 0.94 0.96 0.96 0.96 0.99 1.00 1.02 1.06 1.12 1.20 1.19 0.89 0.72 0.70 0.74 0.73 0.72 0.66 0.60 0.58 0.57 0.66 0.63 0.60 0.58 0.58 0.57 0.57 0.58 0.60 0.64
0.71 0.71 0.74 0.77 0.78 0.79 0.80 0.82 0.82 0.81 0.80 0.80 0.81 0.86 0.87 0.89 0.93 0.96 1.01 1.05 1.08 1.11 1.15 1.01 0.80 0.71 0.69 0.66 0.64 0.61 0.55 0.51 0.47 0.56 0.54 0.51 0.50 0.47 0.45 0.46 0.50 0.54 0.56
0.72 0.64 0.62 0.63 0.64 0.66 0.67 0.68 0.70 0.70 0.72 0.72 0.71 0.74 0.77 0.83 0.89 0.89 0.92 0.95 0.95 0.97 1.00 0.98 0.82 0.67 0.60 0.56 0.55 0.51 0.47 0.44 0.40 0.43 0.45 0.44 0.44 0.44 0.44 0.44 0.46 0.48 0.48
0.65 0.61 0.57 0.54 0.54 0.57 0.61 0.63 0.65 0.67 0.67 0.68 0.69 0.71 0.73 0.75 0.78 0.80 0.84 0.86 0.85 0.86 0.87 0.89 0.83 0.73 0.65 0.60 0.60 0.56 0.50 0.44 0.41 0.37 0.42 0.42 0.43 0.43 0.40 0.38 0.37 0.39 0.41
0.53 0.53 0.53 0.53 0.51 0.50 0.53 0.57 0.60 0.64 0.66 0.68 0.69 0.70 0.72 0.79 0.80 0.78 0.77 0.76 0.77 0.82 0.85 0.91 0.87 0.74 0.61 0.56 0.55 0.50 0.50 0.49 0.48 0.44 0.43 0.39 0.35 0.32 0.30 0.31 0.34 0.36 0.40
0.43 0.46 0.51 0.55 0.59 0.60 0.73 0.69 0.63 0.64 0.68 0.69 0.67 0.65 0.64 0.68 0.67 0.67 0.66 0.66 0.71 0.79 0.90 0.93 0.83 0.66 0.51 0.44 0.44 0.49 0.54 0.58 0.52 0.36 0.37 0.36 0.34 0.33 0.29 0.27 0.34 0.38 0.39
0.52 0.56 0.60 0.65 0.69 0.76 0.84 0.76 0.71 0.63 0.65 0.66 0.63 0.58 0.54 0.52 0.54 0.47 0.50 0.54 0.57 0.64 0.67 0.61 0.54 0.46 0.42 0.40 0.49 0.58 0.57 0.56 0.44 0.32 0.38 0.42 0.37 0.35 0.30 0.30 0.36 0.35 0.36
0.76 0.80 0.83 0.84 0.84 0.83 0.81 0.72 0.69 0.61 0.58 0.54 0.49 0.44 0.40 0.37 0.35 0.36 0.39 0.47 0.45 0.44 0.43 0.39 0.37 0.35 0.35 0.37 0.46 0.58 0.60 0.58 0.47 0.36 0.37 0.41 0.33 0.30 0.26 0.27 0.35 0.35 0.36
0.87 0.84 0.82 0.80 0.77 0.71 0.66 0.57 0.49 0.43 0.43 0.42 0.37 0.34 0.34 0.31 0.37 0.43 0.43 0.45 0.35 0.31 0.34 0.39 0.41 0.40 0.40 0.40 0.41 0.52 0.63 0.69 0.60 0.40 0.32 0.34 0.29 0.28 0.28 0.27 0.30 0.36 0.36
0.66 0.60 0.57 0.53 0.50 0.46 0.44 0.39 0.36 0.31 0.30 0.29 0.28 0.29 0.33 0.33 0.40 0.47 0.43 0.38 0.32 0.28 0.29 0.34 0.37 0.39 0.38 0.39 0.44 0.45 0.59 0.82 0.72 0.50 0.27 0.32 0.34 0.40 0.53 0.32 0.26 0.29 0.32

GEFSMA_prec_meanprecacc_156.txt.gz
Total_Precipitation_Accumulation
0.38 0.36 0.38 0.34 0.28 0.24 0.21 0.18 0.13 0.11 0.10 0.09 0.09 0.07 0.05 0.05 0.05 0.04 0.04 0.03 0.03 0.03 0.05 0.09 0.12 0.16 0.21 0.25 0.29 0.30 0.27 0.22 0.19 0.18 0.17 0.15 0.13 0.12 0.13 0.15 0.15 0.16 0.16
0.45 0.42 0.38 0.35 0.31 0.27 0.24 0.20 0.17 0.15 0.13 0.12 0.10 0.09 0.07 0.06 0.05 0.05 0.05 0.04 0.04 0.03 0.03 0.06 0.11 0.19 0.28 0.35 0.39 0.38 0.35 0.30 0.26 0.23 0.22 0.20 0.18 0.18 0.18 0.19 0.20 0.19 0.20
0.55 0.52 0.44 0.35 0.30 0.30 0.29 0.27 0.25 0.23 0.18 0.13 0.10 0.09 0.08 0.07 0.06 0.06 0.06 0.06 0.05 0.04 0.04 0.05 0.09 0.17 0.27 0.35 0.43 0.49 0.46 0.40 0.36 0.31 0.28 0.26 0.25 0.24 0.24 0.25 0.25 0.24 0.25
0.74 0.66 0.54 0.43 0.43 0.45 0.42 0.36 0.32 0.27 0.21 0.17 0.14 0.12 0.11 0.09 0.08 0.07 0.07 0.06 0.05 0.05 0.05 0.05 0.08 0.13 0.21 0.29 0.41 0.53 0.56 0.54 0.49 0.42 0.37 0.33 0.31 0.30 0.30 0.30 0.30 0.30 0.30
0.83 0.78 0.64 0.57 0.60 0.56 0.48 0.42 0.36 0.32 0.28 0.25 0.23 0.20 0.17 0.15 0.12 0.11 0.09 0.09 0.08 0.07 0.07 0.08 0.09 0.11 0.13 0.18 0.28 0.43 0.55 0.59 0.55 0.47 0.43 0.40 0.37 0.35 0.34 0.33 0.33 0.33 0.33
0.88 0.85 0.75 0.72 0.75 0.70 0.60 0.55 0.48 0.43 0.39 0.38 0.35 0.27 0.21 0.19 0.17 0.14 0.12 0.11 0.11 0.12 0.12 0.12 0.12 0.12 0.13 0.15 0.18 0.29 0.44 0.56 0.57 0.52 0.48 0.45 0.44 0.43 0.43 0.43 0.43 0.41 0.40
1.09 1.02 0.87 0.85 0.88 0.79 0.70 0.68 0.69 0.66 0.57 0.54 0.49 0.35 0.25 0.21 0.18 0.14 0.12 0.12 0.12 0.13 0.14 0.16 0.16 0.15 0.14 0.16 0.18 0.21 0.29 0.45 0.57 0.60 0.56 0.53 0.52 0.52 0.54 0.57 0.59 0.57 0.57
1.12 1.10 1.09 1.05 1.05 1.02 0.97 0.91 0.89 0.83 0.75 0.74 0.68 0.60 0.40 0.26 0.19 0.15 0.16 0.16 0.16 0.16 0.16 0.17 0.17 0.18 0.17 0.17 0.18 0.19 0.23 0.35 0.51 0.63 0.65 0.63 0.61 0.63 0.67 0.72 0.75 0.74 0.75
1.25 1.18 1.16 1.18 1.20 1.19 1.11 1.07 1.06 1.03 0.95 0.89 0.85 0.87 0.63 0.38 0.26 0.21 0.20 0.21 0.21 0.20 0.21 0.21 0.21 0.21 0.21 0.21 0.20 0.21 0.22 0.26 0.39 0.58 0.74 0.79 0.79 0.79 0.83 0.89 0.94 0.97 0.94
1.32 1.29 1.26 1.24 1.24 1.20 1.14 1.18 1.21 1.13 1.13 1.07 1.02 0.92 0.79 0.60 0.52 0.37 0.27 0.27 0.28 0.27 0.27 0.26 0.24 0.24 0.24 0.24 0.25 0.28 0.30 0.31 0.39 0.57 0.79 0.92 0.95 0.99 1.09 1.18 1.25 1.23 1.14
1.31 1.26 1.25 1.27 1.24 1.20 1.15 1.17 1.22 1.23 1.22 1.19 1.13 1.07 1.06 0.92 0.76 0.68 0.49 0.38 0.37 0.36 0.37 0.37 0.35 0.32 0.31 0.31 0.31 0.36 0.42 0.44 0.51 0.62 0.80 0.96 1.07 1.16 1.27 1.37 1.45 1.47 1.38
1.26 1.20 1.19 1.21 1.24 1.23 1.18 1.17 1.24 1.29 1.29 1.22 1.15 1.06 1.02 0.96 0.85 0.84 0.74 0.54 0.47 0.39 0.39 0.39 0.40 0.40 0.41 0.44 0.49 0.59 0.60 0.62 0.67 0.73 0.85 0.99 1.11 1.20 1.33 1.45 1.55 1.58 1.57
1.24 1.18 1.16 1.17 1.20 1.23 1.27 1.32 1.32 1.29 1.32 1.30 1.25 1.19 1.12 1.02 0.95 0.97 0.94 0.76 0.62 0.50 0.46 0.44 0.44 0.46 0.48 0.51 0.58 0.75 0.75 0.77 0.80 0.84 0.95 1.09 1.15 1.17 1.20 1.29 1.43 1.53 1.57
1.15 1.17 1.22 1.26 1.27 1.27 1.27 1.29 1.26 1.22 1.23 1.22 1.21 1.20 1.16 1.08 1.08 1.10 1.10 1.13 1.02 0.81 0.69 0.63 0.60 0.60 0.63 0.66 0.75 0.85 0.77 0.86 0.83 0.84 0.93 1.02 1.02 1.00 0.99 1.06 1.25 1.42 1.49
1.07 1.11 1.17 1.22 1.23 1.21 1.19 1.19 1.17 1.14 1.16 1.17 1.15 1.14 1.11 1.04 1.05 1.06 1.08 1.17 1.28 1.14 0.85 0.66 0.63 0.63 0.67 0.70 0.80 0.77 0.71 0.86 0.86 0.82 0.84 0.85 0.83 0.81 0.79 0.81 0.90 1.05 1.16
0.90 0.93 1.00 1.07 1.09 1.08 1.06 1.07 1.06 1.03 1.07 1.06 1.06 1.08 1.06 0.99 0.98 1.01 1.05 1.10 1.20 1.27 1.08 0.73 0.62 0.61 0.65 0.68 0.76 0.69 0.65 0.77 0.76 0.74 0.73 0.72 0.71 0.69 0.68 0.68 0.70 0.78 0.88
0.82 0.86 0.89 0.93 0.95 0.96 0.97 0.96 0.94 0.92 0.93 0.93 0.94 0.97 0.98 0.97 1.00 1.01 1.03 1.07 1.13 1.22 1.21 0.90 0.73 0.71 0.74 0.73 0.73 0.66 0.60 0.59 0.58 0.68 0.64 0.62 0.60 0.60 0.60 0.60 0.61 0.63 0.66
0.71 0.71 0.74 0.77 0.78 0.79 0.80 0.82 0.82 0.81 0.80 0.80 0.81 0.86 0.87 0.90 0.93 0.96 1.02 1.06 1.09 1.13 1.17 1.03 0.81 0.72 0.70 0.67 0.64 0.61 0.56 0.51 0.47 0.57 0.56 0.53 0.52 0.50 0.49 0.49 0.52 0.57 0.59
0.72 0.64 0.62 0.63 0.64 0.66 0.67 0.68 0.70 0.70 0.72 0.72 0.71 0.74 0.77 0.83 0.89 0.89 0.92 0.95 0.96 0.98 1.02 1.00 0.83 0.67 0.61 0.56 0.56 0.52 0.47 0.44 0.41 0.44 0.46 0.45 0.45 0.46 0.47 0.47 0.49 0.50 0.50
0.65 0.61 0.57 0.54 0.54 0.57 0.61 0.63 0.65 0.67 0.67 0.68 0.69 0.71 0.73 0.75 0.78 0.80 0.84 0.86 0.86 0.86 0.87 0.90 0.85 0.74 0.66 0.60 0.61 0.57 0.50 0.45 0.42 0.38 0.43 0.43 0.45 0.45 0.42 0.40 0.39 0.41 0.43
0.53 0.53 0.53 0.53 0.51 0.50 0.53 0.57 0.60 0.64 0.66 0.68 0.69 0.70 0.72 0.79 0.80 0.78 0.77 0.77 0.78 0.82 0.86 0.91 0.88 0.74 0.61 0.56 0.55 0.50 0.50 0.49 0.49 0.45 0.44 0.40 0.37 0.33 0.31 0.33 0.36 0.39 0.43
0.43 0.46 0.51 0.55 0.59 0.60 0.73 0.69 0.63 0.64 0.68 0.69 0.67 0.65 0.64 0.68 0.67 0.68 0.67 0.66 0.71 0.79 0.90 0.94 0.83 0.66 0.51 0.45 0.44 0.49 0.54 0.59 0.52 0.37 0.38 0.37 0.35 0.35 0.30 0.28 0.36 0.39 0.41
0.52 0.56 0.60 0.65 0.69 0.76 0.84 0.76 0.71 0.63 0.65 0.66 0.63 0.58 0.54 0.52 0.54 0.47 0.50 0.54 0.57 0.64 0.67 0.61 0.54 0.47 0.43 0.41 0.49 0.59 0.58 0.57 0.45 0.32 0.39 0.43 0.38 0.36 0.31 0.31 0.37 0.36 0.37
0.76 0.80 0.83 0.84 0.84 0.83 0.81 0.72 0.69 0.61 0.58 0.54 0.49 0.44 0.40 0.37 0.35 0.37 0.39 0.47 0.45 0.44 0.43 0.39 0.37 0.35 0.35 0.38 0.47 0.58 0.60 0.59 0.47 0.37 0.37 0.41 0.33 0.30 0.27 0.28 0.35 0.36 0.36
0.87 0.84 0.82 0.80 0.77 0.71 0.66 0.57 0.49 0.43 0.43 0.42 0.37 0.34 0.34 0.31 0.37 0.43 0.43 0.45 0.35 0.31 0.35 0.39 0.41 0.40 0.40 0.40 0.41 0.53 0.63 0.70 0.61 0.40 0.32 0.34 0.30 0.28 0.28 0.27 0.30 0.36 0.36
0.67 0.61 0.57 0.53 0.50 0.46 0.44 0.39 0.36 0.32 0.30 0.29 0.29 0.29 0.34 0.34 0.40 0.47 0.43 0.38 0.32 0.28 0.30 0.34 0.37 0.39 0.38 0.40 0.44 0.45 0.60 0.83 0.72 0.50 0.27 0.33 0.35 0.41 0.54 0.33 0.27 0.30 0.33

GEFSMA_prec_meanprecacc_162.txt.gz
Total_Precipitation_Accumulation
0.42 0.39 0.40 0.36 0.30 0.25 0.22 0.18 0.14 0.11 0.10 0.09 0.09 0.07 0.06 0.05 0.05 0.05 0.04 0.03 0.03 0.03 0.06 0.09 0.12 0.16 0.22 0.27 0.32 0.35 0.32 0.28 0.25 0.24 0.22 0.20 0.18 0.17 0.18 0.19 0.19 0.19 0.20
0.50 0.46 0.41 0.38 0.33 0.28 0.25 0.21 0.17 0.16 0.13 0.12 0.11 0.09 0.08 0.07 0.06 0.06 0.05 0.05 0.04 0.03 0.03 0.06 0.12 0.21 0.30 0.37 0.42 0.42 0.39 0.35 0.32 0.31 0.29 0.26 0.23 0.22 0.22 0.22 0.23 0.22 0.23
0.62 0.58 0.49 0.39 0.33 0.32 0.30 0.28 0.26 0.23 0.18 0.13 0.10 0.09 0.08 0.08 0.07 0.06 0.06 0.06 0.05 0.05 0.04 0.05 0.10 0.18 0.29 0.37 0.45 0.51 0.48 0.43 0.39 0.36 0.34 0.33 0.32 0.30 0.30 0.30 0.28 0.27 0.27
0.79 0.72 0.61 0.48 0.46 0.48 0.44 0.38 0.33 0.27 0.21 0.18 0.14 0.12 0.11 0.10 0.09 0.08 0.07 0.06 0.05 0.05 0.05 0.05 0.08 0.13 0.21 0.30 0.43 0.55 0.59 0.56 0.52 0.46 0.41 0.38 0.37 0.36 0.36 0.36 0.36 0.36 0.36
0.87 0.82 0.70 0.64 0.65 0.58 0.50 0.44 0.37 0.33 0.28 0.25 0.23 0.20 0.18 0.15 0.13 0.11 0.10 0.09 0.08 0.07 0.08 0.08 0.09 0.11 0.13 0.19 0.29 0.45 0.57 0.61 0.57 0.49 0.45 0.43 0.40 0.40 0.40 0.40 0.39 0.40 0.40
0.95 0.89 0.80 0.77 0.81 0.74 0.63 0.56 0.49 0.44 0.39 0.38 0.35 0.27 0.22 0.20 0.17 0.14 0.12 0.12 0.11 0.12 0.12 0.12 0.13 0.12 0.13 0.15 0.19 0.29 0.45 0.57 0.58 0.53 0.50 0.47 0.46 0.46 0.47 0.48 0.48 0.46 0.46
1.20 1.09 0.91 0.88 0.91 0.82 0.73 0.71 0.71 0.67 0.58 0.55 0.50 0.35 0.25 0.21 0.18 0.14 0.13 0.12 0.12 0.13 0.14 0.16 0.16 0.15 0.14 0.16 0.19 0.21 0.30 0.46 0.58 0.62 0.59 0.55 0.54 0.54 0.56 0.60 0.63 0.62 0.63
1.23 1.22 1.16 1.09 1.08 1.05 1.00 0.93 0.91 0.85 0.77 0.76 0.68 0.60 0.40 0.26 0.19 0.16 0.16 0.16 0.16 0.17 0.16 0.17 0.18 0.18 0.17 0.17 0.18 0.19 0.24 0.36 0.52 0.65 0.68 0.66 0.64 0.65 0.69 0.75 0.78 0.78 0.80
1.30 1.26 1.26 1.25 1.24 1.21 1.14 1.10 1.08 1.05 0.97 0.92 0.87 0.88 0.64 0.38 0.26 0.21 0.20 0.21 0.21 0.20 0.21 0.22 0.21 0.21 0.21 0.21 0.20 0.21 0.23 0.27 0.40 0.61 0.77 0.82 0.81 0.81 0.86 0.92 0.96 0.99 0.98
1.35 1.33 1.31 1.31 1.31 1.24 1.17 1.23 1.26 1.16 1.15 1.09 1.04 0.95 0.80 0.61 0.52 0.37 0.27 0.27 0.28 0.27 0.27 0.26 0.24 0.24 0.24 0.24 0.25 0.28 0.30 0.31 0.40 0.59 0.82 0.94 0.98 1.02 1.12 1.20 1.27 1.26 1.17
1.32 1.28 1.28 1.30 1.29 1.27 1.19 1.21 1.27 1.29 1.26 1.21 1.15 1.10 1.08 0.93 0.77 0.69 0.51 0.38 0.37 0.36 0.37 0.37 0.35 0.32 0.31 0.31 0.31 0.36 0.42 0.44 0.51 0.63 0.81 0.98 1.09 1.18 1.29 1.39 1.47 1.49 1.41
1.26 1.21 1.21 1.23 1.27 1.28 1.24 1.22 1.28 1.34 1.36 1.28 1.18 1.08 1.05 0.99 0.88 0.85 0.75 0.56 0.49 0.41 0.40 0.40 0.40 0.40 0.41 0.44 0.49 0.59 0.60 0.62 0.67 0.74 0.86 1.01 1.13 1.22 1.34 1.47 1.56 1.60 1.59
1.25 1.18 1.17 1.19 1.23 1.26 1.31 1.37 1.37 1.34 1.38 1.37 1.31 1.23 1.16 1.05 0.98 0.99 0.96 0.78 0.64 0.51 0.48 0.46 0.45 0.46 0.48 0.51 0.58 0.75 0.75 0.77 0.80 0.85 0.96 1.11 1.16 1.18 1.21 1.30 1.44 1.54 1.59
1.15 1.17 1.22 1.26 1.28 1.30 1.30 1.33 1.31 1.28 1.30 1.30 1.28 1.26 1.21 1.13 1.12 1.13 1.12 1.15 1.04 0.82 0.69 0.63 0.60 0.61 0.63 0.66 0.75 0.85 0.77 0.86 0.84 0.84 0.93 1.03 1.03 1.00 1.00 1.07 1.26 1.44 1.51
1.07 1.11 1.17 1.22 1.23 1.22 1.21 1.21 1.20 1.18 1.21 1.24 1.23 1.22 1.18 1.09 1.10 1.10 1.12 1.20 1.30 1.15 0.86 0.67 0.63 0.64 0.67 0.71 0.80 0.77 0.72 0.86 0.87 0.82 0.84 0.85 0.84 0.82 0.80 0.82 0.91 1.07 1.18
0.90 0.93 1.00 1.07 1.09 1.08 1.06 1.08 1.07 1.05 1.09 1.09 1.10 1.15 1.13 1.06 1.04 1.06 1.09 1.13 1.23 1.29 1.09 0.74 0.62 0.61 0.66 0.68 0.76 0.69 0.65 0.78 0.76 0.74 0.73 0.72 0.71 0.69 0.68 0.68 0.71 0.79 0.89
0.82 0.86 0.89 0.93 0.95 0.96 0.97 0.97 0.94 0.93 0.94 0.94 0.96 0.99 1.01 1.01 1.04 1.04 1.06 1.11 1.16 1.24 1.22 0.91 0.73 0.71 0.75 0.74 0.73 0.67 0.61 0.60 0.59 0.69 0.65 0.62 0.61 0.60 0.60 0.60 0.61 0.64 0.68
0.71 0.71 0.74 0.77 0.78 0.79 0.80 0.83 0.83 0.82 0.81 0.80 0.81 0.86 0.88 0.91 0.95 0.98 1.04 1.09 1.12 1.15 1.18 1.04 0.82 0.73 0.71 0.69 0.66 0.63 0.58 0.53 0.48 0.58 0.56 0.53 0.52 0.51 0.50 0.50 0.53 0.58 0.60
0.72 0.64 0.62 0.63 0.64 0.66 0.67 0.69 0.70 0.71 0.72 0.72 0.72 0.75 0.77 0.83 0.89 0.90 0.93 0.97 0.98 0.99 1.04 1.01 0.84 0.69 0.63 0.59 0.59 0.54 0.49 0.46 0.42 0.45 0.47 0.46 0.46 0.47 0.48 0.48 0.50 0.52 0.51
0.65 0.61 0.57 0.54 0.54 0.57 0.61 0.63 0.65 0.67 0.67 0.68 0.69 0.71 0.73 0.76 0.78 0.80 0.85 0.87 0.87 0.88 0.89 0.92 0.87 0.76 0.69 0.63 0.63 0.59 0.53 0.47 0.44 0.40 0.45 0.45 0.46 0.45 0.42 0.41 0.40 0.42 0.44
0.53 0.53 0.53 0.53 0.51 0.50 0.53 0.57 0.60 0.64 0.66 0.69 0.69 0.70 0.73 0.79 0.80 0.78 0.77 0.77 0.78 0.83 0.87 0.93 0.89 0.76 0.63 0.59 0.58 0.53 0.53 0.52 0.51 0.47 0.45 0.41 0.37 0.34 0.32 0.34 0.37 0.39 0.43
0.43 0.46 0.51 0.55 0.59 0.60 0.73 0.69 0.63 0.64 0.68 0.69 0.67 0.65 0.64 0.68 0.67 0.68 0.67 0.67 0.71 0.80 0.90 0.95 0.84 0.67 0.52 0.46 0.46 0.50 0.56 0.61 0.54 0.38 0.39 0.38 0.35 0.35 0.31 0.29 0.37 0.40 0.42
0.52 0.56 0.60 0.65 0.69 0.76 0.84 0.76 0.71 0.63 0.65 0.66 0.63 0.59 0.54 0.52 0.54 0.47 0.50 0.54 0.57 0.65 0.67 0.61 0.55 0.47 0.43 0.41 0.50 0.60 0.59 0.57 0.46 0.33 0.39 0.44 0.38 0.36 0.31 0.32 0.38 0.36 0.38
0.76 0.80 0.83 0.84 0.84 0.83 0.81 0.72 0.69 0.61 0.58 0.54 0.49 0.44 0.40 0.37 0.35 0.37 0.39 0.47 0.45 0.44 0.43 0.39 0.37 0.35 0.35 0.38 0.47 0.59 0.60 0.59 0.47 0.37 0.38 0.41 0.33 0.31 0.27 0.29 0.36 0.37 0.37
0.87 0.84 0.82 0.80 0.77 0.72 0.67 0.57 0.49 0.43 0.43 0.42 0.37 0.34 0.34 0.31 0.37 0.43 0.43 0.45 0.36 0.31 0.35 0.39 0.41 0.40 0.41 0.41 0.42 0.53 0.63 0.70 0.61 0.40 0.33 0.35 0.30 0.28 0.29 0.28 0.31 0.37 0.37
0.67 0.61 0.57 0.53 0.50 0.47 0.45 0.40 0.37 0.32 0.30 0.29 0.29 0.29 0.34 0.34 0.40 0.47 0.43 0.39 0.32 0.28 0.30 0.34 0.37 0.39 0.38 0.40 0.44 0.45 0.60 0.83 0.73 0.50 0.27 0.33 0.35 0.41 0.55 0.33 0.27 0.30 0.33

GEFSMA_prec_meanprecacc_168.txt.gz
Total_Precipitation_Accumulation
0.51 0.46 0.47 0.43 0.37 0.31 0.25 0.21 0.16 0.13 0.12 0.10 0.09 0.07 0.06 0.06 0.06 0.05 0.05 0.03 0.03 0.04 0.06 0.10 0.13 0.17 0.23 0.29 0.34 0.37 0.34 0.30 0.28 0.27 0.26 0.24 0.23 0.22 0.24 0.24 0.24 0.23 0.23
0.60 0.55 0.48 0.45 0.41 0.34 0.29 0.24 0.19 0.17 0.15 0.13 0.11 0.10 0.09 0.08 0.07 0.08 0.07 0.06 0.04 0.03 0.04 0.07 0.13 0.22 0.32 0.40 0.45 0.45 0.41 0.37 0.34 0.33 0.32 0.29 0.27 0.26 0.26 0.26 0.27 0.26 0.27
0.69 0.66 0.55 0.46 0.41 0.39 0.36 0.32 0.29 0.25 0.18 0.14 0.11 0.10 0.10 0.09 0.08 0.08 0.07 0.07 0.06 0.05 0.04 0.06 0.10 0.19 0.31 0.40 0.48 0.53 0.50 0.45 0.41 0.38 0.37 0.36 0.34 0.33 0.34 0.34 0.33 0.31 0.31
0.86 0.79 0.68 0.56 0.55 0.55 0.50 0.42 0.37 0.30 0.22 0.18 0.15 0.13 0.12 0.10 0.09 0.08 0.07 0.06 0.06 0.05 0.05 0.05 0.08 0.14 0.22 0.32 0.45 0.57 0.60 0.58 0.53 0.47 0.43 0.40 0.39 0.39 0.40 0.40 0.41 0.41 0.41
0.93 0.88 0.76 0.71 0.73 0.66 0.56 0.48 0.41 0.36 0.29 0.26 0.24 0.21 0.18 0.15 0.13 0.12 0.10 0.09 0.08 0.07 0.08 0.08 0.09 0.11 0.14 0.19 0.30 0.46 0.59 0.63 0.58 0.50 0.46 0.44 0.42 0.42 0.42 0.43 0.43 0.44 0.46
1.00 0.94 0.84 0.83 0.88 0.82 0.70 0.62 0.53 0.48 0.42 0.39 0.36 0.27 0.22 0.20 0.17 0.15 0.13 0.12 0.12 0.12 0.12 0.12 0.13 0.12 0.13 0.15 0.19 0.30 0.46 0.58 0.59 0.55 0.52 0.49 0.47 0.47 0.49 0.50 0.50 0.49 0.49
1.25 1.14 0.96 0.93 0.97 0.89 0.79 0.77 0.76 0.72 0.62 0.59 0.52 0.36 0.25 0.21 0.18 0.14 0.14 0.13 0.13 0.14 0.14 0.16 0.16 0.15 0.15 0.16 0.19 0.21 0.30 0.47 0.60 0.64 0.61 0.57 0.56 0.56 0.59 0.63 0.65 0.65 0.65
1.28 1.26 1.21 1.14 1.13 1.10 1.05 0.99 0.96 0.90 0.82 0.80 0.72 0.63 0.41 0.27 0.19 0.16 0.17 0.17 0.17 0.17 0.16 0.17 0.18 0.18 0.17 0.17 0.18 0.19 0.24 0.36 0.53 0.67 0.70 0.69 0.67 0.68 0.72 0.78 0.80 0.80 0.81
1.34 1.29 1.29 1.31 1.30 1.26 1.18 1.13 1.11 1.08 1.01 0.96 0.92 0.93 0.67 0.40 0.27 0.21 0.20 0.21 0.21 0.21 0.21 0.22 0.21 0.21 0.21 0.21 0.20 0.21 0.23 0.27 0.40 0.62 0.80 0.84 0.83 0.84 0.88 0.94 0.98 1.01 0.99
1.36 1.34 1.33 1.34 1.37 1.33 1.23 1.26 1.28 1.18 1.17 1.11 1.06 0.98 0.84 0.65 0.56 0.39 0.27 0.28 0.29 0.27 0.27 0.26 0.24 0.24 0.24 0.24 0.25 0.28 0.30 0.31 0.40 0.60 0.83 0.97 1.00 1.04 1.13 1.22 1.29 1.28 1.19
1.32 1.29 1.29 1.32 1.31 1.32 1.28 1.29 1.33 1.32 1.27 1.22 1.16 1.11 1.10 0.97 0.81 0.73 0.54 0.40 0.38 0.37 0.37 0.37 0.35 0.32 0.31 0.31 0.31 0.36 0.42 0.44 0.51 0.64 0.82 1.00 1.11 1.20 1.30 1.40 1.49 1.51 1.43
1.26 1.21 1.21 1.24 1.28 1.30 1.26 1.27 1.34 1.40 1.40 1.30 1.19 1.09 1.05 1.00 0.90 0.88 0.78 0.59 0.51 0.42 0.41 0.40 0.40 0.40 0.41 0.45 0.49 0.59 0.60 0.62 0.67 0.74 0.87 1.02 1.14 1.23 1.35 1.48 1.58 1.62 1.61
1.25 1.18 1.17 1.19 1.23 1.27 1.32 1.39 1.39 1.38 1.42 1.40 1.34 1.25 1.16 1.05 0.98 1.00 0.98 0.80 0.66 0.53 0.48 0.46 0.45 0.46 0.48 0.51 0.58 0.75 0.75 0.77 0.80 0.85 0.97 1.12 1.17 1.18 1.22 1.31 1.46 1.56 1.60
1.15 1.17 1.22 1.27 1.29 1.30 1.31 1.34 1.32 1.29 1.32 1.32 1.32 1.28 1.23 1.14 1.13 1.14 1.14 1.17 1.06 0.83 0.70 0.64 0.61 0.61 0.63 0.67 0.75 0.85 0.77 0.86 0.84 0.84 0.94 1.03 1.03 1.01 1.00 1.07 1.26 1.44 1.52
1.07 1.11 1.17 1.22 1.23 1.22 1.21 1.23 1.21 1.18 1.22 1.25 1.25 1.25 1.21 1.12 1.12 1.12 1.14 1.22 1.32 1.17 0.87 0.68 0.64 0.64 0.68 0.71 0.80 0.77 0.72 0.86 0.87 0.83 0.84 0.85 0.84 0.82 0.80 0.82 0.91 1.07 1.18
0.90 0.93 1.00 1.07 1.09 1.08 1.07 1.09 1.09 1.06 1.10 1.10 1.11 1.16 1.16 1.10 1.08 1.10 1.13 1.17 1.26 1.31 1.11 0.74 0.63 0.62 0.66 0.68 0.77 0.70 0.65 0.78 0.76 0.75 0.73 0.72 0.71 0.69 0.68 0.69 0.71 0.80 0.89
0.82 0.86 0.89 0.93 0.95 0.96 0.97 0.97 0.95 0.94 0.95 0.95 0.97 0.99 1.02 1.04 1.08 1.09 1.11 1.15 1.21 1.27 1.25 0.92 0.74 0.72 0.75 0.74 0.74 0.68 0.62 0.61 0.60 0.70 0.66 0.62 0.61 0.60 0.60 0.60 0.61 0.64 0.68
0.71 0.71 0.74 0.77 0.78 0.79 0.80 0.83 0.83 0.83 0.82 0.81 0.82 0.87 0.89 0.92 0.96 1.00 1.07 1.12 1.15 1.18 1.20 1.05 0.83 0.74 0.72 0.69 0.66 0.64 0.58 0.54 0.49 0.60 0.58 0.55 0.54 0.52 0.50 0.50 0.54 0.58 0.60
0.72 0.64 0.62 0.63 0.64 0.66 0.67 0.69 0.71 0.71 0.73 0.73 0.73 0.76 0.78 0.84 0.90 0.91 0.94 0.98 0.99 1.01 1.05 1.02 0.85 0.70 0.63 0.60 0.59 0.55 0.50 0.47 0.43 0.47 0.48 0.48 0.48 0.49 0.50 0.49 0.51 0.52 0.52
0.65 0.61 0.57 0.54 0.54 0.57 0.61 0.63 0.65 0.67 0.68 0.69 0.70 0.72 0.74 0.77 0.79 0.81 0.85 0.87 0.87 0.88 0.90 0.92 0.87 0.76 0.69 0.63 0.64 0.60 0.54 0.49 0.45 0.41 0.46 0.47 0.48 0.48 0.44 0.42 0.41 0.43 0.44
0.53 0.53 0.53 0.53 0.51 0.50 0.53 0.57 0.60 0.64 0.66 0.69 0.70 0.71 0.74 0.81 0.82 0.79 0.78 0.77 0.78 0.83 0.88 0.94 0.90 0.77 0.64 0.60 0.59 0.54 0.54 0.53 0.52 0.48 0.47 0.43 0.39 0.35 0.33 0.35 0.37 0.40 0.44
0.43 0.46 0.51 0.55 0.59 0.60 0.73 0.69 0.63 0.64 0.68 0.69 0.68 0.66 0.65 0.70 0.68 0.69 0.68 0.67 0.72 0.80 0.91 0.95 0.85 0.68 0.53 0.47 0.47 0.52 0.57 0.62 0.56 0.40 0.41 0.40 0.37 0.37 0.32 0.30 0.37 0.41 0.42
0.52 0.56 0.60 0.65 0.69 0.76 0.84 0.76 0.71 0.63 0.65 0.66 0.64 0.59 0.55 0.53 0.55 0.48 0.51 0.55 0.57 0.65 0.68 0.61 0.55 0.47 0.44 0.42 0.51 0.61 0.60 0.59 0.48 0.35 0.41 0.45 0.39 0.37 0.32 0.32 0.39 0.37 0.38
0.76 0.80 0.83 0.84 0.84 0.83 0.81 0.72 0.69 0.61 0.58 0.54 0.49 0.44 0.41 0.38 0.36 0.37 0.40 0.48 0.46 0.44 0.43 0.40 0.37 0.35 0.35 0.38 0.48 0.59 0.61 0.60 0.49 0.38 0.39 0.42 0.34 0.31 0.28 0.29 0.36 0.37 0.37
0.87 0.85 0.82 0.80 0.77 0.72 0.67 0.57 0.50 0.43 0.44 0.42 0.37 0.34 0.34 0.32 0.37 0.44 0.44 0.45 0.36 0.31 0.35 0.40 0.42 0.41 0.41 0.41 0.42 0.53 0.64 0.71 0.62 0.41 0.33 0.35 0.30 0.29 0.29 0.28 0.31 0.37 0.37
0.67 0.61 0.57 0.53 0.50 0.47 0.45 0.40 0.37 0.32 0.31 0.29 0.29 0.29 0.34 0.34 0.41 0.48 0.44 0.39 0.33 0.29 0.30 0.34 0.38 0.40 0.38 0.40 0.45 0.45 0.60 0.84 0.73 0.51 0.28 0.33 0.35 0.41 0.55 0.33 0.27 0.30 0.33

GEFSMA_prec_meanprecacc_174.txt.gz
Total_Precipitation_Accumulation
0.56 0.50 0.51 0.46 0.40 0.33 0.27 0.27 0.26 0.19 0.18 0.15 0.11 0.08 0.07 0.06 0.06 0.06 0.05 0.03 0.03 0.04 0.06 0.11 0.14 0.18 0.24 0.30 0.35 0.38 0.35 0.32 0.30 0.30 0.29 0.27 0.25 0.25 0.26 0.27 0.27 0.27 0.28
0.64 0.60 0.53 0.48 0.44 0.38 0.31 0.27 0.26 0.24 0.19 0.16 0.14 0.10 0.09 0.08 0.07 0.08 0.07 0.06 0.05 0.04 0.04 0.07 0.14 0.23 0.33 0.42 0.47 0.47 0.43 0.38 0.36 0.35 0.34 0.31 0.29 0.28 0.28 0.29 0.29 0.30 0.31
0.72 0.69 0.60 0.50 0.45 0.44 0.41 0.37 0.35 0.31 0.22 0.16 0.12 0.11 0.10 0.09 0.08 0.08 0.08 0.07 0.06 0.05 0.04 0.06 0.10 0.20 0.32 0.42 0.51 0.56 0.52 0.46 0.42 0.40 0.38 0.37 0.36 0.35 0.36 0.36 0.36 0.35 0.36
0.89 0.83 0.72 0.61 0.60 0.62 0.56 0.47 0.43 0.37 0.27 0.21 0.17 0.15 0.12 0.11 0.09 0.08 0.08 0.07 0.06 0.05 0.05 0.05 0.08 0.14 0.23 0.33 0.47 0.59 0.62 0.59 0.54 0.49 0.44 0.42 0.41 0.41 0.42 0.43 0.44 0.45 0.46
0.96 0.89 0.79 0.75 0.78 0.72 0.63 0.55 0.48 0.44 0.35 0.29 0.26 0.22 0.19 0.16 0.13 0.12 0.10 0.09 0.08 0.07 0.08 0.09 0.09 0.11 0.14 0.19 0.30 0.47 0.60 0.64 0.60 0.51 0.48 0.46 0.44 0.44 0.45 0.45 0.46 0.47 0.49
1.02 0.96 0.86 0.85 0.91 0.86 0.75 0.68 0.60 0.55 0.48 0.43 0.38 0.29 0.22 0.20 0.18 0.15 0.13 0.12 0.12 0.12 0.12 0.12 0.13 0.12 0.13 0.15 0.19 0.30 0.46 0.59 0.61 0.56 0.53 0.50 0.49 0.49 0.51 0.53 0.53 0.51 0.52
1.27 1.16 0.98 0.95 0.99 0.91 0.83 0.81 0.81 0.78 0.69 0.63 0.55 0.38 0.26 0.21 0.18 0.15 0.14 0.13 0.13 0.14 0.14 0.16 0.16 0.15 0.15 0.16 0.19 0.21 0.30 0.48 0.61 0.65 0.62 0.58 0.58 0.58 0.62 0.66 0.68 0.67 0.67
1.30 1.29 1.23 1.16 1.15 1.13 1.08 1.01 1.00 0.96 0.89 0.85 0.76 0.66 0.43 0.28 0.19 0.16 0.17 0.17 0.17 0.17 0.17 0.17 0.18 0.18 0.17 0.17 0.18 0.19 0.24 0.37 0.54 0.68 0.71 0.70 0.68 0.70 0.75 0.80 0.82 0.82 0.83
1.39 1.34 1.33 1.34 1.33 1.29 1.21 1.16 1.14 1.13 1.08 1.01 0.95 0.96 0.70 0.42 0.28 0.22 0.21 0.21 0.21 0.21 0.21 0.22 0.21 0.21 0.21 0.21 0.20 0.21 0.23 0.27 0.41 0.63 0.81 0.86 0.85 0.86 0.90 0.96 1.00 1.03 1.01
1.42 1.38 1.37 1.38 1.41 1.37 1.28 1.31 1.32 1.21 1.22 1.17 1.11 1.01 0.85 0.66 0.57 0.41 0.28 0.28 0.29 0.28 0.27 0.26 0.24 0.24 0.24 0.24 0.25 0.28 0.30 0.31 0.40 0.60 0.84 0.98 1.01 1.06 1.16 1.24 1.31 1.29 1.21
1.34 1.31 1.30 1.33 1.32 1.33 1.30 1.32 1.36 1.35 1.30 1.26 1.21 1.16 1.13 0.98 0.82 0.74 0.55 0.41 0.39 0.37 0.37 0.37 0.35 0.32 0.31 0.31 0.31 0.36 0.42 0.44 0.52 0.64 0.83 1.01 1.12 1.21 1.32 1.42 1.50 1.53 1.45
1.26 1.22 1.21 1.24 1.29 1.30 1.27 1.28 1.37 1.43 1.43 1.34 1.23 1.12 1.09 1.03 0.91 0.89 0.79 0.60 0.52 0.43 0.41 0.40 0.40 0.40 0.41 0.45 0.49 0.59 0.60 0.62 0.67 0.74 0.87 1.03 1.15 1.24 1.36 1.49 1.59 1.63 1.62
1.25 1.18 1.17 1.19 1.23 1.27 1.33 1.39 1.41 1.40 1.45 1.44 1.37 1.29 1.20 1.08 1.00 1.01 0.99 0.81 0.67 0.54 0.49 0.47 0.46 0.46 0.48 0.52 0.58 0.75 0.75 0.77 0.80 0.85 0.97 1.12 1.17 1.19 1.23 1.32 1.47 1.57 1.61
1.15 1.17 1.22 1.27 1.29 1.31 1.31 1.34 1.33 1.30 1.34 1.36 1.35 1.31 1.25 1.16 1.15 1.15 1.14 1.18 1.07 0.84 0.71 0.64 0.61 0.62 0.64 0.67 0.75 0.85 0.77 0.86 0.84 0.84 0.94 1.03 1.03 1.01 1.00 1.08 1.27 1.45 1.52
1.07 1.11 1.17 1.22 1.23 1.22 1.21 1.23 1.22 1.19 1.23 1.27 1.28 1.28 1.23 1.13 1.13 1.14 1.15 1.22 1.32 1.17 0.88 0.68 0.64 0.65 0.69 0.71 0.81 0.78 0.72 0.86 0.87 0.83 0.85 0.85 0.84 0.82 0.80 0.82 0.91 1.07 1.18
0.90 0.93 1.00 1.07 1.09 1.08 1.07 1.09 1.10 1.07 1.11 1.10 1.12 1.18 1.19 1.11 1.09 1.11 1.14 1.18 1.26 1.32 1.11 0.75 0.63 0.63 0.67 0.69 0.78 0.71 0.66 0.79 0.77 0.75 0.74 0.72 0.72 0.70 0.69 0.69 0.71 0.80 0.89
0.82 0.86 0.89 0.93 0.95 0.96 0.97 0.97 0.96 0.95 0.97 0.96 0.98 1.01 1.03 1.06 1.09 1.10 1.11 1.16 1.22 1.28 1.25 0.93 0.74 0.72 0.76 0.75 0.75 0.69 0.63 0.62 0.61 0.71 0.66 0.63 0.62 0.61 0.61 0.61 0.62 0.64 0.68
0.71 0.71 0.74 0.77 0.78 0.79 0.80 0.83 0.83 0.83 0.83 0.83 0.84 0.89 0.90 0.93 0.98 1.02 1.08 1.13 1.16 1.19 1.22 1.07 0.84 0.75 0.73 0.70 0.67 0.65 0.60 0.54 0.50 0.61 0.59 0.56 0.55 0.53 0.51 0.51 0.54 0.58 0.60
0.72 0.64 0.62 0.63 0.64 0.66 0.67 0.69 0.71 0.71 0.73 0.74 0.74 0.77 0.80 0.85 0.90 0.91 0.95 0.99 1.00 1.02 1.07 1.04 0.87 0.72 0.65 0.61 0.61 0.56 0.51 0.48 0.44 0.48 0.49 0.49 0.49 0.50 0.51 0.50 0.52 0.54 0.53
0.65 0.61 0.57 0.54 0.54 0.57 0.61 0.63 0.65 0.67 0.68 0.69 0.71 0.73 0.76 0.79 0.80 0.82 0.86 0.87 0.88 0.89 0.91 0.94 0.89 0.78 0.71 0.65 0.66 0.61 0.55 0.49 0.46 0.41 0.47 0.48 0.50 0.50 0.46 0.44 0.43 0.45 0.47
0.53 0.53 0.53 0.53 0.51 0.50 0.53 0.57 0.60 0.64 0.66 0.69 0.70 0.72 0.75 0.82 0.84 0.81 0.79 0.78 0.79 0.84 0.89 0.95 0.92 0.78 0.65 0.61 0.59 0.55 0.54 0.54 0.53 0.48 0.47 0.43 0.40 0.36 0.34 0.36 0.39 0.42 0.46
0.43 0.46 0.51 0.55 0.59 0.60 0.73 0.69 0.63 0.64 0.68 0.69 0.68 0.66 0.66 0.70 0.70 0.70 0.69 0.68 0.73 0.80 0.91 0.96 0.86 0.70 0.55 0.48 0.47 0.52 0.58 0.63 0.56 0.40 0.41 0.40 0.37 0.37 0.33 0.31 0.39 0.43 0.44
0.52 0.56 0.60 0.65 0.69 0.76 0.84 0.76 0.71 0.63 0.65 0.66 0.64 0.59 0.56 0.54 0.56 0.48 0.52 0.56 0.58 0.66 0.69 0.62 0.56 0.48 0.45 0.43 0.52 0.62 0.61 0.60 0.48 0.35 0.42 0.46 0.40 0.38 0.33 0.34 0.41 0.38 0.39
0.76 0.80 0.83 0.85 0.84 0.83 0.81 0.72 0.69 0.61 0.58 0.54 0.49 0.44 0.41 0.38 0.37 0.38 0.41 0.48 0.46 0.45 0.44 0.40 0.38 0.36 0.36 0.39 0.49 0.61 0.63 0.62 0.50 0.40 0.40 0.44 0.35 0.32 0.29 0.30 0.38 0.38 0.38
0.87 0.85 0.82 0.80 0.77 0.72 0.67 0.58 0.50 0.43 0.44 0.42 0.37 0.34 0.34 0.32 0.38 0.45 0.45 0.46 0.37 0.32 0.36 0.41 0.43 0.41 0.42 0.42 0.43 0.54 0.65 0.73 0.64 0.43 0.34 0.36 0.32 0.30 0.30 0.29 0.32 0.38 0.38
0.67 0.61 0.57 0.53 0.50 0.47 0.45 0.40 0.37 0.32 0.31 0.29 0.29 0.29 0.34 0.34 0.41 0.49 0.45 0.41 0.35 0.30 0.31 0.35 0.39 0.40 0.39 0.40 0.45 0.46 0.61 0.85 0.75 0.53 0.29 0.34 0.36 0.43 0.57 0.34 0.28 0.31 0.34

GEFSMA_prec_meanprecacc_180.txt.gz
Total_Precipitation_Accumulation
0.60 0.56 0.56 0.52 0.45 0.37 0.30 0.28 0.26 0.21 0.21 0.19 0.14 0.10 0.07 0.06 0.06 0.06 0.05 0.04 0.04 0.05 0.07 0.12 0.16 0.20 0.26 0.31 0.37 0.39 0.37 0.33 0.32 0.32 0.30 0.29 0.27 0.27 0.29 0.30 0.30 0.31 0.32
0.68 0.64 0.57 0.54 0.50 0.43 0.35 0.29 0.27 0.25 0.22 0.20 0.17 0.13 0.10 0.09 0.08 0.08 0.07 0.06 0.05 0.04 0.05 0.08 0.15 0.25 0.35 0.45 0.50 0.49 0.45 0.40 0.37 0.36 0.36 0.34 0.32 0.31 0.31 0.31 0.31 0.32 0.34
0.75 0.73 0.63 0.54 0.50 0.49 0.45 0.40 0.38 0.33 0.27 0.21 0.16 0.14 0.12 0.10 0.09 0.08 0.08 0.07 0.06 0.05 0.05 0.06 0.11 0.21 0.33 0.45 0.54 0.59 0.54 0.48 0.44 0.41 0.40 0.39 0.38 0.38 0.38 0.38 0.37 0.36 0.37
0.92 0.85 0.74 0.64 0.65 0.67 0.61 0.52 0.47 0.39 0.31 0.26 0.20 0.17 0.15 0.12 0.10 0.09 0.09 0.07 0.07 0.06 0.06 0.06 0.09 0.15 0.23 0.34 0.49 0.62 0.64 0.60 0.55 0.50 0.45 0.43 0.43 0.42 0.43 0.44 0.45 0.46 0.47
0.98 0.92 0.81 0.77 0.81 0.78 0.70 0.63 0.56 0.49 0.40 0.36 0.31 0.25 0.21 0.17 0.14 0.13 0.11 0.10 0.09 0.09 0.09 0.10 0.10 0.11 0.14 0.20 0.31 0.49 0.62 0.66 0.60 0.52 0.48 0.46 0.45 0.46 0.47 0.47 0.47 0.49 0.51
1.04 0.98 0.87 0.86 0.92 0.87 0.79 0.73 0.67 0.62 0.55 0.50 0.45 0.32 0.24 0.22 0.19 0.16 0.14 0.13 0.12 0.12 0.13 0.13 0.13 0.13 0.13 0.16 0.19 0.31 0.47 0.60 0.61 0.57 0.54 0.50 0.50 0.51 0.52 0.54 0.55 0.53 0.53
1.28 1.17 0.99 0.96 1.00 0.92 0.84 0.83 0.84 0.81 0.73 0.69 0.63 0.44 0.30 0.23 0.19 0.16 0.15 0.14 0.13 0.14 0.14 0.16 0.16 0.15 0.15 0.16 0.19 0.21 0.30 0.48 0.62 0.66 0.62 0.59 0.59 0.60 0.63 0.68 0.70 0.69 0.69
1.31 1.29 1.24 1.17 1.15 1.13 1.09 1.02 1.01 0.98 0.91 0.88 0.82 0.72 0.48 0.31 0.21 0.17 0.18 0.18 0.17 0.18 0.17 0.18 0.18 0.18 0.17 0.17 0.18 0.19 0.24 0.37 0.54 0.69 0.72 0.71 0.69 0.71 0.77 0.82 0.85 0.84 0.85
1.41 1.36 1.35 1.35 1.34 1.30 1.22 1.17 1.15 1.14 1.10 1.03 0.98 1.00 0.75 0.47 0.30 0.23 0.21 0.22 0.22 0.22 0.21 0.22 0.21 0.21 0.21 0.21 0.20 0.21 0.23 0.27 0.41 0.63 0.82 0.87 0.86 0.87 0.92 0.98 1.02 1.05 1.03
1.45 1.41 1.39 1.40 1.44 1.39 1.30 1.32 1.33 1.22 1.24 1.19 1.13 1.04 0.89 0.70 0.60 0.42 0.29 0.29 0.30 0.28 0.28 0.26 0.24 0.24 0.24 0.24 0.25 0.28 0.30 0.31 0.40 0.60 0.85 0.99 1.02 1.07 1.17 1.26 1.33 1.31 1.22
1.38 1.35 1.35 1.38 1.37 1.37 1.33 1.35 1.39 1.38 1.32 1.29 1.23 1.18 1.16 1.01 0.85 0.76 0.56 0.42 0.39 0.37 0.38 0.37 0.35 0.33 0.31 0.31 0.31 0.36 0.42 0.44 0.52 0.64 0.83 1.01 1.13 1.22 1.33 1.43 1.51 1.54 1.46
1.30 1.24 1.23 1.26 1.31 1.32 1.29 1.29 1.38 1.45 1.46 1.36 1.25 1.15 1.12 1.07 0.95 0.92 0.82 0.61 0.52 0.44 0.42 0.41 0.40 0.40 0.42 0.45 0.49 0.59 0.60 0.62 0.67 0.74 0.88 1.03 1.15 1.25 1.37 1.51 1.61 1.65 1.63
1.27 1.21 1.18 1.20 1.24 1.28 1.33 1.40 1.41 1.41 1.47 1.46 1.40 1.31 1.23 1.11 1.03 1.04 1.02 0.84 0.68 0.54 0.50 0.48 0.46 0.46 0.49 0.52 0.59 0.75 0.75 0.77 0.80 0.85 0.97 1.13 1.18 1.19 1.23 1.33 1.48 1.58 1.62
1.16 1.18 1.23 1.27 1.29 1.31 1.32 1.34 1.33 1.30 1.35 1.37 1.37 1.34 1.27 1.18 1.17 1.17 1.16 1.20 1.09 0.85 0.72 0.65 0.61 0.62 0.64 0.67 0.75 0.86 0.78 0.86 0.84 0.84 0.94 1.03 1.04 1.01 1.01 1.08 1.27 1.45 1.53
1.08 1.11 1.17 1.22 1.23 1.23 1.22 1.23 1.22 1.19 1.23 1.27 1.29 1.30 1.26 1.16 1.15 1.16 1.17 1.24 1.34 1.19 0.89 0.68 0.65 0.65 0.69 0.72 0.81 0.78 0.72 0.86 0.87 0.83 0.85 0.85 0.84 0.82 0.80 0.83 0.92 1.07 1.18
0.90 0.93 1.00 1.07 1.09 1.08 1.07 1.09 1.10 1.08 1.11 1.11 1.13 1.19 1.21 1.14 1.11 1.13 1.16 1.19 1.28 1.33 1.12 0.76 0.64 0.63 0.67 0.70 0.78 0.71 0.66 0.79 0.77 0.75 0.74 0.72 0.72 0.70 0.69 0.69 0.72 0.80 0.90
0.82 0.86 0.89 0.93 0.95 0.96 0.97 0.97 0.96 0.95 0.97 0.97 0.98 1.01 1.04 1.07 1.12 1.12 1.14 1.18 1.23 1.29 1.26 0.93 0.75 0.73 0.77 0.76 0.76 0.70 0.63 0.62 0.61 0.71 0.67 0.64 0.62 0.62 0.61 0.61 0.62 0.65 0.68
0.71 0.71 0.74 0.77 0.78 0.79 0.80 0.83 0.83 0.83 0.83 0.83 0.84 0.89 0.91 0.94 0.99 1.04 1.10 1.15 1.18 1.20 1.22 1.07 0.84 0.75 0.74 0.71 0.68 0.65 0.60 0.56 0.51 0.62 0.61 0.57 0.56 0.54 0.52 0.52 0.55 0.59 0.61
0.72 0.64 0.62 0.63 0.64 0.66 0.67 0.69 0.71 0.71 0.73 0.74 0.74 0.78 0.81 0.86 0.92 0.93 0.97 1.01 1.02 1.04 1.08 1.05 0.87 0.72 0.66 0.62 0.62 0.58 0.53 0.50 0.46 0.50 0.52 0.51 0.51 0.52 0.52 0.52 0.53 0.54 0.53
0.65 0.61 0.57 0.54 0.54 0.57 0.61 0.63 0.65 0.67 0.68 0.69 0.71 0.74 0.76 0.79 0.81 0.83 0.88 0.90 0.90 0.91 0.93 0.96 0.89 0.78 0.72 0.67 0.68 0.64 0.58 0.52 0.49 0.44 0.50 0.51 0.52 0.52 0.48 0.45 0.44 0.45 0.47
0.53 0.53 0.53 0.53 0.51 0.50 0.53 0.57 0.60 0.64 0.66 0.69 0.70 0.72 0.75 0.83 0.84 0.82 0.81 0.80 0.81 0.86 0.90 0.97 0.94 0.79 0.66 0.62 0.61 0.57 0.56 0.55 0.55 0.51 0.50 0.46 0.41 0.37 0.36 0.38 0.40 0.43 0.46
0.43 0.46 0.51 0.55 0.59 0.61 0.73 0.69 0.63 0.64 0.68 0.69 0.68 0.66 0.66 0.71 0.70 0.71 0.71 0.70 0.75 0.83 0.94 0.98 0.87 0.71 0.56 0.49 0.49 0.54 0.59 0.64 0.58 0.41 0.42 0.41 0.39 0.38 0.34 0.32 0.40 0.44 0.45
0.52 0.56 0.60 0.65 0.69 0.76 0.84 0.76 0.71 0.64 0.65 0.66 0.64 0.59 0.56 0.54 0.56 0.49 0.52 0.57 0.60 0.68 0.71 0.65 0.58 0.50 0.46 0.45 0.54 0.64 0.63 0.62 0.50 0.36 0.43 0.47 0.41 0.39 0.34 0.35 0.42 0.39 0.40
0.76 0.80 0.83 0.85 0.84 0.83 0.82 0.72 0.70 0.61 0.58 0.54 0.49 0.44 0.41 0.38 0.37 0.39 0.41 0.49 0.47 0.46 0.45 0.42 0.40 0.38 0.38 0.41 0.51 0.63 0.65 0.64 0.52 0.41 0.41 0.44 0.36 0.33 0.30 0.31 0.39 0.39 0.39
0.87 0.85 0.82 0.80 0.77 0.72 0.67 0.58 0.50 0.43 0.44 0.42 0.37 0.34 0.34 0.32 0.38 0.45 0.45 0.47 0.38 0.33 0.37 0.41 0.44 0.43 0.44 0.44 0.45 0.56 0.67 0.75 0.66 0.44 0.35 0.37 0.32 0.31 0.31 0.30 0.33 0.39 0.38
0.67 0.61 0.57 0.54 0.51 0.47 0.46 0.41 0.37 0.32 0.31 0.29 0.29 0.29 0.34 0.34 0.41 0.49 0.45 0.41 0.35 0.31 0.32 0.36 0.39 0.41 0.39 0.41 0.47 0.47 0.62 0.87 0.77 0.54 0.30 0.35 0.37 0.44 0.58 0.35 0.29 0.31 0.34

GEFSMA_prec_meanprecacc_186.txt.gz
Total_Precipitation_Accumulation
0.66 0.61 0.60 0.55 0.48 0.40 0.33 0.33 0.33 0.27 0.27 0.24 0.18 0.14 0.13 0.09 0.08 0.07 0.06 0.06 0.06 0.07 0.09 0.13 0.17 0.22 0.28 0.32 0.38 0.41 0.38 0.35 0.33 0.33 0.32 0.29 0.28 0.28 0.31 0.31 0.31 0.32 0.34
0.73 0.69 0.61 0.56 0.52 0.45 0.37 0.32 0.32 0.31 0.28 0.27 0.24 0.19 0.17 0.14 0.10 0.10 0.09 0.08 0.07 0.06 0.05 0.08 0.16 0.26 0.37 0.46 0.52 0.51 0.46 0.41 0.39 0.38 0.38 0.35 0.33 0.33 0.33 0.33 0.34 0.34 0.37
0.79 0.76 0.66 0.56 0.51 0.50 0.46 0.41 0.40 0.37 0.32 0.28 0.23 0.21 0.20 0.16 0.10 0.09 0.08 0.08 0.07 0.06 0.05 0.06 0.11 0.21 0.34 0.46 0.56 0.61 0.56 0.49 0.45 0.43 0.42 0.41 0.39 0.39 0.41 0.42 0.40 0.39 0.39
0.95 0.89 0.77 0.66 0.66 0.68 0.62 0.53 0.49 0.42 0.36 0.33 0.29 0.26 0.23 0.21 0.12 0.10 0.09 0.08 0.07 0.07 0.07 0.06 0.09 0.15 0.24 0.35 0.51 0.64 0.67 0.62 0.57 0.51 0.47 0.44 0.43 0.44 0.46 0.47 0.48 0.48 0.49
1.00 0.94 0.83 0.79 0.83 0.78 0.71 0.64 0.57 0.52 0.45 0.42 0.38 0.35 0.32 0.27 0.18 0.14 0.12 0.11 0.10 0.09 0.09 0.10 0.11 0.12 0.15 0.21 0.33 0.51 0.63 0.67 0.61 0.53 0.49 0.47 0.45 0.46 0.48 0.49 0.49 0.49 0.51
1.07 0.99 0.88 0.87 0.93 0.88 0.79 0.74 0.67 0.63 0.57 0.55 0.52 0.41 0.35 0.33 0.27 0.19 0.15 0.13 0.13 0.13 0.13 0.13 0.13 0.13 0.14 0.16 0.20 0.32 0.48 0.61 0.62 0.57 0.54 0.51 0.50 0.52 0.54 0.56 0.56 0.54 0.54
1.31 1.18 0.99 0.96 1.00 0.93 0.85 0.84 0.85 0.82 0.74 0.71 0.66 0.49 0.38 0.32 0.28 0.20 0.16 0.15 0.14 0.15 0.15 0.17 0.17 0.16 0.15 0.17 0.20 0.23 0.31 0.49 0.62 0.66 0.63 0.59 0.59 0.61 0.64 0.69 0.71 0.69 0.69
1.34 1.30 1.24 1.17 1.15 1.14 1.09 1.03 1.02 0.99 0.92 0.89 0.84 0.76 0.54 0.38 0.29 0.22 0.20 0.19 0.18 0.19 0.18 0.18 0.18 0.18 0.18 0.18 0.18 0.20 0.24 0.37 0.55 0.69 0.73 0.71 0.70 0.72 0.78 0.83 0.85 0.85 0.85
1.44 1.37 1.35 1.36 1.34 1.30 1.22 1.17 1.15 1.15 1.11 1.04 1.00 1.03 0.78 0.52 0.37 0.30 0.26 0.24 0.23 0.23 0.23 0.23 0.22 0.22 0.21 0.21 0.20 0.21 0.23 0.27 0.41 0.64 0.82 0.88 0.87 0.88 0.93 0.99 1.03 1.05 1.03
1.49 1.43 1.41 1.41 1.44 1.40 1.31 1.33 1.34 1.23 1.25 1.21 1.15 1.06 0.92 0.73 0.64 0.48 0.36 0.34 0.32 0.30 0.29 0.27 0.25 0.24 0.24 0.24 0.25 0.28 0.30 0.31 0.40 0.60 0.85 0.99 1.03 1.08 1.19 1.27 1.34 1.32 1.23
1.42 1.37 1.36 1.39 1.38 1.38 1.35 1.36 1.40 1.39 1.34 1.30 1.24 1.20 1.18 1.04 0.88 0.80 0.61 0.47 0.45 0.41 0.40 0.38 0.36 0.33 0.31 0.31 0.31 0.36 0.42 0.44 0.52 0.64 0.83 1.01 1.13 1.23 1.34 1.45 1.52 1.55 1.47
1.34 1.26 1.24 1.26 1.31 1.32 1.29 1.30 1.39 1.46 1.47 1.37 1.26 1.16 1.14 1.09 0.98 0.96 0.85 0.65 0.57 0.48 0.47 0.44 0.42 0.41 0.42 0.45 0.49 0.59 0.60 0.62 0.67 0.75 0.88 1.03 1.15 1.25 1.37 1.51 1.61 1.65 1.64
1.32 1.25 1.21 1.21 1.25 1.28 1.34 1.40 1.42 1.42 1.48 1.47 1.41 1.32 1.24 1.13 1.05 1.06 1.04 0.86 0.71 0.57 0.53 0.51 0.48 0.47 0.49 0.52 0.59 0.75 0.75 0.78 0.81 0.85 0.98 1.13 1.18 1.20 1.23 1.33 1.49 1.59 1.63
1.19 1.22 1.26 1.30 1.31 1.32 1.33 1.35 1.34 1.31 1.35 1.38 1.37 1.34 1.28 1.19 1.19 1.19 1.17 1.21 1.11 0.87 0.74 0.67 0.63 0.64 0.64 0.67 0.75 0.86 0.78 0.86 0.84 0.85 0.94 1.04 1.04 1.01 1.01 1.09 1.28 1.46 1.53
1.10 1.14 1.19 1.24 1.26 1.25 1.24 1.25 1.23 1.20 1.24 1.27 1.29 1.31 1.26 1.16 1.16 1.17 1.18 1.25 1.35 1.20 0.90 0.70 0.67 0.67 0.71 0.73 0.81 0.78 0.72 0.86 0.87 0.83 0.85 0.86 0.84 0.82 0.81 0.83 0.92 1.08 1.19
0.92 0.95 1.02 1.09 1.11 1.10 1.08 1.11 1.11 1.09 1.12 1.11 1.13 1.20 1.21 1.15 1.12 1.14 1.17 1.21 1.29 1.35 1.14 0.77 0.66 0.66 0.71 0.73 0.80 0.71 0.66 0.79 0.78 0.75 0.74 0.73 0.72 0.70 0.69 0.70 0.72 0.80 0.90
0.84 0.87 0.90 0.94 0.96 0.97 0.98 0.98 0.96 0.96 0.97 0.97 0.99 1.02 1.05 1.08 1.13 1.14 1.15 1.20 1.24 1.31 1.27 0.94 0.76 0.75 0.79 0.78 0.78 0.71 0.64 0.62 0.61 0.71 0.67 0.64 0.62 0.62 0.62 0.61 0.62 0.65 0.69
0.74 0.73 0.76 0.79 0.79 0.79 0.81 0.83 0.84 0.83 0.83 0.83 0.85 0.90 0.91 0.95 1.00 1.04 1.11 1.17 1.20 1.22 1.24 1.08 0.85 0.77 0.75 0.73 0.70 0.67 0.62 0.56 0.51 0.62 0.61 0.57 0.56 0.54 0.53 0.52 0.55 0.60 0.62
0.74 0.67 0.64 0.65 0.66 0.67 0.67 0.69 0.71 0.72 0.73 0.74 0.75 0.78 0.81 0.86 0.92 0.94 0.98 1.02 1.03 1.05 1.10 1.06 0.88 0.73 0.68 0.64 0.64 0.60 0.55 0.51 0.46 0.50 0.52 0.52 0.52 0.52 0.53 0.53 0.54 0.55 0.55
0.67 0.63 0.58 0.56 0.55 0.59 0.62 0.63 0.65 0.67 0.68 0.69 0.71 0.74 0.76 0.80 0.82 0.84 0.88 0.90 0.91 0.92 0.94 0.97 0.90 0.80 0.73 0.68 0.70 0.67 0.61 0.55 0.50 0.45 0.51 0.51 0.53 0.52 0.49 0.46 0.45 0.47 0.49
0.54 0.55 0.54 0.53 0.51 0.51 0.53 0.57 0.60 0.64 0.66 0.69 0.70 0.72 0.75 0.83 0.85 0.83 0.81 0.80 0.81 0.86 0.91 0.98 0.94 0.80 0.68 0.64 0.64 0.60 0.59 0.59 0.58 0.53 0.52 0.47 0.43 0.39 0.37 0.39 0.42 0.45 0.48
0.45 0.49 0.52 0.56 0.59 0.61 0.73 0.69 0.63 0.64 0.68 0.69 0.68 0.66 0.66 0.71 0.70 0.72 0.72 0.71 0.76 0.84 0.94 0.99 0.89 0.73 0.58 0.52 0.51 0.57 0.62 0.68 0.61 0.44 0.45 0.44 0.41 0.40 0.36 0.34 0.43 0.46 0.47
0.54 0.58 0.63 0.66 0.69 0.76 0.84 0.76 0.72 0.64 0.65 0.66 0.64 0.59 0.56 0.54 0.56 0.49 0.53 0.58 0.60 0.69 0.72 0.66 0.60 0.52 0.49 0.48 0.58 0.67 0.66 0.65 0.53 0.39 0.46 0.49 0.43 0.41 0.35 0.36 0.43 0.41 0.41
0.77 0.81 0.85 0.86 0.85 0.84 0.82 0.73 0.70 0.61 0.58 0.54 0.49 0.45 0.41 0.38 0.38 0.39 0.42 0.49 0.48 0.46 0.46 0.43 0.41 0.39 0.40 0.43 0.54 0.67 0.69 0.68 0.55 0.44 0.44 0.47 0.38 0.35 0.32 0.33 0.41 0.41 0.40
0.89 0.85 0.83 0.81 0.78 0.72 0.68 0.58 0.50 0.43 0.44 0.42 0.38 0.35 0.35 0.33 0.39 0.46 0.46 0.47 0.38 0.33 0.37 0.42 0.44 0.44 0.45 0.46 0.48 0.59 0.71 0.79 0.69 0.46 0.37 0.40 0.34 0.32 0.32 0.31 0.35 0.41 0.41
0.68 0.62 0.58 0.54 0.51 0.48 0.46 0.41 0.38 0.33 0.31 0.29 0.29 0.30 0.35 0.35 0.42 0.49 0.46 0.41 0.35 0.31 0.32 0.36 0.39 0.41 0.40 0.42 0.48 0.49 0.64 0.89 0.79 0.56 0.31 0.37 0.39 0.46 0.59 0.36 0.30 0.33 0.36

GEFSMA_prec_meanprecacc_192.txt.gz
Total_Precipitation_Accumulation
0.75 0.67 0.63 0.56 0.49 0.41 0.35 0.36 0.36 0.30 0.31 0.28 0.21 0.18 0.17 0.13 0.11 0.10 0.09 0.09 0.08 0.09 0.11 0.16 0.19 0.23 0.29 0.33 0.39 0.41 0.39 0.36 0.34 0.34 0.33 0.30 0.29 0.29 0.31 0.32 0.32 0.33 0.36
0.80 0.74 0.64 0.58 0.53 0.46 0.38 0.34 0.33 0.33 0.32 0.31 0.28 0.24 0.23 0.19 0.14 0.13 0.12 0.12 0.10 0.08 0.07 0.10 0.17 0.27 0.38 0.47 0.53 0.52 0.48 0.42 0.40 0.40 0.40 0.37 0.36 0.35 0.35 0.35 0.35 0.36 0.39
0.86 0.81 0.70 0.58 0.52 0.51 0.47 0.42 0.41 0.38 0.34 0.31 0.27 0.26 0.26 0.23 0.17 0.14 0.13 0.12 0.10 0.09 0.07 0.08 0.12 0.22 0.35 0.47 0.57 0.62 0.57 0.50 0.46 0.45 0.44 0.43 0.40 0.40 0.43 0.43 0.41 0.40 0.41
1.04 0.94 0.81 0.68 0.68 0.70 0.64 0.54 0.49 0.43 0.37 0.35 0.31 0.31 0.29 0.28 0.21 0.17 0.16 0.13 0.11 0.09 0.08 0.07 0.10 0.16 0.24 0.36 0.52 0.65 0.68 0.64 0.58 0.53 0.48 0.45 0.44 0.44 0.48 0.49 0.50 0.49 0.50
1.09 0.99 0.86 0.82 0.86 0.81 0.73 0.65 0.58 0.53 0.45 0.43 0.40 0.38 0.38 0.36 0.29 0.25 0.22 0.19 0.15 0.12 0.11 0.11 0.11 0.12 0.15 0.21 0.34 0.52 0.64 0.67 0.62 0.53 0.50 0.48 0.46 0.47 0.49 0.50 0.50 0.50 0.52
1.13 1.04 0.91 0.89 0.95 0.90 0.81 0.76 0.69 0.64 0.58 0.56 0.54 0.43 0.39 0.41 0.37 0.29 0.25 0.22 0.19 0.17 0.15 0.14 0.14 0.13 0.14 0.16 0.21 0.33 0.49 0.62 0.63 0.58 0.55 0.52 0.51 0.52 0.55 0.57 0.57 0.54 0.54
1.37 1.23 1.03 0.99 1.02 0.94 0.86 0.85 0.86 0.83 0.75 0.72 0.67 0.52 0.41 0.37 0.35 0.29 0.25 0.23 0.20 0.20 0.18 0.18 0.17 0.16 0.15 0.17 0.20 0.23 0.32 0.50 0.63 0.67 0.63 0.60 0.60 0.62 0.65 0.70 0.71 0.70 0.70
1.40 1.35 1.28 1.20 1.18 1.15 1.10 1.04 1.03 1.00 0.93 0.91 0.85 0.77 0.57 0.42 0.33 0.29 0.26 0.24 0.22 0.22 0.21 0.21 0.19 0.19 0.18 0.18 0.18 0.20 0.25 0.37 0.55 0.70 0.74 0.72 0.70 0.73 0.79 0.84 0.86 0.85 0.86
1.50 1.42 1.39 1.39 1.37 1.32 1.24 1.18 1.16 1.16 1.12 1.06 1.01 1.04 0.80 0.54 0.40 0.35 0.31 0.27 0.25 0.25 0.26 0.26 0.24 0.23 0.22 0.21 0.20 0.21 0.23 0.27 0.41 0.64 0.83 0.89 0.88 0.89 0.94 1.00 1.04 1.06 1.04
1.56 1.48 1.45 1.44 1.46 1.42 1.32 1.34 1.34 1.24 1.26 1.22 1.16 1.07 0.92 0.73 0.65 0.50 0.39 0.37 0.34 0.30 0.31 0.31 0.29 0.27 0.25 0.25 0.25 0.28 0.30 0.31 0.40 0.60 0.85 1.00 1.04 1.09 1.20 1.29 1.35 1.33 1.24
1.48 1.42 1.40 1.43 1.41 1.41 1.37 1.38 1.41 1.40 1.34 1.31 1.25 1.20 1.19 1.04 0.88 0.81 0.63 0.49 0.47 0.42 0.40 0.40 0.40 0.38 0.34 0.32 0.31 0.36 0.42 0.44 0.52 0.64 0.83 1.01 1.13 1.23 1.35 1.46 1.54 1.57 1.49
1.39 1.31 1.28 1.30 1.35 1.35 1.32 1.33 1.41 1.47 1.48 1.38 1.27 1.17 1.15 1.10 0.98 0.96 0.86 0.66 0.58 0.50 0.47 0.44 0.43 0.45 0.48 0.49 0.50 0.59 0.60 0.62 0.67 0.75 0.88 1.03 1.16 1.26 1.38 1.52 1.63 1.67 1.66
1.36 1.29 1.24 1.24 1.28 1.32 1.37 1.43 1.44 1.44 1.50 1.48 1.42 1.33 1.25 1.13 1.05 1.06 1.05 0.87 0.72 0.58 0.54 0.52 0.49 0.49 0.53 0.59 0.64 0.78 0.76 0.78 0.81 0.85 0.98 1.13 1.19 1.20 1.24 1.34 1.49 1.60 1.64
1.23 1.25 1.29 1.32 1.33 1.35 1.35 1.38 1.36 1.33 1.37 1.40 1.39 1.34 1.28 1.19 1.19 1.19 1.17 1.21 1.11 0.88 0.75 0.68 0.64 0.65 0.67 0.71 0.81 0.90 0.80 0.88 0.85 0.85 0.94 1.04 1.04 1.01 1.01 1.09 1.28 1.46 1.54
1.13 1.16 1.21 1.26 1.28 1.27 1.25 1.27 1.25 1.22 1.26 1.30 1.31 1.32 1.27 1.17 1.16 1.17 1.18 1.25 1.36 1.21 0.91 0.71 0.68 0.68 0.73 0.76 0.85 0.81 0.74 0.88 0.88 0.83 0.85 0.86 0.84 0.83 0.81 0.83 0.92 1.08 1.19
0.94 0.97 1.04 1.10 1.12 1.11 1.10 1.12 1.13 1.10 1.14 1.13 1.15 1.22 1.23 1.16 1.13 1.14 1.17 1.21 1.29 1.35 1.14 0.77 0.67 0.67 0.72 0.75 0.83 0.74 0.68 0.81 0.79 0.76 0.74 0.73 0.72 0.70 0.69 0.70 0.72 0.81 0.90
0.85 0.89 0.91 0.96 0.98 0.98 0.99 0.99 0.98 0.97 0.99 0.99 1.01 1.04 1.07 1.09 1.14 1.14 1.16 1.20 1.25 1.31 1.28 0.94 0.77 0.75 0.80 0.80 0.80 0.73 0.66 0.64 0.62 0.72 0.67 0.64 0.63 0.62 0.62 0.61 0.62 0.65 0.69
0.75 0.75 0.77 0.80 0.81 0.81 0.82 0.84 0.85 0.85 0.85 0.85 0.86 0.91 0.92 0.96 1.00 1.05 1.12 1.17 1.20 1.22 1.24 1.08 0.85 0.77 0.76 0.74 0.71 0.69 0.64 0.58 0.53 0.63 0.61 0.58 0.56 0.55 0.53 0.52 0.56 0.60 0.62
0.75 0.68 0.66 0.67 0.67 0.68 0.69 0.70 0.72 0.73 0.75 0.76 0.76 0.79 0.82 0.87 0.93 0.94 0.98 1.02 1.04 1.06 1.10 1.06 0.88 0.73 0.68 0.65 0.66 0.62 0.56 0.53 0.48 0.52 0.53 0.52 0.52 0.53 0.54 0.53 0.55 0.56 0.55
0.68 0.64 0.60 0.57 0.57 0.60 0.64 0.65 0.67 0.68 0.69 0.70 0.72 0.75 0.77 0.80 0.82 0.84 0.88 0.90 0.91 0.92 0.94 0.97 0.90 0.80 0.73 0.69 0.71 0.68 0.63 0.57 0.52 0.47 0.52 0.52 0.54 0.53 0.50 0.47 0.46 0.48 0.50
0.55 0.56 0.55 0.55 0.53 0.53 0.56 0.59 0.63 0.66 0.68 0.70 0.71 0.72 0.76 0.83 0.85 0.83 0.81 0.81 0.82 0.87 0.91 0.98 0.95 0.80 0.68 0.65 0.65 0.61 0.61 0.60 0.60 0.55 0.54 0.49 0.44 0.40 0.38 0.40 0.43 0.46 0.50
0.47 0.50 0.53 0.57 0.60 0.62 0.75 0.71 0.65 0.66 0.70 0.70 0.69 0.67 0.67 0.71 0.70 0.72 0.72 0.71 0.76 0.84 0.95 1.00 0.90 0.73 0.58 0.52 0.52 0.57 0.63 0.69 0.63 0.46 0.48 0.46 0.43 0.42 0.38 0.35 0.44 0.48 0.48
0.57 0.60 0.65 0.68 0.71 0.78 0.86 0.78 0.73 0.65 0.66 0.67 0.65 0.60 0.56 0.55 0.56 0.49 0.54 0.58 0.61 0.70 0.73 0.66 0.60 0.52 0.49 0.48 0.58 0.67 0.67 0.66 0.54 0.41 0.48 0.52 0.46 0.43 0.37 0.38 0.45 0.43 0.43
0.80 0.83 0.87 0.88 0.87 0.86 0.85 0.75 0.71 0.62 0.59 0.55 0.50 0.45 0.42 0.39 0.38 0.39 0.42 0.50 0.48 0.47 0.46 0.43 0.41 0.39 0.40 0.43 0.54 0.67 0.69 0.68 0.56 0.45 0.45 0.50 0.40 0.38 0.34 0.35 0.43 0.42 0.42
0.92 0.89 0.85 0.83 0.80 0.74 0.70 0.61 0.52 0.44 0.44 0.43 0.38 0.35 0.35 0.33 0.39 0.46 0.46 0.48 0.38 0.33 0.37 0.42 0.45 0.44 0.45 0.46 0.48 0.60 0.72 0.80 0.70 0.47 0.38 0.42 0.36 0.34 0.34 0.33 0.36 0.43 0.42
0.70 0.64 0.61 0.57 0.54 0.50 0.48 0.43 0.40 0.34 0.32 0.30 0.29 0.30 0.35 0.35 0.42 0.50 0.46 0.42 0.35 0.31 0.33 0.37 0.40 0.41 0.40 0.42 0.48 0.49 0.65 0.90 0.80 0.57 0.32 0.38 0.41 0.48 0.61 0.37 0.31 0.34 0.37

GEFSMA_prec_meanprecacc_198.txt.gz
Total_Precipitation_Accumulation
0.88 0.76 0.70 0.62 0.52 0.43 0.36 0.37 0.37 0.32 0.32 0.30 0.23 0.19 0.19 0.14 0.11 0.10 0.09 0.09 0.10 0.13 0.15 0.19 0.21 0.24 0.30 0.34 0.39 0.42 0.40 0.37 0.35 0.35 0.34 0.32 0.30 0.30 0.33 0.34 0.34 0.34 0.37
0.95 0.87 0.74 0.63 0.57 0.48 0.39 0.34 0.34 0.34 0.33 0.33 0.30 0.25 0.24 0.20 0.15 0.14 0.13 0.12 0.12 0.13 0.14 0.15 0.20 0.29 0.39 0.48 0.53 0.53 0.48 0.43 0.41 0.41 0.41 0.39 0.37 0.36 0.36 0.36 0.36 0.37 0.40
0.97 0.95 0.81 0.64 0.56 0.54 0.48 0.43 0.42 0.39 0.36 0.32 0.29 0.28 0.28 0.24 0.19 0.16 0.15 0.14 0.12 0.13 0.14 0.13 0.15 0.24 0.36 0.48 0.58 0.63 0.58 0.51 0.48 0.47 0.46 0.44 0.41 0.41 0.44 0.45 0.43 0.41 0.41
1.12 1.05 0.93 0.77 0.73 0.73 0.65 0.55 0.50 0.44 0.38 0.36 0.33 0.33 0.31 0.29 0.23 0.20 0.18 0.16 0.14 0.13 0.15 0.14 0.13 0.17 0.26 0.38 0.54 0.67 0.69 0.65 0.60 0.54 0.49 0.46 0.45 0.46 0.49 0.51 0.51 0.49 0.50
1.17 1.09 0.96 0.91 0.93 0.84 0.75 0.67 0.59 0.54 0.46 0.44 0.42 0.40 0.40 0.38 0.30 0.27 0.25 0.23 0.21 0.19 0.19 0.18 0.16 0.15 0.16 0.22 0.35 0.53 0.65 0.68 0.63 0.55 0.51 0.49 0.48 0.49 0.51 0.52 0.52 0.51 0.53
1.21 1.13 1.02 0.99 1.03 0.96 0.85 0.77 0.70 0.65 0.59 0.56 0.55 0.45 0.42 0.43 0.39 0.31 0.28 0.26 0.25 0.25 0.23 0.21 0.19 0.16 0.16 0.18 0.22 0.33 0.50 0.62 0.64 0.59 0.56 0.53 0.53 0.54 0.57 0.59 0.59 0.56 0.55
1.49 1.34 1.13 1.10 1.11 1.01 0.91 0.88 0.88 0.84 0.76 0.72 0.68 0.53 0.44 0.39 0.37 0.30 0.26 0.25 0.24 0.24 0.24 0.24 0.22 0.19 0.17 0.18 0.21 0.24 0.33 0.50 0.64 0.67 0.64 0.61 0.61 0.63 0.67 0.72 0.73 0.71 0.71
1.51 1.48 1.40 1.31 1.27 1.23 1.15 1.07 1.05 1.02 0.95 0.92 0.86 0.78 0.58 0.44 0.36 0.31 0.27 0.26 0.25 0.25 0.25 0.24 0.23 0.22 0.20 0.19 0.20 0.21 0.25 0.38 0.55 0.70 0.74 0.73 0.71 0.74 0.81 0.86 0.88 0.87 0.87
1.59 1.50 1.49 1.50 1.47 1.40 1.29 1.22 1.19 1.19 1.15 1.07 1.02 1.05 0.81 0.56 0.42 0.37 0.33 0.29 0.27 0.27 0.28 0.28 0.26 0.26 0.24 0.23 0.21 0.22 0.24 0.28 0.41 0.64 0.83 0.89 0.89 0.90 0.95 1.02 1.06 1.08 1.06
1.64 1.57 1.54 1.53 1.56 1.49 1.38 1.38 1.38 1.26 1.28 1.24 1.18 1.08 0.93 0.74 0.66 0.52 0.41 0.39 0.36 0.32 0.33 0.33 0.31 0.29 0.27 0.26 0.26 0.28 0.31 0.32 0.40 0.61 0.86 1.00 1.04 1.10 1.21 1.30 1.37 1.35 1.26
1.55 1.49 1.49 1.52 1.50 1.49 1.44 1.44 1.45 1.44 1.37 1.33 1.27 1.22 1.20 1.05 0.89 0.82 0.64 0.51 0.48 0.44 0.42 0.42 0.42 0.40 0.36 0.34 0.33 0.37 0.43 0.45 0.52 0.65 0.84 1.02 1.14 1.24 1.36 1.47 1.55 1.58 1.50
1.45 1.37 1.33 1.36 1.41 1.42 1.39 1.39 1.47 1.52 1.51 1.40 1.29 1.19 1.16 1.11 0.99 0.97 0.87 0.67 0.60 0.51 0.49 0.46 0.45 0.47 0.51 0.52 0.53 0.61 0.61 0.63 0.68 0.75 0.88 1.04 1.16 1.26 1.39 1.53 1.63 1.68 1.67
1.41 1.33 1.28 1.28 1.32 1.36 1.41 1.47 1.48 1.48 1.54 1.51 1.44 1.34 1.26 1.14 1.06 1.07 1.05 0.88 0.73 0.60 0.56 0.53 0.51 0.51 0.55 0.62 0.67 0.81 0.77 0.79 0.81 0.86 0.98 1.13 1.19 1.20 1.24 1.34 1.50 1.60 1.65
1.27 1.29 1.32 1.35 1.36 1.38 1.39 1.41 1.39 1.36 1.42 1.44 1.42 1.37 1.30 1.21 1.20 1.19 1.18 1.22 1.12 0.89 0.76 0.69 0.66 0.66 0.68 0.73 0.83 0.93 0.83 0.91 0.87 0.86 0.95 1.04 1.04 1.02 1.01 1.09 1.29 1.47 1.54
1.16 1.20 1.26 1.29 1.30 1.29 1.29 1.31 1.29 1.26 1.30 1.34 1.36 1.36 1.30 1.19 1.18 1.18 1.19 1.26 1.37 1.22 0.92 0.72 0.68 0.69 0.74 0.77 0.87 0.83 0.77 0.92 0.91 0.85 0.86 0.86 0.84 0.83 0.81 0.83 0.92 1.09 1.20
0.96 1.00 1.08 1.14 1.15 1.13 1.12 1.16 1.16 1.14 1.17 1.17 1.19 1.26 1.27 1.20 1.16 1.16 1.19 1.22 1.31 1.36 1.15 0.78 0.67 0.67 0.73 0.75 0.83 0.75 0.70 0.84 0.82 0.79 0.77 0.74 0.73 0.70 0.69 0.70 0.72 0.81 0.91
0.87 0.91 0.94 1.00 1.02 1.01 1.01 1.01 1.00 0.99 1.01 1.01 1.04 1.07 1.10 1.13 1.17 1.17 1.18 1.21 1.26 1.32 1.29 0.95 0.77 0.76 0.81 0.80 0.80 0.74 0.67 0.65 0.65 0.75 0.70 0.67 0.65 0.63 0.62 0.62 0.63 0.66 0.69
0.77 0.76 0.79 0.83 0.84 0.84 0.84 0.86 0.86 0.86 0.86 0.86 0.88 0.94 0.95 0.99 1.04 1.08 1.14 1.19 1.21 1.23 1.25 1.09 0.86 0.78 0.76 0.74 0.71 0.69 0.64 0.59 0.54 0.65 0.64 0.61 0.59 0.57 0.54 0.53 0.56 0.60 0.62
0.79 0.70 0.68 0.69 0.70 0.71 0.72 0.72 0.73 0.74 0.75 0.76 0.77 0.81 0.84 0.90 0.96 0.98 1.01 1.04 1.05 1.06 1.10 1.07 0.88 0.74 0.68 0.65 0.66 0.62 0.56 0.53 0.49 0.53 0.55 0.55 0.55 0.55 0.56 0.55 0.56 0.57 0.56
0.72 0.67 0.62 0.60 0.60 0.63 0.67 0.68 0.68 0.69 0.70 0.71 0.73 0.77 0.80 0.83 0.85 0.87 0.91 0.92 0.92 0.93 0.95 0.97 0.91 0.80 0.73 0.69 0.71 0.69 0.63 0.57 0.52 0.47 0.53 0.54 0.55 0.55 0.51 0.49 0.48 0.49 0.51
0.60 0.60 0.58 0.56 0.55 0.55 0.58 0.62 0.65 0.67 0.69 0.71 0.72 0.74 0.78 0.86 0.89 0.86 0.84 0.83 0.83 0.88 0.92 0.98 0.95 0.81 0.68 0.65 0.65 0.61 0.61 0.61 0.60 0.55 0.54 0.49 0.44 0.40 0.39 0.41 0.45 0.47 0.52
0.51 0.56 0.58 0.60 0.62 0.64 0.77 0.74 0.68 0.68 0.72 0.72 0.71 0.69 0.69 0.73 0.73 0.75 0.74 0.73 0.77 0.85 0.95 1.00 0.90 0.73 0.58 0.52 0.52 0.57 0.63 0.69 0.63 0.46 0.48 0.47 0.44 0.43 0.38 0.36 0.45 0.49 0.50
0.61 0.65 0.70 0.73 0.73 0.79 0.88 0.79 0.75 0.67 0.68 0.69 0.66 0.62 0.58 0.57 0.58 0.51 0.56 0.60 0.62 0.70 0.73 0.67 0.60 0.53 0.49 0.48 0.58 0.68 0.67 0.66 0.54 0.41 0.48 0.52 0.46 0.44 0.39 0.40 0.47 0.44 0.44
0.86 0.88 0.92 0.93 0.91 0.89 0.87 0.77 0.74 0.64 0.60 0.56 0.51 0.46 0.43 0.40 0.39 0.40 0.43 0.51 0.49 0.47 0.47 0.44 0.42 0.40 0.40 0.44 0.54 0.68 0.70 0.69 0.56 0.45 0.46 0.50 0.41 0.38 0.35 0.36 0.44 0.44 0.44
0.98 0.94 0.90 0.88 0.84 0.77 0.73 0.64 0.56 0.47 0.46 0.44 0.39 0.36 0.36 0.34 0.40 0.47 0.47 0.48 0.39 0.34 0.38 0.43 0.45 0.44 0.46 0.46 0.48 0.60 0.72 0.80 0.70 0.47 0.39 0.42 0.36 0.34 0.35 0.34 0.37 0.44 0.43
0.75 0.69 0.65 0.61 0.58 0.53 0.51 0.47 0.43 0.37 0.34 0.31 0.30 0.31 0.36 0.36 0.43 0.51 0.47 0.43 0.36 0.32 0.33 0.38 0.42 0.43 0.41 0.43 0.48 0.50 0.65 0.91 0.81 0.58 0.32 0.38 0.42 0.48 0.62 0.38 0.31 0.34 0.38

GEFSMA_prec_meanprecacc_204.txt.gz
Total_Precipitation_Accumulation
0.94 0.83 0.75 0.67 0.57 0.48 0.40 0.40 0.39 0.34 0.33 0.31 0.24 0.21 0.21 0.17 0.13 0.12 0.11 0.11 0.11 0.15 0.19 0.24 0.26 0.27 0.32 0.36 0.41 0.43 0.40 0.37 0.36 0.35 0.35 0.32 0.31 0.31 0.34 0.35 0.35 0.35 0.38
1.02 0.93 0.79 0.68 0.61 0.53 0.43 0.37 0.36 0.36 0.35 0.34 0.32 0.26 0.26 0.23 0.18 0.16 0.14 0.14 0.13 0.14 0.17 0.19 0.25 0.33 0.42 0.51 0.55 0.54 0.49 0.44 0.42 0.42 0.43 0.40 0.38 0.36 0.36 0.37 0.37 0.38 0.41
1.06 1.02 0.87 0.69 0.60 0.59 0.53 0.46 0.44 0.42 0.39 0.35 0.30 0.29 0.30 0.27 0.21 0.19 0.17 0.15 0.13 0.14 0.17 0.19 0.21 0.29 0.41 0.52 0.61 0.64 0.60 0.52 0.49 0.48 0.47 0.45 0.43 0.42 0.45 0.45 0.44 0.42 0.42
1.21 1.15 1.03 0.85 0.78 0.78 0.71 0.60 0.53 0.47 0.42 0.39 0.34 0.33 0.32 0.31 0.25 0.22 0.20 0.17 0.15 0.14 0.16 0.19 0.20 0.24 0.32 0.42 0.57 0.70 0.72 0.67 0.61 0.55 0.50 0.47 0.46 0.47 0.51 0.52 0.53 0.50 0.51
1.28 1.21 1.06 0.99 0.99 0.90 0.81 0.72 0.63 0.57 0.48 0.45 0.42 0.40 0.41 0.39 0.32 0.28 0.26 0.25 0.22 0.20 0.20 0.21 0.21 0.20 0.21 0.27 0.40 0.57 0.68 0.70 0.64 0.55 0.52 0.49 0.48 0.50 0.52 0.54 0.53 0.52 0.54
1.34 1.27 1.13 1.07 1.09 1.01 0.90 0.83 0.74 0.67 0.60 0.57 0.56 0.46 0.43 0.45 0.40 0.32 0.29 0.28 0.26 0.25 0.24 0.23 0.23 0.20 0.19 0.21 0.26 0.38 0.53 0.64 0.65 0.60 0.57 0.53 0.53 0.55 0.58 0.60 0.60 0.57 0.56
1.62 1.49 1.26 1.20 1.19 1.07 0.96 0.94 0.93 0.89 0.79 0.74 0.70 0.55 0.45 0.41 0.39 0.32 0.27 0.26 0.25 0.25 0.24 0.25 0.25 0.22 0.20 0.20 0.23 0.27 0.35 0.52 0.65 0.68 0.65 0.61 0.62 0.64 0.68 0.73 0.75 0.72 0.72
1.62 1.60 1.55 1.43 1.38 1.31 1.23 1.14 1.11 1.07 0.98 0.94 0.88 0.81 0.60 0.46 0.38 0.32 0.29 0.27 0.26 0.26 0.25 0.25 0.25 0.25 0.23 0.22 0.21 0.23 0.27 0.39 0.56 0.71 0.75 0.73 0.72 0.75 0.82 0.88 0.90 0.89 0.89
1.70 1.61 1.63 1.63 1.59 1.52 1.40 1.32 1.26 1.23 1.18 1.11 1.05 1.09 0.84 0.58 0.43 0.39 0.34 0.30 0.28 0.28 0.28 0.29 0.28 0.28 0.28 0.27 0.24 0.24 0.26 0.29 0.43 0.65 0.84 0.89 0.89 0.91 0.96 1.03 1.07 1.10 1.07
1.74 1.68 1.64 1.65 1.67 1.60 1.50 1.51 1.50 1.35 1.33 1.28 1.22 1.12 0.97 0.77 0.68 0.54 0.43 0.40 0.36 0.33 0.33 0.34 0.32 0.31 0.31 0.30 0.30 0.31 0.33 0.34 0.42 0.62 0.86 1.01 1.05 1.10 1.22 1.31 1.38 1.36 1.27
1.66 1.61 1.59 1.62 1.60 1.58 1.53 1.54 1.55 1.54 1.46 1.39 1.32 1.27 1.24 1.08 0.92 0.84 0.66 0.53 0.50 0.45 0.42 0.42 0.43 0.41 0.38 0.38 0.37 0.40 0.45 0.46 0.53 0.66 0.85 1.03 1.15 1.25 1.37 1.48 1.56 1.59 1.51
1.53 1.47 1.44 1.45 1.49 1.50 1.46 1.46 1.54 1.60 1.60 1.49 1.36 1.24 1.22 1.15 1.03 1.00 0.89 0.69 0.62 0.52 0.49 0.47 0.46 0.48 0.52 0.54 0.56 0.65 0.64 0.64 0.69 0.76 0.89 1.05 1.17 1.27 1.40 1.54 1.64 1.68 1.67
1.46 1.40 1.36 1.37 1.40 1.42 1.47 1.53 1.54 1.54 1.60 1.59 1.53 1.42 1.32 1.19 1.11 1.11 1.09 0.91 0.76 0.62 0.57 0.54 0.52 0.52 0.56 0.63 0.69 0.83 0.80 0.82 0.83 0.87 0.99 1.14 1.20 1.21 1.25 1.35 1.50 1.61 1.65
1.31 1.34 1.38 1.41 1.44 1.45 1.44 1.46 1.44 1.41 1.47 1.49 1.48 1.44 1.37 1.27 1.25 1.24 1.22 1.26 1.15 0.91 0.78 0.71 0.67 0.67 0.69 0.74 0.85 0.95 0.85 0.93 0.88 0.87 0.95 1.04 1.05 1.02 1.02 1.09 1.29 1.47 1.54
1.19 1.23 1.30 1.34 1.35 1.36 1.35 1.36 1.33 1.29 1.33 1.37 1.40 1.40 1.35 1.24 1.22 1.22 1.23 1.30 1.40 1.24 0.94 0.73 0.70 0.70 0.75 0.78 0.88 0.85 0.79 0.94 0.94 0.87 0.87 0.87 0.85 0.83 0.81 0.83 0.93 1.09 1.20
0.99 1.02 1.11 1.18 1.19 1.18 1.17 1.21 1.21 1.17 1.20 1.19 1.21 1.29 1.30 1.23 1.18 1.18 1.22 1.25 1.34 1.39 1.17 0.79 0.68 0.68 0.74 0.77 0.85 0.76 0.71 0.86 0.84 0.81 0.78 0.75 0.73 0.71 0.70 0.70 0.72 0.81 0.91
0.90 0.94 0.96 1.02 1.04 1.04 1.04 1.04 1.03 1.03 1.05 1.04 1.06 1.09 1.12 1.15 1.19 1.18 1.19 1.24 1.28 1.34 1.31 0.97 0.78 0.77 0.82 0.82 0.82 0.75 0.68 0.66 0.66 0.76 0.71 0.67 0.65 0.63 0.63 0.62 0.63 0.66 0.69
0.79 0.79 0.82 0.85 0.86 0.86 0.86 0.88 0.89 0.89 0.90 0.90 0.91 0.96 0.98 1.01 1.06 1.09 1.15 1.21 1.24 1.26 1.27 1.11 0.87 0.79 0.77 0.75 0.73 0.71 0.66 0.60 0.55 0.66 0.64 0.61 0.60 0.57 0.55 0.54 0.57 0.61 0.63
0.82 0.73 0.70 0.71 0.72 0.73 0.73 0.74 0.75 0.76 0.77 0.79 0.81 0.84 0.87 0.92 0.98 0.99 1.03 1.06 1.07 1.09 1.13 1.09 0.91 0.75 0.69 0.66 0.67 0.63 0.58 0.55 0.50 0.53 0.55 0.55 0.55 0.55 0.56 0.55 0.57 0.57 0.56
0.75 0.70 0.64 0.61 0.61 0.64 0.68 0.69 0.70 0.70 0.71 0.72 0.74 0.79 0.83 0.86 0.87 0.89 0.93 0.94 0.94 0.95 0.97 1.00 0.93 0.82 0.76 0.71 0.73 0.71 0.65 0.59 0.54 0.48 0.53 0.54 0.55 0.55 0.52 0.49 0.48 0.50 0.52
0.62 0.63 0.60 0.59 0.57 0.57 0.60 0.64 0.67 0.69 0.70 0.72 0.72 0.75 0.80 0.88 0.91 0.89 0.86 0.85 0.85 0.90 0.95 1.01 0.98 0.84 0.71 0.67 0.68 0.63 0.63 0.62 0.61 0.56 0.55 0.50 0.45 0.40 0.39 0.42 0.45 0.48 0.52
0.54 0.58 0.61 0.62 0.64 0.66 0.79 0.75 0.69 0.70 0.74 0.73 0.71 0.69 0.70 0.75 0.75 0.77 0.77 0.76 0.80 0.87 0.98 1.03 0.93 0.76 0.60 0.54 0.54 0.60 0.66 0.71 0.64 0.47 0.48 0.47 0.44 0.43 0.38 0.36 0.45 0.49 0.50
0.65 0.69 0.73 0.76 0.76 0.82 0.91 0.81 0.77 0.69 0.70 0.71 0.68 0.63 0.59 0.58 0.60 0.53 0.57 0.62 0.65 0.73 0.76 0.69 0.62 0.54 0.51 0.50 0.60 0.70 0.69 0.68 0.56 0.42 0.49 0.53 0.46 0.44 0.39 0.40 0.47 0.44 0.44
0.91 0.93 0.95 0.96 0.94 0.92 0.90 0.80 0.76 0.66 0.63 0.59 0.53 0.47 0.44 0.41 0.40 0.42 0.45 0.53 0.51 0.50 0.49 0.46 0.44 0.41 0.42 0.45 0.56 0.69 0.71 0.70 0.58 0.46 0.47 0.51 0.41 0.38 0.35 0.37 0.45 0.44 0.44
1.04 0.99 0.95 0.92 0.88 0.82 0.77 0.67 0.59 0.49 0.49 0.47 0.42 0.38 0.37 0.35 0.41 0.49 0.48 0.50 0.41 0.35 0.39 0.44 0.47 0.46 0.48 0.49 0.51 0.63 0.74 0.82 0.72 0.48 0.39 0.42 0.36 0.35 0.35 0.34 0.37 0.44 0.43
0.81 0.75 0.71 0.67 0.63 0.58 0.56 0.51 0.48 0.40 0.37 0.35 0.34 0.34 0.38 0.38 0.45 0.53 0.49 0.45 0.38 0.33 0.34 0.39 0.43 0.44 0.43 0.45 0.51 0.52 0.67 0.93 0.83 0.59 0.32 0.39 0.42 0.49 0.63 0.38 0.31 0.34 0.38

GEFSMA_prec_meanprecacc_210.txt.gz
Total_Precipitation_Accumulation
1.06 0.90 0.80 0.72 0.63 0.53 0.44 0.45 0.48 0.41 0.40 0.37 0.29 0.24 0.25 0.20 0.17 0.15 0.15 0.15 0.14 0.18 0.24 0.29 0.29 0.30 0.34 0.39 0.44 0.46 0.42 0.38 0.36 0.36 0.35 0.33 0.31 0.31 0.34 0.36 0.36 0.36 0.38
1.16 1.05 0.85 0.73 0.67 0.58 0.48 0.42 0.43 0.45 0.42 0.40 0.35 0.30 0.29 0.26 0.21 0.19 0.18 0.18 0.18 0.18 0.21 0.23 0.28 0.36 0.45 0.53 0.58 0.56 0.51 0.46 0.43 0.43 0.43 0.41 0.38 0.37 0.37 0.38 0.38 0.39 0.41
1.19 1.14 0.96 0.76 0.68 0.66 0.61 0.53 0.51 0.50 0.45 0.39 0.34 0.32 0.32 0.29 0.24 0.22 0.21 0.20 0.18 0.17 0.20 0.22 0.24 0.32 0.45 0.56 0.64 0.67 0.62 0.55 0.51 0.49 0.47 0.46 0.43 0.43 0.45 0.46 0.45 0.43 0.43
1.32 1.27 1.15 0.93 0.89 0.88 0.81 0.69 0.61 0.55 0.47 0.43 0.37 0.36 0.34 0.32 0.26 0.24 0.23 0.22 0.19 0.17 0.20 0.23 0.25 0.28 0.37 0.48 0.61 0.73 0.74 0.69 0.63 0.56 0.50 0.48 0.47 0.48 0.51 0.53 0.54 0.51 0.51
1.36 1.29 1.20 1.14 1.13 1.06 0.96 0.83 0.72 0.64 0.53 0.49 0.45 0.42 0.42 0.40 0.33 0.29 0.28 0.27 0.25 0.23 0.23 0.25 0.29 0.28 0.28 0.32 0.45 0.61 0.71 0.73 0.66 0.57 0.53 0.50 0.49 0.50 0.53 0.54 0.53 0.53 0.54
1.43 1.33 1.23 1.23 1.28 1.22 1.09 0.99 0.85 0.74 0.66 0.61 0.59 0.49 0.46 0.47 0.41 0.33 0.30 0.28 0.27 0.27 0.26 0.25 0.26 0.26 0.25 0.26 0.30 0.41 0.56 0.67 0.67 0.61 0.57 0.54 0.54 0.56 0.59 0.61 0.60 0.57 0.57
1.71 1.57 1.35 1.33 1.36 1.26 1.15 1.11 1.07 0.97 0.85 0.78 0.73 0.59 0.50 0.44 0.41 0.33 0.28 0.27 0.25 0.26 0.26 0.27 0.26 0.25 0.23 0.23 0.26 0.29 0.37 0.54 0.67 0.70 0.66 0.62 0.62 0.64 0.69 0.74 0.75 0.73 0.73
1.71 1.68 1.63 1.54 1.53 1.47 1.39 1.28 1.24 1.18 1.06 0.99 0.92 0.84 0.64 0.50 0.40 0.34 0.30 0.28 0.26 0.27 0.27 0.27 0.27 0.27 0.25 0.23 0.23 0.24 0.28 0.41 0.58 0.72 0.75 0.74 0.73 0.76 0.82 0.89 0.91 0.89 0.90
1.77 1.67 1.69 1.71 1.69 1.63 1.51 1.44 1.37 1.32 1.28 1.19 1.10 1.12 0.87 0.61 0.46 0.41 0.36 0.32 0.30 0.29 0.30 0.31 0.30 0.30 0.29 0.28 0.26 0.25 0.27 0.30 0.44 0.67 0.85 0.90 0.90 0.91 0.97 1.04 1.09 1.11 1.09
1.81 1.73 1.68 1.70 1.74 1.68 1.60 1.62 1.61 1.44 1.42 1.38 1.31 1.17 1.00 0.80 0.71 0.56 0.45 0.42 0.39 0.35 0.34 0.35 0.33 0.32 0.32 0.31 0.32 0.33 0.34 0.35 0.43 0.64 0.88 1.02 1.06 1.11 1.23 1.32 1.39 1.37 1.29
1.73 1.67 1.64 1.66 1.65 1.65 1.62 1.65 1.69 1.66 1.55 1.48 1.42 1.35 1.29 1.11 0.94 0.86 0.68 0.55 0.53 0.47 0.44 0.44 0.43 0.42 0.39 0.39 0.38 0.41 0.46 0.48 0.54 0.67 0.86 1.05 1.16 1.26 1.38 1.49 1.57 1.60 1.52
1.59 1.53 1.49 1.52 1.55 1.55 1.54 1.58 1.67 1.73 1.71 1.57 1.44 1.32 1.28 1.21 1.07 1.03 0.92 0.72 0.64 0.55 0.52 0.49 0.47 0.49 0.53 0.55 0.57 0.66 0.65 0.66 0.71 0.77 0.90 1.06 1.19 1.29 1.41 1.55 1.65 1.70 1.69
1.50 1.44 1.40 1.42 1.46 1.48 1.53 1.62 1.66 1.67 1.71 1.66 1.58 1.47 1.38 1.27 1.18 1.18 1.14 0.96 0.81 0.66 0.60 0.57 0.54 0.53 0.57 0.64 0.70 0.85 0.81 0.84 0.86 0.90 1.01 1.16 1.21 1.22 1.26 1.36 1.52 1.62 1.67
1.34 1.37 1.42 1.46 1.48 1.50 1.50 1.53 1.52 1.51 1.57 1.57 1.53 1.48 1.40 1.31 1.31 1.32 1.30 1.33 1.23 0.98 0.84 0.75 0.69 0.69 0.70 0.75 0.86 0.96 0.86 0.94 0.90 0.89 0.98 1.07 1.06 1.04 1.03 1.11 1.30 1.48 1.56
1.24 1.26 1.33 1.38 1.39 1.40 1.39 1.41 1.39 1.35 1.39 1.44 1.45 1.43 1.37 1.26 1.25 1.27 1.28 1.35 1.45 1.30 0.99 0.77 0.73 0.72 0.77 0.79 0.89 0.86 0.80 0.96 0.96 0.89 0.89 0.89 0.87 0.85 0.83 0.85 0.94 1.10 1.21
1.03 1.06 1.14 1.21 1.23 1.22 1.21 1.24 1.25 1.23 1.25 1.24 1.26 1.32 1.33 1.25 1.21 1.21 1.25 1.29 1.37 1.42 1.20 0.81 0.70 0.70 0.75 0.78 0.87 0.78 0.73 0.88 0.86 0.84 0.80 0.77 0.75 0.73 0.71 0.71 0.74 0.82 0.92
0.93 0.96 0.99 1.05 1.07 1.07 1.08 1.08 1.07 1.08 1.10 1.09 1.10 1.12 1.14 1.17 1.22 1.21 1.23 1.27 1.31 1.37 1.34 0.99 0.79 0.78 0.83 0.84 0.83 0.77 0.70 0.68 0.68 0.78 0.74 0.70 0.67 0.65 0.64 0.63 0.64 0.67 0.70
0.83 0.82 0.84 0.87 0.89 0.88 0.89 0.92 0.93 0.93 0.95 0.95 0.95 0.99 1.00 1.03 1.08 1.12 1.18 1.24 1.27 1.28 1.30 1.13 0.90 0.81 0.79 0.77 0.75 0.73 0.68 0.62 0.57 0.68 0.67 0.64 0.62 0.59 0.57 0.56 0.58 0.62 0.63
0.85 0.77 0.74 0.75 0.75 0.75 0.76 0.77 0.79 0.80 0.82 0.84 0.85 0.87 0.89 0.95 1.00 1.01 1.04 1.07 1.09 1.11 1.15 1.12 0.94 0.78 0.72 0.68 0.69 0.66 0.61 0.57 0.52 0.56 0.58 0.58 0.58 0.58 0.58 0.57 0.58 0.58 0.57
0.78 0.74 0.69 0.66 0.65 0.67 0.71 0.72 0.72 0.73 0.74 0.76 0.79 0.83 0.86 0.89 0.90 0.91 0.95 0.96 0.96 0.97 0.99 1.02 0.96 0.85 0.78 0.73 0.75 0.73 0.68 0.62 0.57 0.52 0.57 0.57 0.58 0.58 0.54 0.51 0.50 0.51 0.52
0.67 0.66 0.65 0.64 0.61 0.60 0.63 0.67 0.69 0.71 0.73 0.75 0.76 0.79 0.83 0.92 0.95 0.92 0.88 0.86 0.86 0.91 0.96 1.03 1.00 0.86 0.74 0.70 0.70 0.66 0.66 0.66 0.65 0.60 0.59 0.53 0.48 0.43 0.41 0.43 0.46 0.49 0.53
0.58 0.62 0.65 0.66 0.67 0.69 0.83 0.80 0.73 0.73 0.76 0.76 0.74 0.72 0.72 0.78 0.78 0.80 0.79 0.77 0.81 0.88 0.99 1.04 0.94 0.78 0.62 0.56 0.56 0.61 0.68 0.74 0.68 0.52 0.52 0.51 0.47 0.46 0.41 0.38 0.47 0.50 0.51
0.69 0.73 0.77 0.80 0.81 0.87 0.95 0.85 0.80 0.72 0.73 0.74 0.71 0.66 0.62 0.60 0.62 0.54 0.59 0.63 0.65 0.74 0.77 0.70 0.64 0.56 0.52 0.52 0.62 0.71 0.71 0.70 0.58 0.45 0.51 0.56 0.49 0.47 0.41 0.42 0.48 0.45 0.45
0.94 0.96 0.99 1.00 1.00 0.99 0.97 0.85 0.80 0.69 0.66 0.62 0.56 0.51 0.47 0.44 0.42 0.44 0.46 0.53 0.51 0.50 0.50 0.47 0.45 0.43 0.43 0.47 0.58 0.71 0.74 0.73 0.60 0.49 0.49 0.53 0.44 0.41 0.37 0.38 0.46 0.45 0.45
1.07 1.02 0.99 0.96 0.92 0.87 0.83 0.73 0.63 0.53 0.52 0.49 0.45 0.41 0.40 0.37 0.44 0.51 0.50 0.51 0.42 0.36 0.40 0.45 0.48 0.48 0.50 0.51 0.53 0.65 0.77 0.85 0.75 0.51 0.42 0.45 0.39 0.37 0.37 0.36 0.39 0.45 0.44
0.84 0.79 0.74 0.70 0.67 0.62 0.61 0.55 0.52 0.43 0.39 0.36 0.36 0.37 0.42 0.41 0.48 0.55 0.51 0.46 0.40 0.34 0.35 0.40 0.44 0.46 0.44 0.47 0.54 0.54 0.69 0.96 0.86 0.62 0.35 0.41 0.44 0.51 0.65 0.40 0.33 0.35 0.39

GEFSMA_prec_meanprecacc_216.txt.gz
Total_Precipitation_Accumulation
1.18 1.06 0.97 0.82 0.70 0.58 0.49 0.50 0.54 0.47 0.44 0.40 0.33 0.29 0.29 0.24 0.19 0.18 0.18 0.20 0.19 0.24 0.31 0.36 0.34 0.34 0.37 0.41 0.46 0.48 0.45 0.41 0.38 0.37 0.36 0.34 0.32 0.33 0.36 0.37 0.36 0.36 0.39
1.27 1.19 1.01 0.87 0.76 0.65 0.53 0.46 0.49 0.53 0.50 0.46 0.41 0.36 0.35 0.31 0.25 0.23 0.21 0.23 0.23 0.24 0.28 0.31 0.34 0.41 0.49 0.57 0.62 0.60 0.53 0.48 0.46 0.45 0.45 0.42 0.39 0.37 0.38 0.38 0.38 0.39 0.42
1.32 1.27 1.09 0.89 0.81 0.79 0.71 0.61 0.58 0.58 0.55 0.47 0.41 0.40 0.38 0.33 0.29 0.27 0.25 0.25 0.23 0.23 0.27 0.31 0.31 0.38 0.51 0.62 0.69 0.71 0.64 0.57 0.53 0.51 0.49 0.47 0.45 0.44 0.46 0.47 0.45 0.43 0.43
1.46 1.41 1.26 1.02 0.99 1.02 0.95 0.80 0.70 0.63 0.57 0.51 0.45 0.44 0.41 0.38 0.32 0.30 0.29 0.28 0.25 0.24 0.25 0.30 0.32 0.33 0.43 0.54 0.68 0.78 0.78 0.72 0.65 0.58 0.52 0.49 0.48 0.49 0.53 0.54 0.54 0.51 0.52
1.50 1.43 1.32 1.23 1.22 1.16 1.07 0.95 0.83 0.74 0.62 0.57 0.52 0.49 0.49 0.47 0.38 0.35 0.34 0.33 0.30 0.27 0.27 0.29 0.34 0.34 0.37 0.39 0.51 0.68 0.77 0.77 0.69 0.60 0.56 0.52 0.50 0.51 0.54 0.55 0.54 0.53 0.54
1.54 1.49 1.36 1.34 1.37 1.31 1.20 1.13 0.99 0.88 0.77 0.70 0.66 0.56 0.53 0.54 0.47 0.37 0.33 0.32 0.31 0.30 0.28 0.28 0.29 0.31 0.34 0.33 0.35 0.48 0.62 0.72 0.72 0.65 0.60 0.56 0.55 0.57 0.60 0.62 0.61 0.58 0.57
1.78 1.68 1.48 1.45 1.47 1.35 1.24 1.25 1.27 1.17 1.02 0.90 0.82 0.67 0.58 0.53 0.48 0.37 0.31 0.29 0.28 0.29 0.28 0.30 0.29 0.29 0.29 0.28 0.30 0.33 0.43 0.60 0.71 0.74 0.69 0.64 0.64 0.66 0.70 0.75 0.76 0.74 0.73
1.77 1.77 1.73 1.64 1.64 1.58 1.49 1.38 1.38 1.38 1.28 1.17 1.05 0.95 0.73 0.58 0.46 0.39 0.34 0.31 0.29 0.29 0.29 0.29 0.29 0.29 0.28 0.26 0.26 0.27 0.32 0.46 0.62 0.76 0.79 0.77 0.75 0.78 0.84 0.90 0.92 0.90 0.90
1.83 1.75 1.79 1.80 1.78 1.73 1.63 1.54 1.46 1.43 1.42 1.35 1.25 1.24 0.97 0.68 0.50 0.44 0.39 0.35 0.33 0.33 0.33 0.34 0.33 0.32 0.31 0.30 0.28 0.27 0.29 0.33 0.48 0.71 0.89 0.93 0.92 0.94 0.99 1.06 1.10 1.12 1.09
1.86 1.80 1.77 1.78 1.81 1.77 1.68 1.70 1.68 1.51 1.49 1.48 1.41 1.25 1.05 0.84 0.75 0.60 0.48 0.44 0.41 0.37 0.38 0.38 0.37 0.35 0.35 0.33 0.34 0.35 0.36 0.36 0.45 0.68 0.93 1.05 1.08 1.14 1.25 1.35 1.41 1.39 1.30
1.78 1.72 1.70 1.72 1.70 1.71 1.68 1.71 1.76 1.72 1.61 1.54 1.49 1.42 1.34 1.14 0.97 0.89 0.71 0.57 0.54 0.49 0.47 0.47 0.47 0.46 0.43 0.41 0.40 0.43 0.48 0.49 0.56 0.69 0.90 1.08 1.19 1.29 1.41 1.51 1.60 1.63 1.54
1.65 1.60 1.57 1.57 1.60 1.60 1.59 1.63 1.72 1.79 1.76 1.62 1.49 1.39 1.34 1.25 1.10 1.06 0.94 0.74 0.66 0.57 0.54 0.51 0.50 0.53 0.56 0.57 0.59 0.69 0.68 0.68 0.73 0.79 0.92 1.09 1.21 1.31 1.43 1.57 1.68 1.72 1.71
1.54 1.49 1.47 1.49 1.53 1.54 1.58 1.68 1.72 1.73 1.76 1.71 1.63 1.53 1.43 1.31 1.22 1.21 1.17 0.98 0.83 0.68 0.62 0.59 0.57 0.57 0.61 0.67 0.73 0.87 0.83 0.85 0.87 0.91 1.03 1.18 1.23 1.24 1.28 1.39 1.54 1.64 1.69
1.38 1.40 1.46 1.50 1.54 1.56 1.56 1.58 1.58 1.57 1.63 1.63 1.59 1.53 1.44 1.34 1.34 1.35 1.33 1.36 1.26 1.01 0.86 0.78 0.72 0.71 0.74 0.79 0.90 1.00 0.89 0.96 0.92 0.91 0.99 1.09 1.09 1.05 1.04 1.12 1.33 1.51 1.59
1.27 1.29 1.37 1.42 1.44 1.45 1.45 1.47 1.44 1.41 1.45 1.50 1.51 1.49 1.42 1.29 1.27 1.29 1.30 1.37 1.48 1.32 1.01 0.80 0.76 0.75 0.79 0.82 0.92 0.90 0.83 0.97 0.97 0.91 0.91 0.90 0.89 0.87 0.84 0.86 0.96 1.13 1.24
1.06 1.09 1.17 1.25 1.26 1.25 1.25 1.29 1.30 1.27 1.30 1.29 1.31 1.38 1.38 1.29 1.24 1.23 1.27 1.31 1.40 1.44 1.22 0.83 0.72 0.73 0.78 0.81 0.89 0.81 0.76 0.90 0.88 0.85 0.81 0.78 0.77 0.74 0.73 0.72 0.75 0.84 0.94
0.97 1.00 1.03 1.08 1.10 1.10 1.11 1.12 1.11 1.12 1.15 1.15 1.14 1.17 1.19 1.21 1.25 1.24 1.25 1.29 1.33 1.40 1.36 1.00 0.81 0.80 0.86 0.86 0.86 0.79 0.71 0.70 0.70 0.80 0.75 0.71 0.69 0.67 0.66 0.65 0.65 0.68 0.72
0.86 0.85 0.87 0.91 0.92 0.91 0.92 0.95 0.96 0.97 0.99 1.01 1.00 1.04 1.05 1.07 1.11 1.14 1.20 1.26 1.29 1.31 1.32 1.16 0.92 0.83 0.81 0.79 0.77 0.75 0.70 0.63 0.58 0.70 0.69 0.66 0.64 0.61 0.59 0.58 0.60 0.63 0.65
0.87 0.79 0.76 0.77 0.78 0.79 0.79 0.80 0.82 0.83 0.86 0.89 0.90 0.91 0.93 0.98 1.02 1.03 1.06 1.10 1.11 1.13 1.17 1.14 0.96 0.81 0.74 0.71 0.71 0.68 0.63 0.59 0.54 0.58 0.60 0.60 0.60 0.61 0.61 0.61 0.61 0.61 0.59
0.80 0.76 0.71 0.67 0.67 0.71 0.74 0.76 0.76 0.77 0.78 0.81 0.84 0.88 0.90 0.92 0.92 0.92 0.96 0.97 0.97 0.99 1.00 1.04 0.98 0.87 0.81 0.77 0.79 0.76 0.71 0.64 0.59 0.53 0.59 0.59 0.62 0.61 0.57 0.55 0.54 0.55 0.55
0.69 0.68 0.66 0.65 0.63 0.63 0.67 0.71 0.73 0.75 0.77 0.79 0.80 0.83 0.89 0.97 0.98 0.94 0.90 0.89 0.89 0.93 0.98 1.05 1.02 0.88 0.76 0.73 0.73 0.68 0.69 0.70 0.68 0.63 0.61 0.57 0.52 0.48 0.45 0.48 0.51 0.53 0.57
0.63 0.66 0.67 0.69 0.70 0.73 0.88 0.84 0.77 0.78 0.81 0.80 0.78 0.76 0.77 0.83 0.83 0.84 0.83 0.81 0.84 0.91 1.02 1.07 0.97 0.80 0.64 0.58 0.58 0.64 0.71 0.78 0.72 0.55 0.55 0.54 0.51 0.51 0.46 0.43 0.51 0.54 0.55
0.73 0.77 0.81 0.83 0.84 0.89 0.99 0.90 0.85 0.77 0.77 0.78 0.75 0.70 0.66 0.64 0.66 0.58 0.63 0.66 0.68 0.77 0.80 0.73 0.67 0.58 0.54 0.54 0.64 0.74 0.73 0.73 0.61 0.48 0.54 0.59 0.53 0.52 0.46 0.47 0.53 0.49 0.49
0.97 1.00 1.03 1.04 1.04 1.03 1.02 0.90 0.86 0.74 0.71 0.67 0.60 0.55 0.51 0.47 0.46 0.47 0.49 0.56 0.54 0.53 0.52 0.49 0.46 0.44 0.44 0.48 0.60 0.73 0.76 0.75 0.63 0.51 0.52 0.57 0.47 0.44 0.41 0.43 0.50 0.49 0.48
1.11 1.07 1.03 1.00 0.97 0.92 0.90 0.79 0.70 0.58 0.57 0.54 0.48 0.45 0.45 0.41 0.47 0.54 0.52 0.53 0.44 0.38 0.41 0.46 0.49 0.49 0.50 0.52 0.54 0.67 0.79 0.87 0.78 0.54 0.45 0.48 0.42 0.40 0.40 0.39 0.41 0.48 0.47
0.89 0.84 0.79 0.75 0.72 0.67 0.66 0.61 0.57 0.48 0.44 0.40 0.39 0.40 0.45 0.44 0.51 0.58 0.52 0.48 0.41 0.35 0.36 0.41 0.45 0.46 0.45 0.48 0.55 0.56 0.71 0.98 0.88 0.64 0.37 0.44 0.47 0.54 0.69 0.42 0.35 0.38 0.42

GEFSMA_prec_meanprecacc_222.txt.gz
Total_Precipitation_Accumulation
1.20 1.07 1.00 0.88 0.78 0.64 0.52 0.53 0.58 0.50 0.47 0.43 0.35 0.32 0.32 0.27 0.21 0.19 0.19 0.21 0.21 0.28 0.38 0.44 0.41 0.38 0.40 0.43 0.48 0.51 0.48 0.44 0.41 0.40 0.39 0.37 0.35 0.35 0.37 0.37 0.36 0.36 0.39
1.30 1.24 1.05 0.91 0.82 0.73 0.59 0.51 0.53 0.58 0.55 0.51 0.46 0.39 0.39 0.35 0.27 0.24 0.23 0.25 0.26 0.29 0.36 0.39 0.41 0.47 0.53 0.60 0.65 0.63 0.57 0.52 0.51 0.50 0.49 0.46 0.43 0.40 0.39 0.39 0.39 0.39 0.42
1.36 1.33 1.17 0.96 0.87 0.86 0.77 0.66 0.63 0.65 0.61 0.51 0.45 0.43 0.41 0.36 0.31 0.29 0.27 0.28 0.27 0.29 0.35 0.38 0.37 0.43 0.56 0.66 0.73 0.74 0.68 0.61 0.59 0.57 0.54 0.52 0.49 0.48 0.48 0.48 0.46 0.43 0.43
1.50 1.47 1.34 1.11 1.07 1.10 1.02 0.87 0.77 0.69 0.63 0.56 0.48 0.47 0.43 0.40 0.35 0.34 0.32 0.30 0.29 0.30 0.35 0.38 0.37 0.39 0.49 0.60 0.73 0.83 0.82 0.76 0.70 0.65 0.59 0.56 0.54 0.54 0.55 0.56 0.56 0.52 0.52
1.54 1.48 1.40 1.33 1.30 1.25 1.16 1.01 0.89 0.82 0.69 0.64 0.59 0.55 0.55 0.52 0.45 0.41 0.38 0.36 0.33 0.33 0.35 0.36 0.37 0.38 0.42 0.45 0.57 0.72 0.82 0.81 0.73 0.65 0.62 0.60 0.57 0.57 0.58 0.58 0.56 0.55 0.55
1.59 1.54 1.42 1.42 1.47 1.41 1.30 1.22 1.06 0.95 0.86 0.80 0.76 0.65 0.64 0.66 0.57 0.44 0.39 0.37 0.36 0.35 0.35 0.34 0.34 0.36 0.40 0.37 0.40 0.52 0.67 0.76 0.76 0.70 0.66 0.63 0.62 0.63 0.64 0.65 0.64 0.60 0.59
1.84 1.74 1.53 1.50 1.54 1.43 1.33 1.35 1.37 1.26 1.12 1.02 0.94 0.77 0.68 0.66 0.62 0.48 0.38 0.36 0.34 0.33 0.33 0.35 0.35 0.34 0.34 0.32 0.33 0.37 0.47 0.63 0.74 0.77 0.74 0.70 0.70 0.72 0.75 0.79 0.80 0.77 0.76
1.81 1.82 1.79 1.70 1.71 1.66 1.55 1.45 1.46 1.49 1.39 1.29 1.18 1.07 0.85 0.71 0.60 0.52 0.43 0.39 0.36 0.35 0.32 0.33 0.34 0.34 0.33 0.31 0.29 0.30 0.36 0.49 0.65 0.78 0.82 0.82 0.81 0.85 0.91 0.95 0.96 0.94 0.94
1.87 1.80 1.83 1.86 1.84 1.81 1.70 1.60 1.52 1.49 1.50 1.44 1.36 1.37 1.08 0.78 0.61 0.54 0.48 0.42 0.39 0.39 0.38 0.38 0.37 0.36 0.35 0.34 0.32 0.31 0.32 0.36 0.51 0.74 0.91 0.97 0.97 0.99 1.05 1.11 1.15 1.16 1.13
1.90 1.85 1.83 1.83 1.86 1.82 1.74 1.76 1.74 1.56 1.54 1.55 1.50 1.37 1.16 0.91 0.81 0.67 0.56 0.51 0.46 0.42 0.42 0.42 0.40 0.39 0.39 0.38 0.37 0.38 0.40 0.40 0.49 0.71 0.96 1.09 1.12 1.17 1.29 1.39 1.46 1.43 1.34
1.83 1.77 1.75 1.78 1.76 1.77 1.74 1.77 1.80 1.77 1.66 1.60 1.55 1.49 1.43 1.22 1.02 0.94 0.77 0.64 0.60 0.53 0.51 0.50 0.49 0.48 0.46 0.45 0.44 0.47 0.52 0.53 0.60 0.73 0.93 1.11 1.23 1.32 1.43 1.54 1.63 1.66 1.58
1.70 1.65 1.62 1.62 1.66 1.67 1.66 1.70 1.79 1.84 1.82 1.68 1.55 1.44 1.40 1.32 1.16 1.11 0.98 0.78 0.71 0.61 0.57 0.55 0.54 0.55 0.59 0.60 0.62 0.72 0.71 0.72 0.78 0.84 0.97 1.12 1.24 1.34 1.46 1.59 1.70 1.75 1.75
1.59 1.53 1.52 1.53 1.58 1.60 1.65 1.75 1.80 1.80 1.82 1.77 1.68 1.56 1.47 1.35 1.27 1.26 1.22 1.02 0.86 0.71 0.66 0.63 0.60 0.60 0.64 0.70 0.76 0.90 0.86 0.88 0.91 0.95 1.08 1.23 1.27 1.27 1.30 1.41 1.56 1.67 1.71
1.42 1.44 1.51 1.54 1.58 1.61 1.62 1.65 1.66 1.65 1.70 1.69 1.64 1.56 1.47 1.37 1.38 1.39 1.37 1.40 1.29 1.03 0.89 0.80 0.74 0.74 0.76 0.82 0.93 1.03 0.91 0.98 0.94 0.94 1.03 1.13 1.12 1.08 1.07 1.15 1.35 1.53 1.61
1.29 1.32 1.40 1.46 1.47 1.49 1.50 1.53 1.52 1.49 1.53 1.57 1.57 1.54 1.46 1.33 1.30 1.32 1.34 1.41 1.51 1.35 1.04 0.82 0.78 0.78 0.81 0.84 0.95 0.92 0.86 1.00 1.00 0.94 0.94 0.94 0.92 0.89 0.87 0.88 0.98 1.14 1.26
1.09 1.11 1.19 1.27 1.28 1.27 1.29 1.35 1.37 1.35 1.38 1.36 1.37 1.43 1.43 1.34 1.28 1.27 1.30 1.35 1.42 1.47 1.24 0.85 0.74 0.76 0.81 0.83 0.92 0.82 0.78 0.93 0.91 0.89 0.85 0.82 0.81 0.78 0.76 0.75 0.78 0.86 0.95
0.98 1.02 1.04 1.10 1.13 1.12 1.13 1.16 1.16 1.18 1.23 1.22 1.21 1.23 1.25 1.27 1.31 1.29 1.28 1.33 1.37 1.42 1.38 1.02 0.83 0.82 0.88 0.89 0.89 0.81 0.74 0.73 0.73 0.84 0.80 0.75 0.73 0.71 0.70 0.69 0.69 0.71 0.73
0.87 0.87 0.90 0.93 0.95 0.94 0.94 0.97 1.01 1.02 1.05 1.08 1.07 1.10 1.11 1.13 1.18 1.21 1.25 1.30 1.33 1.33 1.34 1.18 0.94 0.85 0.83 0.81 0.80 0.77 0.72 0.67 0.62 0.75 0.74 0.71 0.68 0.65 0.63 0.62 0.64 0.67 0.67
0.89 0.81 0.78 0.80 0.81 0.82 0.82 0.82 0.85 0.87 0.90 0.95 0.97 0.98 0.99 1.04 1.10 1.11 1.13 1.15 1.15 1.15 1.19 1.16 0.98 0.82 0.76 0.73 0.73 0.70 0.65 0.62 0.57 0.62 0.65 0.66 0.65 0.65 0.65 0.64 0.66 0.65 0.62
0.82 0.78 0.73 0.69 0.69 0.72 0.76 0.78 0.79 0.80 0.82 0.86 0.91 0.96 0.97 0.97 0.98 1.00 1.04 1.05 1.02 1.02 1.03 1.06 0.99 0.89 0.83 0.78 0.81 0.79 0.74 0.67 0.62 0.56 0.62 0.63 0.66 0.66 0.62 0.59 0.57 0.60 0.59
0.70 0.70 0.68 0.67 0.64 0.65 0.69 0.73 0.76 0.78 0.80 0.83 0.84 0.88 0.95 1.04 1.05 1.01 0.97 0.95 0.95 0.99 1.02 1.08 1.04 0.90 0.78 0.75 0.75 0.70 0.71 0.72 0.71 0.66 0.65 0.60 0.55 0.51 0.49 0.51 0.54 0.58 0.63
0.64 0.67 0.69 0.71 0.72 0.75 0.90 0.87 0.80 0.80 0.84 0.84 0.81 0.79 0.80 0.88 0.89 0.91 0.90 0.87 0.90 0.97 1.07 1.11 1.00 0.82 0.66 0.60 0.60 0.66 0.73 0.80 0.74 0.57 0.58 0.58 0.54 0.54 0.49 0.46 0.55 0.59 0.61
0.74 0.79 0.83 0.86 0.87 0.92 1.03 0.93 0.89 0.80 0.82 0.83 0.79 0.74 0.69 0.67 0.70 0.64 0.69 0.73 0.75 0.83 0.86 0.77 0.71 0.61 0.57 0.56 0.66 0.76 0.75 0.75 0.63 0.50 0.57 0.63 0.57 0.56 0.50 0.50 0.57 0.54 0.55
0.99 1.02 1.06 1.07 1.07 1.06 1.05 0.94 0.91 0.78 0.75 0.72 0.66 0.59 0.55 0.51 0.49 0.51 0.54 0.62 0.60 0.59 0.58 0.53 0.50 0.48 0.48 0.51 0.63 0.77 0.79 0.78 0.65 0.54 0.54 0.60 0.50 0.48 0.46 0.47 0.55 0.54 0.54
1.12 1.09 1.06 1.04 1.00 0.96 0.93 0.83 0.74 0.63 0.61 0.59 0.54 0.50 0.49 0.45 0.52 0.58 0.56 0.57 0.48 0.42 0.46 0.51 0.53 0.53 0.55 0.56 0.58 0.70 0.82 0.90 0.81 0.57 0.47 0.50 0.45 0.43 0.44 0.43 0.45 0.52 0.53
0.90 0.85 0.82 0.78 0.75 0.70 0.69 0.64 0.60 0.52 0.48 0.45 0.44 0.44 0.50 0.48 0.55 0.61 0.55 0.51 0.45 0.38 0.39 0.43 0.47 0.49 0.47 0.50 0.57 0.58 0.73 0.99 0.90 0.67 0.39 0.46 0.50 0.57 0.73 0.47 0.39 0.42 0.47

GEFSMA_prec_meanprecacc_228.txt.gz
Total_Precipitation_Accumulation
1.21 1.08 1.00 0.89 0.80 0.66 0.55 0.56 0.62 0.55 0.51 0.45 0.38 0.34 0.34 0.28 0.22 0.20 0.19 0.22 0.23 0.32 0.42 0.49 0.47 0.45 0.46 0.48 0.52 0.53 0.50 0.45 0.42 0.41 0.40 0.38 0.37 0.37 0.39 0.39 0.39 0.39 0.42
1.32 1.25 1.06 0.92 0.84 0.75 0.62 0.54 0.57 0.63 0.60 0.56 0.51 0.44 0.42 0.37 0.29 0.25 0.23 0.26 0.27 0.31 0.40 0.44 0.48 0.53 0.60 0.66 0.68 0.66 0.60 0.55 0.53 0.52 0.51 0.48 0.45 0.42 0.42 0.42 0.41 0.42 0.45
1.39 1.35 1.19 0.97 0.88 0.89 0.81 0.70 0.68 0.71 0.67 0.56 0.49 0.49 0.46 0.39 0.33 0.30 0.28 0.28 0.28 0.30 0.39 0.45 0.44 0.48 0.62 0.72 0.77 0.78 0.71 0.64 0.62 0.60 0.57 0.55 0.52 0.50 0.52 0.52 0.49 0.46 0.46
1.54 1.50 1.36 1.13 1.09 1.14 1.06 0.91 0.81 0.74 0.68 0.61 0.52 0.51 0.47 0.43 0.37 0.36 0.33 0.31 0.30 0.31 0.39 0.47 0.44 0.44 0.54 0.65 0.78 0.88 0.86 0.79 0.73 0.67 0.61 0.58 0.55 0.56 0.59 0.60 0.60 0.56 0.55
1.59 1.53 1.43 1.35 1.33 1.30 1.20 1.05 0.93 0.86 0.73 0.69 0.64 0.61 0.59 0.56 0.48 0.43 0.39 0.38 0.34 0.35 0.44 0.49 0.45 0.41 0.45 0.49 0.63 0.79 0.88 0.87 0.77 0.67 0.64 0.62 0.59 0.59 0.61 0.63 0.61 0.59 0.59
1.64 1.59 1.46 1.45 1.50 1.45 1.36 1.26 1.10 1.00 0.90 0.83 0.80 0.71 0.70 0.71 0.62 0.48 0.42 0.41 0.40 0.41 0.48 0.49 0.43 0.40 0.43 0.40 0.44 0.59 0.75 0.85 0.85 0.75 0.68 0.64 0.64 0.64 0.66 0.69 0.69 0.65 0.64
1.90 1.79 1.58 1.54 1.58 1.47 1.38 1.41 1.42 1.32 1.17 1.07 1.00 0.84 0.75 0.73 0.68 0.53 0.43 0.41 0.42 0.44 0.46 0.46 0.43 0.39 0.37 0.33 0.36 0.43 0.54 0.69 0.79 0.81 0.76 0.72 0.72 0.74 0.77 0.82 0.84 0.82 0.81
1.87 1.88 1.85 1.75 1.75 1.71 1.61 1.52 1.54 1.55 1.45 1.35 1.26 1.16 0.94 0.80 0.67 0.57 0.48 0.44 0.45 0.48 0.46 0.45 0.43 0.40 0.36 0.33 0.31 0.34 0.43 0.57 0.71 0.82 0.85 0.84 0.83 0.87 0.93 0.97 0.99 0.98 0.97
1.91 1.85 1.90 1.92 1.90 1.86 1.75 1.66 1.60 1.57 1.57 1.50 1.43 1.45 1.16 0.87 0.68 0.61 0.53 0.48 0.46 0.47 0.49 0.51 0.47 0.43 0.40 0.37 0.34 0.35 0.38 0.44 0.58 0.79 0.96 1.00 0.99 1.01 1.07 1.14 1.18 1.21 1.17
1.93 1.90 1.88 1.89 1.92 1.87 1.78 1.80 1.79 1.63 1.63 1.63 1.57 1.43 1.22 0.96 0.86 0.72 0.61 0.57 0.52 0.48 0.48 0.49 0.48 0.45 0.44 0.42 0.40 0.42 0.44 0.46 0.56 0.78 1.02 1.14 1.17 1.21 1.32 1.42 1.49 1.48 1.39
1.86 1.81 1.81 1.83 1.82 1.83 1.79 1.81 1.84 1.82 1.72 1.67 1.62 1.55 1.47 1.25 1.06 0.98 0.81 0.68 0.65 0.58 0.56 0.55 0.54 0.52 0.49 0.48 0.46 0.50 0.56 0.57 0.66 0.81 1.01 1.19 1.30 1.38 1.48 1.58 1.66 1.70 1.62
1.73 1.69 1.66 1.67 1.72 1.72 1.71 1.75 1.84 1.89 1.85 1.72 1.60 1.49 1.45 1.37 1.20 1.15 1.02 0.81 0.75 0.65 0.62 0.60 0.58 0.59 0.62 0.63 0.64 0.75 0.74 0.75 0.82 0.91 1.06 1.22 1.34 1.42 1.53 1.65 1.74 1.78 1.78
1.60 1.56 1.56 1.57 1.63 1.65 1.70 1.81 1.87 1.87 1.89 1.84 1.74 1.62 1.52 1.40 1.31 1.30 1.27 1.07 0.90 0.75 0.69 0.67 0.64 0.64 0.68 0.74 0.79 0.94 0.90 0.92 0.94 1.00 1.16 1.34 1.39 1.39 1.40 1.48 1.62 1.70 1.74
1.45 1.47 1.55 1.59 1.63 1.67 1.67 1.71 1.73 1.74 1.79 1.78 1.72 1.63 1.53 1.41 1.42 1.43 1.40 1.43 1.33 1.06 0.92 0.83 0.77 0.78 0.81 0.87 0.98 1.08 0.96 1.04 1.00 0.99 1.09 1.22 1.24 1.20 1.18 1.24 1.41 1.58 1.64
1.32 1.35 1.43 1.51 1.52 1.55 1.57 1.59 1.58 1.56 1.61 1.65 1.65 1.60 1.52 1.38 1.34 1.34 1.36 1.44 1.54 1.38 1.06 0.84 0.80 0.80 0.84 0.88 1.00 0.96 0.90 1.06 1.06 0.99 0.99 1.00 1.00 0.98 0.97 0.99 1.06 1.20 1.30
1.11 1.14 1.22 1.31 1.34 1.33 1.35 1.41 1.43 1.41 1.45 1.43 1.44 1.50 1.48 1.38 1.31 1.29 1.32 1.38 1.45 1.49 1.26 0.86 0.76 0.77 0.83 0.87 0.96 0.86 0.81 0.98 0.97 0.94 0.90 0.88 0.87 0.84 0.83 0.83 0.86 0.92 1.00
1.00 1.04 1.07 1.13 1.17 1.18 1.19 1.22 1.22 1.25 1.31 1.31 1.29 1.30 1.31 1.31 1.34 1.32 1.32 1.36 1.40 1.45 1.41 1.03 0.84 0.83 0.91 0.92 0.93 0.86 0.79 0.77 0.78 0.90 0.85 0.80 0.78 0.77 0.76 0.75 0.75 0.76 0.78
0.89 0.89 0.92 0.96 0.97 0.97 0.98 1.03 1.06 1.09 1.13 1.16 1.15 1.18 1.18 1.19 1.23 1.25 1.30 1.34 1.36 1.36 1.37 1.20 0.96 0.87 0.85 0.84 0.83 0.81 0.76 0.71 0.67 0.81 0.80 0.76 0.74 0.71 0.69 0.68 0.71 0.73 0.73
0.92 0.83 0.80 0.82 0.83 0.84 0.84 0.86 0.88 0.91 0.95 1.00 1.04 1.05 1.07 1.12 1.17 1.17 1.19 1.19 1.19 1.20 1.22 1.19 1.01 0.86 0.79 0.75 0.76 0.73 0.69 0.65 0.60 0.66 0.70 0.72 0.72 0.71 0.71 0.70 0.72 0.72 0.69
0.83 0.79 0.74 0.71 0.71 0.75 0.78 0.80 0.81 0.82 0.85 0.89 0.95 1.00 1.02 1.04 1.05 1.06 1.10 1.10 1.08 1.08 1.08 1.10 1.03 0.93 0.86 0.81 0.83 0.82 0.77 0.70 0.65 0.59 0.66 0.68 0.71 0.71 0.66 0.63 0.62 0.66 0.67
0.72 0.71 0.69 0.68 0.65 0.67 0.71 0.75 0.78 0.80 0.82 0.85 0.87 0.91 0.98 1.09 1.11 1.06 1.03 1.02 1.03 1.07 1.10 1.14 1.09 0.95 0.82 0.78 0.78 0.73 0.74 0.75 0.74 0.69 0.68 0.63 0.58 0.54 0.52 0.55 0.58 0.63 0.68
0.65 0.69 0.70 0.71 0.72 0.75 0.92 0.89 0.82 0.83 0.87 0.86 0.84 0.82 0.84 0.92 0.94 0.96 0.95 0.92 0.96 1.05 1.16 1.19 1.06 0.87 0.70 0.63 0.63 0.69 0.76 0.83 0.77 0.59 0.60 0.61 0.58 0.57 0.52 0.49 0.59 0.63 0.65
0.75 0.80 0.84 0.87 0.87 0.93 1.04 0.95 0.91 0.82 0.83 0.86 0.83 0.77 0.72 0.70 0.74 0.68 0.74 0.78 0.80 0.89 0.93 0.85 0.78 0.68 0.61 0.60 0.70 0.80 0.78 0.77 0.66 0.52 0.59 0.65 0.60 0.59 0.52 0.52 0.61 0.58 0.59
1.00 1.03 1.07 1.08 1.08 1.07 1.06 0.95 0.92 0.80 0.76 0.74 0.69 0.62 0.58 0.53 0.52 0.55 0.58 0.66 0.64 0.63 0.64 0.60 0.57 0.54 0.54 0.56 0.67 0.82 0.84 0.83 0.69 0.56 0.56 0.62 0.53 0.51 0.50 0.51 0.59 0.58 0.58
1.14 1.10 1.07 1.05 1.01 0.97 0.95 0.84 0.76 0.65 0.63 0.60 0.56 0.52 0.51 0.47 0.55 0.61 0.59 0.61 0.51 0.46 0.51 0.57 0.60 0.60 0.63 0.63 0.64 0.77 0.89 0.98 0.87 0.61 0.49 0.53 0.47 0.45 0.48 0.48 0.50 0.55 0.56
0.91 0.86 0.83 0.80 0.77 0.72 0.71 0.66 0.62 0.54 0.51 0.47 0.45 0.46 0.52 0.51 0.58 0.64 0.58 0.54 0.47 0.41 0.42 0.47 0.52 0.55 0.54 0.57 0.64 0.65 0.79 1.05 0.95 0.71 0.42 0.49 0.52 0.59 0.76 0.51 0.43 0.45 0.49

GEFSMA_prec_meanprecacc_234.txt.gz
Total_Precipitation_Accumulation
1.23 1.10 1.03 0.92 0.82 0.69 0.57 0.58 0.65 0.59 0.55 0.48 0.40 0.35 0.34 0.29 0.23 0.20 0.20 0.22 0.24 0.36 0.48 0.54 0.51 0.49 0.53 0.55 0.56 0.57 0.53 0.48 0.44 0.44 0.42 0.39 0.38 0.38 0.40 0.40 0.39 0.40 0.43
1.34 1.26 1.08 0.94 0.87 0.78 0.64 0.56 0.60 0.66 0.64 0.61 0.54 0.46 0.43 0.38 0.30 0.26 0.24 0.26 0.28 0.33 0.42 0.46 0.51 0.58 0.67 0.73 0.74 0.70 0.64 0.59 0.56 0.54 0.53 0.49 0.46 0.43 0.43 0.43 0.42 0.43 0.46
1.41 1.37 1.20 0.98 0.90 0.91 0.83 0.73 0.71 0.74 0.70 0.60 0.53 0.52 0.49 0.41 0.34 0.31 0.29 0.29 0.29 0.31 0.40 0.47 0.49 0.55 0.71 0.80 0.85 0.84 0.76 0.68 0.65 0.63 0.59 0.57 0.53 0.51 0.53 0.53 0.50 0.47 0.47
1.55 1.52 1.38 1.14 1.10 1.16 1.08 0.94 0.84 0.77 0.72 0.66 0.57 0.55 0.51 0.46 0.39 0.37 0.34 0.32 0.30 0.32 0.39 0.49 0.49 0.51 0.62 0.74 0.85 0.94 0.91 0.83 0.77 0.70 0.64 0.60 0.57 0.57 0.60 0.61 0.61 0.57 0.57
1.60 1.54 1.45 1.37 1.35 1.33 1.24 1.09 0.97 0.89 0.77 0.74 0.70 0.67 0.65 0.60 0.51 0.45 0.40 0.38 0.35 0.36 0.45 0.53 0.51 0.49 0.52 0.56 0.68 0.83 0.92 0.91 0.81 0.72 0.68 0.64 0.60 0.60 0.62 0.64 0.62 0.60 0.61
1.65 1.60 1.48 1.48 1.53 1.48 1.39 1.30 1.13 1.02 0.94 0.89 0.86 0.78 0.77 0.77 0.66 0.51 0.44 0.43 0.41 0.42 0.50 0.55 0.51 0.47 0.50 0.46 0.49 0.62 0.78 0.89 0.88 0.80 0.74 0.68 0.66 0.66 0.68 0.70 0.70 0.66 0.64
1.90 1.80 1.60 1.57 1.60 1.51 1.41 1.45 1.46 1.35 1.21 1.11 1.05 0.90 0.83 0.80 0.73 0.55 0.44 0.43 0.45 0.48 0.53 0.53 0.49 0.46 0.45 0.41 0.41 0.46 0.57 0.74 0.83 0.85 0.81 0.76 0.75 0.76 0.79 0.83 0.85 0.83 0.81
1.88 1.89 1.86 1.77 1.77 1.74 1.65 1.56 1.57 1.59 1.48 1.39 1.29 1.20 1.01 0.88 0.73 0.60 0.50 0.46 0.48 0.53 0.55 0.53 0.49 0.46 0.42 0.39 0.36 0.38 0.46 0.62 0.77 0.87 0.89 0.87 0.86 0.90 0.95 0.99 1.01 0.99 0.98
1.93 1.86 1.91 1.94 1.92 1.89 1.78 1.70 1.64 1.60 1.61 1.54 1.47 1.50 1.21 0.92 0.73 0.65 0.56 0.51 0.50 0.52 0.56 0.57 0.54 0.51 0.47 0.43 0.39 0.38 0.41 0.48 0.65 0.86 1.01 1.04 1.03 1.05 1.11 1.17 1.21 1.23 1.18
1.96 1.93 1.91 1.92 1.95 1.91 1.83 1.83 1.83 1.67 1.67 1.67 1.62 1.49 1.27 1.00 0.90 0.77 0.66 0.61 0.56 0.53 0.54 0.54 0.53 0.52 0.52 0.50 0.47 0.47 0.48 0.49 0.62 0.86 1.09 1.20 1.22 1.27 1.37 1.46 1.53 1.51 1.42
1.89 1.84 1.84 1.87 1.86 1.88 1.85 1.86 1.88 1.85 1.76 1.71 1.66 1.60 1.52 1.31 1.10 1.02 0.86 0.73 0.70 0.63 0.59 0.58 0.58 0.57 0.54 0.54 0.52 0.56 0.61 0.61 0.71 0.87 1.08 1.25 1.36 1.46 1.56 1.66 1.73 1.75 1.66
1.75 1.71 1.69 1.69 1.76 1.79 1.79 1.82 1.89 1.94 1.90 1.77 1.65 1.55 1.50 1.41 1.24 1.18 1.05 0.85 0.80 0.70 0.66 0.63 0.62 0.63 0.66 0.66 0.68 0.79 0.78 0.79 0.86 0.95 1.10 1.27 1.38 1.48 1.60 1.73 1.82 1.85 1.84
1.63 1.58 1.58 1.59 1.65 1.68 1.74 1.86 1.92 1.93 1.95 1.90 1.81 1.69 1.58 1.45 1.35 1.34 1.30 1.10 0.95 0.79 0.74 0.70 0.66 0.66 0.71 0.76 0.82 0.97 0.93 0.95 0.97 1.04 1.20 1.38 1.43 1.43 1.46 1.56 1.72 1.80 1.82
1.48 1.49 1.57 1.61 1.64 1.68 1.69 1.73 1.77 1.77 1.84 1.85 1.81 1.72 1.62 1.49 1.47 1.47 1.44 1.47 1.36 1.10 0.95 0.86 0.79 0.79 0.82 0.89 1.00 1.11 0.99 1.07 1.02 1.02 1.14 1.27 1.28 1.23 1.22 1.31 1.51 1.70 1.76
1.36 1.38 1.45 1.52 1.53 1.56 1.58 1.61 1.60 1.58 1.64 1.70 1.71 1.68 1.59 1.45 1.41 1.40 1.41 1.48 1.58 1.42 1.09 0.86 0.82 0.82 0.86 0.90 1.02 0.99 0.92 1.09 1.09 1.02 1.03 1.05 1.04 1.02 1.00 1.04 1.15 1.30 1.41
1.15 1.17 1.24 1.32 1.35 1.34 1.36 1.42 1.45 1.43 1.48 1.47 1.48 1.54 1.52 1.43 1.36 1.34 1.36 1.41 1.48 1.52 1.29 0.87 0.76 0.78 0.85 0.89 0.99 0.89 0.85 1.03 1.01 0.98 0.95 0.92 0.92 0.89 0.87 0.88 0.93 1.03 1.11
1.03 1.08 1.09 1.15 1.18 1.19 1.20 1.23 1.23 1.27 1.34 1.34 1.33 1.35 1.35 1.36 1.39 1.36 1.35 1.39 1.43 1.48 1.43 1.05 0.85 0.84 0.92 0.95 0.96 0.88 0.81 0.81 0.83 0.96 0.91 0.85 0.83 0.81 0.81 0.82 0.82 0.84 0.87
0.91 0.91 0.95 0.99 0.99 0.99 1.00 1.05 1.08 1.11 1.15 1.20 1.20 1.23 1.23 1.24 1.27 1.29 1.34 1.37 1.39 1.39 1.39 1.23 0.98 0.89 0.88 0.86 0.86 0.84 0.78 0.73 0.70 0.85 0.86 0.82 0.79 0.75 0.73 0.74 0.78 0.80 0.80
0.93 0.84 0.82 0.86 0.87 0.86 0.87 0.88 0.90 0.93 0.98 1.03 1.08 1.11 1.12 1.17 1.22 1.22 1.24 1.24 1.23 1.23 1.25 1.21 1.04 0.88 0.82 0.78 0.80 0.77 0.72 0.68 0.63 0.69 0.74 0.77 0.77 0.75 0.75 0.74 0.78 0.79 0.76
0.84 0.81 0.76 0.73 0.75 0.79 0.82 0.84 0.84 0.84 0.87 0.93 0.99 1.05 1.07 1.09 1.10 1.12 1.16 1.16 1.12 1.12 1.12 1.13 1.06 0.96 0.90 0.85 0.87 0.86 0.82 0.74 0.68 0.62 0.68 0.71 0.77 0.77 0.72 0.68 0.67 0.71 0.72
0.74 0.74 0.72 0.70 0.68 0.70 0.75 0.79 0.81 0.83 0.84 0.88 0.90 0.94 1.02 1.13 1.16 1.12 1.09 1.08 1.08 1.12 1.15 1.19 1.14 1.00 0.87 0.83 0.82 0.77 0.79 0.79 0.77 0.72 0.70 0.65 0.62 0.60 0.58 0.60 0.63 0.67 0.73
0.67 0.71 0.73 0.74 0.75 0.78 0.95 0.93 0.85 0.85 0.89 0.88 0.86 0.84 0.86 0.95 0.98 1.01 1.00 0.98 1.02 1.12 1.22 1.25 1.12 0.93 0.76 0.70 0.69 0.74 0.81 0.87 0.80 0.62 0.62 0.63 0.61 0.62 0.57 0.54 0.64 0.67 0.70
0.77 0.81 0.86 0.89 0.89 0.95 1.06 0.97 0.93 0.84 0.85 0.87 0.85 0.80 0.75 0.74 0.78 0.72 0.79 0.84 0.87 0.96 1.00 0.92 0.85 0.74 0.67 0.66 0.76 0.86 0.83 0.81 0.69 0.56 0.63 0.69 0.64 0.63 0.57 0.58 0.67 0.63 0.64
1.01 1.05 1.08 1.10 1.10 1.09 1.08 0.96 0.94 0.81 0.78 0.75 0.71 0.65 0.61 0.56 0.56 0.61 0.64 0.71 0.69 0.69 0.70 0.65 0.63 0.60 0.59 0.62 0.74 0.88 0.88 0.87 0.73 0.60 0.60 0.66 0.56 0.55 0.54 0.56 0.64 0.63 0.63
1.14 1.11 1.08 1.06 1.03 0.99 0.97 0.86 0.78 0.66 0.65 0.62 0.57 0.54 0.54 0.50 0.58 0.66 0.64 0.65 0.56 0.50 0.56 0.63 0.67 0.67 0.69 0.70 0.71 0.83 0.94 1.03 0.92 0.65 0.53 0.57 0.51 0.48 0.51 0.52 0.54 0.59 0.59
0.92 0.87 0.84 0.81 0.78 0.73 0.73 0.68 0.65 0.56 0.53 0.48 0.46 0.47 0.54 0.53 0.60 0.67 0.61 0.58 0.51 0.44 0.45 0.52 0.57 0.61 0.59 0.62 0.71 0.71 0.86 1.11 1.00 0.75 0.45 0.53 0.57 0.63 0.80 0.55 0.46 0.48 0.51

GEFSMA_prec_meanprecacc_240.txt.gz
Total_Precipitation_Accumulation
1.28 1.17 1.12 0.99 0.88 0.73 0.60 0.61 0.67 0.60 0.57 0.52 0.44 0.38 0.37 0.31 0.25 0.22 0.20 0.22 0.24 0.36 0.50 0.57 0.55 0.53 0.56 0.60 0.60 0.60 0.56 0.51 0.46 0.46 0.44 0.41 0.40 0.39 0.40 0.41 0.40 0.40 0.43
1.40 1.32 1.16 1.01 0.94 0.84 0.69 0.60 0.63 0.69 0.67 0.64 0.58 0.49 0.46 0.40 0.31 0.27 0.25 0.27 0.28 0.33 0.44 0.49 0.54 0.62 0.71 0.78 0.78 0.73 0.67 0.62 0.58 0.56 0.55 0.51 0.48 0.44 0.44 0.43 0.43 0.43 0.46
1.47 1.44 1.27 1.05 0.97 0.96 0.88 0.77 0.75 0.78 0.74 0.63 0.56 0.55 0.52 0.44 0.37 0.33 0.30 0.29 0.29 0.31 0.40 0.48 0.50 0.58 0.76 0.85 0.89 0.88 0.79 0.70 0.68 0.65 0.62 0.59 0.55 0.53 0.54 0.54 0.51 0.48 0.47
1.60 1.58 1.44 1.20 1.16 1.22 1.13 0.97 0.88 0.81 0.76 0.69 0.60 0.58 0.54 0.49 0.42 0.40 0.36 0.32 0.30 0.32 0.40 0.50 0.50 0.55 0.65 0.79 0.91 0.98 0.94 0.86 0.79 0.73 0.67 0.63 0.60 0.58 0.61 0.62 0.62 0.58 0.58
1.63 1.58 1.50 1.40 1.39 1.37 1.28 1.12 1.00 0.93 0.80 0.77 0.73 0.70 0.69 0.64 0.56 0.49 0.43 0.40 0.36 0.36 0.46 0.55 0.55 0.56 0.56 0.60 0.75 0.88 0.95 0.94 0.84 0.74 0.70 0.66 0.63 0.63 0.64 0.65 0.63 0.61 0.62
1.66 1.62 1.51 1.52 1.57 1.52 1.43 1.34 1.17 1.06 0.98 0.93 0.90 0.81 0.81 0.82 0.71 0.56 0.49 0.46 0.44 0.45 0.53 0.58 0.55 0.52 0.53 0.49 0.53 0.68 0.83 0.93 0.92 0.84 0.78 0.71 0.69 0.69 0.70 0.72 0.71 0.67 0.65
1.92 1.81 1.61 1.59 1.64 1.53 1.44 1.48 1.50 1.39 1.26 1.16 1.10 0.95 0.88 0.85 0.78 0.60 0.48 0.47 0.48 0.52 0.56 0.56 0.53 0.49 0.47 0.44 0.44 0.50 0.62 0.79 0.89 0.90 0.86 0.81 0.79 0.79 0.81 0.86 0.88 0.85 0.83
1.91 1.91 1.87 1.78 1.79 1.76 1.67 1.58 1.60 1.63 1.53 1.42 1.32 1.24 1.06 0.95 0.79 0.65 0.55 0.50 0.52 0.57 0.58 0.56 0.53 0.49 0.44 0.41 0.39 0.42 0.51 0.67 0.82 0.93 0.94 0.91 0.89 0.93 0.98 1.03 1.04 1.02 1.01
1.96 1.88 1.92 1.95 1.93 1.90 1.80 1.71 1.66 1.64 1.65 1.58 1.50 1.53 1.24 0.95 0.78 0.71 0.61 0.55 0.54 0.56 0.59 0.60 0.57 0.53 0.49 0.46 0.43 0.42 0.45 0.55 0.73 0.94 1.08 1.10 1.07 1.07 1.14 1.21 1.25 1.27 1.21
1.99 1.95 1.92 1.93 1.96 1.92 1.84 1.84 1.85 1.70 1.70 1.70 1.66 1.52 1.30 1.02 0.92 0.80 0.70 0.65 0.60 0.57 0.58 0.58 0.55 0.53 0.54 0.52 0.50 0.51 0.54 0.58 0.73 0.98 1.21 1.30 1.28 1.30 1.40 1.50 1.57 1.57 1.47
1.91 1.86 1.85 1.88 1.87 1.89 1.86 1.88 1.91 1.88 1.78 1.72 1.68 1.62 1.55 1.33 1.12 1.04 0.89 0.77 0.74 0.66 0.62 0.61 0.60 0.59 0.56 0.56 0.54 0.59 0.65 0.68 0.79 0.97 1.18 1.34 1.42 1.50 1.60 1.70 1.77 1.79 1.71
1.79 1.73 1.70 1.71 1.77 1.80 1.81 1.85 1.92 1.97 1.92 1.78 1.67 1.57 1.53 1.43 1.26 1.20 1.07 0.89 0.84 0.74 0.68 0.65 0.63 0.64 0.67 0.68 0.71 0.83 0.81 0.83 0.90 1.00 1.17 1.35 1.45 1.52 1.64 1.77 1.87 1.90 1.89
1.74 1.63 1.61 1.62 1.67 1.69 1.77 1.91 1.97 1.98 2.00 1.93 1.84 1.72 1.61 1.47 1.37 1.37 1.33 1.14 0.98 0.83 0.78 0.74 0.70 0.69 0.73 0.79 0.85 1.00 0.96 0.98 1.00 1.07 1.25 1.44 1.49 1.48 1.50 1.60 1.75 1.84 1.87
1.57 1.58 1.63 1.65 1.67 1.71 1.72 1.78 1.82 1.83 1.89 1.89 1.84 1.76 1.67 1.54 1.51 1.51 1.47 1.51 1.40 1.14 0.99 0.90 0.83 0.82 0.86 0.91 1.03 1.14 1.02 1.11 1.06 1.06 1.18 1.31 1.33 1.28 1.27 1.35 1.55 1.72 1.78
1.41 1.44 1.50 1.57 1.58 1.60 1.62 1.65 1.65 1.63 1.68 1.73 1.74 1.70 1.62 1.49 1.46 1.45 1.45 1.52 1.63 1.46 1.13 0.89 0.86 0.86 0.90 0.93 1.05 1.01 0.94 1.12 1.13 1.06 1.07 1.08 1.08 1.06 1.03 1.06 1.17 1.33 1.44
1.18 1.23 1.31 1.37 1.39 1.38 1.40 1.45 1.48 1.47 1.51 1.49 1.50 1.56 1.55 1.46 1.40 1.38 1.41 1.46 1.53 1.57 1.33 0.90 0.79 0.81 0.88 0.93 1.03 0.92 0.88 1.06 1.06 1.03 0.99 0.95 0.94 0.91 0.89 0.90 0.95 1.05 1.14
1.05 1.10 1.14 1.20 1.22 1.22 1.23 1.26 1.26 1.30 1.36 1.37 1.36 1.37 1.38 1.38 1.42 1.39 1.39 1.44 1.48 1.52 1.47 1.08 0.87 0.86 0.95 0.98 1.00 0.92 0.86 0.86 0.88 1.02 0.97 0.91 0.87 0.84 0.83 0.84 0.84 0.86 0.89
0.94 0.95 0.99 1.03 1.03 1.02 1.03 1.07 1.10 1.13 1.17 1.22 1.22 1.25 1.25 1.26 1.29 1.32 1.37 1.41 1.43 1.42 1.43 1.25 1.00 0.91 0.90 0.90 0.90 0.89 0.84 0.79 0.75 0.93 0.93 0.89 0.85 0.80 0.77 0.77 0.80 0.82 0.81
0.96 0.87 0.86 0.91 0.92 0.91 0.91 0.91 0.93 0.95 0.99 1.04 1.10 1.12 1.14 1.19 1.24 1.24 1.26 1.26 1.25 1.26 1.28 1.24 1.06 0.90 0.85 0.82 0.85 0.83 0.79 0.75 0.69 0.76 0.82 0.85 0.84 0.82 0.81 0.80 0.82 0.82 0.78
0.86 0.84 0.79 0.77 0.80 0.84 0.87 0.88 0.88 0.88 0.89 0.94 1.01 1.07 1.09 1.11 1.12 1.13 1.18 1.18 1.15 1.15 1.16 1.17 1.10 0.99 0.93 0.89 0.93 0.93 0.90 0.81 0.76 0.69 0.75 0.77 0.83 0.83 0.77 0.73 0.71 0.74 0.76
0.76 0.76 0.74 0.73 0.71 0.75 0.79 0.83 0.85 0.88 0.88 0.91 0.92 0.96 1.03 1.15 1.18 1.14 1.11 1.10 1.11 1.15 1.19 1.24 1.19 1.05 0.92 0.88 0.88 0.85 0.88 0.87 0.85 0.79 0.76 0.71 0.66 0.63 0.62 0.64 0.67 0.70 0.77
0.69 0.73 0.75 0.77 0.78 0.81 0.99 0.98 0.90 0.90 0.93 0.92 0.89 0.87 0.89 0.97 0.99 1.03 1.03 1.01 1.06 1.16 1.26 1.30 1.18 0.99 0.82 0.74 0.73 0.80 0.89 0.95 0.89 0.69 0.67 0.67 0.65 0.66 0.61 0.59 0.69 0.72 0.74
0.79 0.84 0.88 0.91 0.91 0.98 1.10 1.00 0.96 0.87 0.89 0.92 0.89 0.83 0.77 0.76 0.80 0.74 0.81 0.87 0.90 1.00 1.04 0.96 0.89 0.79 0.72 0.70 0.81 0.91 0.90 0.89 0.77 0.63 0.68 0.75 0.70 0.69 0.63 0.64 0.73 0.68 0.69
1.03 1.06 1.10 1.12 1.12 1.11 1.11 0.99 0.98 0.84 0.81 0.79 0.74 0.68 0.64 0.59 0.58 0.63 0.65 0.73 0.72 0.72 0.74 0.70 0.68 0.65 0.65 0.68 0.80 0.95 0.97 0.97 0.83 0.70 0.68 0.74 0.64 0.62 0.61 0.62 0.70 0.68 0.67
1.16 1.13 1.10 1.07 1.04 1.00 0.99 0.89 0.81 0.70 0.68 0.65 0.60 0.57 0.56 0.53 0.61 0.69 0.66 0.67 0.58 0.53 0.60 0.68 0.73 0.73 0.77 0.77 0.78 0.91 1.04 1.13 1.03 0.74 0.60 0.63 0.57 0.53 0.57 0.58 0.60 0.64 0.63
0.94 0.90 0.86 0.83 0.79 0.74 0.75 0.70 0.67 0.59 0.56 0.52 0.50 0.51 0.58 0.56 0.63 0.70 0.64 0.61 0.54 0.48 0.49 0.55 0.61 0.66 0.65 0.68 0.77 0.78 0.93 1.19 1.09 0.83 0.52 0.58 0.62 0.68 0.86 0.60 0.51 0.52 0.55